<?xml version="1.0" encoding="UTF-8" standalone="no" ?>
<gpx xmlns="http://www.topografix.com/GPX/1/1" xmlns:xsi="http://www.w3.org/2001/XMLSchema-instance" xsi:schemaLocation="http://www.topografix.com/GPX/1/1 http://www.topografix.com/GPX/1/1/gpx.xsd" version="1.1" creator="VisuGPX - https://www.visugpx.com">
  <metadata>
    <name>Gaillon La Croix Botremare Acquigny Ailly</name>
  </metadata>
  <trk>
    <name><![CDATA[Gaillon La Croix Botremare Acquigny Ailly]]></name>
    <trkseg>
      <trkpt lat="49.14799" lon="1.35809">
        <ele>26.200000762939</ele>
        <time>2021-04-23T08:29:03.000Z</time>
      </trkpt>
      <trkpt lat="49.14795" lon="1.35814">
        <ele>26.200000762939</ele>
        <time>2021-04-23T08:29:04.000Z</time>
      </trkpt>
      <trkpt lat="49.14774" lon="1.35843">
        <ele>26.39999961853</ele>
        <time>2021-04-23T08:29:11.000Z</time>
      </trkpt>
      <trkpt lat="49.14771" lon="1.35847">
        <ele>26.60000038147</ele>
        <time>2021-04-23T08:29:12.000Z</time>
      </trkpt>
      <trkpt lat="49.14761" lon="1.3587">
        <ele>27</ele>
        <time>2021-04-23T08:29:17.000Z</time>
      </trkpt>
      <trkpt lat="49.14756" lon="1.35887">
        <ele>27.60000038147</ele>
        <time>2021-04-23T08:29:20.000Z</time>
      </trkpt>
      <trkpt lat="49.14754" lon="1.35893">
        <ele>27.60000038147</ele>
        <time>2021-04-23T08:29:21.000Z</time>
      </trkpt>
      <trkpt lat="49.1475" lon="1.35912">
        <ele>28.200000762939</ele>
        <time>2021-04-23T08:29:24.000Z</time>
      </trkpt>
      <trkpt lat="49.1474" lon="1.35962">
        <ele>28.200000762939</ele>
        <time>2021-04-23T08:29:31.000Z</time>
      </trkpt>
      <trkpt lat="49.14735" lon="1.36013">
        <ele>27.39999961853</ele>
        <time>2021-04-23T08:29:38.000Z</time>
      </trkpt>
      <trkpt lat="49.14736" lon="1.36028">
        <ele>27.39999961853</ele>
        <time>2021-04-23T08:29:40.000Z</time>
      </trkpt>
      <trkpt lat="49.14741" lon="1.36043">
        <ele>27.200000762939</ele>
        <time>2021-04-23T08:29:42.000Z</time>
      </trkpt>
      <trkpt lat="49.14746" lon="1.36058">
        <ele>27.200000762939</ele>
        <time>2021-04-23T08:29:44.000Z</time>
      </trkpt>
      <trkpt lat="49.1475" lon="1.36081">
        <ele>27</ele>
        <time>2021-04-23T08:29:47.000Z</time>
      </trkpt>
      <trkpt lat="49.1475" lon="1.36103">
        <ele>26.799999237061</ele>
        <time>2021-04-23T08:29:50.000Z</time>
      </trkpt>
      <trkpt lat="49.1475" lon="1.36122">
        <ele>26.799999237061</ele>
        <time>2021-04-23T08:29:53.000Z</time>
      </trkpt>
      <trkpt lat="49.14757" lon="1.36127">
        <ele>26.799999237061</ele>
        <time>2021-04-23T08:29:56.000Z</time>
      </trkpt>
      <trkpt lat="49.14761" lon="1.36128">
        <ele>26.799999237061</ele>
        <time>2021-04-23T08:29:57.000Z</time>
      </trkpt>
      <trkpt lat="49.14778" lon="1.36134">
        <ele>26.799999237061</ele>
        <time>2021-04-23T08:30:01.000Z</time>
      </trkpt>
      <trkpt lat="49.14803" lon="1.36143">
        <ele>26.799999237061</ele>
        <time>2021-04-23T08:30:06.000Z</time>
      </trkpt>
      <trkpt lat="49.14827" lon="1.36147">
        <ele>26.60000038147</ele>
        <time>2021-04-23T08:30:11.000Z</time>
      </trkpt>
      <trkpt lat="49.14832" lon="1.36148">
        <ele>26.39999961853</ele>
        <time>2021-04-23T08:30:12.000Z</time>
      </trkpt>
      <trkpt lat="49.14851" lon="1.36155">
        <ele>25.39999961853</ele>
        <time>2021-04-23T08:30:16.000Z</time>
      </trkpt>
      <trkpt lat="49.14856" lon="1.36157">
        <ele>25.200000762939</ele>
        <time>2021-04-23T08:30:17.000Z</time>
      </trkpt>
      <trkpt lat="49.14877" lon="1.36163">
        <ele>24.60000038147</ele>
        <time>2021-04-23T08:30:22.000Z</time>
      </trkpt>
      <trkpt lat="49.14884" lon="1.36157">
        <ele>24.200000762939</ele>
        <time>2021-04-23T08:30:24.000Z</time>
      </trkpt>
      <trkpt lat="49.14895" lon="1.36143">
        <ele>23.60000038147</ele>
        <time>2021-04-23T08:30:27.000Z</time>
      </trkpt>
      <trkpt lat="49.14915" lon="1.36113">
        <ele>23.39999961853</ele>
        <time>2021-04-23T08:30:32.000Z</time>
      </trkpt>
      <trkpt lat="49.1492" lon="1.36108">
        <ele>23.39999961853</ele>
        <time>2021-04-23T08:30:33.000Z</time>
      </trkpt>
      <trkpt lat="49.14938" lon="1.36105">
        <ele>23.39999961853</ele>
        <time>2021-04-23T08:30:36.000Z</time>
      </trkpt>
      <trkpt lat="49.14945" lon="1.36106">
        <ele>23.39999961853</ele>
        <time>2021-04-23T08:30:37.000Z</time>
      </trkpt>
      <trkpt lat="49.14957" lon="1.36109">
        <ele>23.200000762939</ele>
        <time>2021-04-23T08:30:39.000Z</time>
      </trkpt>
      <trkpt lat="49.1498" lon="1.36117">
        <ele>23</ele>
        <time>2021-04-23T08:30:43.000Z</time>
      </trkpt>
      <trkpt lat="49.1501" lon="1.36125">
        <ele>22.200000762939</ele>
        <time>2021-04-23T08:30:48.000Z</time>
      </trkpt>
      <trkpt lat="49.15046" lon="1.36136">
        <ele>22</ele>
        <time>2021-04-23T08:30:54.000Z</time>
      </trkpt>
      <trkpt lat="49.151" lon="1.36154">
        <ele>21.60000038147</ele>
        <time>2021-04-23T08:31:03.000Z</time>
      </trkpt>
      <trkpt lat="49.15112" lon="1.36159">
        <ele>21.60000038147</ele>
        <time>2021-04-23T08:31:05.000Z</time>
      </trkpt>
      <trkpt lat="49.15146" lon="1.36177">
        <ele>21.39999961853</ele>
        <time>2021-04-23T08:31:11.000Z</time>
      </trkpt>
      <trkpt lat="49.15162" lon="1.36188">
        <ele>21.39999961853</ele>
        <time>2021-04-23T08:31:14.000Z</time>
      </trkpt>
      <trkpt lat="49.152" lon="1.36211">
        <ele>21</ele>
        <time>2021-04-23T08:31:21.000Z</time>
      </trkpt>
      <trkpt lat="49.15221" lon="1.36224">
        <ele>20.60000038147</ele>
        <time>2021-04-23T08:31:25.000Z</time>
      </trkpt>
      <trkpt lat="49.15226" lon="1.36227">
        <ele>20.60000038147</ele>
        <time>2021-04-23T08:31:26.000Z</time>
      </trkpt>
      <trkpt lat="49.15241" lon="1.36236">
        <ele>20.60000038147</ele>
        <time>2021-04-23T08:31:29.000Z</time>
      </trkpt>
      <trkpt lat="49.15245" lon="1.36235">
        <ele>20.60000038147</ele>
        <time>2021-04-23T08:31:30.000Z</time>
      </trkpt>
      <trkpt lat="49.15248" lon="1.36224">
        <ele>20.60000038147</ele>
        <time>2021-04-23T08:31:32.000Z</time>
      </trkpt>
      <trkpt lat="49.15244" lon="1.36211">
        <ele>20.60000038147</ele>
        <time>2021-04-23T08:31:34.000Z</time>
      </trkpt>
      <trkpt lat="49.15238" lon="1.36197">
        <ele>20.60000038147</ele>
        <time>2021-04-23T08:31:36.000Z</time>
      </trkpt>
      <trkpt lat="49.15213" lon="1.36125">
        <ele>21.39999961853</ele>
        <time>2021-04-23T08:31:45.000Z</time>
      </trkpt>
      <trkpt lat="49.15189" lon="1.36049">
        <ele>21.39999961853</ele>
        <time>2021-04-23T08:31:54.000Z</time>
      </trkpt>
      <trkpt lat="49.15182" lon="1.36024">
        <ele>21.200000762939</ele>
        <time>2021-04-23T08:31:57.000Z</time>
      </trkpt>
      <trkpt lat="49.15162" lon="1.3594">
        <ele>20.39999961853</ele>
        <time>2021-04-23T08:32:07.000Z</time>
      </trkpt>
      <trkpt lat="49.15159" lon="1.3588">
        <ele>20</ele>
        <time>2021-04-23T08:32:14.000Z</time>
      </trkpt>
      <trkpt lat="49.15161" lon="1.35791">
        <ele>20</ele>
        <time>2021-04-23T08:32:24.000Z</time>
      </trkpt>
      <trkpt lat="49.15162" lon="1.35782">
        <ele>20</ele>
        <time>2021-04-23T08:32:25.000Z</time>
      </trkpt>
      <trkpt lat="49.15163" lon="1.35694">
        <ele>20</ele>
        <time>2021-04-23T08:32:35.000Z</time>
      </trkpt>
      <trkpt lat="49.15163" lon="1.35676">
        <ele>20</ele>
        <time>2021-04-23T08:32:37.000Z</time>
      </trkpt>
      <trkpt lat="49.15157" lon="1.35636">
        <ele>20.200000762939</ele>
        <time>2021-04-23T08:32:42.000Z</time>
      </trkpt>
      <trkpt lat="49.15155" lon="1.35629">
        <ele>20.200000762939</ele>
        <time>2021-04-23T08:32:43.000Z</time>
      </trkpt>
      <trkpt lat="49.15148" lon="1.35602">
        <ele>20.200000762939</ele>
        <time>2021-04-23T08:32:47.000Z</time>
      </trkpt>
      <trkpt lat="49.15142" lon="1.35583">
        <ele>20.39999961853</ele>
        <time>2021-04-23T08:32:50.000Z</time>
      </trkpt>
      <trkpt lat="49.15131" lon="1.35549">
        <ele>21.200000762939</ele>
        <time>2021-04-23T08:32:55.000Z</time>
      </trkpt>
      <trkpt lat="49.15129" lon="1.35535">
        <ele>21.39999961853</ele>
        <time>2021-04-23T08:32:57.000Z</time>
      </trkpt>
      <trkpt lat="49.15122" lon="1.35492">
        <ele>21.799999237061</ele>
        <time>2021-04-23T08:33:03.000Z</time>
      </trkpt>
      <trkpt lat="49.15122" lon="1.35485">
        <ele>21.799999237061</ele>
        <time>2021-04-23T08:33:04.000Z</time>
      </trkpt>
      <trkpt lat="49.15126" lon="1.35462">
        <ele>22</ele>
        <time>2021-04-23T08:33:07.000Z</time>
      </trkpt>
      <trkpt lat="49.15131" lon="1.3544">
        <ele>22.200000762939</ele>
        <time>2021-04-23T08:33:10.000Z</time>
      </trkpt>
      <trkpt lat="49.15136" lon="1.35419">
        <ele>22.200000762939</ele>
        <time>2021-04-23T08:33:13.000Z</time>
      </trkpt>
      <trkpt lat="49.15143" lon="1.35389">
        <ele>22.60000038147</ele>
        <time>2021-04-23T08:33:17.000Z</time>
      </trkpt>
      <trkpt lat="49.15151" lon="1.35337">
        <ele>23</ele>
        <time>2021-04-23T08:33:24.000Z</time>
      </trkpt>
      <trkpt lat="49.15158" lon="1.35297">
        <ele>23.39999961853</ele>
        <time>2021-04-23T08:33:29.000Z</time>
      </trkpt>
      <trkpt lat="49.15162" lon="1.35265">
        <ele>23.60000038147</ele>
        <time>2021-04-23T08:33:33.000Z</time>
      </trkpt>
      <trkpt lat="49.15162" lon="1.3525">
        <ele>23.799999237061</ele>
        <time>2021-04-23T08:33:35.000Z</time>
      </trkpt>
      <trkpt lat="49.1516" lon="1.35227">
        <ele>23.799999237061</ele>
        <time>2021-04-23T08:33:38.000Z</time>
      </trkpt>
      <trkpt lat="49.15151" lon="1.35166">
        <ele>23.799999237061</ele>
        <time>2021-04-23T08:33:46.000Z</time>
      </trkpt>
      <trkpt lat="49.15148" lon="1.35152">
        <ele>23.799999237061</ele>
        <time>2021-04-23T08:33:48.000Z</time>
      </trkpt>
      <trkpt lat="49.15148" lon="1.3513">
        <ele>23.799999237061</ele>
        <time>2021-04-23T08:33:51.000Z</time>
      </trkpt>
      <trkpt lat="49.15149" lon="1.35122">
        <ele>23.799999237061</ele>
        <time>2021-04-23T08:33:52.000Z</time>
      </trkpt>
      <trkpt lat="49.15152" lon="1.35106">
        <ele>24.200000762939</ele>
        <time>2021-04-23T08:33:54.000Z</time>
      </trkpt>
      <trkpt lat="49.15157" lon="1.35091">
        <ele>24.39999961853</ele>
        <time>2021-04-23T08:33:56.000Z</time>
      </trkpt>
      <trkpt lat="49.1516" lon="1.35083">
        <ele>24.60000038147</ele>
        <time>2021-04-23T08:33:57.000Z</time>
      </trkpt>
      <trkpt lat="49.15183" lon="1.35038">
        <ele>24.799999237061</ele>
        <time>2021-04-23T08:34:03.000Z</time>
      </trkpt>
      <trkpt lat="49.15208" lon="1.35009">
        <ele>24.799999237061</ele>
        <time>2021-04-23T08:34:08.000Z</time>
      </trkpt>
      <trkpt lat="49.15232" lon="1.34989">
        <ele>24.60000038147</ele>
        <time>2021-04-23T08:34:13.000Z</time>
      </trkpt>
      <trkpt lat="49.15237" lon="1.34988">
        <ele>24.60000038147</ele>
        <time>2021-04-23T08:34:14.000Z</time>
      </trkpt>
      <trkpt lat="49.15265" lon="1.34993">
        <ele>23.60000038147</ele>
        <time>2021-04-23T08:34:19.000Z</time>
      </trkpt>
      <trkpt lat="49.15271" lon="1.34994">
        <ele>23.39999961853</ele>
        <time>2021-04-23T08:34:20.000Z</time>
      </trkpt>
      <trkpt lat="49.15315" lon="1.34991">
        <ele>23.200000762939</ele>
        <time>2021-04-23T08:34:27.000Z</time>
      </trkpt>
      <trkpt lat="49.15333" lon="1.34987">
        <ele>23</ele>
        <time>2021-04-23T08:34:30.000Z</time>
      </trkpt>
      <trkpt lat="49.15351" lon="1.3498">
        <ele>22.799999237061</ele>
        <time>2021-04-23T08:34:33.000Z</time>
      </trkpt>
      <trkpt lat="49.15357" lon="1.34977">
        <ele>22.799999237061</ele>
        <time>2021-04-23T08:34:34.000Z</time>
      </trkpt>
      <trkpt lat="49.15379" lon="1.34964">
        <ele>22.60000038147</ele>
        <time>2021-04-23T08:34:38.000Z</time>
      </trkpt>
      <trkpt lat="49.15382" lon="1.34958">
        <ele>22.39999961853</ele>
        <time>2021-04-23T08:34:39.000Z</time>
      </trkpt>
      <trkpt lat="49.15382" lon="1.34951">
        <ele>22.200000762939</ele>
        <time>2021-04-23T08:34:40.000Z</time>
      </trkpt>
      <trkpt lat="49.15385" lon="1.34929">
        <ele>21.60000038147</ele>
        <time>2021-04-23T08:34:43.000Z</time>
      </trkpt>
      <trkpt lat="49.15387" lon="1.34923">
        <ele>21.39999961853</ele>
        <time>2021-04-23T08:34:44.000Z</time>
      </trkpt>
      <trkpt lat="49.15389" lon="1.34916">
        <ele>21</ele>
        <time>2021-04-23T08:34:45.000Z</time>
      </trkpt>
      <trkpt lat="49.15393" lon="1.34902">
        <ele>20.799999237061</ele>
        <time>2021-04-23T08:34:47.000Z</time>
      </trkpt>
      <trkpt lat="49.15396" lon="1.34894">
        <ele>20.799999237061</ele>
        <time>2021-04-23T08:34:48.000Z</time>
      </trkpt>
      <trkpt lat="49.15414" lon="1.34842">
        <ele>20.200000762939</ele>
        <time>2021-04-23T08:34:55.000Z</time>
      </trkpt>
      <trkpt lat="49.15419" lon="1.34825">
        <ele>20.200000762939</ele>
        <time>2021-04-23T08:34:58.000Z</time>
      </trkpt>
      <trkpt lat="49.15419" lon="1.34814">
        <ele>20.200000762939</ele>
        <time>2021-04-23T08:35:00.000Z</time>
      </trkpt>
      <trkpt lat="49.1542" lon="1.34803">
        <ele>20.200000762939</ele>
        <time>2021-04-23T08:35:02.000Z</time>
      </trkpt>
      <trkpt lat="49.15426" lon="1.34779">
        <ele>21</ele>
        <time>2021-04-23T08:35:07.000Z</time>
      </trkpt>
      <trkpt lat="49.15432" lon="1.34769">
        <ele>21.60000038147</ele>
        <time>2021-04-23T08:35:09.000Z</time>
      </trkpt>
      <trkpt lat="49.15437" lon="1.34757">
        <ele>21.799999237061</ele>
        <time>2021-04-23T08:35:11.000Z</time>
      </trkpt>
      <trkpt lat="49.1544" lon="1.34751">
        <ele>21.799999237061</ele>
        <time>2021-04-23T08:35:12.000Z</time>
      </trkpt>
      <trkpt lat="49.15459" lon="1.347">
        <ele>22.200000762939</ele>
        <time>2021-04-23T08:35:19.000Z</time>
      </trkpt>
      <trkpt lat="49.15479" lon="1.34647">
        <ele>21.799999237061</ele>
        <time>2021-04-23T08:35:26.000Z</time>
      </trkpt>
      <trkpt lat="49.15504" lon="1.34579">
        <ele>21.200000762939</ele>
        <time>2021-04-23T08:35:34.000Z</time>
      </trkpt>
      <trkpt lat="49.15516" lon="1.34545">
        <ele>20.60000038147</ele>
        <time>2021-04-23T08:35:38.000Z</time>
      </trkpt>
      <trkpt lat="49.15524" lon="1.3452">
        <ele>20.39999961853</ele>
        <time>2021-04-23T08:35:41.000Z</time>
      </trkpt>
      <trkpt lat="49.15525" lon="1.34512">
        <ele>20.39999961853</ele>
        <time>2021-04-23T08:35:42.000Z</time>
      </trkpt>
      <trkpt lat="49.15534" lon="1.34492">
        <ele>20.200000762939</ele>
        <time>2021-04-23T08:35:45.000Z</time>
      </trkpt>
      <trkpt lat="49.15548" lon="1.34467">
        <ele>19.799999237061</ele>
        <time>2021-04-23T08:35:50.000Z</time>
      </trkpt>
      <trkpt lat="49.15543" lon="1.34453">
        <ele>19.60000038147</ele>
        <time>2021-04-23T08:35:53.000Z</time>
      </trkpt>
      <trkpt lat="49.15542" lon="1.34448">
        <ele>19.60000038147</ele>
        <time>2021-04-23T08:35:54.000Z</time>
      </trkpt>
      <trkpt lat="49.15538" lon="1.34435">
        <ele>19.60000038147</ele>
        <time>2021-04-23T08:35:56.000Z</time>
      </trkpt>
      <trkpt lat="49.15534" lon="1.34423">
        <ele>19.60000038147</ele>
        <time>2021-04-23T08:35:58.000Z</time>
      </trkpt>
      <trkpt lat="49.15526" lon="1.34399">
        <ele>19.60000038147</ele>
        <time>2021-04-23T08:36:02.000Z</time>
      </trkpt>
      <trkpt lat="49.15509" lon="1.3438">
        <ele>19.799999237061</ele>
        <time>2021-04-23T08:36:06.000Z</time>
      </trkpt>
      <trkpt lat="49.15504" lon="1.34375">
        <ele>19.799999237061</ele>
        <time>2021-04-23T08:36:07.000Z</time>
      </trkpt>
      <trkpt lat="49.15494" lon="1.34362">
        <ele>19.799999237061</ele>
        <time>2021-04-23T08:36:10.000Z</time>
      </trkpt>
      <trkpt lat="49.15486" lon="1.34373">
        <ele>19.60000038147</ele>
        <time>2021-04-23T08:36:13.000Z</time>
      </trkpt>
      <trkpt lat="49.15484" lon="1.34379">
        <ele>19.60000038147</ele>
        <time>2021-04-23T08:36:14.000Z</time>
      </trkpt>
      <trkpt lat="49.15477" lon="1.34398">
        <ele>19.60000038147</ele>
        <time>2021-04-23T08:36:17.000Z</time>
      </trkpt>
      <trkpt lat="49.15474" lon="1.34402">
        <ele>19.60000038147</ele>
        <time>2021-04-23T08:36:18.000Z</time>
      </trkpt>
      <trkpt lat="49.15465" lon="1.34403">
        <ele>19.39999961853</ele>
        <time>2021-04-23T08:36:20.000Z</time>
      </trkpt>
      <trkpt lat="49.15457" lon="1.34395">
        <ele>19.39999961853</ele>
        <time>2021-04-23T08:36:22.000Z</time>
      </trkpt>
      <trkpt lat="49.15445" lon="1.34383">
        <ele>19.39999961853</ele>
        <time>2021-04-23T08:36:25.000Z</time>
      </trkpt>
      <trkpt lat="49.15418" lon="1.34357">
        <ele>19.39999961853</ele>
        <time>2021-04-23T08:36:32.000Z</time>
      </trkpt>
      <trkpt lat="49.15416" lon="1.34356">
        <ele>19.39999961853</ele>
        <time>2021-04-23T08:36:33.000Z</time>
      </trkpt>
      <trkpt lat="49.15412" lon="1.34355">
        <ele>19.60000038147</ele>
        <time>2021-04-23T08:36:35.000Z</time>
      </trkpt>
      <trkpt lat="49.15403" lon="1.34349">
        <ele>19.799999237061</ele>
        <time>2021-04-23T08:36:39.000Z</time>
      </trkpt>
      <trkpt lat="49.15401" lon="1.34345">
        <ele>20</ele>
        <time>2021-04-23T08:36:40.000Z</time>
      </trkpt>
      <trkpt lat="49.15389" lon="1.34331">
        <ele>20.799999237061</ele>
        <time>2021-04-23T08:36:44.000Z</time>
      </trkpt>
      <trkpt lat="49.15361" lon="1.34307">
        <ele>21.200000762939</ele>
        <time>2021-04-23T08:36:51.000Z</time>
      </trkpt>
      <trkpt lat="49.15346" lon="1.34293">
        <ele>21.799999237061</ele>
        <time>2021-04-23T08:36:55.000Z</time>
      </trkpt>
      <trkpt lat="49.15329" lon="1.34278">
        <ele>22</ele>
        <time>2021-04-23T08:36:59.000Z</time>
      </trkpt>
      <trkpt lat="49.15304" lon="1.34254">
        <ele>22.39999961853</ele>
        <time>2021-04-23T08:37:06.000Z</time>
      </trkpt>
      <trkpt lat="49.15281" lon="1.34231">
        <ele>22.799999237061</ele>
        <time>2021-04-23T08:37:13.000Z</time>
      </trkpt>
      <trkpt lat="49.15278" lon="1.34229">
        <ele>23</ele>
        <time>2021-04-23T08:37:14.000Z</time>
      </trkpt>
      <trkpt lat="49.15262" lon="1.34213">
        <ele>24.200000762939</ele>
        <time>2021-04-23T08:37:19.000Z</time>
      </trkpt>
      <trkpt lat="49.1525" lon="1.34202">
        <ele>24.60000038147</ele>
        <time>2021-04-23T08:37:23.000Z</time>
      </trkpt>
      <trkpt lat="49.15239" lon="1.34193">
        <ele>25</ele>
        <time>2021-04-23T08:37:27.000Z</time>
      </trkpt>
      <trkpt lat="49.15237" lon="1.34195">
        <ele>25</ele>
        <time>2021-04-23T08:37:28.000Z</time>
      </trkpt>
      <trkpt lat="49.15235" lon="1.34198">
        <ele>25.200000762939</ele>
        <time>2021-04-23T08:37:29.000Z</time>
      </trkpt>
      <trkpt lat="49.15231" lon="1.34211">
        <ele>25.799999237061</ele>
        <time>2021-04-23T08:37:32.000Z</time>
      </trkpt>
      <trkpt lat="49.15231" lon="1.34221">
        <ele>26.200000762939</ele>
        <time>2021-04-23T08:37:34.000Z</time>
      </trkpt>
      <trkpt lat="49.1523" lon="1.34226">
        <ele>26.39999961853</ele>
        <time>2021-04-23T08:37:35.000Z</time>
      </trkpt>
      <trkpt lat="49.15229" lon="1.34232">
        <ele>26.39999961853</ele>
        <time>2021-04-23T08:37:36.000Z</time>
      </trkpt>
      <trkpt lat="49.15223" lon="1.3425">
        <ele>26.60000038147</ele>
        <time>2021-04-23T08:37:39.000Z</time>
      </trkpt>
      <trkpt lat="49.15223" lon="1.34256">
        <ele>26.60000038147</ele>
        <time>2021-04-23T08:37:40.000Z</time>
      </trkpt>
      <trkpt lat="49.15221" lon="1.34292">
        <ele>26.200000762939</ele>
        <time>2021-04-23T08:37:45.000Z</time>
      </trkpt>
      <trkpt lat="49.15223" lon="1.34335">
        <ele>25.60000038147</ele>
        <time>2021-04-23T08:37:50.000Z</time>
      </trkpt>
      <trkpt lat="49.15225" lon="1.34341">
        <ele>25.60000038147</ele>
        <time>2021-04-23T08:37:51.000Z</time>
      </trkpt>
      <trkpt lat="49.15232" lon="1.34349">
        <ele>25.200000762939</ele>
        <time>2021-04-23T08:37:53.000Z</time>
      </trkpt>
      <trkpt lat="49.15241" lon="1.34358">
        <ele>25</ele>
        <time>2021-04-23T08:37:55.000Z</time>
      </trkpt>
      <trkpt lat="49.15254" lon="1.34371">
        <ele>24.39999961853</ele>
        <time>2021-04-23T08:37:58.000Z</time>
      </trkpt>
      <trkpt lat="49.15256" lon="1.34383">
        <ele>24.200000762939</ele>
        <time>2021-04-23T08:38:00.000Z</time>
      </trkpt>
      <trkpt lat="49.15254" lon="1.34388">
        <ele>24</ele>
        <time>2021-04-23T08:38:01.000Z</time>
      </trkpt>
      <trkpt lat="49.15244" lon="1.34405">
        <ele>23.60000038147</ele>
        <time>2021-04-23T08:38:04.000Z</time>
      </trkpt>
      <trkpt lat="49.15234" lon="1.34423">
        <ele>23.200000762939</ele>
        <time>2021-04-23T08:38:07.000Z</time>
      </trkpt>
      <trkpt lat="49.1523" lon="1.34429">
        <ele>22.799999237061</ele>
        <time>2021-04-23T08:38:08.000Z</time>
      </trkpt>
      <trkpt lat="49.15226" lon="1.34435">
        <ele>22.799999237061</ele>
        <time>2021-04-23T08:38:09.000Z</time>
      </trkpt>
      <trkpt lat="49.15209" lon="1.34463">
        <ele>22</ele>
        <time>2021-04-23T08:38:14.000Z</time>
      </trkpt>
      <trkpt lat="49.15206" lon="1.34468">
        <ele>21.799999237061</ele>
        <time>2021-04-23T08:38:15.000Z</time>
      </trkpt>
      <trkpt lat="49.15192" lon="1.34497">
        <ele>20.799999237061</ele>
        <time>2021-04-23T08:38:19.000Z</time>
      </trkpt>
      <trkpt lat="49.1519" lon="1.34504">
        <ele>20.60000038147</ele>
        <time>2021-04-23T08:38:20.000Z</time>
      </trkpt>
      <trkpt lat="49.15176" lon="1.34528">
        <ele>20.60000038147</ele>
        <time>2021-04-23T08:38:24.000Z</time>
      </trkpt>
      <trkpt lat="49.15172" lon="1.34532">
        <ele>20.60000038147</ele>
        <time>2021-04-23T08:38:25.000Z</time>
      </trkpt>
      <trkpt lat="49.15152" lon="1.3456">
        <ele>21.200000762939</ele>
        <time>2021-04-23T08:38:31.000Z</time>
      </trkpt>
      <trkpt lat="49.15142" lon="1.34574">
        <ele>21.799999237061</ele>
        <time>2021-04-23T08:38:34.000Z</time>
      </trkpt>
      <trkpt lat="49.15132" lon="1.34587">
        <ele>23</ele>
        <time>2021-04-23T08:38:37.000Z</time>
      </trkpt>
      <trkpt lat="49.15104" lon="1.34626">
        <ele>24</ele>
        <time>2021-04-23T08:38:46.000Z</time>
      </trkpt>
      <trkpt lat="49.15079" lon="1.34658">
        <ele>25</ele>
        <time>2021-04-23T08:38:54.000Z</time>
      </trkpt>
      <trkpt lat="49.15076" lon="1.34662">
        <ele>25.200000762939</ele>
        <time>2021-04-23T08:38:55.000Z</time>
      </trkpt>
      <trkpt lat="49.15058" lon="1.34685">
        <ele>26.200000762939</ele>
        <time>2021-04-23T08:39:01.000Z</time>
      </trkpt>
      <trkpt lat="49.15049" lon="1.34698">
        <ele>26.60000038147</ele>
        <time>2021-04-23T08:39:04.000Z</time>
      </trkpt>
      <trkpt lat="49.15033" lon="1.3472">
        <ele>27.200000762939</ele>
        <time>2021-04-23T08:39:09.000Z</time>
      </trkpt>
      <trkpt lat="49.15014" lon="1.34745">
        <ele>27.799999237061</ele>
        <time>2021-04-23T08:39:15.000Z</time>
      </trkpt>
      <trkpt lat="49.14994" lon="1.34773">
        <ele>28.39999961853</ele>
        <time>2021-04-23T08:39:21.000Z</time>
      </trkpt>
      <trkpt lat="49.14987" lon="1.34783">
        <ele>28.60000038147</ele>
        <time>2021-04-23T08:39:23.000Z</time>
      </trkpt>
      <trkpt lat="49.14981" lon="1.34795">
        <ele>28.60000038147</ele>
        <time>2021-04-23T08:39:25.000Z</time>
      </trkpt>
      <trkpt lat="49.14976" lon="1.34817">
        <ele>28.60000038147</ele>
        <time>2021-04-23T08:39:28.000Z</time>
      </trkpt>
      <trkpt lat="49.14977" lon="1.34841">
        <ele>28.60000038147</ele>
        <time>2021-04-23T08:39:31.000Z</time>
      </trkpt>
      <trkpt lat="49.14979" lon="1.34859">
        <ele>28.60000038147</ele>
        <time>2021-04-23T08:39:33.000Z</time>
      </trkpt>
      <trkpt lat="49.14983" lon="1.34885">
        <ele>28.39999961853</ele>
        <time>2021-04-23T08:39:36.000Z</time>
      </trkpt>
      <trkpt lat="49.14982" lon="1.34893">
        <ele>28.39999961853</ele>
        <time>2021-04-23T08:39:37.000Z</time>
      </trkpt>
      <trkpt lat="49.14972" lon="1.34905">
        <ele>28</ele>
        <time>2021-04-23T08:39:40.000Z</time>
      </trkpt>
      <trkpt lat="49.14961" lon="1.34902">
        <ele>27.799999237061</ele>
        <time>2021-04-23T08:39:42.000Z</time>
      </trkpt>
      <trkpt lat="49.14944" lon="1.34898">
        <ele>27.39999961853</ele>
        <time>2021-04-23T08:39:45.000Z</time>
      </trkpt>
      <trkpt lat="49.14895" lon="1.34882">
        <ele>27.200000762939</ele>
        <time>2021-04-23T08:39:54.000Z</time>
      </trkpt>
      <trkpt lat="49.14857" lon="1.34878">
        <ele>27.60000038147</ele>
        <time>2021-04-23T08:40:01.000Z</time>
      </trkpt>
      <trkpt lat="49.14852" lon="1.34876">
        <ele>27.799999237061</ele>
        <time>2021-04-23T08:40:02.000Z</time>
      </trkpt>
      <trkpt lat="49.14833" lon="1.34859">
        <ele>28.60000038147</ele>
        <time>2021-04-23T08:40:06.000Z</time>
      </trkpt>
      <trkpt lat="49.14821" lon="1.34845">
        <ele>29.39999961853</ele>
        <time>2021-04-23T08:40:09.000Z</time>
      </trkpt>
      <trkpt lat="49.14816" lon="1.34841">
        <ele>29.60000038147</ele>
        <time>2021-04-23T08:40:10.000Z</time>
      </trkpt>
      <trkpt lat="49.14806" lon="1.34834">
        <ele>30</ele>
        <time>2021-04-23T08:40:12.000Z</time>
      </trkpt>
      <trkpt lat="49.14795" lon="1.34823">
        <ele>30.39999961853</ele>
        <time>2021-04-23T08:40:15.000Z</time>
      </trkpt>
      <trkpt lat="49.14792" lon="1.3482">
        <ele>30.60000038147</ele>
        <time>2021-04-23T08:40:16.000Z</time>
      </trkpt>
      <trkpt lat="49.14777" lon="1.3481">
        <ele>31.200000762939</ele>
        <time>2021-04-23T08:40:21.000Z</time>
      </trkpt>
      <trkpt lat="49.14772" lon="1.3481">
        <ele>31.799999237061</ele>
        <time>2021-04-23T08:40:23.000Z</time>
      </trkpt>
      <trkpt lat="49.14766" lon="1.34813">
        <ele>33</ele>
        <time>2021-04-23T08:40:26.000Z</time>
      </trkpt>
      <trkpt lat="49.14765" lon="1.34814">
        <ele>33.400001525879</ele>
        <time>2021-04-23T08:40:27.000Z</time>
      </trkpt>
      <trkpt lat="49.14763" lon="1.34814">
        <ele>34</ele>
        <time>2021-04-23T08:40:28.000Z</time>
      </trkpt>
      <trkpt lat="49.14761" lon="1.34814">
        <ele>35</ele>
        <time>2021-04-23T08:40:30.000Z</time>
      </trkpt>
      <trkpt lat="49.14757" lon="1.34816">
        <ele>36.400001525879</ele>
        <time>2021-04-23T08:40:32.000Z</time>
      </trkpt>
      <trkpt lat="49.14756" lon="1.34817">
        <ele>36.799999237061</ele>
        <time>2021-04-23T08:40:33.000Z</time>
      </trkpt>
      <trkpt lat="49.14754" lon="1.34818">
        <ele>37.400001525879</ele>
        <time>2021-04-23T08:40:34.000Z</time>
      </trkpt>
      <trkpt lat="49.14751" lon="1.34821">
        <ele>38.599998474121</ele>
        <time>2021-04-23T08:40:36.000Z</time>
      </trkpt>
      <trkpt lat="49.14747" lon="1.34824">
        <ele>39.599998474121</ele>
        <time>2021-04-23T08:40:38.000Z</time>
      </trkpt>
      <trkpt lat="49.14745" lon="1.34826">
        <ele>40</ele>
        <time>2021-04-23T08:40:39.000Z</time>
      </trkpt>
      <trkpt lat="49.1474" lon="1.3483">
        <ele>41.599998474121</ele>
        <time>2021-04-23T08:40:42.000Z</time>
      </trkpt>
      <trkpt lat="49.14738" lon="1.34831">
        <ele>42</ele>
        <time>2021-04-23T08:40:43.000Z</time>
      </trkpt>
      <trkpt lat="49.14734" lon="1.34833">
        <ele>43</ele>
        <time>2021-04-23T08:40:45.000Z</time>
      </trkpt>
      <trkpt lat="49.14728" lon="1.34836">
        <ele>44.200000762939</ele>
        <time>2021-04-23T08:40:48.000Z</time>
      </trkpt>
      <trkpt lat="49.14721" lon="1.34842">
        <ele>45.200000762939</ele>
        <time>2021-04-23T08:40:51.000Z</time>
      </trkpt>
      <trkpt lat="49.14716" lon="1.34843">
        <ele>46</ele>
        <time>2021-04-23T08:40:53.000Z</time>
      </trkpt>
      <trkpt lat="49.14714" lon="1.34842">
        <ele>46.200000762939</ele>
        <time>2021-04-23T08:40:54.000Z</time>
      </trkpt>
      <trkpt lat="49.14712" lon="1.34841">
        <ele>46.599998474121</ele>
        <time>2021-04-23T08:40:55.000Z</time>
      </trkpt>
      <trkpt lat="49.14705" lon="1.34841">
        <ele>47.400001525879</ele>
        <time>2021-04-23T08:40:58.000Z</time>
      </trkpt>
      <trkpt lat="49.14703" lon="1.34841">
        <ele>47.799999237061</ele>
        <time>2021-04-23T08:40:59.000Z</time>
      </trkpt>
      <trkpt lat="49.14698" lon="1.34841">
        <ele>48.599998474121</ele>
        <time>2021-04-23T08:41:01.000Z</time>
      </trkpt>
      <trkpt lat="49.14686" lon="1.3484">
        <ele>49.400001525879</ele>
        <time>2021-04-23T08:41:05.000Z</time>
      </trkpt>
      <trkpt lat="49.14676" lon="1.3484">
        <ele>49.799999237061</ele>
        <time>2021-04-23T08:41:08.000Z</time>
      </trkpt>
      <trkpt lat="49.14667" lon="1.34839">
        <ele>49.799999237061</ele>
        <time>2021-04-23T08:41:10.000Z</time>
      </trkpt>
      <trkpt lat="49.14639" lon="1.34836">
        <ele>49.799999237061</ele>
        <time>2021-04-23T08:41:16.000Z</time>
      </trkpt>
      <trkpt lat="49.14634" lon="1.34836">
        <ele>49.799999237061</ele>
        <time>2021-04-23T08:41:17.000Z</time>
      </trkpt>
      <trkpt lat="49.1461" lon="1.34836">
        <ele>49.400001525879</ele>
        <time>2021-04-23T08:41:21.000Z</time>
      </trkpt>
      <trkpt lat="49.14598" lon="1.34837">
        <ele>49</ele>
        <time>2021-04-23T08:41:23.000Z</time>
      </trkpt>
      <trkpt lat="49.14592" lon="1.34837">
        <ele>48.799999237061</ele>
        <time>2021-04-23T08:41:24.000Z</time>
      </trkpt>
      <trkpt lat="49.14581" lon="1.34839">
        <ele>48.200000762939</ele>
        <time>2021-04-23T08:41:26.000Z</time>
      </trkpt>
      <trkpt lat="49.14568" lon="1.34841">
        <ele>47.599998474121</ele>
        <time>2021-04-23T08:41:28.000Z</time>
      </trkpt>
      <trkpt lat="49.14551" lon="1.34846">
        <ele>47.200000762939</ele>
        <time>2021-04-23T08:41:31.000Z</time>
      </trkpt>
      <trkpt lat="49.14532" lon="1.34851">
        <ele>47</ele>
        <time>2021-04-23T08:41:35.000Z</time>
      </trkpt>
      <trkpt lat="49.14518" lon="1.34854">
        <ele>47</ele>
        <time>2021-04-23T08:41:38.000Z</time>
      </trkpt>
      <trkpt lat="49.14507" lon="1.34859">
        <ele>47</ele>
        <time>2021-04-23T08:41:40.000Z</time>
      </trkpt>
      <trkpt lat="49.14495" lon="1.34864">
        <ele>46.799999237061</ele>
        <time>2021-04-23T08:41:42.000Z</time>
      </trkpt>
      <trkpt lat="49.14484" lon="1.34868">
        <ele>46.799999237061</ele>
        <time>2021-04-23T08:41:44.000Z</time>
      </trkpt>
      <trkpt lat="49.14479" lon="1.3487">
        <ele>46.799999237061</ele>
        <time>2021-04-23T08:41:45.000Z</time>
      </trkpt>
      <trkpt lat="49.14453" lon="1.34883">
        <ele>46.799999237061</ele>
        <time>2021-04-23T08:41:50.000Z</time>
      </trkpt>
      <trkpt lat="49.14448" lon="1.34886">
        <ele>46.799999237061</ele>
        <time>2021-04-23T08:41:51.000Z</time>
      </trkpt>
      <trkpt lat="49.14429" lon="1.34899">
        <ele>46.799999237061</ele>
        <time>2021-04-23T08:41:55.000Z</time>
      </trkpt>
      <trkpt lat="49.14424" lon="1.34904">
        <ele>46.799999237061</ele>
        <time>2021-04-23T08:41:56.000Z</time>
      </trkpt>
      <trkpt lat="49.14404" lon="1.34927">
        <ele>46.599998474121</ele>
        <time>2021-04-23T08:42:00.000Z</time>
      </trkpt>
      <trkpt lat="49.14399" lon="1.34931">
        <ele>46.599998474121</ele>
        <time>2021-04-23T08:42:01.000Z</time>
      </trkpt>
      <trkpt lat="49.14388" lon="1.34932">
        <ele>46.400001525879</ele>
        <time>2021-04-23T08:42:03.000Z</time>
      </trkpt>
      <trkpt lat="49.14381" lon="1.34932">
        <ele>46</ele>
        <time>2021-04-23T08:42:04.000Z</time>
      </trkpt>
      <trkpt lat="49.14354" lon="1.34934">
        <ele>45.200000762939</ele>
        <time>2021-04-23T08:42:08.000Z</time>
      </trkpt>
      <trkpt lat="49.14342" lon="1.34933">
        <ele>45.200000762939</ele>
        <time>2021-04-23T08:42:10.000Z</time>
      </trkpt>
      <trkpt lat="49.14313" lon="1.34927">
        <ele>45</ele>
        <time>2021-04-23T08:42:16.000Z</time>
      </trkpt>
      <trkpt lat="49.14306" lon="1.3494">
        <ele>45</ele>
        <time>2021-04-23T08:42:19.000Z</time>
      </trkpt>
      <trkpt lat="49.14304" lon="1.34945">
        <ele>45</ele>
        <time>2021-04-23T08:42:20.000Z</time>
      </trkpt>
      <trkpt lat="49.14294" lon="1.34978">
        <ele>46.200000762939</ele>
        <time>2021-04-23T08:42:27.000Z</time>
      </trkpt>
      <trkpt lat="49.14292" lon="1.34981">
        <ele>46.400001525879</ele>
        <time>2021-04-23T08:42:28.000Z</time>
      </trkpt>
      <trkpt lat="49.14283" lon="1.34993">
        <ele>47</ele>
        <time>2021-04-23T08:42:32.000Z</time>
      </trkpt>
      <trkpt lat="49.14276" lon="1.35">
        <ele>47.599998474121</ele>
        <time>2021-04-23T08:42:35.000Z</time>
      </trkpt>
      <trkpt lat="49.14271" lon="1.35005">
        <ele>48.200000762939</ele>
        <time>2021-04-23T08:42:37.000Z</time>
      </trkpt>
      <trkpt lat="49.14266" lon="1.35009">
        <ele>48.599998474121</ele>
        <time>2021-04-23T08:42:39.000Z</time>
      </trkpt>
      <trkpt lat="49.14262" lon="1.3501">
        <ele>49.200000762939</ele>
        <time>2021-04-23T08:42:41.000Z</time>
      </trkpt>
      <trkpt lat="49.14254" lon="1.35016">
        <ele>49.799999237061</ele>
        <time>2021-04-23T08:42:44.000Z</time>
      </trkpt>
      <trkpt lat="49.14252" lon="1.3502">
        <ele>50.200000762939</ele>
        <time>2021-04-23T08:42:45.000Z</time>
      </trkpt>
      <trkpt lat="49.14247" lon="1.35032">
        <ele>51</ele>
        <time>2021-04-23T08:42:48.000Z</time>
      </trkpt>
      <trkpt lat="49.14245" lon="1.35037">
        <ele>51.200000762939</ele>
        <time>2021-04-23T08:42:49.000Z</time>
      </trkpt>
      <trkpt lat="49.14236" lon="1.35058">
        <ele>51.200000762939</ele>
        <time>2021-04-23T08:42:53.000Z</time>
      </trkpt>
      <trkpt lat="49.14233" lon="1.35064">
        <ele>51.200000762939</ele>
        <time>2021-04-23T08:42:54.000Z</time>
      </trkpt>
      <trkpt lat="49.14223" lon="1.35081">
        <ele>51.200000762939</ele>
        <time>2021-04-23T08:42:57.000Z</time>
      </trkpt>
      <trkpt lat="49.14209" lon="1.35099">
        <ele>50.799999237061</ele>
        <time>2021-04-23T08:43:01.000Z</time>
      </trkpt>
      <trkpt lat="49.14202" lon="1.35109">
        <ele>50.599998474121</ele>
        <time>2021-04-23T08:43:03.000Z</time>
      </trkpt>
      <trkpt lat="49.14195" lon="1.35119">
        <ele>50.599998474121</ele>
        <time>2021-04-23T08:43:05.000Z</time>
      </trkpt>
      <trkpt lat="49.14188" lon="1.35133">
        <ele>50.599998474121</ele>
        <time>2021-04-23T08:43:08.000Z</time>
      </trkpt>
      <trkpt lat="49.14178" lon="1.35152">
        <ele>51.200000762939</ele>
        <time>2021-04-23T08:43:12.000Z</time>
      </trkpt>
      <trkpt lat="49.14168" lon="1.3517">
        <ele>52</ele>
        <time>2021-04-23T08:43:17.000Z</time>
      </trkpt>
      <trkpt lat="49.1416" lon="1.35196">
        <ele>53.400001525879</ele>
        <time>2021-04-23T08:43:22.000Z</time>
      </trkpt>
      <trkpt lat="49.1415" lon="1.35219">
        <ele>54.400001525879</ele>
        <time>2021-04-23T08:43:26.000Z</time>
      </trkpt>
      <trkpt lat="49.14147" lon="1.35224">
        <ele>54.799999237061</ele>
        <time>2021-04-23T08:43:27.000Z</time>
      </trkpt>
      <trkpt lat="49.1414" lon="1.35239">
        <ele>55.599998474121</ele>
        <time>2021-04-23T08:43:30.000Z</time>
      </trkpt>
      <trkpt lat="49.14137" lon="1.35243">
        <ele>55.799999237061</ele>
        <time>2021-04-23T08:43:31.000Z</time>
      </trkpt>
      <trkpt lat="49.14127" lon="1.35259">
        <ele>56.400001525879</ele>
        <time>2021-04-23T08:43:35.000Z</time>
      </trkpt>
      <trkpt lat="49.14121" lon="1.35273">
        <ele>56.799999237061</ele>
        <time>2021-04-23T08:43:38.000Z</time>
      </trkpt>
      <trkpt lat="49.14118" lon="1.35286">
        <ele>57.200000762939</ele>
        <time>2021-04-23T08:43:41.000Z</time>
      </trkpt>
      <trkpt lat="49.14111" lon="1.35307">
        <ele>58</ele>
        <time>2021-04-23T08:43:45.000Z</time>
      </trkpt>
      <trkpt lat="49.14108" lon="1.35317">
        <ele>58.400001525879</ele>
        <time>2021-04-23T08:43:47.000Z</time>
      </trkpt>
      <trkpt lat="49.14107" lon="1.35327">
        <ele>58.799999237061</ele>
        <time>2021-04-23T08:43:49.000Z</time>
      </trkpt>
      <trkpt lat="49.14105" lon="1.35332">
        <ele>59</ele>
        <time>2021-04-23T08:43:50.000Z</time>
      </trkpt>
      <trkpt lat="49.14104" lon="1.35336">
        <ele>59.200000762939</ele>
        <time>2021-04-23T08:43:51.000Z</time>
      </trkpt>
      <trkpt lat="49.14102" lon="1.35351">
        <ele>59.799999237061</ele>
        <time>2021-04-23T08:43:54.000Z</time>
      </trkpt>
      <trkpt lat="49.14101" lon="1.35359">
        <ele>60.200000762939</ele>
        <time>2021-04-23T08:43:56.000Z</time>
      </trkpt>
      <trkpt lat="49.141" lon="1.35367">
        <ele>60.599998474121</ele>
        <time>2021-04-23T08:43:58.000Z</time>
      </trkpt>
      <trkpt lat="49.14098" lon="1.35375">
        <ele>60.799999237061</ele>
        <time>2021-04-23T08:44:00.000Z</time>
      </trkpt>
      <trkpt lat="49.14095" lon="1.35389">
        <ele>61</ele>
        <time>2021-04-23T08:44:03.000Z</time>
      </trkpt>
      <trkpt lat="49.14094" lon="1.35404">
        <ele>61.400001525879</ele>
        <time>2021-04-23T08:44:06.000Z</time>
      </trkpt>
      <trkpt lat="49.14089" lon="1.3543">
        <ele>62.200000762939</ele>
        <time>2021-04-23T08:44:11.000Z</time>
      </trkpt>
      <trkpt lat="49.14085" lon="1.35451">
        <ele>63</ele>
        <time>2021-04-23T08:44:16.000Z</time>
      </trkpt>
      <trkpt lat="49.14085" lon="1.3546">
        <ele>63.400001525879</ele>
        <time>2021-04-23T08:44:18.000Z</time>
      </trkpt>
      <trkpt lat="49.14083" lon="1.35475">
        <ele>64.199996948242</ele>
        <time>2021-04-23T08:44:21.000Z</time>
      </trkpt>
      <trkpt lat="49.14083" lon="1.3548">
        <ele>64.199996948242</ele>
        <time>2021-04-23T08:44:22.000Z</time>
      </trkpt>
      <trkpt lat="49.1408" lon="1.35504">
        <ele>65</ele>
        <time>2021-04-23T08:44:27.000Z</time>
      </trkpt>
      <trkpt lat="49.14079" lon="1.35515">
        <ele>65.199996948242</ele>
        <time>2021-04-23T08:44:29.000Z</time>
      </trkpt>
      <trkpt lat="49.14078" lon="1.35525">
        <ele>65.599998474121</ele>
        <time>2021-04-23T08:44:31.000Z</time>
      </trkpt>
      <trkpt lat="49.14077" lon="1.35537">
        <ele>66.400001525879</ele>
        <time>2021-04-23T08:44:34.000Z</time>
      </trkpt>
      <trkpt lat="49.14076" lon="1.3554">
        <ele>66.599998474121</ele>
        <time>2021-04-23T08:44:35.000Z</time>
      </trkpt>
      <trkpt lat="49.14071" lon="1.35559">
        <ele>67.400001525879</ele>
        <time>2021-04-23T08:44:40.000Z</time>
      </trkpt>
      <trkpt lat="49.14069" lon="1.35562">
        <ele>67.599998474121</ele>
        <time>2021-04-23T08:44:41.000Z</time>
      </trkpt>
      <trkpt lat="49.14069" lon="1.35566">
        <ele>67.800003051758</ele>
        <time>2021-04-23T08:44:42.000Z</time>
      </trkpt>
      <trkpt lat="49.14068" lon="1.35577">
        <ele>68.400001525879</ele>
        <time>2021-04-23T08:44:45.000Z</time>
      </trkpt>
      <trkpt lat="49.14068" lon="1.3558">
        <ele>68.599998474121</ele>
        <time>2021-04-23T08:44:46.000Z</time>
      </trkpt>
      <trkpt lat="49.14068" lon="1.35587">
        <ele>69</ele>
        <time>2021-04-23T08:44:49.000Z</time>
      </trkpt>
      <trkpt lat="49.14067" lon="1.3559">
        <ele>69.599998474121</ele>
        <time>2021-04-23T08:44:51.000Z</time>
      </trkpt>
      <trkpt lat="49.14066" lon="1.35594">
        <ele>70.199996948242</ele>
        <time>2021-04-23T08:44:53.000Z</time>
      </trkpt>
      <trkpt lat="49.14065" lon="1.35596">
        <ele>70.599998474121</ele>
        <time>2021-04-23T08:44:54.000Z</time>
      </trkpt>
      <trkpt lat="49.14064" lon="1.35601">
        <ele>71.400001525879</ele>
        <time>2021-04-23T08:44:56.000Z</time>
      </trkpt>
      <trkpt lat="49.14064" lon="1.35605">
        <ele>71.599998474121</ele>
        <time>2021-04-23T08:44:57.000Z</time>
      </trkpt>
      <trkpt lat="49.14061" lon="1.35616">
        <ele>72.599998474121</ele>
        <time>2021-04-23T08:45:01.000Z</time>
      </trkpt>
      <trkpt lat="49.1406" lon="1.35619">
        <ele>72.800003051758</ele>
        <time>2021-04-23T08:45:02.000Z</time>
      </trkpt>
      <trkpt lat="49.14056" lon="1.35626">
        <ele>73.400001525879</ele>
        <time>2021-04-23T08:45:05.000Z</time>
      </trkpt>
      <trkpt lat="49.14053" lon="1.35632">
        <ele>74</ele>
        <time>2021-04-23T08:45:07.000Z</time>
      </trkpt>
      <trkpt lat="49.14047" lon="1.35635">
        <ele>74.599998474121</ele>
        <time>2021-04-23T08:45:10.000Z</time>
      </trkpt>
      <trkpt lat="49.14041" lon="1.35643">
        <ele>74.800003051758</ele>
        <time>2021-04-23T08:45:13.000Z</time>
      </trkpt>
      <trkpt lat="49.14039" lon="1.35646">
        <ele>75</ele>
        <time>2021-04-23T08:45:14.000Z</time>
      </trkpt>
      <trkpt lat="49.14031" lon="1.35663">
        <ele>75.199996948242</ele>
        <time>2021-04-23T08:45:18.000Z</time>
      </trkpt>
      <trkpt lat="49.14029" lon="1.35674">
        <ele>75.199996948242</ele>
        <time>2021-04-23T08:45:21.000Z</time>
      </trkpt>
      <trkpt lat="49.14023" lon="1.3569">
        <ele>75.400001525879</ele>
        <time>2021-04-23T08:45:25.000Z</time>
      </trkpt>
      <trkpt lat="49.14019" lon="1.35699">
        <ele>75.400001525879</ele>
        <time>2021-04-23T08:45:27.000Z</time>
      </trkpt>
      <trkpt lat="49.14013" lon="1.35713">
        <ele>75.599998474121</ele>
        <time>2021-04-23T08:45:30.000Z</time>
      </trkpt>
      <trkpt lat="49.1401" lon="1.35719">
        <ele>75.800003051758</ele>
        <time>2021-04-23T08:45:32.000Z</time>
      </trkpt>
      <trkpt lat="49.14009" lon="1.35722">
        <ele>75.800003051758</ele>
        <time>2021-04-23T08:45:33.000Z</time>
      </trkpt>
      <trkpt lat="49.14008" lon="1.35726">
        <ele>75.800003051758</ele>
        <time>2021-04-23T08:45:34.000Z</time>
      </trkpt>
      <trkpt lat="49.13999" lon="1.35745">
        <ele>76.199996948242</ele>
        <time>2021-04-23T08:45:40.000Z</time>
      </trkpt>
      <trkpt lat="49.13991" lon="1.35757">
        <ele>76.800003051758</ele>
        <time>2021-04-23T08:45:44.000Z</time>
      </trkpt>
      <trkpt lat="49.13989" lon="1.35759">
        <ele>77</ele>
        <time>2021-04-23T08:45:45.000Z</time>
      </trkpt>
      <trkpt lat="49.13984" lon="1.35769">
        <ele>78.199996948242</ele>
        <time>2021-04-23T08:45:48.000Z</time>
      </trkpt>
      <trkpt lat="49.1398" lon="1.35776">
        <ele>78.599998474121</ele>
        <time>2021-04-23T08:45:50.000Z</time>
      </trkpt>
      <trkpt lat="49.13978" lon="1.35779">
        <ele>78.800003051758</ele>
        <time>2021-04-23T08:45:51.000Z</time>
      </trkpt>
      <trkpt lat="49.13975" lon="1.35786">
        <ele>79.199996948242</ele>
        <time>2021-04-23T08:45:53.000Z</time>
      </trkpt>
      <trkpt lat="49.1397" lon="1.35796">
        <ele>79.599998474121</ele>
        <time>2021-04-23T08:45:56.000Z</time>
      </trkpt>
      <trkpt lat="49.13968" lon="1.358">
        <ele>79.800003051758</ele>
        <time>2021-04-23T08:45:57.000Z</time>
      </trkpt>
      <trkpt lat="49.13962" lon="1.35815">
        <ele>80.199996948242</ele>
        <time>2021-04-23T08:46:01.000Z</time>
      </trkpt>
      <trkpt lat="49.1396" lon="1.35819">
        <ele>80</ele>
        <time>2021-04-23T08:46:02.000Z</time>
      </trkpt>
      <trkpt lat="49.13949" lon="1.35838">
        <ele>80.800003051758</ele>
        <time>2021-04-23T08:46:08.000Z</time>
      </trkpt>
      <trkpt lat="49.13945" lon="1.35844">
        <ele>81.400001525879</ele>
        <time>2021-04-23T08:46:10.000Z</time>
      </trkpt>
      <trkpt lat="49.13941" lon="1.35851">
        <ele>81.800003051758</ele>
        <time>2021-04-23T08:46:12.000Z</time>
      </trkpt>
      <trkpt lat="49.13938" lon="1.35857">
        <ele>82.400001525879</ele>
        <time>2021-04-23T08:46:14.000Z</time>
      </trkpt>
      <trkpt lat="49.13932" lon="1.35873">
        <ele>83.599998474121</ele>
        <time>2021-04-23T08:46:19.000Z</time>
      </trkpt>
      <trkpt lat="49.1393" lon="1.35876">
        <ele>83.599998474121</ele>
        <time>2021-04-23T08:46:20.000Z</time>
      </trkpt>
      <trkpt lat="49.13926" lon="1.35891">
        <ele>84.400001525879</ele>
        <time>2021-04-23T08:46:25.000Z</time>
      </trkpt>
      <trkpt lat="49.13925" lon="1.35894">
        <ele>84.599998474121</ele>
        <time>2021-04-23T08:46:26.000Z</time>
      </trkpt>
      <trkpt lat="49.1392" lon="1.3591">
        <ele>85.199996948242</ele>
        <time>2021-04-23T08:46:31.000Z</time>
      </trkpt>
      <trkpt lat="49.13918" lon="1.35913">
        <ele>85.599998474121</ele>
        <time>2021-04-23T08:46:32.000Z</time>
      </trkpt>
      <trkpt lat="49.1391" lon="1.35931">
        <ele>86</ele>
        <time>2021-04-23T08:46:36.000Z</time>
      </trkpt>
      <trkpt lat="49.13904" lon="1.35949">
        <ele>86.199996948242</ele>
        <time>2021-04-23T08:46:40.000Z</time>
      </trkpt>
      <trkpt lat="49.13897" lon="1.35965">
        <ele>86.599998474121</ele>
        <time>2021-04-23T08:46:44.000Z</time>
      </trkpt>
      <trkpt lat="49.13893" lon="1.35971">
        <ele>87</ele>
        <time>2021-04-23T08:46:46.000Z</time>
      </trkpt>
      <trkpt lat="49.13891" lon="1.35972">
        <ele>87.199996948242</ele>
        <time>2021-04-23T08:46:47.000Z</time>
      </trkpt>
      <trkpt lat="49.13888" lon="1.35972">
        <ele>87.800003051758</ele>
        <time>2021-04-23T08:46:49.000Z</time>
      </trkpt>
      <trkpt lat="49.13886" lon="1.35972">
        <ele>88.199996948242</ele>
        <time>2021-04-23T08:46:50.000Z</time>
      </trkpt>
      <trkpt lat="49.13871" lon="1.35963">
        <ele>88.800003051758</ele>
        <time>2021-04-23T08:46:56.000Z</time>
      </trkpt>
      <trkpt lat="49.13853" lon="1.35947">
        <ele>88.800003051758</ele>
        <time>2021-04-23T08:47:01.000Z</time>
      </trkpt>
      <trkpt lat="49.13842" lon="1.35936">
        <ele>88</ele>
        <time>2021-04-23T08:47:05.000Z</time>
      </trkpt>
      <trkpt lat="49.13839" lon="1.3593">
        <ele>87.599998474121</ele>
        <time>2021-04-23T08:47:08.000Z</time>
      </trkpt>
      <trkpt lat="49.13838" lon="1.35927">
        <ele>87.599998474121</ele>
        <time>2021-04-23T08:47:09.000Z</time>
      </trkpt>
      <trkpt lat="49.13836" lon="1.35911">
        <ele>87.599998474121</ele>
        <time>2021-04-23T08:47:14.000Z</time>
      </trkpt>
      <trkpt lat="49.13833" lon="1.35898">
        <ele>88.199996948242</ele>
        <time>2021-04-23T08:47:18.000Z</time>
      </trkpt>
      <trkpt lat="49.1383" lon="1.35889">
        <ele>88.800003051758</ele>
        <time>2021-04-23T08:47:21.000Z</time>
      </trkpt>
      <trkpt lat="49.13827" lon="1.35878">
        <ele>89.400001525879</ele>
        <time>2021-04-23T08:47:24.000Z</time>
      </trkpt>
      <trkpt lat="49.13826" lon="1.35876">
        <ele>89.599998474121</ele>
        <time>2021-04-23T08:47:25.000Z</time>
      </trkpt>
      <trkpt lat="49.13825" lon="1.35873">
        <ele>89.800003051758</ele>
        <time>2021-04-23T08:47:26.000Z</time>
      </trkpt>
      <trkpt lat="49.13821" lon="1.35868">
        <ele>90.199996948242</ele>
        <time>2021-04-23T08:47:28.000Z</time>
      </trkpt>
      <trkpt lat="49.13818" lon="1.35864">
        <ele>90.599998474121</ele>
        <time>2021-04-23T08:47:30.000Z</time>
      </trkpt>
      <trkpt lat="49.13814" lon="1.3586">
        <ele>91.199996948242</ele>
        <time>2021-04-23T08:47:32.000Z</time>
      </trkpt>
      <trkpt lat="49.13809" lon="1.35857">
        <ele>91.599998474121</ele>
        <time>2021-04-23T08:47:34.000Z</time>
      </trkpt>
      <trkpt lat="49.13806" lon="1.35854">
        <ele>92.199996948242</ele>
        <time>2021-04-23T08:47:36.000Z</time>
      </trkpt>
      <trkpt lat="49.13804" lon="1.35852">
        <ele>92.400001525879</ele>
        <time>2021-04-23T08:47:37.000Z</time>
      </trkpt>
      <trkpt lat="49.13802" lon="1.3585">
        <ele>92.800003051758</ele>
        <time>2021-04-23T08:47:38.000Z</time>
      </trkpt>
      <trkpt lat="49.13798" lon="1.35845">
        <ele>93.199996948242</ele>
        <time>2021-04-23T08:47:40.000Z</time>
      </trkpt>
      <trkpt lat="49.13791" lon="1.35834">
        <ele>94.400001525879</ele>
        <time>2021-04-23T08:47:44.000Z</time>
      </trkpt>
      <trkpt lat="49.13788" lon="1.3583">
        <ele>94.800003051758</ele>
        <time>2021-04-23T08:47:46.000Z</time>
      </trkpt>
      <trkpt lat="49.13785" lon="1.35824">
        <ele>95.400001525879</ele>
        <time>2021-04-23T08:47:49.000Z</time>
      </trkpt>
      <trkpt lat="49.13783" lon="1.35822">
        <ele>95.800003051758</ele>
        <time>2021-04-23T08:47:51.000Z</time>
      </trkpt>
      <trkpt lat="49.13778" lon="1.35815">
        <ele>96.599998474121</ele>
        <time>2021-04-23T08:47:54.000Z</time>
      </trkpt>
      <trkpt lat="49.1377" lon="1.35802">
        <ele>97.199996948242</ele>
        <time>2021-04-23T08:47:58.000Z</time>
      </trkpt>
      <trkpt lat="49.13769" lon="1.35799">
        <ele>97.400001525879</ele>
        <time>2021-04-23T08:47:59.000Z</time>
      </trkpt>
      <trkpt lat="49.13761" lon="1.35786">
        <ele>98.400001525879</ele>
        <time>2021-04-23T08:48:04.000Z</time>
      </trkpt>
      <trkpt lat="49.13753" lon="1.35783">
        <ele>99</ele>
        <time>2021-04-23T08:48:08.000Z</time>
      </trkpt>
      <trkpt lat="49.13749" lon="1.35783">
        <ele>99.599998474121</ele>
        <time>2021-04-23T08:48:10.000Z</time>
      </trkpt>
      <trkpt lat="49.13744" lon="1.35784">
        <ele>99.800003051758</ele>
        <time>2021-04-23T08:48:13.000Z</time>
      </trkpt>
      <trkpt lat="49.13736" lon="1.35782">
        <ele>100.40000152588</ele>
        <time>2021-04-23T08:48:17.000Z</time>
      </trkpt>
      <trkpt lat="49.13732" lon="1.35779">
        <ele>100.59999847412</ele>
        <time>2021-04-23T08:48:19.000Z</time>
      </trkpt>
      <trkpt lat="49.13721" lon="1.35774">
        <ele>101</ele>
        <time>2021-04-23T08:48:25.000Z</time>
      </trkpt>
      <trkpt lat="49.13713" lon="1.35772">
        <ele>101.80000305176</ele>
        <time>2021-04-23T08:48:29.000Z</time>
      </trkpt>
      <trkpt lat="49.13709" lon="1.3577">
        <ele>102.40000152588</ele>
        <time>2021-04-23T08:48:31.000Z</time>
      </trkpt>
      <trkpt lat="49.13707" lon="1.3577">
        <ele>102.80000305176</ele>
        <time>2021-04-23T08:48:32.000Z</time>
      </trkpt>
      <trkpt lat="49.13697" lon="1.35768">
        <ele>103.80000305176</ele>
        <time>2021-04-23T08:48:36.000Z</time>
      </trkpt>
      <trkpt lat="49.13693" lon="1.35768">
        <ele>104</ele>
        <time>2021-04-23T08:48:38.000Z</time>
      </trkpt>
      <trkpt lat="49.1369" lon="1.35767">
        <ele>104.59999847412</ele>
        <time>2021-04-23T08:48:40.000Z</time>
      </trkpt>
      <trkpt lat="49.13685" lon="1.35766">
        <ele>105</ele>
        <time>2021-04-23T08:48:42.000Z</time>
      </trkpt>
      <trkpt lat="49.13675" lon="1.35766">
        <ele>105.80000305176</ele>
        <time>2021-04-23T08:48:47.000Z</time>
      </trkpt>
      <trkpt lat="49.13673" lon="1.35766">
        <ele>106</ele>
        <time>2021-04-23T08:48:48.000Z</time>
      </trkpt>
      <trkpt lat="49.13671" lon="1.35766">
        <ele>106</ele>
        <time>2021-04-23T08:48:49.000Z</time>
      </trkpt>
      <trkpt lat="49.13663" lon="1.35765">
        <ele>106.80000305176</ele>
        <time>2021-04-23T08:48:53.000Z</time>
      </trkpt>
      <trkpt lat="49.13661" lon="1.35765">
        <ele>107</ele>
        <time>2021-04-23T08:48:54.000Z</time>
      </trkpt>
      <trkpt lat="49.13651" lon="1.35761">
        <ele>107.80000305176</ele>
        <time>2021-04-23T08:48:59.000Z</time>
      </trkpt>
      <trkpt lat="49.13646" lon="1.35757">
        <ele>108.59999847412</ele>
        <time>2021-04-23T08:49:04.000Z</time>
      </trkpt>
      <trkpt lat="49.13644" lon="1.35755">
        <ele>109</ele>
        <time>2021-04-23T08:49:06.000Z</time>
      </trkpt>
      <trkpt lat="49.13639" lon="1.35751">
        <ele>110.19999694824</ele>
        <time>2021-04-23T08:49:10.000Z</time>
      </trkpt>
      <trkpt lat="49.13636" lon="1.35746">
        <ele>111</ele>
        <time>2021-04-23T08:49:13.000Z</time>
      </trkpt>
      <trkpt lat="49.13634" lon="1.35743">
        <ele>111.40000152588</ele>
        <time>2021-04-23T08:49:15.000Z</time>
      </trkpt>
      <trkpt lat="49.1363" lon="1.35737">
        <ele>112.19999694824</ele>
        <time>2021-04-23T08:49:18.000Z</time>
      </trkpt>
      <trkpt lat="49.13629" lon="1.35734">
        <ele>112.59999847412</ele>
        <time>2021-04-23T08:49:20.000Z</time>
      </trkpt>
      <trkpt lat="49.13628" lon="1.35732">
        <ele>112.59999847412</ele>
        <time>2021-04-23T08:49:21.000Z</time>
      </trkpt>
      <trkpt lat="49.13625" lon="1.35725">
        <ele>113.40000152588</ele>
        <time>2021-04-23T08:49:24.000Z</time>
      </trkpt>
      <trkpt lat="49.13624" lon="1.35723">
        <ele>113.59999847412</ele>
        <time>2021-04-23T08:49:25.000Z</time>
      </trkpt>
      <trkpt lat="49.13624" lon="1.35721">
        <ele>113.80000305176</ele>
        <time>2021-04-23T08:49:26.000Z</time>
      </trkpt>
      <trkpt lat="49.13619" lon="1.35711">
        <ele>114.80000305176</ele>
        <time>2021-04-23T08:49:31.000Z</time>
      </trkpt>
      <trkpt lat="49.13613" lon="1.357">
        <ele>115.80000305176</ele>
        <time>2021-04-23T08:49:35.000Z</time>
      </trkpt>
      <trkpt lat="49.13611" lon="1.35694">
        <ele>116.40000152588</ele>
        <time>2021-04-23T08:49:37.000Z</time>
      </trkpt>
      <trkpt lat="49.13608" lon="1.35686">
        <ele>117</ele>
        <time>2021-04-23T08:49:40.000Z</time>
      </trkpt>
      <trkpt lat="49.13606" lon="1.3568">
        <ele>117.19999694824</ele>
        <time>2021-04-23T08:49:42.000Z</time>
      </trkpt>
      <trkpt lat="49.13602" lon="1.35671">
        <ele>118</ele>
        <time>2021-04-23T08:49:45.000Z</time>
      </trkpt>
      <trkpt lat="49.13601" lon="1.35666">
        <ele>118.40000152588</ele>
        <time>2021-04-23T08:49:47.000Z</time>
      </trkpt>
      <trkpt lat="49.13597" lon="1.35653">
        <ele>118.80000305176</ele>
        <time>2021-04-23T08:49:51.000Z</time>
      </trkpt>
      <trkpt lat="49.13596" lon="1.3565">
        <ele>119</ele>
        <time>2021-04-23T08:49:52.000Z</time>
      </trkpt>
      <trkpt lat="49.1359" lon="1.35626">
        <ele>120</ele>
        <time>2021-04-23T08:49:58.000Z</time>
      </trkpt>
      <trkpt lat="49.13585" lon="1.35604">
        <ele>120.59999847412</ele>
        <time>2021-04-23T08:50:04.000Z</time>
      </trkpt>
      <trkpt lat="49.13581" lon="1.35593">
        <ele>121</ele>
        <time>2021-04-23T08:50:07.000Z</time>
      </trkpt>
      <trkpt lat="49.13577" lon="1.35583">
        <ele>121.59999847412</ele>
        <time>2021-04-23T08:50:10.000Z</time>
      </trkpt>
      <trkpt lat="49.13574" lon="1.35574">
        <ele>122.19999694824</ele>
        <time>2021-04-23T08:50:13.000Z</time>
      </trkpt>
      <trkpt lat="49.13568" lon="1.35565">
        <ele>122.80000305176</ele>
        <time>2021-04-23T08:50:17.000Z</time>
      </trkpt>
      <trkpt lat="49.13565" lon="1.35562">
        <ele>123</ele>
        <time>2021-04-23T08:50:19.000Z</time>
      </trkpt>
      <trkpt lat="49.13563" lon="1.35562">
        <ele>123.19999694824</ele>
        <time>2021-04-23T08:50:20.000Z</time>
      </trkpt>
      <trkpt lat="49.13559" lon="1.3556">
        <ele>123.80000305176</ele>
        <time>2021-04-23T08:50:22.000Z</time>
      </trkpt>
      <trkpt lat="49.13544" lon="1.35557">
        <ele>124.19999694824</ele>
        <time>2021-04-23T08:50:27.000Z</time>
      </trkpt>
      <trkpt lat="49.13528" lon="1.35556">
        <ele>125</ele>
        <time>2021-04-23T08:50:32.000Z</time>
      </trkpt>
      <trkpt lat="49.13523" lon="1.35562">
        <ele>125.19999694824</ele>
        <time>2021-04-23T08:50:34.000Z</time>
      </trkpt>
      <trkpt lat="49.13519" lon="1.3557">
        <ele>125.40000152588</ele>
        <time>2021-04-23T08:50:36.000Z</time>
      </trkpt>
      <trkpt lat="49.13518" lon="1.35575">
        <ele>125.40000152588</ele>
        <time>2021-04-23T08:50:37.000Z</time>
      </trkpt>
      <trkpt lat="49.13515" lon="1.35592">
        <ele>125.40000152588</ele>
        <time>2021-04-23T08:50:40.000Z</time>
      </trkpt>
      <trkpt lat="49.13517" lon="1.35616">
        <ele>125.40000152588</ele>
        <time>2021-04-23T08:50:44.000Z</time>
      </trkpt>
      <trkpt lat="49.13518" lon="1.35631">
        <ele>125.19999694824</ele>
        <time>2021-04-23T08:50:46.000Z</time>
      </trkpt>
      <trkpt lat="49.13519" lon="1.35656">
        <ele>125</ele>
        <time>2021-04-23T08:50:49.000Z</time>
      </trkpt>
      <trkpt lat="49.1352" lon="1.35697">
        <ele>124.59999847412</ele>
        <time>2021-04-23T08:50:54.000Z</time>
      </trkpt>
      <trkpt lat="49.13522" lon="1.35725">
        <ele>124.19999694824</ele>
        <time>2021-04-23T08:50:57.000Z</time>
      </trkpt>
      <trkpt lat="49.13523" lon="1.35734">
        <ele>124</ele>
        <time>2021-04-23T08:50:58.000Z</time>
      </trkpt>
      <trkpt lat="49.13525" lon="1.35753">
        <ele>123.59999847412</ele>
        <time>2021-04-23T08:51:00.000Z</time>
      </trkpt>
      <trkpt lat="49.13529" lon="1.35783">
        <ele>123</ele>
        <time>2021-04-23T08:51:03.000Z</time>
      </trkpt>
      <trkpt lat="49.13532" lon="1.35815">
        <ele>122.19999694824</ele>
        <time>2021-04-23T08:51:06.000Z</time>
      </trkpt>
      <trkpt lat="49.13533" lon="1.35824">
        <ele>121.59999847412</ele>
        <time>2021-04-23T08:51:07.000Z</time>
      </trkpt>
      <trkpt lat="49.13537" lon="1.35841">
        <ele>120.40000152588</ele>
        <time>2021-04-23T08:51:09.000Z</time>
      </trkpt>
      <trkpt lat="49.13538" lon="1.35849">
        <ele>119.80000305176</ele>
        <time>2021-04-23T08:51:10.000Z</time>
      </trkpt>
      <trkpt lat="49.13539" lon="1.35857">
        <ele>119</ele>
        <time>2021-04-23T08:51:11.000Z</time>
      </trkpt>
      <trkpt lat="49.13541" lon="1.35873">
        <ele>117.59999847412</ele>
        <time>2021-04-23T08:51:13.000Z</time>
      </trkpt>
      <trkpt lat="49.13544" lon="1.3589">
        <ele>116.40000152588</ele>
        <time>2021-04-23T08:51:15.000Z</time>
      </trkpt>
      <trkpt lat="49.13544" lon="1.35898">
        <ele>115.40000152588</ele>
        <time>2021-04-23T08:51:16.000Z</time>
      </trkpt>
      <trkpt lat="49.13544" lon="1.35904">
        <ele>114.59999847412</ele>
        <time>2021-04-23T08:51:17.000Z</time>
      </trkpt>
      <trkpt lat="49.13543" lon="1.35909">
        <ele>113.40000152588</ele>
        <time>2021-04-23T08:51:18.000Z</time>
      </trkpt>
      <trkpt lat="49.13541" lon="1.3591">
        <ele>112</ele>
        <time>2021-04-23T08:51:19.000Z</time>
      </trkpt>
      <trkpt lat="49.13539" lon="1.35912">
        <ele>110.59999847412</ele>
        <time>2021-04-23T08:51:20.000Z</time>
      </trkpt>
      <trkpt lat="49.13537" lon="1.35911">
        <ele>109</ele>
        <time>2021-04-23T08:51:21.000Z</time>
      </trkpt>
      <trkpt lat="49.13535" lon="1.35912">
        <ele>107.40000152588</ele>
        <time>2021-04-23T08:51:22.000Z</time>
      </trkpt>
      <trkpt lat="49.13533" lon="1.35913">
        <ele>106</ele>
        <time>2021-04-23T08:51:23.000Z</time>
      </trkpt>
      <trkpt lat="49.1353" lon="1.35914">
        <ele>104.59999847412</ele>
        <time>2021-04-23T08:51:24.000Z</time>
      </trkpt>
      <trkpt lat="49.13528" lon="1.35915">
        <ele>103.59999847412</ele>
        <time>2021-04-23T08:51:25.000Z</time>
      </trkpt>
      <trkpt lat="49.13519" lon="1.35919">
        <ele>102.59999847412</ele>
        <time>2021-04-23T08:51:29.000Z</time>
      </trkpt>
      <trkpt lat="49.13511" lon="1.35919">
        <ele>102.40000152588</ele>
        <time>2021-04-23T08:51:33.000Z</time>
      </trkpt>
      <trkpt lat="49.13508" lon="1.35918">
        <ele>102.40000152588</ele>
        <time>2021-04-23T08:51:34.000Z</time>
      </trkpt>
      <trkpt lat="49.13496" lon="1.35916">
        <ele>102.80000305176</ele>
        <time>2021-04-23T08:51:38.000Z</time>
      </trkpt>
      <trkpt lat="49.13492" lon="1.35917">
        <ele>103</ele>
        <time>2021-04-23T08:51:39.000Z</time>
      </trkpt>
      <trkpt lat="49.13487" lon="1.35917">
        <ele>103.40000152588</ele>
        <time>2021-04-23T08:51:41.000Z</time>
      </trkpt>
      <trkpt lat="49.13483" lon="1.35917">
        <ele>103.59999847412</ele>
        <time>2021-04-23T08:51:42.000Z</time>
      </trkpt>
      <trkpt lat="49.1347" lon="1.35916">
        <ele>104.40000152588</ele>
        <time>2021-04-23T08:51:47.000Z</time>
      </trkpt>
      <trkpt lat="49.13467" lon="1.35915">
        <ele>104.59999847412</ele>
        <time>2021-04-23T08:51:48.000Z</time>
      </trkpt>
      <trkpt lat="49.13454" lon="1.35911">
        <ele>105.59999847412</ele>
        <time>2021-04-23T08:51:53.000Z</time>
      </trkpt>
      <trkpt lat="49.13451" lon="1.35911">
        <ele>105.80000305176</ele>
        <time>2021-04-23T08:51:54.000Z</time>
      </trkpt>
      <trkpt lat="49.13438" lon="1.35907">
        <ele>106.80000305176</ele>
        <time>2021-04-23T08:51:59.000Z</time>
      </trkpt>
      <trkpt lat="49.13436" lon="1.35905">
        <ele>106.80000305176</ele>
        <time>2021-04-23T08:52:00.000Z</time>
      </trkpt>
      <trkpt lat="49.13426" lon="1.35902">
        <ele>107.59999847412</ele>
        <time>2021-04-23T08:52:04.000Z</time>
      </trkpt>
      <trkpt lat="49.13424" lon="1.35901">
        <ele>107.80000305176</ele>
        <time>2021-04-23T08:52:05.000Z</time>
      </trkpt>
      <trkpt lat="49.13413" lon="1.35895">
        <ele>108.80000305176</ele>
        <time>2021-04-23T08:52:10.000Z</time>
      </trkpt>
      <trkpt lat="49.1341" lon="1.35894">
        <ele>108.80000305176</ele>
        <time>2021-04-23T08:52:11.000Z</time>
      </trkpt>
      <trkpt lat="49.13401" lon="1.35888">
        <ele>109.40000152588</ele>
        <time>2021-04-23T08:52:15.000Z</time>
      </trkpt>
      <trkpt lat="49.134" lon="1.35886">
        <ele>109.59999847412</ele>
        <time>2021-04-23T08:52:16.000Z</time>
      </trkpt>
      <trkpt lat="49.13399" lon="1.3588">
        <ele>110</ele>
        <time>2021-04-23T08:52:19.000Z</time>
      </trkpt>
      <trkpt lat="49.13399" lon="1.35866">
        <ele>110.59999847412</ele>
        <time>2021-04-23T08:52:25.000Z</time>
      </trkpt>
      <trkpt lat="49.13399" lon="1.35863">
        <ele>111</ele>
        <time>2021-04-23T08:52:26.000Z</time>
      </trkpt>
      <trkpt lat="49.13395" lon="1.35855">
        <ele>112.19999694824</ele>
        <time>2021-04-23T08:52:30.000Z</time>
      </trkpt>
      <trkpt lat="49.13393" lon="1.35851">
        <ele>112.80000305176</ele>
        <time>2021-04-23T08:52:32.000Z</time>
      </trkpt>
      <trkpt lat="49.13392" lon="1.35849">
        <ele>113.40000152588</ele>
        <time>2021-04-23T08:52:34.000Z</time>
      </trkpt>
      <trkpt lat="49.13388" lon="1.35843">
        <ele>114.59999847412</ele>
        <time>2021-04-23T08:52:37.000Z</time>
      </trkpt>
      <trkpt lat="49.13387" lon="1.3584">
        <ele>114.80000305176</ele>
        <time>2021-04-23T08:52:38.000Z</time>
      </trkpt>
      <trkpt lat="49.13385" lon="1.35833">
        <ele>115.80000305176</ele>
        <time>2021-04-23T08:52:41.000Z</time>
      </trkpt>
      <trkpt lat="49.13381" lon="1.35826">
        <ele>116.80000305176</ele>
        <time>2021-04-23T08:52:44.000Z</time>
      </trkpt>
      <trkpt lat="49.1338" lon="1.35825">
        <ele>117.19999694824</ele>
        <time>2021-04-23T08:52:45.000Z</time>
      </trkpt>
      <trkpt lat="49.13378" lon="1.35819">
        <ele>118.19999694824</ele>
        <time>2021-04-23T08:52:49.000Z</time>
      </trkpt>
      <trkpt lat="49.13376" lon="1.35813">
        <ele>119</ele>
        <time>2021-04-23T08:52:52.000Z</time>
      </trkpt>
      <trkpt lat="49.13377" lon="1.35808">
        <ele>119.40000152588</ele>
        <time>2021-04-23T08:52:54.000Z</time>
      </trkpt>
      <trkpt lat="49.13377" lon="1.35806">
        <ele>119.59999847412</ele>
        <time>2021-04-23T08:52:55.000Z</time>
      </trkpt>
      <trkpt lat="49.13377" lon="1.35798">
        <ele>120.40000152588</ele>
        <time>2021-04-23T08:52:58.000Z</time>
      </trkpt>
      <trkpt lat="49.13378" lon="1.35795">
        <ele>120.59999847412</ele>
        <time>2021-04-23T08:52:59.000Z</time>
      </trkpt>
      <trkpt lat="49.13378" lon="1.35792">
        <ele>120.80000305176</ele>
        <time>2021-04-23T08:53:00.000Z</time>
      </trkpt>
      <trkpt lat="49.13378" lon="1.3579">
        <ele>121</ele>
        <time>2021-04-23T08:53:01.000Z</time>
      </trkpt>
      <trkpt lat="49.13379" lon="1.35782">
        <ele>121.59999847412</ele>
        <time>2021-04-23T08:53:04.000Z</time>
      </trkpt>
      <trkpt lat="49.13379" lon="1.35776">
        <ele>122.40000152588</ele>
        <time>2021-04-23T08:53:07.000Z</time>
      </trkpt>
      <trkpt lat="49.13379" lon="1.35773">
        <ele>122.59999847412</ele>
        <time>2021-04-23T08:53:08.000Z</time>
      </trkpt>
      <trkpt lat="49.13378" lon="1.35763">
        <ele>123.40000152588</ele>
        <time>2021-04-23T08:53:12.000Z</time>
      </trkpt>
      <trkpt lat="49.13378" lon="1.35761">
        <ele>123.59999847412</ele>
        <time>2021-04-23T08:53:13.000Z</time>
      </trkpt>
      <trkpt lat="49.13378" lon="1.35758">
        <ele>123.80000305176</ele>
        <time>2021-04-23T08:53:14.000Z</time>
      </trkpt>
      <trkpt lat="49.13378" lon="1.35751">
        <ele>123.80000305176</ele>
        <time>2021-04-23T08:53:16.000Z</time>
      </trkpt>
      <trkpt lat="49.1338" lon="1.35742">
        <ele>124</ele>
        <time>2021-04-23T08:53:18.000Z</time>
      </trkpt>
      <trkpt lat="49.13381" lon="1.35734">
        <ele>124.19999694824</ele>
        <time>2021-04-23T08:53:20.000Z</time>
      </trkpt>
      <trkpt lat="49.13382" lon="1.35724">
        <ele>124.40000152588</ele>
        <time>2021-04-23T08:53:22.000Z</time>
      </trkpt>
      <trkpt lat="49.13384" lon="1.35705">
        <ele>124.80000305176</ele>
        <time>2021-04-23T08:53:26.000Z</time>
      </trkpt>
      <trkpt lat="49.13384" lon="1.357">
        <ele>124.80000305176</ele>
        <time>2021-04-23T08:53:27.000Z</time>
      </trkpt>
      <trkpt lat="49.13384" lon="1.35676">
        <ele>125.19999694824</ele>
        <time>2021-04-23T08:53:32.000Z</time>
      </trkpt>
      <trkpt lat="49.13387" lon="1.35654">
        <ele>125.40000152588</ele>
        <time>2021-04-23T08:53:37.000Z</time>
      </trkpt>
      <trkpt lat="49.13392" lon="1.35639">
        <ele>125.80000305176</ele>
        <time>2021-04-23T08:53:40.000Z</time>
      </trkpt>
      <trkpt lat="49.134" lon="1.35624">
        <ele>126</ele>
        <time>2021-04-23T08:53:43.000Z</time>
      </trkpt>
      <trkpt lat="49.13406" lon="1.35613">
        <ele>126.19999694824</ele>
        <time>2021-04-23T08:53:45.000Z</time>
      </trkpt>
      <trkpt lat="49.13413" lon="1.35598">
        <ele>126.19999694824</ele>
        <time>2021-04-23T08:53:48.000Z</time>
      </trkpt>
      <trkpt lat="49.13422" lon="1.35576">
        <ele>126.40000152588</ele>
        <time>2021-04-23T08:53:52.000Z</time>
      </trkpt>
      <trkpt lat="49.13435" lon="1.35552">
        <ele>126.40000152588</ele>
        <time>2021-04-23T08:53:57.000Z</time>
      </trkpt>
      <trkpt lat="49.13443" lon="1.35529">
        <ele>126.40000152588</ele>
        <time>2021-04-23T08:54:01.000Z</time>
      </trkpt>
      <trkpt lat="49.13446" lon="1.35523">
        <ele>126.40000152588</ele>
        <time>2021-04-23T08:54:02.000Z</time>
      </trkpt>
      <trkpt lat="49.13452" lon="1.35506">
        <ele>126.40000152588</ele>
        <time>2021-04-23T08:54:05.000Z</time>
      </trkpt>
      <trkpt lat="49.13451" lon="1.35488">
        <ele>126.59999847412</ele>
        <time>2021-04-23T08:54:08.000Z</time>
      </trkpt>
      <trkpt lat="49.13447" lon="1.35474">
        <ele>126.80000305176</ele>
        <time>2021-04-23T08:54:11.000Z</time>
      </trkpt>
      <trkpt lat="49.13449" lon="1.3547">
        <ele>126.80000305176</ele>
        <time>2021-04-23T08:54:12.000Z</time>
      </trkpt>
      <trkpt lat="49.1346" lon="1.35469">
        <ele>127</ele>
        <time>2021-04-23T08:54:15.000Z</time>
      </trkpt>
      <trkpt lat="49.13464" lon="1.35471">
        <ele>127</ele>
        <time>2021-04-23T08:54:16.000Z</time>
      </trkpt>
      <trkpt lat="49.13477" lon="1.35474">
        <ele>127</ele>
        <time>2021-04-23T08:54:19.000Z</time>
      </trkpt>
      <trkpt lat="49.13481" lon="1.35476">
        <ele>127</ele>
        <time>2021-04-23T08:54:20.000Z</time>
      </trkpt>
      <trkpt lat="49.13506" lon="1.35485">
        <ele>126.59999847412</ele>
        <time>2021-04-23T08:54:25.000Z</time>
      </trkpt>
      <trkpt lat="49.1353" lon="1.35499">
        <ele>126.19999694824</ele>
        <time>2021-04-23T08:54:31.000Z</time>
      </trkpt>
      <trkpt lat="49.13539" lon="1.35503">
        <ele>126</ele>
        <time>2021-04-23T08:54:33.000Z</time>
      </trkpt>
      <trkpt lat="49.13551" lon="1.35512">
        <ele>125.59999847412</ele>
        <time>2021-04-23T08:54:36.000Z</time>
      </trkpt>
      <trkpt lat="49.13556" lon="1.35516">
        <ele>125.40000152588</ele>
        <time>2021-04-23T08:54:37.000Z</time>
      </trkpt>
      <trkpt lat="49.13565" lon="1.35524">
        <ele>125</ele>
        <time>2021-04-23T08:54:39.000Z</time>
      </trkpt>
      <trkpt lat="49.13579" lon="1.35537">
        <ele>124.59999847412</ele>
        <time>2021-04-23T08:54:42.000Z</time>
      </trkpt>
      <trkpt lat="49.13585" lon="1.3554">
        <ele>124.40000152588</ele>
        <time>2021-04-23T08:54:43.000Z</time>
      </trkpt>
      <trkpt lat="49.13599" lon="1.35548">
        <ele>124.19999694824</ele>
        <time>2021-04-23T08:54:46.000Z</time>
      </trkpt>
      <trkpt lat="49.13613" lon="1.35564">
        <ele>123.40000152588</ele>
        <time>2021-04-23T08:54:49.000Z</time>
      </trkpt>
      <trkpt lat="49.13619" lon="1.35571">
        <ele>123</ele>
        <time>2021-04-23T08:54:50.000Z</time>
      </trkpt>
      <trkpt lat="49.13624" lon="1.35577">
        <ele>122.19999694824</ele>
        <time>2021-04-23T08:54:51.000Z</time>
      </trkpt>
      <trkpt lat="49.13629" lon="1.3558">
        <ele>122</ele>
        <time>2021-04-23T08:54:52.000Z</time>
      </trkpt>
      <trkpt lat="49.13632" lon="1.35581">
        <ele>121.59999847412</ele>
        <time>2021-04-23T08:54:53.000Z</time>
      </trkpt>
      <trkpt lat="49.13638" lon="1.35577">
        <ele>121.19999694824</ele>
        <time>2021-04-23T08:54:55.000Z</time>
      </trkpt>
      <trkpt lat="49.13639" lon="1.35573">
        <ele>121</ele>
        <time>2021-04-23T08:54:56.000Z</time>
      </trkpt>
      <trkpt lat="49.13646" lon="1.3556">
        <ele>119.80000305176</ele>
        <time>2021-04-23T08:54:59.000Z</time>
      </trkpt>
      <trkpt lat="49.1365" lon="1.35552">
        <ele>119.19999694824</ele>
        <time>2021-04-23T08:55:01.000Z</time>
      </trkpt>
      <trkpt lat="49.13654" lon="1.35541">
        <ele>119.19999694824</ele>
        <time>2021-04-23T08:55:06.000Z</time>
      </trkpt>
      <trkpt lat="49.1366" lon="1.3553">
        <ele>119.19999694824</ele>
        <time>2021-04-23T08:55:10.000Z</time>
      </trkpt>
      <trkpt lat="49.13665" lon="1.35512">
        <ele>119.80000305176</ele>
        <time>2021-04-23T08:55:14.000Z</time>
      </trkpt>
      <trkpt lat="49.13667" lon="1.35507">
        <ele>120</ele>
        <time>2021-04-23T08:55:15.000Z</time>
      </trkpt>
      <trkpt lat="49.13669" lon="1.35494">
        <ele>120.59999847412</ele>
        <time>2021-04-23T08:55:18.000Z</time>
      </trkpt>
      <trkpt lat="49.13669" lon="1.3549">
        <ele>120.80000305176</ele>
        <time>2021-04-23T08:55:19.000Z</time>
      </trkpt>
      <trkpt lat="49.1367" lon="1.3548">
        <ele>121</ele>
        <time>2021-04-23T08:55:21.000Z</time>
      </trkpt>
      <trkpt lat="49.13671" lon="1.35475">
        <ele>121</ele>
        <time>2021-04-23T08:55:22.000Z</time>
      </trkpt>
      <trkpt lat="49.13679" lon="1.35449">
        <ele>121.19999694824</ele>
        <time>2021-04-23T08:55:26.000Z</time>
      </trkpt>
      <trkpt lat="49.13683" lon="1.35436">
        <ele>121.19999694824</ele>
        <time>2021-04-23T08:55:28.000Z</time>
      </trkpt>
      <trkpt lat="49.13695" lon="1.35397">
        <ele>121.40000152588</ele>
        <time>2021-04-23T08:55:33.000Z</time>
      </trkpt>
      <trkpt lat="49.13699" lon="1.35388">
        <ele>121.40000152588</ele>
        <time>2021-04-23T08:55:34.000Z</time>
      </trkpt>
      <trkpt lat="49.13709" lon="1.35358">
        <ele>121.40000152588</ele>
        <time>2021-04-23T08:55:37.000Z</time>
      </trkpt>
      <trkpt lat="49.13717" lon="1.35326">
        <ele>121.40000152588</ele>
        <time>2021-04-23T08:55:40.000Z</time>
      </trkpt>
      <trkpt lat="49.13718" lon="1.35304">
        <ele>121</ele>
        <time>2021-04-23T08:55:42.000Z</time>
      </trkpt>
      <trkpt lat="49.13719" lon="1.35256">
        <ele>118.80000305176</ele>
        <time>2021-04-23T08:55:46.000Z</time>
      </trkpt>
      <trkpt lat="49.13719" lon="1.35241">
        <ele>118.19999694824</ele>
        <time>2021-04-23T08:55:47.000Z</time>
      </trkpt>
      <trkpt lat="49.13719" lon="1.35212">
        <ele>117.40000152588</ele>
        <time>2021-04-23T08:55:49.000Z</time>
      </trkpt>
      <trkpt lat="49.13719" lon="1.35163">
        <ele>116</ele>
        <time>2021-04-23T08:55:52.000Z</time>
      </trkpt>
      <trkpt lat="49.13719" lon="1.35134">
        <ele>115</ele>
        <time>2021-04-23T08:55:54.000Z</time>
      </trkpt>
      <trkpt lat="49.13719" lon="1.35124">
        <ele>114.19999694824</ele>
        <time>2021-04-23T08:55:55.000Z</time>
      </trkpt>
      <trkpt lat="49.13719" lon="1.35112">
        <ele>112.19999694824</ele>
        <time>2021-04-23T08:55:57.000Z</time>
      </trkpt>
      <trkpt lat="49.13717" lon="1.35108">
        <ele>111</ele>
        <time>2021-04-23T08:55:58.000Z</time>
      </trkpt>
      <trkpt lat="49.13715" lon="1.35105">
        <ele>109.80000305176</ele>
        <time>2021-04-23T08:55:59.000Z</time>
      </trkpt>
      <trkpt lat="49.13713" lon="1.35103">
        <ele>108.40000152588</ele>
        <time>2021-04-23T08:56:00.000Z</time>
      </trkpt>
      <trkpt lat="49.13711" lon="1.35102">
        <ele>107.19999694824</ele>
        <time>2021-04-23T08:56:01.000Z</time>
      </trkpt>
      <trkpt lat="49.13708" lon="1.35101">
        <ele>106.40000152588</ele>
        <time>2021-04-23T08:56:02.000Z</time>
      </trkpt>
      <trkpt lat="49.13704" lon="1.35099">
        <ele>105.80000305176</ele>
        <time>2021-04-23T08:56:03.000Z</time>
      </trkpt>
      <trkpt lat="49.13691" lon="1.35092">
        <ele>104.80000305176</ele>
        <time>2021-04-23T08:56:07.000Z</time>
      </trkpt>
      <trkpt lat="49.13689" lon="1.35091">
        <ele>104.80000305176</ele>
        <time>2021-04-23T08:56:08.000Z</time>
      </trkpt>
      <trkpt lat="49.13672" lon="1.35091">
        <ele>104.19999694824</ele>
        <time>2021-04-23T08:56:13.000Z</time>
      </trkpt>
      <trkpt lat="49.13651" lon="1.35088">
        <ele>104</ele>
        <time>2021-04-23T08:56:18.000Z</time>
      </trkpt>
      <trkpt lat="49.13647" lon="1.35088">
        <ele>104</ele>
        <time>2021-04-23T08:56:19.000Z</time>
      </trkpt>
      <trkpt lat="49.13629" lon="1.35087">
        <ele>104.19999694824</ele>
        <time>2021-04-23T08:56:23.000Z</time>
      </trkpt>
      <trkpt lat="49.13606" lon="1.35087">
        <ele>104.40000152588</ele>
        <time>2021-04-23T08:56:28.000Z</time>
      </trkpt>
      <trkpt lat="49.13582" lon="1.35096">
        <ele>104.59999847412</ele>
        <time>2021-04-23T08:56:34.000Z</time>
      </trkpt>
      <trkpt lat="49.13561" lon="1.35116">
        <ele>105.19999694824</ele>
        <time>2021-04-23T08:56:42.000Z</time>
      </trkpt>
      <trkpt lat="49.13557" lon="1.35123">
        <ele>106.19999694824</ele>
        <time>2021-04-23T08:56:44.000Z</time>
      </trkpt>
      <trkpt lat="49.13551" lon="1.35133">
        <ele>107.19999694824</ele>
        <time>2021-04-23T08:56:47.000Z</time>
      </trkpt>
      <trkpt lat="49.13548" lon="1.35136">
        <ele>107.59999847412</ele>
        <time>2021-04-23T08:56:48.000Z</time>
      </trkpt>
      <trkpt lat="49.13537" lon="1.35151">
        <ele>108.40000152588</ele>
        <time>2021-04-23T08:56:53.000Z</time>
      </trkpt>
      <trkpt lat="49.13532" lon="1.35156">
        <ele>109</ele>
        <time>2021-04-23T08:56:55.000Z</time>
      </trkpt>
      <trkpt lat="49.13528" lon="1.35162">
        <ele>109.59999847412</ele>
        <time>2021-04-23T08:56:57.000Z</time>
      </trkpt>
      <trkpt lat="49.13517" lon="1.35174">
        <ele>110.80000305176</ele>
        <time>2021-04-23T08:57:01.000Z</time>
      </trkpt>
      <trkpt lat="49.13496" lon="1.35187">
        <ele>111.80000305176</ele>
        <time>2021-04-23T08:57:07.000Z</time>
      </trkpt>
      <trkpt lat="49.13493" lon="1.35189">
        <ele>112</ele>
        <time>2021-04-23T08:57:08.000Z</time>
      </trkpt>
      <trkpt lat="49.13466" lon="1.35195">
        <ele>112.59999847412</ele>
        <time>2021-04-23T08:57:15.000Z</time>
      </trkpt>
      <trkpt lat="49.13431" lon="1.35199">
        <ele>113</ele>
        <time>2021-04-23T08:57:23.000Z</time>
      </trkpt>
      <trkpt lat="49.13427" lon="1.352">
        <ele>113</ele>
        <time>2021-04-23T08:57:24.000Z</time>
      </trkpt>
      <trkpt lat="49.13401" lon="1.35204">
        <ele>113.40000152588</ele>
        <time>2021-04-23T08:57:30.000Z</time>
      </trkpt>
      <trkpt lat="49.13384" lon="1.35207">
        <ele>113.59999847412</ele>
        <time>2021-04-23T08:57:34.000Z</time>
      </trkpt>
      <trkpt lat="49.13377" lon="1.35209">
        <ele>113.59999847412</ele>
        <time>2021-04-23T08:57:36.000Z</time>
      </trkpt>
      <trkpt lat="49.13359" lon="1.35215">
        <ele>114</ele>
        <time>2021-04-23T08:57:41.000Z</time>
      </trkpt>
      <trkpt lat="49.13355" lon="1.35216">
        <ele>114</ele>
        <time>2021-04-23T08:57:42.000Z</time>
      </trkpt>
      <trkpt lat="49.13328" lon="1.3522">
        <ele>114.80000305176</ele>
        <time>2021-04-23T08:57:49.000Z</time>
      </trkpt>
      <trkpt lat="49.13324" lon="1.3522">
        <ele>115.19999694824</ele>
        <time>2021-04-23T08:57:50.000Z</time>
      </trkpt>
      <trkpt lat="49.13311" lon="1.3522">
        <ele>116.19999694824</ele>
        <time>2021-04-23T08:57:53.000Z</time>
      </trkpt>
      <trkpt lat="49.13293" lon="1.35219">
        <ele>117.19999694824</ele>
        <time>2021-04-23T08:57:57.000Z</time>
      </trkpt>
      <trkpt lat="49.13255" lon="1.35214">
        <ele>117.80000305176</ele>
        <time>2021-04-23T08:58:05.000Z</time>
      </trkpt>
      <trkpt lat="49.13241" lon="1.35211">
        <ele>118</ele>
        <time>2021-04-23T08:58:08.000Z</time>
      </trkpt>
      <trkpt lat="49.13226" lon="1.35203">
        <ele>118</ele>
        <time>2021-04-23T08:58:11.000Z</time>
      </trkpt>
      <trkpt lat="49.13221" lon="1.35201">
        <ele>118</ele>
        <time>2021-04-23T08:58:12.000Z</time>
      </trkpt>
      <trkpt lat="49.13192" lon="1.3519">
        <ele>118</ele>
        <time>2021-04-23T08:58:18.000Z</time>
      </trkpt>
      <trkpt lat="49.13187" lon="1.3519">
        <ele>118</ele>
        <time>2021-04-23T08:58:19.000Z</time>
      </trkpt>
      <trkpt lat="49.1316" lon="1.35187">
        <ele>117.80000305176</ele>
        <time>2021-04-23T08:58:25.000Z</time>
      </trkpt>
      <trkpt lat="49.13125" lon="1.35186">
        <ele>118.40000152588</ele>
        <time>2021-04-23T08:58:33.000Z</time>
      </trkpt>
      <trkpt lat="49.13109" lon="1.35189">
        <ele>119.40000152588</ele>
        <time>2021-04-23T08:58:37.000Z</time>
      </trkpt>
      <trkpt lat="49.13096" lon="1.35194">
        <ele>120</ele>
        <time>2021-04-23T08:58:40.000Z</time>
      </trkpt>
      <trkpt lat="49.1308" lon="1.35198">
        <ele>120.59999847412</ele>
        <time>2021-04-23T08:58:44.000Z</time>
      </trkpt>
      <trkpt lat="49.13068" lon="1.35202">
        <ele>121</ele>
        <time>2021-04-23T08:58:47.000Z</time>
      </trkpt>
      <trkpt lat="49.13052" lon="1.35208">
        <ele>121.80000305176</ele>
        <time>2021-04-23T08:58:51.000Z</time>
      </trkpt>
      <trkpt lat="49.13033" lon="1.35215">
        <ele>122.40000152588</ele>
        <time>2021-04-23T08:58:56.000Z</time>
      </trkpt>
      <trkpt lat="49.13021" lon="1.35218">
        <ele>122.80000305176</ele>
        <time>2021-04-23T08:58:59.000Z</time>
      </trkpt>
      <trkpt lat="49.13" lon="1.35219">
        <ele>124.19999694824</ele>
        <time>2021-04-23T08:59:04.000Z</time>
      </trkpt>
      <trkpt lat="49.12979" lon="1.35208">
        <ele>125.19999694824</ele>
        <time>2021-04-23T08:59:09.000Z</time>
      </trkpt>
      <trkpt lat="49.12975" lon="1.35205">
        <ele>125.40000152588</ele>
        <time>2021-04-23T08:59:10.000Z</time>
      </trkpt>
      <trkpt lat="49.12949" lon="1.3518">
        <ele>126.40000152588</ele>
        <time>2021-04-23T08:59:17.000Z</time>
      </trkpt>
      <trkpt lat="49.12934" lon="1.35166">
        <ele>126.59999847412</ele>
        <time>2021-04-23T08:59:21.000Z</time>
      </trkpt>
      <trkpt lat="49.129" lon="1.35133">
        <ele>127.40000152588</ele>
        <time>2021-04-23T08:59:30.000Z</time>
      </trkpt>
      <trkpt lat="49.12857" lon="1.35096">
        <ele>128.39999389648</ele>
        <time>2021-04-23T08:59:41.000Z</time>
      </trkpt>
      <trkpt lat="49.12853" lon="1.35092">
        <ele>128.39999389648</ele>
        <time>2021-04-23T08:59:42.000Z</time>
      </trkpt>
      <trkpt lat="49.12821" lon="1.35066">
        <ele>129.39999389648</ele>
        <time>2021-04-23T08:59:50.000Z</time>
      </trkpt>
      <trkpt lat="49.12817" lon="1.35063">
        <ele>129.60000610352</ele>
        <time>2021-04-23T08:59:51.000Z</time>
      </trkpt>
      <trkpt lat="49.12784" lon="1.35038">
        <ele>130.60000610352</ele>
        <time>2021-04-23T08:59:59.000Z</time>
      </trkpt>
      <trkpt lat="49.12777" lon="1.3503">
        <ele>131</ele>
        <time>2021-04-23T09:00:01.000Z</time>
      </trkpt>
      <trkpt lat="49.12773" lon="1.35018">
        <ele>131.19999694824</ele>
        <time>2021-04-23T09:00:03.000Z</time>
      </trkpt>
      <trkpt lat="49.12771" lon="1.34996">
        <ele>131.39999389648</ele>
        <time>2021-04-23T09:00:06.000Z</time>
      </trkpt>
      <trkpt lat="49.12769" lon="1.34975">
        <ele>131.60000610352</ele>
        <time>2021-04-23T09:00:09.000Z</time>
      </trkpt>
      <trkpt lat="49.12768" lon="1.34968">
        <ele>131.60000610352</ele>
        <time>2021-04-23T09:00:10.000Z</time>
      </trkpt>
      <trkpt lat="49.12762" lon="1.34915">
        <ele>132.80000305176</ele>
        <time>2021-04-23T09:00:17.000Z</time>
      </trkpt>
      <trkpt lat="49.12755" lon="1.34843">
        <ele>133.60000610352</ele>
        <time>2021-04-23T09:00:25.000Z</time>
      </trkpt>
      <trkpt lat="49.12748" lon="1.3476">
        <ele>133.39999389648</ele>
        <time>2021-04-23T09:00:33.000Z</time>
      </trkpt>
      <trkpt lat="49.12747" lon="1.34749">
        <ele>133.19999694824</ele>
        <time>2021-04-23T09:00:34.000Z</time>
      </trkpt>
      <trkpt lat="49.12744" lon="1.34661">
        <ele>132</ele>
        <time>2021-04-23T09:00:42.000Z</time>
      </trkpt>
      <trkpt lat="49.12743" lon="1.34638">
        <ele>132</ele>
        <time>2021-04-23T09:00:44.000Z</time>
      </trkpt>
      <trkpt lat="49.12742" lon="1.34604">
        <ele>131.80000305176</ele>
        <time>2021-04-23T09:00:47.000Z</time>
      </trkpt>
      <trkpt lat="49.12739" lon="1.34522">
        <ele>131.80000305176</ele>
        <time>2021-04-23T09:00:54.000Z</time>
      </trkpt>
      <trkpt lat="49.12733" lon="1.3444">
        <ele>131.60000610352</ele>
        <time>2021-04-23T09:01:01.000Z</time>
      </trkpt>
      <trkpt lat="49.12732" lon="1.34428">
        <ele>131.60000610352</ele>
        <time>2021-04-23T09:01:02.000Z</time>
      </trkpt>
      <trkpt lat="49.12722" lon="1.34349">
        <ele>131.19999694824</ele>
        <time>2021-04-23T09:01:09.000Z</time>
      </trkpt>
      <trkpt lat="49.12726" lon="1.34316">
        <ele>131.19999694824</ele>
        <time>2021-04-23T09:01:12.000Z</time>
      </trkpt>
      <trkpt lat="49.12732" lon="1.34297">
        <ele>131.19999694824</ele>
        <time>2021-04-23T09:01:14.000Z</time>
      </trkpt>
      <trkpt lat="49.12746" lon="1.34261">
        <ele>131.39999389648</ele>
        <time>2021-04-23T09:01:18.000Z</time>
      </trkpt>
      <trkpt lat="49.12774" lon="1.34181">
        <ele>132.80000305176</ele>
        <time>2021-04-23T09:01:27.000Z</time>
      </trkpt>
      <trkpt lat="49.12802" lon="1.34118">
        <ele>134</ele>
        <time>2021-04-23T09:01:35.000Z</time>
      </trkpt>
      <trkpt lat="49.12804" lon="1.3411">
        <ele>134</ele>
        <time>2021-04-23T09:01:36.000Z</time>
      </trkpt>
      <trkpt lat="49.12803" lon="1.34094">
        <ele>134.19999694824</ele>
        <time>2021-04-23T09:01:38.000Z</time>
      </trkpt>
      <trkpt lat="49.12792" lon="1.34077">
        <ele>134.19999694824</ele>
        <time>2021-04-23T09:01:41.000Z</time>
      </trkpt>
      <trkpt lat="49.12774" lon="1.34058">
        <ele>134.39999389648</ele>
        <time>2021-04-23T09:01:45.000Z</time>
      </trkpt>
      <trkpt lat="49.12765" lon="1.3405">
        <ele>134.39999389648</ele>
        <time>2021-04-23T09:01:47.000Z</time>
      </trkpt>
      <trkpt lat="49.1273" lon="1.34009">
        <ele>134.60000610352</ele>
        <time>2021-04-23T09:01:55.000Z</time>
      </trkpt>
      <trkpt lat="49.12689" lon="1.33962">
        <ele>134.80000305176</ele>
        <time>2021-04-23T09:02:04.000Z</time>
      </trkpt>
      <trkpt lat="49.12649" lon="1.33914">
        <ele>135</ele>
        <time>2021-04-23T09:02:13.000Z</time>
      </trkpt>
      <trkpt lat="49.1264" lon="1.33904">
        <ele>135.19999694824</ele>
        <time>2021-04-23T09:02:15.000Z</time>
      </trkpt>
      <trkpt lat="49.12595" lon="1.33852">
        <ele>135.60000610352</ele>
        <time>2021-04-23T09:02:25.000Z</time>
      </trkpt>
      <trkpt lat="49.12591" lon="1.33846">
        <ele>135.60000610352</ele>
        <time>2021-04-23T09:02:26.000Z</time>
      </trkpt>
      <trkpt lat="49.12552" lon="1.33799">
        <ele>136.39999389648</ele>
        <time>2021-04-23T09:02:35.000Z</time>
      </trkpt>
      <trkpt lat="49.12514" lon="1.33755">
        <ele>136.60000610352</ele>
        <time>2021-04-23T09:02:44.000Z</time>
      </trkpt>
      <trkpt lat="49.12468" lon="1.33702">
        <ele>137.39999389648</ele>
        <time>2021-04-23T09:02:55.000Z</time>
      </trkpt>
      <trkpt lat="49.12464" lon="1.33697">
        <ele>137.39999389648</ele>
        <time>2021-04-23T09:02:56.000Z</time>
      </trkpt>
      <trkpt lat="49.12421" lon="1.33645">
        <ele>137.60000610352</ele>
        <time>2021-04-23T09:03:06.000Z</time>
      </trkpt>
      <trkpt lat="49.12377" lon="1.33591">
        <ele>137.60000610352</ele>
        <time>2021-04-23T09:03:16.000Z</time>
      </trkpt>
      <trkpt lat="49.12368" lon="1.3358">
        <ele>137.60000610352</ele>
        <time>2021-04-23T09:03:18.000Z</time>
      </trkpt>
      <trkpt lat="49.12336" lon="1.33545">
        <ele>137.60000610352</ele>
        <time>2021-04-23T09:03:25.000Z</time>
      </trkpt>
      <trkpt lat="49.12315" lon="1.33519">
        <ele>137</ele>
        <time>2021-04-23T09:03:30.000Z</time>
      </trkpt>
      <trkpt lat="49.12308" lon="1.33508">
        <ele>137</ele>
        <time>2021-04-23T09:03:32.000Z</time>
      </trkpt>
      <trkpt lat="49.12269" lon="1.33462">
        <ele>136.80000305176</ele>
        <time>2021-04-23T09:03:41.000Z</time>
      </trkpt>
      <trkpt lat="49.12235" lon="1.33422">
        <ele>136.80000305176</ele>
        <time>2021-04-23T09:03:49.000Z</time>
      </trkpt>
      <trkpt lat="49.12198" lon="1.33377">
        <ele>137.39999389648</ele>
        <time>2021-04-23T09:03:58.000Z</time>
      </trkpt>
      <trkpt lat="49.1216" lon="1.33332">
        <ele>137.80000305176</ele>
        <time>2021-04-23T09:04:07.000Z</time>
      </trkpt>
      <trkpt lat="49.12126" lon="1.33294">
        <ele>138</ele>
        <time>2021-04-23T09:04:15.000Z</time>
      </trkpt>
      <trkpt lat="49.12121" lon="1.3329">
        <ele>138.19999694824</ele>
        <time>2021-04-23T09:04:16.000Z</time>
      </trkpt>
      <trkpt lat="49.1211" lon="1.33276">
        <ele>138.19999694824</ele>
        <time>2021-04-23T09:04:19.000Z</time>
      </trkpt>
      <trkpt lat="49.12108" lon="1.3327">
        <ele>138.19999694824</ele>
        <time>2021-04-23T09:04:20.000Z</time>
      </trkpt>
      <trkpt lat="49.12115" lon="1.33255">
        <ele>138.39999389648</ele>
        <time>2021-04-23T09:04:23.000Z</time>
      </trkpt>
      <trkpt lat="49.12119" lon="1.33252">
        <ele>138.39999389648</ele>
        <time>2021-04-23T09:04:24.000Z</time>
      </trkpt>
      <trkpt lat="49.12132" lon="1.33241">
        <ele>138.80000305176</ele>
        <time>2021-04-23T09:04:27.000Z</time>
      </trkpt>
      <trkpt lat="49.12154" lon="1.33224">
        <ele>140</ele>
        <time>2021-04-23T09:04:32.000Z</time>
      </trkpt>
      <trkpt lat="49.12203" lon="1.33183">
        <ele>140.19999694824</ele>
        <time>2021-04-23T09:04:43.000Z</time>
      </trkpt>
      <trkpt lat="49.12248" lon="1.33147">
        <ele>139.80000305176</ele>
        <time>2021-04-23T09:04:53.000Z</time>
      </trkpt>
      <trkpt lat="49.12287" lon="1.33114">
        <ele>139.60000610352</ele>
        <time>2021-04-23T09:05:02.000Z</time>
      </trkpt>
      <trkpt lat="49.1233" lon="1.33078">
        <ele>139.60000610352</ele>
        <time>2021-04-23T09:05:12.000Z</time>
      </trkpt>
      <trkpt lat="49.1236" lon="1.33054">
        <ele>139.60000610352</ele>
        <time>2021-04-23T09:05:19.000Z</time>
      </trkpt>
      <trkpt lat="49.12388" lon="1.33043">
        <ele>140</ele>
        <time>2021-04-23T09:05:25.000Z</time>
      </trkpt>
      <trkpt lat="49.12437" lon="1.33029">
        <ele>140.39999389648</ele>
        <time>2021-04-23T09:05:35.000Z</time>
      </trkpt>
      <trkpt lat="49.12491" lon="1.3301">
        <ele>140.60000610352</ele>
        <time>2021-04-23T09:05:46.000Z</time>
      </trkpt>
      <trkpt lat="49.12536" lon="1.32993">
        <ele>140.39999389648</ele>
        <time>2021-04-23T09:05:55.000Z</time>
      </trkpt>
      <trkpt lat="49.1254" lon="1.32991">
        <ele>140.19999694824</ele>
        <time>2021-04-23T09:05:56.000Z</time>
      </trkpt>
      <trkpt lat="49.1255" lon="1.32976">
        <ele>140</ele>
        <time>2021-04-23T09:05:59.000Z</time>
      </trkpt>
      <trkpt lat="49.12552" lon="1.32953">
        <ele>139.80000305176</ele>
        <time>2021-04-23T09:06:02.000Z</time>
      </trkpt>
      <trkpt lat="49.12553" lon="1.3289">
        <ele>139.80000305176</ele>
        <time>2021-04-23T09:06:10.000Z</time>
      </trkpt>
      <trkpt lat="49.12554" lon="1.32882">
        <ele>140</ele>
        <time>2021-04-23T09:06:11.000Z</time>
      </trkpt>
      <trkpt lat="49.12561" lon="1.32832">
        <ele>140.19999694824</ele>
        <time>2021-04-23T09:06:18.000Z</time>
      </trkpt>
      <trkpt lat="49.12567" lon="1.32787">
        <ele>140.19999694824</ele>
        <time>2021-04-23T09:06:25.000Z</time>
      </trkpt>
      <trkpt lat="49.12558" lon="1.32783">
        <ele>140.80000305176</ele>
        <time>2021-04-23T09:06:28.000Z</time>
      </trkpt>
      <trkpt lat="49.12544" lon="1.32785">
        <ele>141.19999694824</ele>
        <time>2021-04-23T09:06:31.000Z</time>
      </trkpt>
      <trkpt lat="49.12534" lon="1.32786">
        <ele>141.19999694824</ele>
        <time>2021-04-23T09:06:33.000Z</time>
      </trkpt>
      <trkpt lat="49.12485" lon="1.32791">
        <ele>140.80000305176</ele>
        <time>2021-04-23T09:06:42.000Z</time>
      </trkpt>
      <trkpt lat="49.12454" lon="1.3279">
        <ele>140.60000610352</ele>
        <time>2021-04-23T09:06:48.000Z</time>
      </trkpt>
      <trkpt lat="49.12445" lon="1.32787">
        <ele>140.60000610352</ele>
        <time>2021-04-23T09:06:50.000Z</time>
      </trkpt>
      <trkpt lat="49.12422" lon="1.32778">
        <ele>140.80000305176</ele>
        <time>2021-04-23T09:06:56.000Z</time>
      </trkpt>
      <trkpt lat="49.12413" lon="1.32773">
        <ele>141.60000610352</ele>
        <time>2021-04-23T09:07:00.000Z</time>
      </trkpt>
      <trkpt lat="49.12412" lon="1.32773">
        <ele>141.80000305176</ele>
        <time>2021-04-23T09:07:01.000Z</time>
      </trkpt>
      <trkpt lat="49.12412" lon="1.32773">
        <ele>142.39999389648</ele>
        <time>2021-04-23T09:07:02.000Z</time>
      </trkpt>
      <trkpt lat="49.1241" lon="1.3277">
        <ele>145.39999389648</ele>
        <time>2021-04-23T09:07:37.000Z</time>
      </trkpt>
      <trkpt lat="49.1241" lon="1.3277">
        <ele>145.19999694824</ele>
        <time>2021-04-23T09:07:39.000Z</time>
      </trkpt>
      <trkpt lat="49.12409" lon="1.32769">
        <ele>145</ele>
        <time>2021-04-23T09:07:42.000Z</time>
      </trkpt>
      <trkpt lat="49.12405" lon="1.32767">
        <ele>145</ele>
        <time>2021-04-23T09:07:48.000Z</time>
      </trkpt>
      <trkpt lat="49.12404" lon="1.32768">
        <ele>145</ele>
        <time>2021-04-23T09:07:52.000Z</time>
      </trkpt>
      <trkpt lat="49.12402" lon="1.32768">
        <ele>145.19999694824</ele>
        <time>2021-04-23T09:07:56.000Z</time>
      </trkpt>
      <trkpt lat="49.12398" lon="1.32766">
        <ele>145.19999694824</ele>
        <time>2021-04-23T09:07:58.000Z</time>
      </trkpt>
      <trkpt lat="49.12385" lon="1.32754">
        <ele>145.19999694824</ele>
        <time>2021-04-23T09:08:02.000Z</time>
      </trkpt>
      <trkpt lat="49.12382" lon="1.32749">
        <ele>145.19999694824</ele>
        <time>2021-04-23T09:08:03.000Z</time>
      </trkpt>
      <trkpt lat="49.12371" lon="1.32729">
        <ele>145.19999694824</ele>
        <time>2021-04-23T09:08:08.000Z</time>
      </trkpt>
      <trkpt lat="49.1237" lon="1.32721">
        <ele>145.39999389648</ele>
        <time>2021-04-23T09:08:12.000Z</time>
      </trkpt>
      <trkpt lat="49.12367" lon="1.32719">
        <ele>146.60000610352</ele>
        <time>2021-04-23T09:08:54.000Z</time>
      </trkpt>
      <trkpt lat="49.12363" lon="1.3271">
        <ele>146.60000610352</ele>
        <time>2021-04-23T09:08:57.000Z</time>
      </trkpt>
      <trkpt lat="49.12352" lon="1.32682">
        <ele>146.60000610352</ele>
        <time>2021-04-23T09:09:02.000Z</time>
      </trkpt>
      <trkpt lat="49.12335" lon="1.32638">
        <ele>147</ele>
        <time>2021-04-23T09:09:09.000Z</time>
      </trkpt>
      <trkpt lat="49.12332" lon="1.32631">
        <ele>147.39999389648</ele>
        <time>2021-04-23T09:09:10.000Z</time>
      </trkpt>
      <trkpt lat="49.12328" lon="1.32619">
        <ele>147.80000305176</ele>
        <time>2021-04-23T09:09:12.000Z</time>
      </trkpt>
      <trkpt lat="49.12321" lon="1.3259">
        <ele>148.19999694824</ele>
        <time>2021-04-23T09:09:17.000Z</time>
      </trkpt>
      <trkpt lat="49.12321" lon="1.32589">
        <ele>148.19999694824</ele>
        <time>2021-04-23T09:09:18.000Z</time>
      </trkpt>
      <trkpt lat="49.12321" lon="1.32588">
        <ele>148.19999694824</ele>
        <time>2021-04-23T09:09:19.000Z</time>
      </trkpt>
      <trkpt lat="49.12321" lon="1.32585">
        <ele>147.60000610352</ele>
        <time>2021-04-23T09:09:28.000Z</time>
      </trkpt>
      <trkpt lat="49.12321" lon="1.32584">
        <ele>147.60000610352</ele>
        <time>2021-04-23T09:09:30.000Z</time>
      </trkpt>
      <trkpt lat="49.1232" lon="1.32582">
        <ele>146</ele>
        <time>2021-04-23T09:09:52.000Z</time>
      </trkpt>
      <trkpt lat="49.12319" lon="1.32579">
        <ele>146.19999694824</ele>
        <time>2021-04-23T09:09:53.000Z</time>
      </trkpt>
      <trkpt lat="49.12318" lon="1.32563">
        <ele>146</ele>
        <time>2021-04-23T09:09:56.000Z</time>
      </trkpt>
      <trkpt lat="49.12318" lon="1.32555">
        <ele>146</ele>
        <time>2021-04-23T09:09:57.000Z</time>
      </trkpt>
      <trkpt lat="49.12321" lon="1.32525">
        <ele>146</ele>
        <time>2021-04-23T09:10:00.000Z</time>
      </trkpt>
      <trkpt lat="49.12333" lon="1.32468">
        <ele>145</ele>
        <time>2021-04-23T09:10:05.000Z</time>
      </trkpt>
      <trkpt lat="49.12345" lon="1.32422">
        <ele>143.60000610352</ele>
        <time>2021-04-23T09:10:09.000Z</time>
      </trkpt>
      <trkpt lat="49.12355" lon="1.32388">
        <ele>142.39999389648</ele>
        <time>2021-04-23T09:10:12.000Z</time>
      </trkpt>
      <trkpt lat="49.12379" lon="1.32305">
        <ele>141.80000305176</ele>
        <time>2021-04-23T09:10:20.000Z</time>
      </trkpt>
      <trkpt lat="49.12402" lon="1.32226">
        <ele>142.39999389648</ele>
        <time>2021-04-23T09:10:28.000Z</time>
      </trkpt>
      <trkpt lat="49.12407" lon="1.32206">
        <ele>142.80000305176</ele>
        <time>2021-04-23T09:10:30.000Z</time>
      </trkpt>
      <trkpt lat="49.1243" lon="1.32126">
        <ele>143.60000610352</ele>
        <time>2021-04-23T09:10:38.000Z</time>
      </trkpt>
      <trkpt lat="49.12433" lon="1.32116">
        <ele>143.60000610352</ele>
        <time>2021-04-23T09:10:39.000Z</time>
      </trkpt>
      <trkpt lat="49.12457" lon="1.32034">
        <ele>143.39999389648</ele>
        <time>2021-04-23T09:10:47.000Z</time>
      </trkpt>
      <trkpt lat="49.12471" lon="1.31983">
        <ele>143.39999389648</ele>
        <time>2021-04-23T09:10:52.000Z</time>
      </trkpt>
      <trkpt lat="49.12495" lon="1.31903">
        <ele>143.39999389648</ele>
        <time>2021-04-23T09:11:00.000Z</time>
      </trkpt>
      <trkpt lat="49.12498" lon="1.31892">
        <ele>143.39999389648</ele>
        <time>2021-04-23T09:11:01.000Z</time>
      </trkpt>
      <trkpt lat="49.12521" lon="1.31811">
        <ele>143.39999389648</ele>
        <time>2021-04-23T09:11:09.000Z</time>
      </trkpt>
      <trkpt lat="49.1253" lon="1.31782">
        <ele>143.39999389648</ele>
        <time>2021-04-23T09:11:12.000Z</time>
      </trkpt>
      <trkpt lat="49.12552" lon="1.31705">
        <ele>143.60000610352</ele>
        <time>2021-04-23T09:11:20.000Z</time>
      </trkpt>
      <trkpt lat="49.12557" lon="1.31686">
        <ele>143.60000610352</ele>
        <time>2021-04-23T09:11:22.000Z</time>
      </trkpt>
      <trkpt lat="49.12579" lon="1.31608">
        <ele>144.39999389648</ele>
        <time>2021-04-23T09:11:30.000Z</time>
      </trkpt>
      <trkpt lat="49.12591" lon="1.31569">
        <ele>144.39999389648</ele>
        <time>2021-04-23T09:11:34.000Z</time>
      </trkpt>
      <trkpt lat="49.12614" lon="1.31487">
        <ele>144.60000610352</ele>
        <time>2021-04-23T09:11:42.000Z</time>
      </trkpt>
      <trkpt lat="49.12617" lon="1.31476">
        <ele>144.60000610352</ele>
        <time>2021-04-23T09:11:43.000Z</time>
      </trkpt>
      <trkpt lat="49.1264" lon="1.314">
        <ele>144.60000610352</ele>
        <time>2021-04-23T09:11:50.000Z</time>
      </trkpt>
      <trkpt lat="49.12646" lon="1.31379">
        <ele>144.60000610352</ele>
        <time>2021-04-23T09:11:52.000Z</time>
      </trkpt>
      <trkpt lat="49.12659" lon="1.31325">
        <ele>143.80000305176</ele>
        <time>2021-04-23T09:11:57.000Z</time>
      </trkpt>
      <trkpt lat="49.1266" lon="1.31314">
        <ele>143.39999389648</ele>
        <time>2021-04-23T09:11:58.000Z</time>
      </trkpt>
      <trkpt lat="49.12657" lon="1.31269">
        <ele>142.80000305176</ele>
        <time>2021-04-23T09:12:02.000Z</time>
      </trkpt>
      <trkpt lat="49.12655" lon="1.31247">
        <ele>142.60000610352</ele>
        <time>2021-04-23T09:12:04.000Z</time>
      </trkpt>
      <trkpt lat="49.12655" lon="1.31194">
        <ele>141.60000610352</ele>
        <time>2021-04-23T09:12:09.000Z</time>
      </trkpt>
      <trkpt lat="49.12655" lon="1.31178">
        <ele>141.39999389648</ele>
        <time>2021-04-23T09:12:11.000Z</time>
      </trkpt>
      <trkpt lat="49.12653" lon="1.31162">
        <ele>141</ele>
        <time>2021-04-23T09:12:13.000Z</time>
      </trkpt>
      <trkpt lat="49.12652" lon="1.31143">
        <ele>140.39999389648</ele>
        <time>2021-04-23T09:12:15.000Z</time>
      </trkpt>
      <trkpt lat="49.12652" lon="1.31132">
        <ele>140.19999694824</ele>
        <time>2021-04-23T09:12:16.000Z</time>
      </trkpt>
      <trkpt lat="49.12653" lon="1.31121">
        <ele>140.19999694824</ele>
        <time>2021-04-23T09:12:17.000Z</time>
      </trkpt>
      <trkpt lat="49.12652" lon="1.31039">
        <ele>139.19999694824</ele>
        <time>2021-04-23T09:12:24.000Z</time>
      </trkpt>
      <trkpt lat="49.1265" lon="1.31028">
        <ele>139</ele>
        <time>2021-04-23T09:12:25.000Z</time>
      </trkpt>
      <trkpt lat="49.12642" lon="1.30996">
        <ele>138.19999694824</ele>
        <time>2021-04-23T09:12:28.000Z</time>
      </trkpt>
      <trkpt lat="49.12639" lon="1.30986">
        <ele>138</ele>
        <time>2021-04-23T09:12:29.000Z</time>
      </trkpt>
      <trkpt lat="49.12638" lon="1.30975">
        <ele>138</ele>
        <time>2021-04-23T09:12:30.000Z</time>
      </trkpt>
      <trkpt lat="49.12639" lon="1.30944">
        <ele>138</ele>
        <time>2021-04-23T09:12:33.000Z</time>
      </trkpt>
      <trkpt lat="49.12638" lon="1.30916">
        <ele>137.60000610352</ele>
        <time>2021-04-23T09:12:36.000Z</time>
      </trkpt>
      <trkpt lat="49.1263" lon="1.30901">
        <ele>137.60000610352</ele>
        <time>2021-04-23T09:12:38.000Z</time>
      </trkpt>
      <trkpt lat="49.1262" lon="1.30886">
        <ele>137.39999389648</ele>
        <time>2021-04-23T09:12:40.000Z</time>
      </trkpt>
      <trkpt lat="49.1261" lon="1.30871">
        <ele>137.19999694824</ele>
        <time>2021-04-23T09:12:42.000Z</time>
      </trkpt>
      <trkpt lat="49.12604" lon="1.30852">
        <ele>137</ele>
        <time>2021-04-23T09:12:44.000Z</time>
      </trkpt>
      <trkpt lat="49.12603" lon="1.30831">
        <ele>137</ele>
        <time>2021-04-23T09:12:46.000Z</time>
      </trkpt>
      <trkpt lat="49.12602" lon="1.30798">
        <ele>136.19999694824</ele>
        <time>2021-04-23T09:12:49.000Z</time>
      </trkpt>
      <trkpt lat="49.12602" lon="1.30737">
        <ele>135.19999694824</ele>
        <time>2021-04-23T09:12:55.000Z</time>
      </trkpt>
      <trkpt lat="49.12599" lon="1.30689">
        <ele>134.80000305176</ele>
        <time>2021-04-23T09:13:00.000Z</time>
      </trkpt>
      <trkpt lat="49.126" lon="1.30641">
        <ele>134.60000610352</ele>
        <time>2021-04-23T09:13:05.000Z</time>
      </trkpt>
      <trkpt lat="49.1261" lon="1.30584">
        <ele>135</ele>
        <time>2021-04-23T09:13:11.000Z</time>
      </trkpt>
      <trkpt lat="49.12613" lon="1.30575">
        <ele>135</ele>
        <time>2021-04-23T09:13:12.000Z</time>
      </trkpt>
      <trkpt lat="49.12624" lon="1.3055">
        <ele>135</ele>
        <time>2021-04-23T09:13:15.000Z</time>
      </trkpt>
      <trkpt lat="49.12633" lon="1.30533">
        <ele>135</ele>
        <time>2021-04-23T09:13:17.000Z</time>
      </trkpt>
      <trkpt lat="49.12636" lon="1.30524">
        <ele>135</ele>
        <time>2021-04-23T09:13:18.000Z</time>
      </trkpt>
      <trkpt lat="49.1264" lon="1.30492">
        <ele>134.39999389648</ele>
        <time>2021-04-23T09:13:21.000Z</time>
      </trkpt>
      <trkpt lat="49.1264" lon="1.30471">
        <ele>134</ele>
        <time>2021-04-23T09:13:23.000Z</time>
      </trkpt>
      <trkpt lat="49.12641" lon="1.30451">
        <ele>133.60000610352</ele>
        <time>2021-04-23T09:13:25.000Z</time>
      </trkpt>
      <trkpt lat="49.12641" lon="1.30441">
        <ele>133.39999389648</ele>
        <time>2021-04-23T09:13:26.000Z</time>
      </trkpt>
      <trkpt lat="49.12643" lon="1.30409">
        <ele>132.80000305176</ele>
        <time>2021-04-23T09:13:30.000Z</time>
      </trkpt>
      <trkpt lat="49.12643" lon="1.304">
        <ele>132.60000610352</ele>
        <time>2021-04-23T09:13:31.000Z</time>
      </trkpt>
      <trkpt lat="49.12643" lon="1.30383">
        <ele>132</ele>
        <time>2021-04-23T09:13:33.000Z</time>
      </trkpt>
      <trkpt lat="49.12642" lon="1.30374">
        <ele>131.80000305176</ele>
        <time>2021-04-23T09:13:34.000Z</time>
      </trkpt>
      <trkpt lat="49.12642" lon="1.30363">
        <ele>131.39999389648</ele>
        <time>2021-04-23T09:13:35.000Z</time>
      </trkpt>
      <trkpt lat="49.1264" lon="1.30352">
        <ele>131</ele>
        <time>2021-04-23T09:13:36.000Z</time>
      </trkpt>
      <trkpt lat="49.12637" lon="1.3033">
        <ele>130.60000610352</ele>
        <time>2021-04-23T09:13:38.000Z</time>
      </trkpt>
      <trkpt lat="49.12636" lon="1.30318">
        <ele>130.19999694824</ele>
        <time>2021-04-23T09:13:39.000Z</time>
      </trkpt>
      <trkpt lat="49.12634" lon="1.30294">
        <ele>128.39999389648</ele>
        <time>2021-04-23T09:13:41.000Z</time>
      </trkpt>
      <trkpt lat="49.12632" lon="1.30282">
        <ele>127.19999694824</ele>
        <time>2021-04-23T09:13:42.000Z</time>
      </trkpt>
      <trkpt lat="49.12631" lon="1.30269">
        <ele>126</ele>
        <time>2021-04-23T09:13:43.000Z</time>
      </trkpt>
      <trkpt lat="49.12629" lon="1.30259">
        <ele>125</ele>
        <time>2021-04-23T09:13:44.000Z</time>
      </trkpt>
      <trkpt lat="49.12629" lon="1.30251">
        <ele>124</ele>
        <time>2021-04-23T09:13:45.000Z</time>
      </trkpt>
      <trkpt lat="49.12633" lon="1.30244">
        <ele>123.19999694824</ele>
        <time>2021-04-23T09:13:46.000Z</time>
      </trkpt>
      <trkpt lat="49.12636" lon="1.30241">
        <ele>122.19999694824</ele>
        <time>2021-04-23T09:13:47.000Z</time>
      </trkpt>
      <trkpt lat="49.1264" lon="1.30238">
        <ele>120.19999694824</ele>
        <time>2021-04-23T09:13:48.000Z</time>
      </trkpt>
      <trkpt lat="49.12649" lon="1.30237">
        <ele>118.80000305176</ele>
        <time>2021-04-23T09:13:50.000Z</time>
      </trkpt>
      <trkpt lat="49.12658" lon="1.30237">
        <ele>117.59999847412</ele>
        <time>2021-04-23T09:13:52.000Z</time>
      </trkpt>
      <trkpt lat="49.12665" lon="1.30236">
        <ele>116.80000305176</ele>
        <time>2021-04-23T09:13:55.000Z</time>
      </trkpt>
      <trkpt lat="49.12667" lon="1.30235">
        <ele>116.40000152588</ele>
        <time>2021-04-23T09:13:56.000Z</time>
      </trkpt>
      <trkpt lat="49.12669" lon="1.30232">
        <ele>115.19999694824</ele>
        <time>2021-04-23T09:13:59.000Z</time>
      </trkpt>
      <trkpt lat="49.1267" lon="1.30231">
        <ele>114.80000305176</ele>
        <time>2021-04-23T09:14:00.000Z</time>
      </trkpt>
      <trkpt lat="49.12678" lon="1.30228">
        <ele>114.19999694824</ele>
        <time>2021-04-23T09:14:08.000Z</time>
      </trkpt>
      <trkpt lat="49.12679" lon="1.30227">
        <ele>114</ele>
        <time>2021-04-23T09:14:09.000Z</time>
      </trkpt>
      <trkpt lat="49.1268" lon="1.30225">
        <ele>114</ele>
        <time>2021-04-23T09:14:12.000Z</time>
      </trkpt>
      <trkpt lat="49.12682" lon="1.30225">
        <ele>113.40000152588</ele>
        <time>2021-04-23T09:14:19.000Z</time>
      </trkpt>
      <trkpt lat="49.12683" lon="1.30225">
        <ele>113.40000152588</ele>
        <time>2021-04-23T09:14:22.000Z</time>
      </trkpt>
      <trkpt lat="49.12684" lon="1.30225">
        <ele>113.19999694824</ele>
        <time>2021-04-23T09:14:25.000Z</time>
      </trkpt>
      <trkpt lat="49.12686" lon="1.30221">
        <ele>112.40000152588</ele>
        <time>2021-04-23T09:14:40.000Z</time>
      </trkpt>
      <trkpt lat="49.12686" lon="1.3022">
        <ele>112.40000152588</ele>
        <time>2021-04-23T09:14:41.000Z</time>
      </trkpt>
      <trkpt lat="49.12687" lon="1.30218">
        <ele>112.40000152588</ele>
        <time>2021-04-23T09:14:42.000Z</time>
      </trkpt>
      <trkpt lat="49.12689" lon="1.302">
        <ele>112.19999694824</ele>
        <time>2021-04-23T09:14:47.000Z</time>
      </trkpt>
      <trkpt lat="49.12688" lon="1.30188">
        <ele>112</ele>
        <time>2021-04-23T09:14:49.000Z</time>
      </trkpt>
      <trkpt lat="49.12689" lon="1.30171">
        <ele>111.59999847412</ele>
        <time>2021-04-23T09:14:51.000Z</time>
      </trkpt>
      <trkpt lat="49.1269" lon="1.3015">
        <ele>111.19999694824</ele>
        <time>2021-04-23T09:14:53.000Z</time>
      </trkpt>
      <trkpt lat="49.12691" lon="1.30126">
        <ele>110.59999847412</ele>
        <time>2021-04-23T09:14:55.000Z</time>
      </trkpt>
      <trkpt lat="49.12691" lon="1.30113">
        <ele>110.19999694824</ele>
        <time>2021-04-23T09:14:56.000Z</time>
      </trkpt>
      <trkpt lat="49.12689" lon="1.30101">
        <ele>110</ele>
        <time>2021-04-23T09:14:57.000Z</time>
      </trkpt>
      <trkpt lat="49.12688" lon="1.3009">
        <ele>109.40000152588</ele>
        <time>2021-04-23T09:14:58.000Z</time>
      </trkpt>
      <trkpt lat="49.12685" lon="1.30082">
        <ele>108.80000305176</ele>
        <time>2021-04-23T09:14:59.000Z</time>
      </trkpt>
      <trkpt lat="49.12681" lon="1.30065">
        <ele>107.19999694824</ele>
        <time>2021-04-23T09:15:01.000Z</time>
      </trkpt>
      <trkpt lat="49.12682" lon="1.30051">
        <ele>105.40000152588</ele>
        <time>2021-04-23T09:15:03.000Z</time>
      </trkpt>
      <trkpt lat="49.12684" lon="1.30047">
        <ele>104.40000152588</ele>
        <time>2021-04-23T09:15:04.000Z</time>
      </trkpt>
      <trkpt lat="49.12685" lon="1.30044">
        <ele>103.40000152588</ele>
        <time>2021-04-23T09:15:05.000Z</time>
      </trkpt>
      <trkpt lat="49.12686" lon="1.3004">
        <ele>102.40000152588</ele>
        <time>2021-04-23T09:15:06.000Z</time>
      </trkpt>
      <trkpt lat="49.12686" lon="1.30033">
        <ele>100.80000305176</ele>
        <time>2021-04-23T09:15:08.000Z</time>
      </trkpt>
      <trkpt lat="49.12683" lon="1.30027">
        <ele>99.599998474121</ele>
        <time>2021-04-23T09:15:10.000Z</time>
      </trkpt>
      <trkpt lat="49.12678" lon="1.30018">
        <ele>98.599998474121</ele>
        <time>2021-04-23T09:15:12.000Z</time>
      </trkpt>
      <trkpt lat="49.12656" lon="1.29984">
        <ele>97.599998474121</ele>
        <time>2021-04-23T09:15:19.000Z</time>
      </trkpt>
      <trkpt lat="49.12652" lon="1.2998">
        <ele>97.599998474121</ele>
        <time>2021-04-23T09:15:20.000Z</time>
      </trkpt>
      <trkpt lat="49.12649" lon="1.29976">
        <ele>97.599998474121</ele>
        <time>2021-04-23T09:15:21.000Z</time>
      </trkpt>
      <trkpt lat="49.12638" lon="1.29967">
        <ele>97.400001525879</ele>
        <time>2021-04-23T09:15:24.000Z</time>
      </trkpt>
      <trkpt lat="49.12634" lon="1.29966">
        <ele>97.400001525879</ele>
        <time>2021-04-23T09:15:25.000Z</time>
      </trkpt>
      <trkpt lat="49.12625" lon="1.29974">
        <ele>97.199996948242</ele>
        <time>2021-04-23T09:15:28.000Z</time>
      </trkpt>
      <trkpt lat="49.12622" lon="1.29979">
        <ele>97.199996948242</ele>
        <time>2021-04-23T09:15:29.000Z</time>
      </trkpt>
      <trkpt lat="49.1261" lon="1.30001">
        <ele>97</ele>
        <time>2021-04-23T09:15:34.000Z</time>
      </trkpt>
      <trkpt lat="49.126" lon="1.30022">
        <ele>96.400001525879</ele>
        <time>2021-04-23T09:15:39.000Z</time>
      </trkpt>
      <trkpt lat="49.12599" lon="1.30024">
        <ele>96</ele>
        <time>2021-04-23T09:15:42.000Z</time>
      </trkpt>
      <trkpt lat="49.12595" lon="1.30026">
        <ele>96</ele>
        <time>2021-04-23T09:15:45.000Z</time>
      </trkpt>
      <trkpt lat="49.12594" lon="1.30026">
        <ele>96</ele>
        <time>2021-04-23T09:15:46.000Z</time>
      </trkpt>
      <trkpt lat="49.12586" lon="1.30018">
        <ele>95.800003051758</ele>
        <time>2021-04-23T09:15:50.000Z</time>
      </trkpt>
      <trkpt lat="49.12582" lon="1.30003">
        <ele>95.800003051758</ele>
        <time>2021-04-23T09:15:53.000Z</time>
      </trkpt>
      <trkpt lat="49.12578" lon="1.29989">
        <ele>95.800003051758</ele>
        <time>2021-04-23T09:15:56.000Z</time>
      </trkpt>
      <trkpt lat="49.12566" lon="1.29952">
        <ele>96</ele>
        <time>2021-04-23T09:16:04.000Z</time>
      </trkpt>
      <trkpt lat="49.12555" lon="1.29923">
        <ele>96.599998474121</ele>
        <time>2021-04-23T09:16:11.000Z</time>
      </trkpt>
      <trkpt lat="49.12548" lon="1.29902">
        <ele>97.599998474121</ele>
        <time>2021-04-23T09:16:16.000Z</time>
      </trkpt>
      <trkpt lat="49.1254" lon="1.29881">
        <ele>98.800003051758</ele>
        <time>2021-04-23T09:16:21.000Z</time>
      </trkpt>
      <trkpt lat="49.12537" lon="1.29872">
        <ele>99.199996948242</ele>
        <time>2021-04-23T09:16:23.000Z</time>
      </trkpt>
      <trkpt lat="49.12534" lon="1.29863">
        <ele>99.800003051758</ele>
        <time>2021-04-23T09:16:25.000Z</time>
      </trkpt>
      <trkpt lat="49.1253" lon="1.29844">
        <ele>101</ele>
        <time>2021-04-23T09:16:29.000Z</time>
      </trkpt>
      <trkpt lat="49.12527" lon="1.2983">
        <ele>101.59999847412</ele>
        <time>2021-04-23T09:16:32.000Z</time>
      </trkpt>
      <trkpt lat="49.12525" lon="1.2982">
        <ele>102.19999694824</ele>
        <time>2021-04-23T09:16:34.000Z</time>
      </trkpt>
      <trkpt lat="49.12522" lon="1.298">
        <ele>103.40000152588</ele>
        <time>2021-04-23T09:16:38.000Z</time>
      </trkpt>
      <trkpt lat="49.12519" lon="1.29785">
        <ele>104.40000152588</ele>
        <time>2021-04-23T09:16:41.000Z</time>
      </trkpt>
      <trkpt lat="49.12518" lon="1.29775">
        <ele>105.19999694824</ele>
        <time>2021-04-23T09:16:43.000Z</time>
      </trkpt>
      <trkpt lat="49.12516" lon="1.29766">
        <ele>105.59999847412</ele>
        <time>2021-04-23T09:16:45.000Z</time>
      </trkpt>
      <trkpt lat="49.1251" lon="1.29732">
        <ele>107</ele>
        <time>2021-04-23T09:16:52.000Z</time>
      </trkpt>
      <trkpt lat="49.12509" lon="1.29728">
        <ele>107.19999694824</ele>
        <time>2021-04-23T09:16:53.000Z</time>
      </trkpt>
      <trkpt lat="49.12501" lon="1.29706">
        <ele>108.19999694824</ele>
        <time>2021-04-23T09:16:58.000Z</time>
      </trkpt>
      <trkpt lat="49.12499" lon="1.29703">
        <ele>108.40000152588</ele>
        <time>2021-04-23T09:16:59.000Z</time>
      </trkpt>
      <trkpt lat="49.12477" lon="1.29678">
        <ele>109.19999694824</ele>
        <time>2021-04-23T09:17:07.000Z</time>
      </trkpt>
      <trkpt lat="49.12464" lon="1.29661">
        <ele>109.80000305176</ele>
        <time>2021-04-23T09:17:12.000Z</time>
      </trkpt>
      <trkpt lat="49.12456" lon="1.29651">
        <ele>110.19999694824</ele>
        <time>2021-04-23T09:17:15.000Z</time>
      </trkpt>
      <trkpt lat="49.12435" lon="1.29624">
        <ele>111.40000152588</ele>
        <time>2021-04-23T09:17:23.000Z</time>
      </trkpt>
      <trkpt lat="49.12418" lon="1.29601">
        <ele>112.40000152588</ele>
        <time>2021-04-23T09:17:30.000Z</time>
      </trkpt>
      <trkpt lat="49.12412" lon="1.29591">
        <ele>113.19999694824</ele>
        <time>2021-04-23T09:17:33.000Z</time>
      </trkpt>
      <trkpt lat="49.12408" lon="1.29585">
        <ele>113.80000305176</ele>
        <time>2021-04-23T09:17:35.000Z</time>
      </trkpt>
      <trkpt lat="49.12397" lon="1.29564">
        <ele>114.80000305176</ele>
        <time>2021-04-23T09:17:41.000Z</time>
      </trkpt>
      <trkpt lat="49.12393" lon="1.29556">
        <ele>115.19999694824</ele>
        <time>2021-04-23T09:17:43.000Z</time>
      </trkpt>
      <trkpt lat="49.12388" lon="1.29545">
        <ele>116</ele>
        <time>2021-04-23T09:17:46.000Z</time>
      </trkpt>
      <trkpt lat="49.12381" lon="1.29525">
        <ele>117</ele>
        <time>2021-04-23T09:17:51.000Z</time>
      </trkpt>
      <trkpt lat="49.1238" lon="1.29521">
        <ele>117.19999694824</ele>
        <time>2021-04-23T09:17:52.000Z</time>
      </trkpt>
      <trkpt lat="49.12377" lon="1.29503">
        <ele>118.19999694824</ele>
        <time>2021-04-23T09:17:56.000Z</time>
      </trkpt>
      <trkpt lat="49.12374" lon="1.29481">
        <ele>119.19999694824</ele>
        <time>2021-04-23T09:18:01.000Z</time>
      </trkpt>
      <trkpt lat="49.12373" lon="1.29462">
        <ele>120.40000152588</ele>
        <time>2021-04-23T09:18:05.000Z</time>
      </trkpt>
      <trkpt lat="49.12368" lon="1.29434">
        <ele>121.59999847412</ele>
        <time>2021-04-23T09:18:11.000Z</time>
      </trkpt>
      <trkpt lat="49.12367" lon="1.2943">
        <ele>121.59999847412</ele>
        <time>2021-04-23T09:18:12.000Z</time>
      </trkpt>
      <trkpt lat="49.12359" lon="1.2941">
        <ele>122.59999847412</ele>
        <time>2021-04-23T09:18:17.000Z</time>
      </trkpt>
      <trkpt lat="49.12353" lon="1.29399">
        <ele>123</ele>
        <time>2021-04-23T09:18:20.000Z</time>
      </trkpt>
      <trkpt lat="49.1234" lon="1.29384">
        <ele>123.59999847412</ele>
        <time>2021-04-23T09:18:25.000Z</time>
      </trkpt>
      <trkpt lat="49.12332" lon="1.29375">
        <ele>124</ele>
        <time>2021-04-23T09:18:28.000Z</time>
      </trkpt>
      <trkpt lat="49.12313" lon="1.29357">
        <ele>124.80000305176</ele>
        <time>2021-04-23T09:18:34.000Z</time>
      </trkpt>
      <trkpt lat="49.12306" lon="1.2935">
        <ele>125.19999694824</ele>
        <time>2021-04-23T09:18:36.000Z</time>
      </trkpt>
      <trkpt lat="49.12295" lon="1.29336">
        <ele>125.80000305176</ele>
        <time>2021-04-23T09:18:40.000Z</time>
      </trkpt>
      <trkpt lat="49.12284" lon="1.2932">
        <ele>126.19999694824</ele>
        <time>2021-04-23T09:18:44.000Z</time>
      </trkpt>
      <trkpt lat="49.12274" lon="1.29304">
        <ele>127.19999694824</ele>
        <time>2021-04-23T09:18:48.000Z</time>
      </trkpt>
      <trkpt lat="49.12259" lon="1.2928">
        <ele>128.19999694824</ele>
        <time>2021-04-23T09:18:54.000Z</time>
      </trkpt>
      <trkpt lat="49.12257" lon="1.29276">
        <ele>128.39999389648</ele>
        <time>2021-04-23T09:18:55.000Z</time>
      </trkpt>
      <trkpt lat="49.1224" lon="1.29245">
        <ele>129.39999389648</ele>
        <time>2021-04-23T09:19:02.000Z</time>
      </trkpt>
      <trkpt lat="49.12232" lon="1.2923">
        <ele>130</ele>
        <time>2021-04-23T09:19:05.000Z</time>
      </trkpt>
      <trkpt lat="49.12224" lon="1.29216">
        <ele>130.60000610352</ele>
        <time>2021-04-23T09:19:08.000Z</time>
      </trkpt>
      <trkpt lat="49.12206" lon="1.29182">
        <ele>131.39999389648</ele>
        <time>2021-04-23T09:19:15.000Z</time>
      </trkpt>
      <trkpt lat="49.12204" lon="1.29177">
        <ele>131.60000610352</ele>
        <time>2021-04-23T09:19:16.000Z</time>
      </trkpt>
      <trkpt lat="49.1219" lon="1.29143">
        <ele>132</ele>
        <time>2021-04-23T09:19:22.000Z</time>
      </trkpt>
      <trkpt lat="49.12177" lon="1.29105">
        <ele>132.39999389648</ele>
        <time>2021-04-23T09:19:28.000Z</time>
      </trkpt>
      <trkpt lat="49.12175" lon="1.29098">
        <ele>132.60000610352</ele>
        <time>2021-04-23T09:19:29.000Z</time>
      </trkpt>
      <trkpt lat="49.12171" lon="1.29085">
        <ele>132.80000305176</ele>
        <time>2021-04-23T09:19:31.000Z</time>
      </trkpt>
      <trkpt lat="49.12163" lon="1.29065">
        <ele>133</ele>
        <time>2021-04-23T09:19:34.000Z</time>
      </trkpt>
      <trkpt lat="49.12157" lon="1.29044">
        <ele>133.60000610352</ele>
        <time>2021-04-23T09:19:37.000Z</time>
      </trkpt>
      <trkpt lat="49.12154" lon="1.29037">
        <ele>133.60000610352</ele>
        <time>2021-04-23T09:19:38.000Z</time>
      </trkpt>
      <trkpt lat="49.12138" lon="1.28997">
        <ele>134.19999694824</ele>
        <time>2021-04-23T09:19:44.000Z</time>
      </trkpt>
      <trkpt lat="49.12136" lon="1.2899">
        <ele>134.19999694824</ele>
        <time>2021-04-23T09:19:45.000Z</time>
      </trkpt>
      <trkpt lat="49.12129" lon="1.28967">
        <ele>134.60000610352</ele>
        <time>2021-04-23T09:19:48.000Z</time>
      </trkpt>
      <trkpt lat="49.12126" lon="1.2896">
        <ele>135</ele>
        <time>2021-04-23T09:19:49.000Z</time>
      </trkpt>
      <trkpt lat="49.12118" lon="1.28923">
        <ele>135.60000610352</ele>
        <time>2021-04-23T09:19:54.000Z</time>
      </trkpt>
      <trkpt lat="49.12115" lon="1.28908">
        <ele>135.60000610352</ele>
        <time>2021-04-23T09:19:56.000Z</time>
      </trkpt>
      <trkpt lat="49.12113" lon="1.289">
        <ele>135.80000305176</ele>
        <time>2021-04-23T09:19:57.000Z</time>
      </trkpt>
      <trkpt lat="49.12109" lon="1.28885">
        <ele>135.80000305176</ele>
        <time>2021-04-23T09:19:59.000Z</time>
      </trkpt>
      <trkpt lat="49.12106" lon="1.28878">
        <ele>135.80000305176</ele>
        <time>2021-04-23T09:20:00.000Z</time>
      </trkpt>
      <trkpt lat="49.121" lon="1.28857">
        <ele>135.80000305176</ele>
        <time>2021-04-23T09:20:03.000Z</time>
      </trkpt>
      <trkpt lat="49.12095" lon="1.28843">
        <ele>135.80000305176</ele>
        <time>2021-04-23T09:20:05.000Z</time>
      </trkpt>
      <trkpt lat="49.12078" lon="1.288">
        <ele>135.80000305176</ele>
        <time>2021-04-23T09:20:11.000Z</time>
      </trkpt>
      <trkpt lat="49.12076" lon="1.28792">
        <ele>135.80000305176</ele>
        <time>2021-04-23T09:20:12.000Z</time>
      </trkpt>
      <trkpt lat="49.12072" lon="1.28766">
        <ele>135.80000305176</ele>
        <time>2021-04-23T09:20:15.000Z</time>
      </trkpt>
      <trkpt lat="49.12071" lon="1.28757">
        <ele>135.80000305176</ele>
        <time>2021-04-23T09:20:16.000Z</time>
      </trkpt>
      <trkpt lat="49.12064" lon="1.28717">
        <ele>135.60000610352</ele>
        <time>2021-04-23T09:20:20.000Z</time>
      </trkpt>
      <trkpt lat="49.12058" lon="1.28672">
        <ele>135.60000610352</ele>
        <time>2021-04-23T09:20:25.000Z</time>
      </trkpt>
      <trkpt lat="49.12058" lon="1.28663">
        <ele>135.60000610352</ele>
        <time>2021-04-23T09:20:26.000Z</time>
      </trkpt>
      <trkpt lat="49.12058" lon="1.28608">
        <ele>135</ele>
        <time>2021-04-23T09:20:32.000Z</time>
      </trkpt>
      <trkpt lat="49.12053" lon="1.28569">
        <ele>133.80000305176</ele>
        <time>2021-04-23T09:20:36.000Z</time>
      </trkpt>
      <trkpt lat="49.12051" lon="1.2855">
        <ele>133.60000610352</ele>
        <time>2021-04-23T09:20:38.000Z</time>
      </trkpt>
      <trkpt lat="49.12042" lon="1.28503">
        <ele>132.60000610352</ele>
        <time>2021-04-23T09:20:44.000Z</time>
      </trkpt>
      <trkpt lat="49.12038" lon="1.28495">
        <ele>132.19999694824</ele>
        <time>2021-04-23T09:20:45.000Z</time>
      </trkpt>
      <trkpt lat="49.12025" lon="1.28478">
        <ele>131.80000305176</ele>
        <time>2021-04-23T09:20:48.000Z</time>
      </trkpt>
      <trkpt lat="49.12016" lon="1.28466">
        <ele>131.19999694824</ele>
        <time>2021-04-23T09:20:50.000Z</time>
      </trkpt>
      <trkpt lat="49.12005" lon="1.28448">
        <ele>131</ele>
        <time>2021-04-23T09:20:53.000Z</time>
      </trkpt>
      <trkpt lat="49.11989" lon="1.2842">
        <ele>131</ele>
        <time>2021-04-23T09:20:58.000Z</time>
      </trkpt>
      <trkpt lat="49.11976" lon="1.28401">
        <ele>131.19999694824</ele>
        <time>2021-04-23T09:21:02.000Z</time>
      </trkpt>
      <trkpt lat="49.11967" lon="1.28382">
        <ele>132.39999389648</ele>
        <time>2021-04-23T09:21:06.000Z</time>
      </trkpt>
      <trkpt lat="49.1195" lon="1.28361">
        <ele>133.60000610352</ele>
        <time>2021-04-23T09:21:11.000Z</time>
      </trkpt>
      <trkpt lat="49.11938" lon="1.28344">
        <ele>134.60000610352</ele>
        <time>2021-04-23T09:21:15.000Z</time>
      </trkpt>
      <trkpt lat="49.11933" lon="1.28336">
        <ele>135</ele>
        <time>2021-04-23T09:21:17.000Z</time>
      </trkpt>
      <trkpt lat="49.11921" lon="1.28317">
        <ele>135.80000305176</ele>
        <time>2021-04-23T09:21:21.000Z</time>
      </trkpt>
      <trkpt lat="49.11915" lon="1.28307">
        <ele>136.39999389648</ele>
        <time>2021-04-23T09:21:23.000Z</time>
      </trkpt>
      <trkpt lat="49.11909" lon="1.28297">
        <ele>137</ele>
        <time>2021-04-23T09:21:25.000Z</time>
      </trkpt>
      <trkpt lat="49.11902" lon="1.28281">
        <ele>137.60000610352</ele>
        <time>2021-04-23T09:21:28.000Z</time>
      </trkpt>
      <trkpt lat="49.11893" lon="1.28264">
        <ele>138</ele>
        <time>2021-04-23T09:21:31.000Z</time>
      </trkpt>
      <trkpt lat="49.11884" lon="1.28242">
        <ele>138.60000610352</ele>
        <time>2021-04-23T09:21:35.000Z</time>
      </trkpt>
      <trkpt lat="49.11872" lon="1.2821">
        <ele>139.19999694824</ele>
        <time>2021-04-23T09:21:40.000Z</time>
      </trkpt>
      <trkpt lat="49.11869" lon="1.28204">
        <ele>139.39999389648</ele>
        <time>2021-04-23T09:21:41.000Z</time>
      </trkpt>
      <trkpt lat="49.11854" lon="1.28171">
        <ele>139.80000305176</ele>
        <time>2021-04-23T09:21:47.000Z</time>
      </trkpt>
      <trkpt lat="49.11845" lon="1.28153">
        <ele>140.19999694824</ele>
        <time>2021-04-23T09:21:50.000Z</time>
      </trkpt>
      <trkpt lat="49.11839" lon="1.28142">
        <ele>140.39999389648</ele>
        <time>2021-04-23T09:21:52.000Z</time>
      </trkpt>
      <trkpt lat="49.11837" lon="1.28135">
        <ele>140.60000610352</ele>
        <time>2021-04-23T09:21:53.000Z</time>
      </trkpt>
      <trkpt lat="49.11827" lon="1.2811">
        <ele>141.19999694824</ele>
        <time>2021-04-23T09:21:57.000Z</time>
      </trkpt>
      <trkpt lat="49.1182" lon="1.28092">
        <ele>141.39999389648</ele>
        <time>2021-04-23T09:22:00.000Z</time>
      </trkpt>
      <trkpt lat="49.11813" lon="1.28067">
        <ele>141.80000305176</ele>
        <time>2021-04-23T09:22:04.000Z</time>
      </trkpt>
      <trkpt lat="49.11811" lon="1.2806">
        <ele>142</ele>
        <time>2021-04-23T09:22:05.000Z</time>
      </trkpt>
      <trkpt lat="49.11807" lon="1.28048">
        <ele>142</ele>
        <time>2021-04-23T09:22:07.000Z</time>
      </trkpt>
      <trkpt lat="49.11797" lon="1.28025">
        <ele>142.39999389648</ele>
        <time>2021-04-23T09:22:11.000Z</time>
      </trkpt>
      <trkpt lat="49.11783" lon="1.27992">
        <ele>142.80000305176</ele>
        <time>2021-04-23T09:22:17.000Z</time>
      </trkpt>
      <trkpt lat="49.11779" lon="1.27987">
        <ele>143</ele>
        <time>2021-04-23T09:22:18.000Z</time>
      </trkpt>
      <trkpt lat="49.11768" lon="1.27971">
        <ele>143</ele>
        <time>2021-04-23T09:22:21.000Z</time>
      </trkpt>
      <trkpt lat="49.11755" lon="1.27953">
        <ele>143.19999694824</ele>
        <time>2021-04-23T09:22:24.000Z</time>
      </trkpt>
      <trkpt lat="49.11745" lon="1.27933">
        <ele>143.19999694824</ele>
        <time>2021-04-23T09:22:27.000Z</time>
      </trkpt>
      <trkpt lat="49.11739" lon="1.27919">
        <ele>143.19999694824</ele>
        <time>2021-04-23T09:22:29.000Z</time>
      </trkpt>
      <trkpt lat="49.11733" lon="1.27904">
        <ele>143.19999694824</ele>
        <time>2021-04-23T09:22:31.000Z</time>
      </trkpt>
      <trkpt lat="49.1172" lon="1.27878">
        <ele>143.39999389648</ele>
        <time>2021-04-23T09:22:35.000Z</time>
      </trkpt>
      <trkpt lat="49.11706" lon="1.27844">
        <ele>143.60000610352</ele>
        <time>2021-04-23T09:22:40.000Z</time>
      </trkpt>
      <trkpt lat="49.11704" lon="1.27837">
        <ele>143.60000610352</ele>
        <time>2021-04-23T09:22:41.000Z</time>
      </trkpt>
      <trkpt lat="49.11689" lon="1.27793">
        <ele>144</ele>
        <time>2021-04-23T09:22:47.000Z</time>
      </trkpt>
      <trkpt lat="49.11685" lon="1.27787">
        <ele>144</ele>
        <time>2021-04-23T09:22:48.000Z</time>
      </trkpt>
      <trkpt lat="49.11681" lon="1.27782">
        <ele>144.19999694824</ele>
        <time>2021-04-23T09:22:49.000Z</time>
      </trkpt>
      <trkpt lat="49.11672" lon="1.27772">
        <ele>144.19999694824</ele>
        <time>2021-04-23T09:22:51.000Z</time>
      </trkpt>
      <trkpt lat="49.11663" lon="1.27762">
        <ele>144.19999694824</ele>
        <time>2021-04-23T09:22:53.000Z</time>
      </trkpt>
      <trkpt lat="49.11654" lon="1.27742">
        <ele>144.39999389648</ele>
        <time>2021-04-23T09:22:56.000Z</time>
      </trkpt>
      <trkpt lat="49.1165" lon="1.27727">
        <ele>144.39999389648</ele>
        <time>2021-04-23T09:22:58.000Z</time>
      </trkpt>
      <trkpt lat="49.11645" lon="1.27706">
        <ele>144.60000610352</ele>
        <time>2021-04-23T09:23:01.000Z</time>
      </trkpt>
      <trkpt lat="49.11643" lon="1.277">
        <ele>144.60000610352</ele>
        <time>2021-04-23T09:23:02.000Z</time>
      </trkpt>
      <trkpt lat="49.11639" lon="1.27684">
        <ele>144.60000610352</ele>
        <time>2021-04-23T09:23:05.000Z</time>
      </trkpt>
      <trkpt lat="49.11637" lon="1.27674">
        <ele>144.80000305176</ele>
        <time>2021-04-23T09:23:07.000Z</time>
      </trkpt>
      <trkpt lat="49.11637" lon="1.27669">
        <ele>144.80000305176</ele>
        <time>2021-04-23T09:23:08.000Z</time>
      </trkpt>
      <trkpt lat="49.11638" lon="1.27666">
        <ele>145</ele>
        <time>2021-04-23T09:23:10.000Z</time>
      </trkpt>
      <trkpt lat="49.11638" lon="1.27666">
        <ele>145</ele>
        <time>2021-04-23T09:23:11.000Z</time>
      </trkpt>
      <trkpt lat="49.11636" lon="1.27664">
        <ele>145.60000610352</ele>
        <time>2021-04-23T09:24:13.000Z</time>
      </trkpt>
      <trkpt lat="49.11634" lon="1.27657">
        <ele>145.60000610352</ele>
        <time>2021-04-23T09:24:16.000Z</time>
      </trkpt>
      <trkpt lat="49.11626" lon="1.27639">
        <ele>145.19999694824</ele>
        <time>2021-04-23T09:24:20.000Z</time>
      </trkpt>
      <trkpt lat="49.11608" lon="1.27627">
        <ele>144.80000305176</ele>
        <time>2021-04-23T09:24:24.000Z</time>
      </trkpt>
      <trkpt lat="49.11588" lon="1.27616">
        <ele>144.39999389648</ele>
        <time>2021-04-23T09:24:28.000Z</time>
      </trkpt>
      <trkpt lat="49.11573" lon="1.27609">
        <ele>143.80000305176</ele>
        <time>2021-04-23T09:24:31.000Z</time>
      </trkpt>
      <trkpt lat="49.11569" lon="1.27605">
        <ele>143.60000610352</ele>
        <time>2021-04-23T09:24:32.000Z</time>
      </trkpt>
      <trkpt lat="49.11555" lon="1.27591">
        <ele>143.60000610352</ele>
        <time>2021-04-23T09:24:35.000Z</time>
      </trkpt>
      <trkpt lat="49.11532" lon="1.27562">
        <ele>143.60000610352</ele>
        <time>2021-04-23T09:24:40.000Z</time>
      </trkpt>
      <trkpt lat="49.11515" lon="1.27541">
        <ele>143.80000305176</ele>
        <time>2021-04-23T09:24:44.000Z</time>
      </trkpt>
      <trkpt lat="49.1151" lon="1.27538">
        <ele>143.80000305176</ele>
        <time>2021-04-23T09:24:45.000Z</time>
      </trkpt>
      <trkpt lat="49.11472" lon="1.27517">
        <ele>143.60000610352</ele>
        <time>2021-04-23T09:24:52.000Z</time>
      </trkpt>
      <trkpt lat="49.11454" lon="1.27508">
        <ele>143.19999694824</ele>
        <time>2021-04-23T09:24:55.000Z</time>
      </trkpt>
      <trkpt lat="49.11436" lon="1.27501">
        <ele>142.60000610352</ele>
        <time>2021-04-23T09:24:58.000Z</time>
      </trkpt>
      <trkpt lat="49.11424" lon="1.27493">
        <ele>142.19999694824</ele>
        <time>2021-04-23T09:25:00.000Z</time>
      </trkpt>
      <trkpt lat="49.11411" lon="1.27488">
        <ele>141.80000305176</ele>
        <time>2021-04-23T09:25:02.000Z</time>
      </trkpt>
      <trkpt lat="49.11399" lon="1.27485">
        <ele>141.19999694824</ele>
        <time>2021-04-23T09:25:04.000Z</time>
      </trkpt>
      <trkpt lat="49.11376" lon="1.27479">
        <ele>140.39999389648</ele>
        <time>2021-04-23T09:25:09.000Z</time>
      </trkpt>
      <trkpt lat="49.11361" lon="1.27467">
        <ele>140.60000610352</ele>
        <time>2021-04-23T09:25:14.000Z</time>
      </trkpt>
      <trkpt lat="49.11337" lon="1.27445">
        <ele>142.39999389648</ele>
        <time>2021-04-23T09:25:21.000Z</time>
      </trkpt>
      <trkpt lat="49.11316" lon="1.27428">
        <ele>143.39999389648</ele>
        <time>2021-04-23T09:25:27.000Z</time>
      </trkpt>
      <trkpt lat="49.11289" lon="1.27415">
        <ele>144.39999389648</ele>
        <time>2021-04-23T09:25:33.000Z</time>
      </trkpt>
      <trkpt lat="49.11284" lon="1.27412">
        <ele>144.60000610352</ele>
        <time>2021-04-23T09:25:34.000Z</time>
      </trkpt>
      <trkpt lat="49.11258" lon="1.27396">
        <ele>145.60000610352</ele>
        <time>2021-04-23T09:25:40.000Z</time>
      </trkpt>
      <trkpt lat="49.11253" lon="1.27393">
        <ele>145.80000305176</ele>
        <time>2021-04-23T09:25:41.000Z</time>
      </trkpt>
      <trkpt lat="49.11214" lon="1.27362">
        <ele>146.19999694824</ele>
        <time>2021-04-23T09:25:50.000Z</time>
      </trkpt>
      <trkpt lat="49.11189" lon="1.27339">
        <ele>146.19999694824</ele>
        <time>2021-04-23T09:25:56.000Z</time>
      </trkpt>
      <trkpt lat="49.11169" lon="1.27327">
        <ele>146.19999694824</ele>
        <time>2021-04-23T09:26:01.000Z</time>
      </trkpt>
      <trkpt lat="49.11151" lon="1.27318">
        <ele>146.19999694824</ele>
        <time>2021-04-23T09:26:07.000Z</time>
      </trkpt>
      <trkpt lat="49.11126" lon="1.27309">
        <ele>146.19999694824</ele>
        <time>2021-04-23T09:26:14.000Z</time>
      </trkpt>
      <trkpt lat="49.11109" lon="1.27308">
        <ele>146</ele>
        <time>2021-04-23T09:26:18.000Z</time>
      </trkpt>
      <trkpt lat="49.11104" lon="1.27308">
        <ele>146</ele>
        <time>2021-04-23T09:26:19.000Z</time>
      </trkpt>
      <trkpt lat="49.11093" lon="1.27306">
        <ele>145.80000305176</ele>
        <time>2021-04-23T09:26:21.000Z</time>
      </trkpt>
      <trkpt lat="49.11078" lon="1.27297">
        <ele>145.39999389648</ele>
        <time>2021-04-23T09:26:24.000Z</time>
      </trkpt>
      <trkpt lat="49.11064" lon="1.27278">
        <ele>145</ele>
        <time>2021-04-23T09:26:27.000Z</time>
      </trkpt>
      <trkpt lat="49.11052" lon="1.27266">
        <ele>144.39999389648</ele>
        <time>2021-04-23T09:26:29.000Z</time>
      </trkpt>
      <trkpt lat="49.11033" lon="1.27249">
        <ele>143.19999694824</ele>
        <time>2021-04-23T09:26:32.000Z</time>
      </trkpt>
      <trkpt lat="49.11014" lon="1.27236">
        <ele>141.19999694824</ele>
        <time>2021-04-23T09:26:35.000Z</time>
      </trkpt>
      <trkpt lat="49.11004" lon="1.27231">
        <ele>139.39999389648</ele>
        <time>2021-04-23T09:26:37.000Z</time>
      </trkpt>
      <trkpt lat="49.10999" lon="1.27224">
        <ele>137.60000610352</ele>
        <time>2021-04-23T09:26:39.000Z</time>
      </trkpt>
      <trkpt lat="49.10997" lon="1.27214">
        <ele>135.60000610352</ele>
        <time>2021-04-23T09:26:41.000Z</time>
      </trkpt>
      <trkpt lat="49.10998" lon="1.27204">
        <ele>134.19999694824</ele>
        <time>2021-04-23T09:26:43.000Z</time>
      </trkpt>
      <trkpt lat="49.10998" lon="1.27183">
        <ele>133.19999694824</ele>
        <time>2021-04-23T09:26:46.000Z</time>
      </trkpt>
      <trkpt lat="49.10999" lon="1.27174">
        <ele>133</ele>
        <time>2021-04-23T09:26:47.000Z</time>
      </trkpt>
      <trkpt lat="49.11001" lon="1.27128">
        <ele>132</ele>
        <time>2021-04-23T09:26:52.000Z</time>
      </trkpt>
      <trkpt lat="49.11003" lon="1.27098">
        <ele>131.19999694824</ele>
        <time>2021-04-23T09:26:55.000Z</time>
      </trkpt>
      <trkpt lat="49.11004" lon="1.27088">
        <ele>131</ele>
        <time>2021-04-23T09:26:56.000Z</time>
      </trkpt>
      <trkpt lat="49.11006" lon="1.27069">
        <ele>130.39999389648</ele>
        <time>2021-04-23T09:26:58.000Z</time>
      </trkpt>
      <trkpt lat="49.11008" lon="1.2704">
        <ele>129.80000305176</ele>
        <time>2021-04-23T09:27:01.000Z</time>
      </trkpt>
      <trkpt lat="49.11012" lon="1.27009">
        <ele>129.19999694824</ele>
        <time>2021-04-23T09:27:04.000Z</time>
      </trkpt>
      <trkpt lat="49.11014" lon="1.26999">
        <ele>129</ele>
        <time>2021-04-23T09:27:05.000Z</time>
      </trkpt>
      <trkpt lat="49.11017" lon="1.26975">
        <ele>128.80000305176</ele>
        <time>2021-04-23T09:27:07.000Z</time>
      </trkpt>
      <trkpt lat="49.11019" lon="1.2695">
        <ele>128.60000610352</ele>
        <time>2021-04-23T09:27:09.000Z</time>
      </trkpt>
      <trkpt lat="49.11028" lon="1.26896">
        <ele>127.59999847412</ele>
        <time>2021-04-23T09:27:13.000Z</time>
      </trkpt>
      <trkpt lat="49.11033" lon="1.26858">
        <ele>126.59999847412</ele>
        <time>2021-04-23T09:27:16.000Z</time>
      </trkpt>
      <trkpt lat="49.11034" lon="1.26848">
        <ele>126</ele>
        <time>2021-04-23T09:27:17.000Z</time>
      </trkpt>
      <trkpt lat="49.11035" lon="1.26837">
        <ele>125.40000152588</ele>
        <time>2021-04-23T09:27:18.000Z</time>
      </trkpt>
      <trkpt lat="49.11037" lon="1.26816">
        <ele>124.19999694824</ele>
        <time>2021-04-23T09:27:20.000Z</time>
      </trkpt>
      <trkpt lat="49.11039" lon="1.26805">
        <ele>123.80000305176</ele>
        <time>2021-04-23T09:27:21.000Z</time>
      </trkpt>
      <trkpt lat="49.11041" lon="1.26794">
        <ele>123.59999847412</ele>
        <time>2021-04-23T09:27:22.000Z</time>
      </trkpt>
      <trkpt lat="49.11042" lon="1.26784">
        <ele>123.40000152588</ele>
        <time>2021-04-23T09:27:23.000Z</time>
      </trkpt>
      <trkpt lat="49.11041" lon="1.26765">
        <ele>123.19999694824</ele>
        <time>2021-04-23T09:27:25.000Z</time>
      </trkpt>
      <trkpt lat="49.11039" lon="1.26756">
        <ele>123.19999694824</ele>
        <time>2021-04-23T09:27:26.000Z</time>
      </trkpt>
      <trkpt lat="49.11036" lon="1.26744">
        <ele>123</ele>
        <time>2021-04-23T09:27:28.000Z</time>
      </trkpt>
      <trkpt lat="49.11034" lon="1.2674">
        <ele>123</ele>
        <time>2021-04-23T09:27:29.000Z</time>
      </trkpt>
      <trkpt lat="49.11035" lon="1.26723">
        <ele>122.59999847412</ele>
        <time>2021-04-23T09:27:33.000Z</time>
      </trkpt>
      <trkpt lat="49.11042" lon="1.26693">
        <ele>122</ele>
        <time>2021-04-23T09:27:38.000Z</time>
      </trkpt>
      <trkpt lat="49.11044" lon="1.26681">
        <ele>122</ele>
        <time>2021-04-23T09:27:40.000Z</time>
      </trkpt>
      <trkpt lat="49.11049" lon="1.26668">
        <ele>121.80000305176</ele>
        <time>2021-04-23T09:27:42.000Z</time>
      </trkpt>
      <trkpt lat="49.11052" lon="1.26654">
        <ele>121.40000152588</ele>
        <time>2021-04-23T09:27:44.000Z</time>
      </trkpt>
      <trkpt lat="49.11057" lon="1.26631">
        <ele>120.80000305176</ele>
        <time>2021-04-23T09:27:47.000Z</time>
      </trkpt>
      <trkpt lat="49.11059" lon="1.26623">
        <ele>120.59999847412</ele>
        <time>2021-04-23T09:27:48.000Z</time>
      </trkpt>
      <trkpt lat="49.11068" lon="1.26586">
        <ele>120.19999694824</ele>
        <time>2021-04-23T09:27:53.000Z</time>
      </trkpt>
      <trkpt lat="49.11071" lon="1.2658">
        <ele>120.19999694824</ele>
        <time>2021-04-23T09:27:54.000Z</time>
      </trkpt>
      <trkpt lat="49.11075" lon="1.2655">
        <ele>119.80000305176</ele>
        <time>2021-04-23T09:27:58.000Z</time>
      </trkpt>
      <trkpt lat="49.11075" lon="1.26542">
        <ele>119.80000305176</ele>
        <time>2021-04-23T09:27:59.000Z</time>
      </trkpt>
      <trkpt lat="49.11077" lon="1.26518">
        <ele>119.59999847412</ele>
        <time>2021-04-23T09:28:02.000Z</time>
      </trkpt>
      <trkpt lat="49.11078" lon="1.2651">
        <ele>119.59999847412</ele>
        <time>2021-04-23T09:28:03.000Z</time>
      </trkpt>
      <trkpt lat="49.1108" lon="1.26494">
        <ele>119.59999847412</ele>
        <time>2021-04-23T09:28:05.000Z</time>
      </trkpt>
      <trkpt lat="49.11081" lon="1.26468">
        <ele>119.40000152588</ele>
        <time>2021-04-23T09:28:08.000Z</time>
      </trkpt>
      <trkpt lat="49.11087" lon="1.26436">
        <ele>119.19999694824</ele>
        <time>2021-04-23T09:28:12.000Z</time>
      </trkpt>
      <trkpt lat="49.1109" lon="1.26428">
        <ele>119</ele>
        <time>2021-04-23T09:28:13.000Z</time>
      </trkpt>
      <trkpt lat="49.11092" lon="1.2642">
        <ele>119</ele>
        <time>2021-04-23T09:28:14.000Z</time>
      </trkpt>
      <trkpt lat="49.11094" lon="1.26412">
        <ele>118.80000305176</ele>
        <time>2021-04-23T09:28:15.000Z</time>
      </trkpt>
      <trkpt lat="49.111" lon="1.26389">
        <ele>118.40000152588</ele>
        <time>2021-04-23T09:28:18.000Z</time>
      </trkpt>
      <trkpt lat="49.11103" lon="1.26376">
        <ele>117.80000305176</ele>
        <time>2021-04-23T09:28:20.000Z</time>
      </trkpt>
      <trkpt lat="49.11105" lon="1.2637">
        <ele>117.80000305176</ele>
        <time>2021-04-23T09:28:21.000Z</time>
      </trkpt>
      <trkpt lat="49.1111" lon="1.26352">
        <ele>117.80000305176</ele>
        <time>2021-04-23T09:28:24.000Z</time>
      </trkpt>
      <trkpt lat="49.11111" lon="1.26346">
        <ele>117.80000305176</ele>
        <time>2021-04-23T09:28:25.000Z</time>
      </trkpt>
      <trkpt lat="49.11122" lon="1.26298">
        <ele>118.80000305176</ele>
        <time>2021-04-23T09:28:33.000Z</time>
      </trkpt>
      <trkpt lat="49.11128" lon="1.26273">
        <ele>119.19999694824</ele>
        <time>2021-04-23T09:28:38.000Z</time>
      </trkpt>
      <trkpt lat="49.11133" lon="1.26247">
        <ele>119.19999694824</ele>
        <time>2021-04-23T09:28:43.000Z</time>
      </trkpt>
      <trkpt lat="49.1114" lon="1.26221">
        <ele>119</ele>
        <time>2021-04-23T09:28:48.000Z</time>
      </trkpt>
      <trkpt lat="49.11149" lon="1.26199">
        <ele>118.80000305176</ele>
        <time>2021-04-23T09:28:53.000Z</time>
      </trkpt>
      <trkpt lat="49.11157" lon="1.26184">
        <ele>118.59999847412</ele>
        <time>2021-04-23T09:28:57.000Z</time>
      </trkpt>
      <trkpt lat="49.11168" lon="1.26161">
        <ele>118.59999847412</ele>
        <time>2021-04-23T09:29:03.000Z</time>
      </trkpt>
      <trkpt lat="49.11173" lon="1.26153">
        <ele>118.80000305176</ele>
        <time>2021-04-23T09:29:06.000Z</time>
      </trkpt>
      <trkpt lat="49.11177" lon="1.26153">
        <ele>119.19999694824</ele>
        <time>2021-04-23T09:29:08.000Z</time>
      </trkpt>
      <trkpt lat="49.11181" lon="1.26152">
        <ele>119.40000152588</ele>
        <time>2021-04-23T09:29:10.000Z</time>
      </trkpt>
      <trkpt lat="49.11186" lon="1.26153">
        <ele>120</ele>
        <time>2021-04-23T09:29:13.000Z</time>
      </trkpt>
      <trkpt lat="49.11193" lon="1.26154">
        <ele>121.19999694824</ele>
        <time>2021-04-23T09:29:17.000Z</time>
      </trkpt>
      <trkpt lat="49.11197" lon="1.26155">
        <ele>121.59999847412</ele>
        <time>2021-04-23T09:29:20.000Z</time>
      </trkpt>
      <trkpt lat="49.11201" lon="1.26156">
        <ele>122.19999694824</ele>
        <time>2021-04-23T09:29:23.000Z</time>
      </trkpt>
      <trkpt lat="49.11205" lon="1.26158">
        <ele>123</ele>
        <time>2021-04-23T09:29:26.000Z</time>
      </trkpt>
      <trkpt lat="49.11206" lon="1.26158">
        <ele>123.19999694824</ele>
        <time>2021-04-23T09:29:27.000Z</time>
      </trkpt>
      <trkpt lat="49.1121" lon="1.26158">
        <ele>123.80000305176</ele>
        <time>2021-04-23T09:29:30.000Z</time>
      </trkpt>
      <trkpt lat="49.11214" lon="1.26159">
        <ele>124.19999694824</ele>
        <time>2021-04-23T09:29:33.000Z</time>
      </trkpt>
      <trkpt lat="49.11216" lon="1.26159">
        <ele>124.40000152588</ele>
        <time>2021-04-23T09:29:34.000Z</time>
      </trkpt>
      <trkpt lat="49.11218" lon="1.26159">
        <ele>124.59999847412</ele>
        <time>2021-04-23T09:29:35.000Z</time>
      </trkpt>
      <trkpt lat="49.11225" lon="1.26157">
        <ele>125.40000152588</ele>
        <time>2021-04-23T09:29:39.000Z</time>
      </trkpt>
      <trkpt lat="49.11227" lon="1.26156">
        <ele>125.59999847412</ele>
        <time>2021-04-23T09:29:41.000Z</time>
      </trkpt>
      <trkpt lat="49.11233" lon="1.26154">
        <ele>126.59999847412</ele>
        <time>2021-04-23T09:29:46.000Z</time>
      </trkpt>
      <trkpt lat="49.11242" lon="1.26154">
        <ele>127.59999847412</ele>
        <time>2021-04-23T09:29:51.000Z</time>
      </trkpt>
      <trkpt lat="49.11244" lon="1.26153">
        <ele>128</ele>
        <time>2021-04-23T09:29:52.000Z</time>
      </trkpt>
      <trkpt lat="49.11249" lon="1.26152">
        <ele>128.60000610352</ele>
        <time>2021-04-23T09:29:56.000Z</time>
      </trkpt>
      <trkpt lat="49.11252" lon="1.26152">
        <ele>129.19999694824</ele>
        <time>2021-04-23T09:29:58.000Z</time>
      </trkpt>
      <trkpt lat="49.11257" lon="1.2615">
        <ele>129.60000610352</ele>
        <time>2021-04-23T09:30:01.000Z</time>
      </trkpt>
      <trkpt lat="49.11261" lon="1.26151">
        <ele>130</ele>
        <time>2021-04-23T09:30:03.000Z</time>
      </trkpt>
      <trkpt lat="49.11269" lon="1.26152">
        <ele>130.80000305176</ele>
        <time>2021-04-23T09:30:07.000Z</time>
      </trkpt>
      <trkpt lat="49.11275" lon="1.26151">
        <ele>131.60000610352</ele>
        <time>2021-04-23T09:30:10.000Z</time>
      </trkpt>
      <trkpt lat="49.11277" lon="1.26152">
        <ele>132</ele>
        <time>2021-04-23T09:30:11.000Z</time>
      </trkpt>
      <trkpt lat="49.11284" lon="1.26152">
        <ele>133</ele>
        <time>2021-04-23T09:30:15.000Z</time>
      </trkpt>
      <trkpt lat="49.11285" lon="1.26152">
        <ele>133.39999389648</ele>
        <time>2021-04-23T09:30:16.000Z</time>
      </trkpt>
      <trkpt lat="49.11295" lon="1.26152">
        <ele>134.19999694824</ele>
        <time>2021-04-23T09:30:22.000Z</time>
      </trkpt>
      <trkpt lat="49.11304" lon="1.26153">
        <ele>135.19999694824</ele>
        <time>2021-04-23T09:30:27.000Z</time>
      </trkpt>
      <trkpt lat="49.11309" lon="1.26154">
        <ele>136</ele>
        <time>2021-04-23T09:30:30.000Z</time>
      </trkpt>
      <trkpt lat="49.11312" lon="1.26154">
        <ele>136.39999389648</ele>
        <time>2021-04-23T09:30:32.000Z</time>
      </trkpt>
      <trkpt lat="49.11321" lon="1.26156">
        <ele>137.39999389648</ele>
        <time>2021-04-23T09:30:37.000Z</time>
      </trkpt>
      <trkpt lat="49.11322" lon="1.26156">
        <ele>137.39999389648</ele>
        <time>2021-04-23T09:30:38.000Z</time>
      </trkpt>
      <trkpt lat="49.11337" lon="1.26157">
        <ele>138.60000610352</ele>
        <time>2021-04-23T09:30:45.000Z</time>
      </trkpt>
      <trkpt lat="49.11342" lon="1.26158">
        <ele>139.80000305176</ele>
        <time>2021-04-23T09:30:48.000Z</time>
      </trkpt>
      <trkpt lat="49.11348" lon="1.26159">
        <ele>140.60000610352</ele>
        <time>2021-04-23T09:30:51.000Z</time>
      </trkpt>
      <trkpt lat="49.11351" lon="1.26159">
        <ele>140.80000305176</ele>
        <time>2021-04-23T09:30:53.000Z</time>
      </trkpt>
      <trkpt lat="49.11361" lon="1.26161">
        <ele>141.80000305176</ele>
        <time>2021-04-23T09:30:58.000Z</time>
      </trkpt>
      <trkpt lat="49.11362" lon="1.26161">
        <ele>142</ele>
        <time>2021-04-23T09:30:59.000Z</time>
      </trkpt>
      <trkpt lat="49.11371" lon="1.2616">
        <ele>143</ele>
        <time>2021-04-23T09:31:03.000Z</time>
      </trkpt>
      <trkpt lat="49.11373" lon="1.26159">
        <ele>143.39999389648</ele>
        <time>2021-04-23T09:31:04.000Z</time>
      </trkpt>
      <trkpt lat="49.11384" lon="1.26156">
        <ele>144.19999694824</ele>
        <time>2021-04-23T09:31:08.000Z</time>
      </trkpt>
      <trkpt lat="49.11394" lon="1.26155">
        <ele>145</ele>
        <time>2021-04-23T09:31:11.000Z</time>
      </trkpt>
      <trkpt lat="49.11397" lon="1.26154">
        <ele>145.39999389648</ele>
        <time>2021-04-23T09:31:12.000Z</time>
      </trkpt>
      <trkpt lat="49.1141" lon="1.2615">
        <ele>146.39999389648</ele>
        <time>2021-04-23T09:31:16.000Z</time>
      </trkpt>
      <trkpt lat="49.11417" lon="1.26146">
        <ele>146.80000305176</ele>
        <time>2021-04-23T09:31:18.000Z</time>
      </trkpt>
      <trkpt lat="49.11429" lon="1.26139">
        <ele>147.60000610352</ele>
        <time>2021-04-23T09:31:22.000Z</time>
      </trkpt>
      <trkpt lat="49.11437" lon="1.26135">
        <ele>148</ele>
        <time>2021-04-23T09:31:24.000Z</time>
      </trkpt>
      <trkpt lat="49.11448" lon="1.26129">
        <ele>148.80000305176</ele>
        <time>2021-04-23T09:31:27.000Z</time>
      </trkpt>
      <trkpt lat="49.11462" lon="1.26118">
        <ele>149.60000610352</ele>
        <time>2021-04-23T09:31:31.000Z</time>
      </trkpt>
      <trkpt lat="49.11465" lon="1.26116">
        <ele>149.80000305176</ele>
        <time>2021-04-23T09:31:32.000Z</time>
      </trkpt>
      <trkpt lat="49.11476" lon="1.26107">
        <ele>150.19999694824</ele>
        <time>2021-04-23T09:31:36.000Z</time>
      </trkpt>
      <trkpt lat="49.11488" lon="1.26087">
        <ele>150.80000305176</ele>
        <time>2021-04-23T09:31:41.000Z</time>
      </trkpt>
      <trkpt lat="49.115" lon="1.26068">
        <ele>152.19999694824</ele>
        <time>2021-04-23T09:31:45.000Z</time>
      </trkpt>
      <trkpt lat="49.11503" lon="1.26063">
        <ele>152.39999389648</ele>
        <time>2021-04-23T09:31:46.000Z</time>
      </trkpt>
      <trkpt lat="49.11518" lon="1.26045">
        <ele>152.60000610352</ele>
        <time>2021-04-23T09:31:50.000Z</time>
      </trkpt>
      <trkpt lat="49.11522" lon="1.26041">
        <ele>152.80000305176</ele>
        <time>2021-04-23T09:31:51.000Z</time>
      </trkpt>
      <trkpt lat="49.11533" lon="1.26031">
        <ele>153</ele>
        <time>2021-04-23T09:31:54.000Z</time>
      </trkpt>
      <trkpt lat="49.11536" lon="1.26027">
        <ele>153</ele>
        <time>2021-04-23T09:31:55.000Z</time>
      </trkpt>
      <trkpt lat="49.1155" lon="1.26017">
        <ele>153.19999694824</ele>
        <time>2021-04-23T09:31:59.000Z</time>
      </trkpt>
      <trkpt lat="49.11558" lon="1.26012">
        <ele>153.39999389648</ele>
        <time>2021-04-23T09:32:01.000Z</time>
      </trkpt>
      <trkpt lat="49.11585" lon="1.25997">
        <ele>153.60000610352</ele>
        <time>2021-04-23T09:32:07.000Z</time>
      </trkpt>
      <trkpt lat="49.11594" lon="1.25992">
        <ele>153.80000305176</ele>
        <time>2021-04-23T09:32:09.000Z</time>
      </trkpt>
      <trkpt lat="49.11609" lon="1.25982">
        <ele>153.80000305176</ele>
        <time>2021-04-23T09:32:12.000Z</time>
      </trkpt>
      <trkpt lat="49.11621" lon="1.25974">
        <ele>154.39999389648</ele>
        <time>2021-04-23T09:32:15.000Z</time>
      </trkpt>
      <trkpt lat="49.11635" lon="1.25966">
        <ele>154.60000610352</ele>
        <time>2021-04-23T09:32:18.000Z</time>
      </trkpt>
      <trkpt lat="49.11662" lon="1.25956">
        <ele>154.60000610352</ele>
        <time>2021-04-23T09:32:23.000Z</time>
      </trkpt>
      <trkpt lat="49.11685" lon="1.25948">
        <ele>154.60000610352</ele>
        <time>2021-04-23T09:32:27.000Z</time>
      </trkpt>
      <trkpt lat="49.11694" lon="1.25941">
        <ele>154.60000610352</ele>
        <time>2021-04-23T09:32:29.000Z</time>
      </trkpt>
      <trkpt lat="49.11699" lon="1.25921">
        <ele>154.60000610352</ele>
        <time>2021-04-23T09:32:32.000Z</time>
      </trkpt>
      <trkpt lat="49.11692" lon="1.25904">
        <ele>154.60000610352</ele>
        <time>2021-04-23T09:32:35.000Z</time>
      </trkpt>
      <trkpt lat="49.11685" lon="1.25895">
        <ele>154.60000610352</ele>
        <time>2021-04-23T09:32:37.000Z</time>
      </trkpt>
      <trkpt lat="49.11674" lon="1.25881">
        <ele>154.39999389648</ele>
        <time>2021-04-23T09:32:40.000Z</time>
      </trkpt>
      <trkpt lat="49.11647" lon="1.25858">
        <ele>154.39999389648</ele>
        <time>2021-04-23T09:32:46.000Z</time>
      </trkpt>
      <trkpt lat="49.11622" lon="1.25832">
        <ele>154.39999389648</ele>
        <time>2021-04-23T09:32:51.000Z</time>
      </trkpt>
      <trkpt lat="49.11582" lon="1.2579">
        <ele>154</ele>
        <time>2021-04-23T09:32:58.000Z</time>
      </trkpt>
      <trkpt lat="49.11564" lon="1.25768">
        <ele>153</ele>
        <time>2021-04-23T09:33:01.000Z</time>
      </trkpt>
      <trkpt lat="49.11553" lon="1.25754">
        <ele>152.39999389648</ele>
        <time>2021-04-23T09:33:03.000Z</time>
      </trkpt>
      <trkpt lat="49.1154" lon="1.25741">
        <ele>151.60000610352</ele>
        <time>2021-04-23T09:33:05.000Z</time>
      </trkpt>
      <trkpt lat="49.11527" lon="1.25727">
        <ele>150.60000610352</ele>
        <time>2021-04-23T09:33:07.000Z</time>
      </trkpt>
      <trkpt lat="49.11514" lon="1.25713">
        <ele>149.60000610352</ele>
        <time>2021-04-23T09:33:09.000Z</time>
      </trkpt>
      <trkpt lat="49.11508" lon="1.25706">
        <ele>148.39999389648</ele>
        <time>2021-04-23T09:33:10.000Z</time>
      </trkpt>
      <trkpt lat="49.11501" lon="1.257">
        <ele>148</ele>
        <time>2021-04-23T09:33:11.000Z</time>
      </trkpt>
      <trkpt lat="49.11495" lon="1.25693">
        <ele>147.39999389648</ele>
        <time>2021-04-23T09:33:12.000Z</time>
      </trkpt>
      <trkpt lat="49.11483" lon="1.25677">
        <ele>145.80000305176</ele>
        <time>2021-04-23T09:33:14.000Z</time>
      </trkpt>
      <trkpt lat="49.11477" lon="1.25666">
        <ele>145</ele>
        <time>2021-04-23T09:33:15.000Z</time>
      </trkpt>
      <trkpt lat="49.11471" lon="1.25656">
        <ele>144</ele>
        <time>2021-04-23T09:33:16.000Z</time>
      </trkpt>
      <trkpt lat="49.1146" lon="1.25636">
        <ele>142.19999694824</ele>
        <time>2021-04-23T09:33:18.000Z</time>
      </trkpt>
      <trkpt lat="49.11451" lon="1.25618">
        <ele>140.39999389648</ele>
        <time>2021-04-23T09:33:20.000Z</time>
      </trkpt>
      <trkpt lat="49.11447" lon="1.25611">
        <ele>139.19999694824</ele>
        <time>2021-04-23T09:33:21.000Z</time>
      </trkpt>
      <trkpt lat="49.11443" lon="1.25603">
        <ele>138.19999694824</ele>
        <time>2021-04-23T09:33:22.000Z</time>
      </trkpt>
      <trkpt lat="49.11439" lon="1.25595">
        <ele>137.19999694824</ele>
        <time>2021-04-23T09:33:23.000Z</time>
      </trkpt>
      <trkpt lat="49.11436" lon="1.25586">
        <ele>136.19999694824</ele>
        <time>2021-04-23T09:33:24.000Z</time>
      </trkpt>
      <trkpt lat="49.11431" lon="1.25569">
        <ele>134.60000610352</ele>
        <time>2021-04-23T09:33:26.000Z</time>
      </trkpt>
      <trkpt lat="49.11427" lon="1.25551">
        <ele>133.39999389648</ele>
        <time>2021-04-23T09:33:28.000Z</time>
      </trkpt>
      <trkpt lat="49.11425" lon="1.25542">
        <ele>133</ele>
        <time>2021-04-23T09:33:29.000Z</time>
      </trkpt>
      <trkpt lat="49.11423" lon="1.25535">
        <ele>132.80000305176</ele>
        <time>2021-04-23T09:33:30.000Z</time>
      </trkpt>
      <trkpt lat="49.11421" lon="1.25528">
        <ele>132</ele>
        <time>2021-04-23T09:33:31.000Z</time>
      </trkpt>
      <trkpt lat="49.11419" lon="1.25523">
        <ele>131.19999694824</ele>
        <time>2021-04-23T09:33:32.000Z</time>
      </trkpt>
      <trkpt lat="49.11418" lon="1.25518">
        <ele>130.60000610352</ele>
        <time>2021-04-23T09:33:33.000Z</time>
      </trkpt>
      <trkpt lat="49.11416" lon="1.2551">
        <ele>129</ele>
        <time>2021-04-23T09:33:35.000Z</time>
      </trkpt>
      <trkpt lat="49.11415" lon="1.25507">
        <ele>128.39999389648</ele>
        <time>2021-04-23T09:33:36.000Z</time>
      </trkpt>
      <trkpt lat="49.11414" lon="1.25505">
        <ele>127.80000305176</ele>
        <time>2021-04-23T09:33:37.000Z</time>
      </trkpt>
      <trkpt lat="49.11413" lon="1.25504">
        <ele>126.80000305176</ele>
        <time>2021-04-23T09:33:38.000Z</time>
      </trkpt>
      <trkpt lat="49.11412" lon="1.25504">
        <ele>125.40000152588</ele>
        <time>2021-04-23T09:33:39.000Z</time>
      </trkpt>
      <trkpt lat="49.11409" lon="1.25505">
        <ele>124.19999694824</ele>
        <time>2021-04-23T09:33:41.000Z</time>
      </trkpt>
      <trkpt lat="49.11405" lon="1.25505">
        <ele>123.19999694824</ele>
        <time>2021-04-23T09:33:43.000Z</time>
      </trkpt>
      <trkpt lat="49.114" lon="1.25502">
        <ele>121.80000305176</ele>
        <time>2021-04-23T09:33:46.000Z</time>
      </trkpt>
      <trkpt lat="49.11392" lon="1.25486">
        <ele>120.80000305176</ele>
        <time>2021-04-23T09:33:51.000Z</time>
      </trkpt>
      <trkpt lat="49.11386" lon="1.25474">
        <ele>120.40000152588</ele>
        <time>2021-04-23T09:33:53.000Z</time>
      </trkpt>
      <trkpt lat="49.11383" lon="1.25463">
        <ele>120.19999694824</ele>
        <time>2021-04-23T09:33:55.000Z</time>
      </trkpt>
      <trkpt lat="49.11379" lon="1.25452">
        <ele>120.19999694824</ele>
        <time>2021-04-23T09:33:57.000Z</time>
      </trkpt>
      <trkpt lat="49.11377" lon="1.25444">
        <ele>119.80000305176</ele>
        <time>2021-04-23T09:33:59.000Z</time>
      </trkpt>
      <trkpt lat="49.11375" lon="1.2544">
        <ele>119.40000152588</ele>
        <time>2021-04-23T09:34:00.000Z</time>
      </trkpt>
      <trkpt lat="49.1137" lon="1.25433">
        <ele>118.19999694824</ele>
        <time>2021-04-23T09:34:03.000Z</time>
      </trkpt>
      <trkpt lat="49.11367" lon="1.25424">
        <ele>117</ele>
        <time>2021-04-23T09:34:05.000Z</time>
      </trkpt>
      <trkpt lat="49.11361" lon="1.25413">
        <ele>115.40000152588</ele>
        <time>2021-04-23T09:34:07.000Z</time>
      </trkpt>
      <trkpt lat="49.11358" lon="1.25409">
        <ele>114.19999694824</ele>
        <time>2021-04-23T09:34:09.000Z</time>
      </trkpt>
      <trkpt lat="49.11358" lon="1.25409">
        <ele>113.59999847412</ele>
        <time>2021-04-23T09:34:10.000Z</time>
      </trkpt>
      <trkpt lat="49.11353" lon="1.2541">
        <ele>110.40000152588</ele>
        <time>2021-04-23T09:34:32.000Z</time>
      </trkpt>
      <trkpt lat="49.11348" lon="1.25411">
        <ele>110.40000152588</ele>
        <time>2021-04-23T09:34:34.000Z</time>
      </trkpt>
      <trkpt lat="49.1134" lon="1.25408">
        <ele>110.40000152588</ele>
        <time>2021-04-23T09:34:36.000Z</time>
      </trkpt>
      <trkpt lat="49.11338" lon="1.25403">
        <ele>110.19999694824</ele>
        <time>2021-04-23T09:34:37.000Z</time>
      </trkpt>
      <trkpt lat="49.11342" lon="1.25395">
        <ele>110.19999694824</ele>
        <time>2021-04-23T09:34:40.000Z</time>
      </trkpt>
      <trkpt lat="49.11347" lon="1.25395">
        <ele>109.19999694824</ele>
        <time>2021-04-23T09:34:42.000Z</time>
      </trkpt>
      <trkpt lat="49.11351" lon="1.2539">
        <ele>108</ele>
        <time>2021-04-23T09:34:44.000Z</time>
      </trkpt>
      <trkpt lat="49.11357" lon="1.25378">
        <ele>107.19999694824</ele>
        <time>2021-04-23T09:34:48.000Z</time>
      </trkpt>
      <trkpt lat="49.11358" lon="1.25374">
        <ele>107</ele>
        <time>2021-04-23T09:34:49.000Z</time>
      </trkpt>
      <trkpt lat="49.11358" lon="1.25369">
        <ele>106.59999847412</ele>
        <time>2021-04-23T09:34:50.000Z</time>
      </trkpt>
      <trkpt lat="49.11357" lon="1.25364">
        <ele>106.40000152588</ele>
        <time>2021-04-23T09:34:51.000Z</time>
      </trkpt>
      <trkpt lat="49.1135" lon="1.25349">
        <ele>106</ele>
        <time>2021-04-23T09:34:54.000Z</time>
      </trkpt>
      <trkpt lat="49.11348" lon="1.25343">
        <ele>105.80000305176</ele>
        <time>2021-04-23T09:34:55.000Z</time>
      </trkpt>
      <trkpt lat="49.11347" lon="1.25337">
        <ele>105.59999847412</ele>
        <time>2021-04-23T09:34:56.000Z</time>
      </trkpt>
      <trkpt lat="49.11342" lon="1.25309">
        <ele>105.40000152588</ele>
        <time>2021-04-23T09:35:00.000Z</time>
      </trkpt>
      <trkpt lat="49.11337" lon="1.2529">
        <ele>104.40000152588</ele>
        <time>2021-04-23T09:35:02.000Z</time>
      </trkpt>
      <trkpt lat="49.11333" lon="1.25271">
        <ele>103.40000152588</ele>
        <time>2021-04-23T09:35:04.000Z</time>
      </trkpt>
      <trkpt lat="49.1133" lon="1.25262">
        <ele>103</ele>
        <time>2021-04-23T09:35:05.000Z</time>
      </trkpt>
      <trkpt lat="49.11327" lon="1.25254">
        <ele>102.59999847412</ele>
        <time>2021-04-23T09:35:06.000Z</time>
      </trkpt>
      <trkpt lat="49.11324" lon="1.25246">
        <ele>102</ele>
        <time>2021-04-23T09:35:07.000Z</time>
      </trkpt>
      <trkpt lat="49.11314" lon="1.25234">
        <ele>101</ele>
        <time>2021-04-23T09:35:09.000Z</time>
      </trkpt>
      <trkpt lat="49.11308" lon="1.25232">
        <ele>100.19999694824</ele>
        <time>2021-04-23T09:35:10.000Z</time>
      </trkpt>
      <trkpt lat="49.11301" lon="1.25232">
        <ele>99.400001525879</ele>
        <time>2021-04-23T09:35:11.000Z</time>
      </trkpt>
      <trkpt lat="49.11287" lon="1.25237">
        <ele>97.800003051758</ele>
        <time>2021-04-23T09:35:13.000Z</time>
      </trkpt>
      <trkpt lat="49.11272" lon="1.25246">
        <ele>96.199996948242</ele>
        <time>2021-04-23T09:35:15.000Z</time>
      </trkpt>
      <trkpt lat="49.11264" lon="1.25251">
        <ele>95.199996948242</ele>
        <time>2021-04-23T09:35:16.000Z</time>
      </trkpt>
      <trkpt lat="49.11256" lon="1.25258">
        <ele>94.400001525879</ele>
        <time>2021-04-23T09:35:17.000Z</time>
      </trkpt>
      <trkpt lat="49.11249" lon="1.25264">
        <ele>93.400001525879</ele>
        <time>2021-04-23T09:35:18.000Z</time>
      </trkpt>
      <trkpt lat="49.11243" lon="1.25271">
        <ele>92.400001525879</ele>
        <time>2021-04-23T09:35:19.000Z</time>
      </trkpt>
      <trkpt lat="49.11237" lon="1.25278">
        <ele>91.400001525879</ele>
        <time>2021-04-23T09:35:20.000Z</time>
      </trkpt>
      <trkpt lat="49.11232" lon="1.25286">
        <ele>90.199996948242</ele>
        <time>2021-04-23T09:35:21.000Z</time>
      </trkpt>
      <trkpt lat="49.11226" lon="1.25292">
        <ele>89.199996948242</ele>
        <time>2021-04-23T09:35:22.000Z</time>
      </trkpt>
      <trkpt lat="49.1122" lon="1.25296">
        <ele>88</ele>
        <time>2021-04-23T09:35:23.000Z</time>
      </trkpt>
      <trkpt lat="49.11212" lon="1.25297">
        <ele>86.599998474121</ele>
        <time>2021-04-23T09:35:24.000Z</time>
      </trkpt>
      <trkpt lat="49.11205" lon="1.25295">
        <ele>85.400001525879</ele>
        <time>2021-04-23T09:35:25.000Z</time>
      </trkpt>
      <trkpt lat="49.11199" lon="1.25289">
        <ele>84.400001525879</ele>
        <time>2021-04-23T09:35:26.000Z</time>
      </trkpt>
      <trkpt lat="49.11194" lon="1.25282">
        <ele>83.199996948242</ele>
        <time>2021-04-23T09:35:27.000Z</time>
      </trkpt>
      <trkpt lat="49.1119" lon="1.25275">
        <ele>82.199996948242</ele>
        <time>2021-04-23T09:35:28.000Z</time>
      </trkpt>
      <trkpt lat="49.1118" lon="1.25259">
        <ele>80.599998474121</ele>
        <time>2021-04-23T09:35:30.000Z</time>
      </trkpt>
      <trkpt lat="49.11174" lon="1.25251">
        <ele>79.599998474121</ele>
        <time>2021-04-23T09:35:31.000Z</time>
      </trkpt>
      <trkpt lat="49.11167" lon="1.25245">
        <ele>77.800003051758</ele>
        <time>2021-04-23T09:35:32.000Z</time>
      </trkpt>
      <trkpt lat="49.11153" lon="1.2523">
        <ele>75.800003051758</ele>
        <time>2021-04-23T09:35:34.000Z</time>
      </trkpt>
      <trkpt lat="49.11146" lon="1.25222">
        <ele>74.599998474121</ele>
        <time>2021-04-23T09:35:35.000Z</time>
      </trkpt>
      <trkpt lat="49.11131" lon="1.25208">
        <ele>73</ele>
        <time>2021-04-23T09:35:37.000Z</time>
      </trkpt>
      <trkpt lat="49.11125" lon="1.25202">
        <ele>72</ele>
        <time>2021-04-23T09:35:38.000Z</time>
      </trkpt>
      <trkpt lat="49.11118" lon="1.25194">
        <ele>71</ele>
        <time>2021-04-23T09:35:39.000Z</time>
      </trkpt>
      <trkpt lat="49.11112" lon="1.25187">
        <ele>69.800003051758</ele>
        <time>2021-04-23T09:35:40.000Z</time>
      </trkpt>
      <trkpt lat="49.11105" lon="1.25179">
        <ele>68.599998474121</ele>
        <time>2021-04-23T09:35:41.000Z</time>
      </trkpt>
      <trkpt lat="49.11098" lon="1.25171">
        <ele>67.199996948242</ele>
        <time>2021-04-23T09:35:42.000Z</time>
      </trkpt>
      <trkpt lat="49.11091" lon="1.25162">
        <ele>65.800003051758</ele>
        <time>2021-04-23T09:35:43.000Z</time>
      </trkpt>
      <trkpt lat="49.11083" lon="1.25153">
        <ele>64.599998474121</ele>
        <time>2021-04-23T09:35:44.000Z</time>
      </trkpt>
      <trkpt lat="49.11075" lon="1.25144">
        <ele>63.400001525879</ele>
        <time>2021-04-23T09:35:45.000Z</time>
      </trkpt>
      <trkpt lat="49.11067" lon="1.25134">
        <ele>62.200000762939</ele>
        <time>2021-04-23T09:35:46.000Z</time>
      </trkpt>
      <trkpt lat="49.11059" lon="1.25125">
        <ele>61.200000762939</ele>
        <time>2021-04-23T09:35:47.000Z</time>
      </trkpt>
      <trkpt lat="49.11051" lon="1.25115">
        <ele>60.200000762939</ele>
        <time>2021-04-23T09:35:48.000Z</time>
      </trkpt>
      <trkpt lat="49.11043" lon="1.25105">
        <ele>59</ele>
        <time>2021-04-23T09:35:49.000Z</time>
      </trkpt>
      <trkpt lat="49.11026" lon="1.25087">
        <ele>57</ele>
        <time>2021-04-23T09:35:51.000Z</time>
      </trkpt>
      <trkpt lat="49.11018" lon="1.25078">
        <ele>55.799999237061</ele>
        <time>2021-04-23T09:35:52.000Z</time>
      </trkpt>
      <trkpt lat="49.11011" lon="1.25068">
        <ele>54.799999237061</ele>
        <time>2021-04-23T09:35:53.000Z</time>
      </trkpt>
      <trkpt lat="49.11006" lon="1.25057">
        <ele>53.799999237061</ele>
        <time>2021-04-23T09:35:54.000Z</time>
      </trkpt>
      <trkpt lat="49.11" lon="1.25045">
        <ele>53</ele>
        <time>2021-04-23T09:35:55.000Z</time>
      </trkpt>
      <trkpt lat="49.10995" lon="1.25033">
        <ele>52</ele>
        <time>2021-04-23T09:35:56.000Z</time>
      </trkpt>
      <trkpt lat="49.10991" lon="1.25021">
        <ele>51</ele>
        <time>2021-04-23T09:35:57.000Z</time>
      </trkpt>
      <trkpt lat="49.10981" lon="1.24998">
        <ele>49.200000762939</ele>
        <time>2021-04-23T09:35:59.000Z</time>
      </trkpt>
      <trkpt lat="49.10971" lon="1.24974">
        <ele>46.799999237061</ele>
        <time>2021-04-23T09:36:01.000Z</time>
      </trkpt>
      <trkpt lat="49.1096" lon="1.24952">
        <ele>45.400001525879</ele>
        <time>2021-04-23T09:36:03.000Z</time>
      </trkpt>
      <trkpt lat="49.10952" lon="1.24937">
        <ele>44.200000762939</ele>
        <time>2021-04-23T09:36:05.000Z</time>
      </trkpt>
      <trkpt lat="49.1095" lon="1.24931">
        <ele>43.599998474121</ele>
        <time>2021-04-23T09:36:06.000Z</time>
      </trkpt>
      <trkpt lat="49.10949" lon="1.24926">
        <ele>43</ele>
        <time>2021-04-23T09:36:07.000Z</time>
      </trkpt>
      <trkpt lat="49.10951" lon="1.24916">
        <ele>41.599998474121</ele>
        <time>2021-04-23T09:36:09.000Z</time>
      </trkpt>
      <trkpt lat="49.10957" lon="1.24908">
        <ele>40.400001525879</ele>
        <time>2021-04-23T09:36:11.000Z</time>
      </trkpt>
      <trkpt lat="49.10962" lon="1.24898">
        <ele>40</ele>
        <time>2021-04-23T09:36:13.000Z</time>
      </trkpt>
      <trkpt lat="49.10965" lon="1.24892">
        <ele>40</ele>
        <time>2021-04-23T09:36:14.000Z</time>
      </trkpt>
      <trkpt lat="49.10971" lon="1.24871">
        <ele>39.799999237061</ele>
        <time>2021-04-23T09:36:17.000Z</time>
      </trkpt>
      <trkpt lat="49.10987" lon="1.24798">
        <ele>39.400001525879</ele>
        <time>2021-04-23T09:36:26.000Z</time>
      </trkpt>
      <trkpt lat="49.10989" lon="1.24789">
        <ele>39.400001525879</ele>
        <time>2021-04-23T09:36:27.000Z</time>
      </trkpt>
      <trkpt lat="49.10999" lon="1.2474">
        <ele>38.400001525879</ele>
        <time>2021-04-23T09:36:32.000Z</time>
      </trkpt>
      <trkpt lat="49.11001" lon="1.2473">
        <ele>38.200000762939</ele>
        <time>2021-04-23T09:36:33.000Z</time>
      </trkpt>
      <trkpt lat="49.11008" lon="1.24657">
        <ele>37.599998474121</ele>
        <time>2021-04-23T09:36:40.000Z</time>
      </trkpt>
      <trkpt lat="49.11011" lon="1.24606">
        <ele>37.400001525879</ele>
        <time>2021-04-23T09:36:45.000Z</time>
      </trkpt>
      <trkpt lat="49.11011" lon="1.24597">
        <ele>37.400001525879</ele>
        <time>2021-04-23T09:36:46.000Z</time>
      </trkpt>
      <trkpt lat="49.11013" lon="1.24537">
        <ele>37.200000762939</ele>
        <time>2021-04-23T09:36:52.000Z</time>
      </trkpt>
      <trkpt lat="49.11018" lon="1.2452">
        <ele>37</ele>
        <time>2021-04-23T09:36:54.000Z</time>
      </trkpt>
      <trkpt lat="49.11025" lon="1.24505">
        <ele>37</ele>
        <time>2021-04-23T09:36:56.000Z</time>
      </trkpt>
      <trkpt lat="49.11038" lon="1.2448">
        <ele>37</ele>
        <time>2021-04-23T09:37:00.000Z</time>
      </trkpt>
      <trkpt lat="49.11046" lon="1.24472">
        <ele>37</ele>
        <time>2021-04-23T09:37:03.000Z</time>
      </trkpt>
      <trkpt lat="49.1104" lon="1.24462">
        <ele>37.200000762939</ele>
        <time>2021-04-23T09:37:06.000Z</time>
      </trkpt>
      <trkpt lat="49.11033" lon="1.24455">
        <ele>37.200000762939</ele>
        <time>2021-04-23T09:37:08.000Z</time>
      </trkpt>
      <trkpt lat="49.11029" lon="1.2445">
        <ele>37.200000762939</ele>
        <time>2021-04-23T09:37:09.000Z</time>
      </trkpt>
      <trkpt lat="49.11027" lon="1.24445">
        <ele>37.200000762939</ele>
        <time>2021-04-23T09:37:10.000Z</time>
      </trkpt>
      <trkpt lat="49.11027" lon="1.24425">
        <ele>37.200000762939</ele>
        <time>2021-04-23T09:37:13.000Z</time>
      </trkpt>
      <trkpt lat="49.1103" lon="1.24419">
        <ele>37.200000762939</ele>
        <time>2021-04-23T09:37:14.000Z</time>
      </trkpt>
      <trkpt lat="49.11048" lon="1.24383">
        <ele>36.799999237061</ele>
        <time>2021-04-23T09:37:20.000Z</time>
      </trkpt>
      <trkpt lat="49.11076" lon="1.24336">
        <ele>37.200000762939</ele>
        <time>2021-04-23T09:37:28.000Z</time>
      </trkpt>
      <trkpt lat="49.1108" lon="1.24332">
        <ele>37.200000762939</ele>
        <time>2021-04-23T09:37:29.000Z</time>
      </trkpt>
      <trkpt lat="49.11093" lon="1.24323">
        <ele>37.599998474121</ele>
        <time>2021-04-23T09:37:32.000Z</time>
      </trkpt>
      <trkpt lat="49.11096" lon="1.2432">
        <ele>37.599998474121</ele>
        <time>2021-04-23T09:37:33.000Z</time>
      </trkpt>
      <trkpt lat="49.111" lon="1.24315">
        <ele>37.599998474121</ele>
        <time>2021-04-23T09:37:34.000Z</time>
      </trkpt>
      <trkpt lat="49.11121" lon="1.24274">
        <ele>38.200000762939</ele>
        <time>2021-04-23T09:37:42.000Z</time>
      </trkpt>
      <trkpt lat="49.11129" lon="1.2426">
        <ele>38.200000762939</ele>
        <time>2021-04-23T09:37:45.000Z</time>
      </trkpt>
      <trkpt lat="49.11133" lon="1.2426">
        <ele>38.200000762939</ele>
        <time>2021-04-23T09:37:46.000Z</time>
      </trkpt>
      <trkpt lat="49.11143" lon="1.24269">
        <ele>38.200000762939</ele>
        <time>2021-04-23T09:37:49.000Z</time>
      </trkpt>
      <trkpt lat="49.11146" lon="1.24272">
        <ele>38.200000762939</ele>
        <time>2021-04-23T09:37:50.000Z</time>
      </trkpt>
      <trkpt lat="49.1117" lon="1.24295">
        <ele>37.400001525879</ele>
        <time>2021-04-23T09:37:58.000Z</time>
      </trkpt>
      <trkpt lat="49.11192" lon="1.24317">
        <ele>37.200000762939</ele>
        <time>2021-04-23T09:38:07.000Z</time>
      </trkpt>
      <trkpt lat="49.11213" lon="1.24336">
        <ele>37.400001525879</ele>
        <time>2021-04-23T09:38:16.000Z</time>
      </trkpt>
      <trkpt lat="49.11226" lon="1.24349">
        <ele>38.200000762939</ele>
        <time>2021-04-23T09:38:23.000Z</time>
      </trkpt>
      <trkpt lat="49.11229" lon="1.24351">
        <ele>38.599998474121</ele>
        <time>2021-04-23T09:38:27.000Z</time>
      </trkpt>
      <trkpt lat="49.1123" lon="1.24353">
        <ele>39.799999237061</ele>
        <time>2021-04-23T09:38:37.000Z</time>
      </trkpt>
      <trkpt lat="49.1123" lon="1.24353">
        <ele>40.400001525879</ele>
        <time>2021-04-23T09:38:40.000Z</time>
      </trkpt>
      <trkpt lat="49.11234" lon="1.24355">
        <ele>41.400001525879</ele>
        <time>2021-04-23T09:38:56.000Z</time>
      </trkpt>
      <trkpt lat="49.11235" lon="1.24357">
        <ele>41.400001525879</ele>
        <time>2021-04-23T09:38:57.000Z</time>
      </trkpt>
      <trkpt lat="49.11247" lon="1.2437">
        <ele>41.400001525879</ele>
        <time>2021-04-23T09:39:03.000Z</time>
      </trkpt>
      <trkpt lat="49.11265" lon="1.24388">
        <ele>42</ele>
        <time>2021-04-23T09:39:12.000Z</time>
      </trkpt>
      <trkpt lat="49.11275" lon="1.24399">
        <ele>42.200000762939</ele>
        <time>2021-04-23T09:39:17.000Z</time>
      </trkpt>
      <trkpt lat="49.11287" lon="1.24409">
        <ele>42.799999237061</ele>
        <time>2021-04-23T09:39:23.000Z</time>
      </trkpt>
      <trkpt lat="49.11295" lon="1.24416">
        <ele>43.599998474121</ele>
        <time>2021-04-23T09:39:27.000Z</time>
      </trkpt>
      <trkpt lat="49.11298" lon="1.24418">
        <ele>43.799999237061</ele>
        <time>2021-04-23T09:39:28.000Z</time>
      </trkpt>
      <trkpt lat="49.11311" lon="1.2443">
        <ele>44.799999237061</ele>
        <time>2021-04-23T09:39:35.000Z</time>
      </trkpt>
      <trkpt lat="49.11318" lon="1.24437">
        <ele>45.400001525879</ele>
        <time>2021-04-23T09:39:39.000Z</time>
      </trkpt>
      <trkpt lat="49.11323" lon="1.24442">
        <ele>46</ele>
        <time>2021-04-23T09:39:42.000Z</time>
      </trkpt>
      <trkpt lat="49.11332" lon="1.24451">
        <ele>47.200000762939</ele>
        <time>2021-04-23T09:39:47.000Z</time>
      </trkpt>
      <trkpt lat="49.11333" lon="1.24453">
        <ele>47.599998474121</ele>
        <time>2021-04-23T09:39:48.000Z</time>
      </trkpt>
      <trkpt lat="49.1134" lon="1.2446">
        <ele>48.200000762939</ele>
        <time>2021-04-23T09:39:52.000Z</time>
      </trkpt>
      <trkpt lat="49.11347" lon="1.2447">
        <ele>49.200000762939</ele>
        <time>2021-04-23T09:39:57.000Z</time>
      </trkpt>
      <trkpt lat="49.1135" lon="1.24474">
        <ele>49.400001525879</ele>
        <time>2021-04-23T09:39:59.000Z</time>
      </trkpt>
      <trkpt lat="49.11351" lon="1.24476">
        <ele>49.599998474121</ele>
        <time>2021-04-23T09:40:00.000Z</time>
      </trkpt>
      <trkpt lat="49.11357" lon="1.24485">
        <ele>50.599998474121</ele>
        <time>2021-04-23T09:40:04.000Z</time>
      </trkpt>
      <trkpt lat="49.11361" lon="1.24492">
        <ele>51.599998474121</ele>
        <time>2021-04-23T09:40:07.000Z</time>
      </trkpt>
      <trkpt lat="49.11368" lon="1.24503">
        <ele>52.799999237061</ele>
        <time>2021-04-23T09:40:12.000Z</time>
      </trkpt>
      <trkpt lat="49.11369" lon="1.24506">
        <ele>53</ele>
        <time>2021-04-23T09:40:13.000Z</time>
      </trkpt>
      <trkpt lat="49.11375" lon="1.24515">
        <ele>54.200000762939</ele>
        <time>2021-04-23T09:40:17.000Z</time>
      </trkpt>
      <trkpt lat="49.11384" lon="1.24529">
        <ele>55.400001525879</ele>
        <time>2021-04-23T09:40:23.000Z</time>
      </trkpt>
      <trkpt lat="49.11395" lon="1.24547">
        <ele>56.400001525879</ele>
        <time>2021-04-23T09:40:30.000Z</time>
      </trkpt>
      <trkpt lat="49.114" lon="1.24554">
        <ele>57.200000762939</ele>
        <time>2021-04-23T09:40:33.000Z</time>
      </trkpt>
      <trkpt lat="49.11404" lon="1.24559">
        <ele>57.400001525879</ele>
        <time>2021-04-23T09:40:35.000Z</time>
      </trkpt>
      <trkpt lat="49.11414" lon="1.24569">
        <ele>58.400001525879</ele>
        <time>2021-04-23T09:40:40.000Z</time>
      </trkpt>
      <trkpt lat="49.11417" lon="1.24569">
        <ele>58.400001525879</ele>
        <time>2021-04-23T09:40:41.000Z</time>
      </trkpt>
      <trkpt lat="49.11419" lon="1.24567">
        <ele>58.400001525879</ele>
        <time>2021-04-23T09:40:42.000Z</time>
      </trkpt>
      <trkpt lat="49.11424" lon="1.24564">
        <ele>58.599998474121</ele>
        <time>2021-04-23T09:40:44.000Z</time>
      </trkpt>
      <trkpt lat="49.11433" lon="1.24556">
        <ele>59.599998474121</ele>
        <time>2021-04-23T09:40:48.000Z</time>
      </trkpt>
      <trkpt lat="49.11442" lon="1.24548">
        <ele>60.799999237061</ele>
        <time>2021-04-23T09:40:52.000Z</time>
      </trkpt>
      <trkpt lat="49.11458" lon="1.24534">
        <ele>61.799999237061</ele>
        <time>2021-04-23T09:40:59.000Z</time>
      </trkpt>
      <trkpt lat="49.11468" lon="1.24524">
        <ele>62.799999237061</ele>
        <time>2021-04-23T09:41:04.000Z</time>
      </trkpt>
      <trkpt lat="49.11474" lon="1.24518">
        <ele>63.400001525879</ele>
        <time>2021-04-23T09:41:07.000Z</time>
      </trkpt>
      <trkpt lat="49.1148" lon="1.24512">
        <ele>64</ele>
        <time>2021-04-23T09:41:10.000Z</time>
      </trkpt>
      <trkpt lat="49.11488" lon="1.24502">
        <ele>65.199996948242</ele>
        <time>2021-04-23T09:41:15.000Z</time>
      </trkpt>
      <trkpt lat="49.1149" lon="1.245">
        <ele>65.400001525879</ele>
        <time>2021-04-23T09:41:16.000Z</time>
      </trkpt>
      <trkpt lat="49.11497" lon="1.24486">
        <ele>66.199996948242</ele>
        <time>2021-04-23T09:41:22.000Z</time>
      </trkpt>
      <trkpt lat="49.115" lon="1.24481">
        <ele>66.800003051758</ele>
        <time>2021-04-23T09:41:24.000Z</time>
      </trkpt>
      <trkpt lat="49.11502" lon="1.24476">
        <ele>67.199996948242</ele>
        <time>2021-04-23T09:41:26.000Z</time>
      </trkpt>
      <trkpt lat="49.11507" lon="1.24466">
        <ele>68.400001525879</ele>
        <time>2021-04-23T09:41:30.000Z</time>
      </trkpt>
      <trkpt lat="49.1151" lon="1.24458">
        <ele>69.400001525879</ele>
        <time>2021-04-23T09:41:33.000Z</time>
      </trkpt>
      <trkpt lat="49.11511" lon="1.24455">
        <ele>69.599998474121</ele>
        <time>2021-04-23T09:41:34.000Z</time>
      </trkpt>
      <trkpt lat="49.11517" lon="1.24443">
        <ele>70.800003051758</ele>
        <time>2021-04-23T09:41:39.000Z</time>
      </trkpt>
      <trkpt lat="49.11521" lon="1.24433">
        <ele>72.400001525879</ele>
        <time>2021-04-23T09:41:43.000Z</time>
      </trkpt>
      <trkpt lat="49.11521" lon="1.2443">
        <ele>72.599998474121</ele>
        <time>2021-04-23T09:41:44.000Z</time>
      </trkpt>
      <trkpt lat="49.11526" lon="1.24421">
        <ele>73.599998474121</ele>
        <time>2021-04-23T09:41:48.000Z</time>
      </trkpt>
      <trkpt lat="49.1153" lon="1.24411">
        <ele>74.800003051758</ele>
        <time>2021-04-23T09:41:52.000Z</time>
      </trkpt>
      <trkpt lat="49.11536" lon="1.244">
        <ele>76.199996948242</ele>
        <time>2021-04-23T09:41:57.000Z</time>
      </trkpt>
      <trkpt lat="49.11541" lon="1.24391">
        <ele>77.199996948242</ele>
        <time>2021-04-23T09:42:01.000Z</time>
      </trkpt>
      <trkpt lat="49.11542" lon="1.24389">
        <ele>77.400001525879</ele>
        <time>2021-04-23T09:42:02.000Z</time>
      </trkpt>
      <trkpt lat="49.11542" lon="1.24386">
        <ele>78.199996948242</ele>
        <time>2021-04-23T09:42:05.000Z</time>
      </trkpt>
      <trkpt lat="49.11543" lon="1.24385">
        <ele>79.800003051758</ele>
        <time>2021-04-23T09:44:05.000Z</time>
      </trkpt>
      <trkpt lat="49.11547" lon="1.24379">
        <ele>80</ele>
        <time>2021-04-23T09:44:08.000Z</time>
      </trkpt>
      <trkpt lat="49.11558" lon="1.24361">
        <ele>80</ele>
        <time>2021-04-23T09:44:14.000Z</time>
      </trkpt>
      <trkpt lat="49.1157" lon="1.24339">
        <ele>81</ele>
        <time>2021-04-23T09:44:21.000Z</time>
      </trkpt>
      <trkpt lat="49.11578" lon="1.24326">
        <ele>81.599998474121</ele>
        <time>2021-04-23T09:44:25.000Z</time>
      </trkpt>
      <trkpt lat="49.11583" lon="1.24317">
        <ele>82</ele>
        <time>2021-04-23T09:44:28.000Z</time>
      </trkpt>
      <trkpt lat="49.11594" lon="1.24298">
        <ele>83.400001525879</ele>
        <time>2021-04-23T09:44:34.000Z</time>
      </trkpt>
      <trkpt lat="49.11596" lon="1.24296">
        <ele>83.400001525879</ele>
        <time>2021-04-23T09:44:35.000Z</time>
      </trkpt>
      <trkpt lat="49.1161" lon="1.24281">
        <ele>84</ele>
        <time>2021-04-23T09:44:42.000Z</time>
      </trkpt>
      <trkpt lat="49.11617" lon="1.24279">
        <ele>84.400001525879</ele>
        <time>2021-04-23T09:44:45.000Z</time>
      </trkpt>
      <trkpt lat="49.11623" lon="1.24282">
        <ele>84.800003051758</ele>
        <time>2021-04-23T09:44:48.000Z</time>
      </trkpt>
      <trkpt lat="49.11632" lon="1.24288">
        <ele>85.400001525879</ele>
        <time>2021-04-23T09:44:53.000Z</time>
      </trkpt>
      <trkpt lat="49.11635" lon="1.24291">
        <ele>85.599998474121</ele>
        <time>2021-04-23T09:44:55.000Z</time>
      </trkpt>
      <trkpt lat="49.11647" lon="1.24299">
        <ele>86.599998474121</ele>
        <time>2021-04-23T09:45:02.000Z</time>
      </trkpt>
      <trkpt lat="49.11652" lon="1.24302">
        <ele>87.199996948242</ele>
        <time>2021-04-23T09:45:05.000Z</time>
      </trkpt>
      <trkpt lat="49.11657" lon="1.24306">
        <ele>87.800003051758</ele>
        <time>2021-04-23T09:45:08.000Z</time>
      </trkpt>
      <trkpt lat="49.11662" lon="1.24309">
        <ele>88.400001525879</ele>
        <time>2021-04-23T09:45:11.000Z</time>
      </trkpt>
      <trkpt lat="49.11665" lon="1.24311">
        <ele>88.800003051758</ele>
        <time>2021-04-23T09:45:13.000Z</time>
      </trkpt>
      <trkpt lat="49.11673" lon="1.24316">
        <ele>90</ele>
        <time>2021-04-23T09:45:19.000Z</time>
      </trkpt>
      <trkpt lat="49.11675" lon="1.24317">
        <ele>90.199996948242</ele>
        <time>2021-04-23T09:45:20.000Z</time>
      </trkpt>
      <trkpt lat="49.11676" lon="1.24318">
        <ele>90.400001525879</ele>
        <time>2021-04-23T09:45:21.000Z</time>
      </trkpt>
      <trkpt lat="49.11682" lon="1.24322">
        <ele>91</ele>
        <time>2021-04-23T09:45:25.000Z</time>
      </trkpt>
      <trkpt lat="49.11691" lon="1.24328">
        <ele>92.400001525879</ele>
        <time>2021-04-23T09:45:31.000Z</time>
      </trkpt>
      <trkpt lat="49.117" lon="1.24334">
        <ele>93.400001525879</ele>
        <time>2021-04-23T09:45:37.000Z</time>
      </trkpt>
      <trkpt lat="49.11704" lon="1.24336">
        <ele>94</ele>
        <time>2021-04-23T09:45:40.000Z</time>
      </trkpt>
      <trkpt lat="49.11707" lon="1.24338">
        <ele>94.599998474121</ele>
        <time>2021-04-23T09:45:42.000Z</time>
      </trkpt>
      <trkpt lat="49.11715" lon="1.24342">
        <ele>95.599998474121</ele>
        <time>2021-04-23T09:45:47.000Z</time>
      </trkpt>
      <trkpt lat="49.11716" lon="1.24343">
        <ele>95.800003051758</ele>
        <time>2021-04-23T09:45:48.000Z</time>
      </trkpt>
      <trkpt lat="49.11724" lon="1.24347">
        <ele>96.800003051758</ele>
        <time>2021-04-23T09:45:53.000Z</time>
      </trkpt>
      <trkpt lat="49.1173" lon="1.2435">
        <ele>97.400001525879</ele>
        <time>2021-04-23T09:45:57.000Z</time>
      </trkpt>
      <trkpt lat="49.11733" lon="1.24351">
        <ele>98</ele>
        <time>2021-04-23T09:45:59.000Z</time>
      </trkpt>
      <trkpt lat="49.11739" lon="1.24354">
        <ele>99</ele>
        <time>2021-04-23T09:46:03.000Z</time>
      </trkpt>
      <trkpt lat="49.11742" lon="1.24356">
        <ele>99.400001525879</ele>
        <time>2021-04-23T09:46:05.000Z</time>
      </trkpt>
      <trkpt lat="49.11746" lon="1.24358">
        <ele>100</ele>
        <time>2021-04-23T09:46:08.000Z</time>
      </trkpt>
      <trkpt lat="49.11754" lon="1.24357">
        <ele>101</ele>
        <time>2021-04-23T09:46:13.000Z</time>
      </trkpt>
      <trkpt lat="49.11761" lon="1.24351">
        <ele>102</ele>
        <time>2021-04-23T09:46:18.000Z</time>
      </trkpt>
      <trkpt lat="49.11765" lon="1.24346">
        <ele>103</ele>
        <time>2021-04-23T09:46:21.000Z</time>
      </trkpt>
      <trkpt lat="49.11768" lon="1.2434">
        <ele>104.19999694824</ele>
        <time>2021-04-23T09:46:24.000Z</time>
      </trkpt>
      <trkpt lat="49.11773" lon="1.24333">
        <ele>105.59999847412</ele>
        <time>2021-04-23T09:46:28.000Z</time>
      </trkpt>
      <trkpt lat="49.11779" lon="1.24328">
        <ele>106.59999847412</ele>
        <time>2021-04-23T09:46:32.000Z</time>
      </trkpt>
      <trkpt lat="49.11786" lon="1.24324">
        <ele>108</ele>
        <time>2021-04-23T09:46:36.000Z</time>
      </trkpt>
      <trkpt lat="49.11787" lon="1.24323">
        <ele>108.19999694824</ele>
        <time>2021-04-23T09:46:37.000Z</time>
      </trkpt>
      <trkpt lat="49.11796" lon="1.2432">
        <ele>109</ele>
        <time>2021-04-23T09:46:42.000Z</time>
      </trkpt>
      <trkpt lat="49.11806" lon="1.2432">
        <ele>110.19999694824</ele>
        <time>2021-04-23T09:46:48.000Z</time>
      </trkpt>
      <trkpt lat="49.1182" lon="1.24322">
        <ele>111.19999694824</ele>
        <time>2021-04-23T09:46:57.000Z</time>
      </trkpt>
      <trkpt lat="49.1183" lon="1.24322">
        <ele>112.40000152588</ele>
        <time>2021-04-23T09:47:03.000Z</time>
      </trkpt>
      <trkpt lat="49.11833" lon="1.24322">
        <ele>112.80000305176</ele>
        <time>2021-04-23T09:47:05.000Z</time>
      </trkpt>
      <trkpt lat="49.1184" lon="1.24321">
        <ele>113.59999847412</ele>
        <time>2021-04-23T09:47:09.000Z</time>
      </trkpt>
      <trkpt lat="49.11848" lon="1.24321">
        <ele>114.59999847412</ele>
        <time>2021-04-23T09:47:14.000Z</time>
      </trkpt>
      <trkpt lat="49.11852" lon="1.24321">
        <ele>115</ele>
        <time>2021-04-23T09:47:16.000Z</time>
      </trkpt>
      <trkpt lat="49.11859" lon="1.2432">
        <ele>115.80000305176</ele>
        <time>2021-04-23T09:47:20.000Z</time>
      </trkpt>
      <trkpt lat="49.11869" lon="1.24319">
        <ele>117.40000152588</ele>
        <time>2021-04-23T09:47:26.000Z</time>
      </trkpt>
      <trkpt lat="49.11875" lon="1.24321">
        <ele>118.40000152588</ele>
        <time>2021-04-23T09:47:30.000Z</time>
      </trkpt>
      <trkpt lat="49.11885" lon="1.24326">
        <ele>119.19999694824</ele>
        <time>2021-04-23T09:47:36.000Z</time>
      </trkpt>
      <trkpt lat="49.11891" lon="1.2433">
        <ele>119.40000152588</ele>
        <time>2021-04-23T09:47:40.000Z</time>
      </trkpt>
      <trkpt lat="49.11898" lon="1.24336">
        <ele>120.40000152588</ele>
        <time>2021-04-23T09:47:45.000Z</time>
      </trkpt>
      <trkpt lat="49.119" lon="1.24338">
        <ele>120.59999847412</ele>
        <time>2021-04-23T09:47:46.000Z</time>
      </trkpt>
      <trkpt lat="49.11908" lon="1.24345">
        <ele>121.59999847412</ele>
        <time>2021-04-23T09:47:52.000Z</time>
      </trkpt>
      <trkpt lat="49.11911" lon="1.24348">
        <ele>122.19999694824</ele>
        <time>2021-04-23T09:47:54.000Z</time>
      </trkpt>
      <trkpt lat="49.11916" lon="1.24351">
        <ele>122.59999847412</ele>
        <time>2021-04-23T09:47:57.000Z</time>
      </trkpt>
      <trkpt lat="49.11924" lon="1.24358">
        <ele>123.80000305176</ele>
        <time>2021-04-23T09:48:03.000Z</time>
      </trkpt>
      <trkpt lat="49.11926" lon="1.24359">
        <ele>123.80000305176</ele>
        <time>2021-04-23T09:48:04.000Z</time>
      </trkpt>
      <trkpt lat="49.11933" lon="1.24364">
        <ele>124.80000305176</ele>
        <time>2021-04-23T09:48:09.000Z</time>
      </trkpt>
      <trkpt lat="49.11938" lon="1.24367">
        <ele>125.40000152588</ele>
        <time>2021-04-23T09:48:12.000Z</time>
      </trkpt>
      <trkpt lat="49.11942" lon="1.24369">
        <ele>125.80000305176</ele>
        <time>2021-04-23T09:48:14.000Z</time>
      </trkpt>
      <trkpt lat="49.1195" lon="1.24374">
        <ele>127.40000152588</ele>
        <time>2021-04-23T09:48:19.000Z</time>
      </trkpt>
      <trkpt lat="49.11951" lon="1.24375">
        <ele>127.59999847412</ele>
        <time>2021-04-23T09:48:20.000Z</time>
      </trkpt>
      <trkpt lat="49.11959" lon="1.24379">
        <ele>128.39999389648</ele>
        <time>2021-04-23T09:48:24.000Z</time>
      </trkpt>
      <trkpt lat="49.11969" lon="1.24385">
        <ele>129.19999694824</ele>
        <time>2021-04-23T09:48:29.000Z</time>
      </trkpt>
      <trkpt lat="49.11977" lon="1.24389">
        <ele>129.60000610352</ele>
        <time>2021-04-23T09:48:33.000Z</time>
      </trkpt>
      <trkpt lat="49.1199" lon="1.24397">
        <ele>130.39999389648</ele>
        <time>2021-04-23T09:48:39.000Z</time>
      </trkpt>
      <trkpt lat="49.11994" lon="1.244">
        <ele>130.80000305176</ele>
        <time>2021-04-23T09:48:41.000Z</time>
      </trkpt>
      <trkpt lat="49.12002" lon="1.24405">
        <ele>131.80000305176</ele>
        <time>2021-04-23T09:48:45.000Z</time>
      </trkpt>
      <trkpt lat="49.12006" lon="1.24408">
        <ele>132.19999694824</ele>
        <time>2021-04-23T09:48:47.000Z</time>
      </trkpt>
      <trkpt lat="49.12017" lon="1.24417">
        <ele>132.80000305176</ele>
        <time>2021-04-23T09:48:52.000Z</time>
      </trkpt>
      <trkpt lat="49.12026" lon="1.24424">
        <ele>133.60000610352</ele>
        <time>2021-04-23T09:48:56.000Z</time>
      </trkpt>
      <trkpt lat="49.12031" lon="1.24428">
        <ele>133.80000305176</ele>
        <time>2021-04-23T09:48:58.000Z</time>
      </trkpt>
      <trkpt lat="49.12041" lon="1.24439">
        <ele>134.19999694824</ele>
        <time>2021-04-23T09:49:03.000Z</time>
      </trkpt>
      <trkpt lat="49.12047" lon="1.24448">
        <ele>134.80000305176</ele>
        <time>2021-04-23T09:49:07.000Z</time>
      </trkpt>
      <trkpt lat="49.12049" lon="1.2445">
        <ele>135.19999694824</ele>
        <time>2021-04-23T09:49:08.000Z</time>
      </trkpt>
      <trkpt lat="49.12056" lon="1.24457">
        <ele>136</ele>
        <time>2021-04-23T09:49:12.000Z</time>
      </trkpt>
      <trkpt lat="49.12061" lon="1.24459">
        <ele>136.39999389648</ele>
        <time>2021-04-23T09:49:14.000Z</time>
      </trkpt>
      <trkpt lat="49.12069" lon="1.24465">
        <ele>137.19999694824</ele>
        <time>2021-04-23T09:49:17.000Z</time>
      </trkpt>
      <trkpt lat="49.1208" lon="1.24474">
        <ele>137.80000305176</ele>
        <time>2021-04-23T09:49:21.000Z</time>
      </trkpt>
      <trkpt lat="49.12089" lon="1.24481">
        <ele>138.19999694824</ele>
        <time>2021-04-23T09:49:24.000Z</time>
      </trkpt>
      <trkpt lat="49.12103" lon="1.24491">
        <ele>138.39999389648</ele>
        <time>2021-04-23T09:49:28.000Z</time>
      </trkpt>
      <trkpt lat="49.12131" lon="1.24503">
        <ele>138.80000305176</ele>
        <time>2021-04-23T09:49:36.000Z</time>
      </trkpt>
      <trkpt lat="49.12157" lon="1.24512">
        <ele>139.39999389648</ele>
        <time>2021-04-23T09:49:44.000Z</time>
      </trkpt>
      <trkpt lat="49.12174" lon="1.24517">
        <ele>140.39999389648</ele>
        <time>2021-04-23T09:49:49.000Z</time>
      </trkpt>
      <trkpt lat="49.12181" lon="1.2452">
        <ele>140.60000610352</ele>
        <time>2021-04-23T09:49:51.000Z</time>
      </trkpt>
      <trkpt lat="49.12196" lon="1.24526">
        <ele>141.39999389648</ele>
        <time>2021-04-23T09:49:56.000Z</time>
      </trkpt>
      <trkpt lat="49.12199" lon="1.24527">
        <ele>141.60000610352</ele>
        <time>2021-04-23T09:49:57.000Z</time>
      </trkpt>
      <trkpt lat="49.12217" lon="1.24534">
        <ele>142.60000610352</ele>
        <time>2021-04-23T09:50:03.000Z</time>
      </trkpt>
      <trkpt lat="49.1222" lon="1.24534">
        <ele>142.80000305176</ele>
        <time>2021-04-23T09:50:04.000Z</time>
      </trkpt>
      <trkpt lat="49.12235" lon="1.24539">
        <ele>143.80000305176</ele>
        <time>2021-04-23T09:50:09.000Z</time>
      </trkpt>
      <trkpt lat="49.12244" lon="1.24541">
        <ele>144.60000610352</ele>
        <time>2021-04-23T09:50:12.000Z</time>
      </trkpt>
      <trkpt lat="49.12251" lon="1.24544">
        <ele>145</ele>
        <time>2021-04-23T09:50:14.000Z</time>
      </trkpt>
      <trkpt lat="49.12261" lon="1.24548">
        <ele>145.80000305176</ele>
        <time>2021-04-23T09:50:17.000Z</time>
      </trkpt>
      <trkpt lat="49.12264" lon="1.24549">
        <ele>146.19999694824</ele>
        <time>2021-04-23T09:50:18.000Z</time>
      </trkpt>
      <trkpt lat="49.12284" lon="1.24555">
        <ele>147.19999694824</ele>
        <time>2021-04-23T09:50:24.000Z</time>
      </trkpt>
      <trkpt lat="49.12287" lon="1.24556">
        <ele>147.60000610352</ele>
        <time>2021-04-23T09:50:25.000Z</time>
      </trkpt>
      <trkpt lat="49.12307" lon="1.24563">
        <ele>148.19999694824</ele>
        <time>2021-04-23T09:50:31.000Z</time>
      </trkpt>
      <trkpt lat="49.12327" lon="1.24569">
        <ele>149.39999389648</ele>
        <time>2021-04-23T09:50:37.000Z</time>
      </trkpt>
      <trkpt lat="49.1233" lon="1.24569">
        <ele>149.60000610352</ele>
        <time>2021-04-23T09:50:38.000Z</time>
      </trkpt>
      <trkpt lat="49.12348" lon="1.24573">
        <ele>150.19999694824</ele>
        <time>2021-04-23T09:50:43.000Z</time>
      </trkpt>
      <trkpt lat="49.12359" lon="1.24575">
        <ele>150.60000610352</ele>
        <time>2021-04-23T09:50:46.000Z</time>
      </trkpt>
      <trkpt lat="49.12372" lon="1.24578">
        <ele>151</ele>
        <time>2021-04-23T09:50:49.000Z</time>
      </trkpt>
      <trkpt lat="49.12406" lon="1.24586">
        <ele>151.19999694824</ele>
        <time>2021-04-23T09:50:56.000Z</time>
      </trkpt>
      <trkpt lat="49.12454" lon="1.24592">
        <ele>151.19999694824</ele>
        <time>2021-04-23T09:51:05.000Z</time>
      </trkpt>
      <trkpt lat="49.12485" lon="1.24596">
        <ele>151</ele>
        <time>2021-04-23T09:51:11.000Z</time>
      </trkpt>
      <trkpt lat="49.12524" lon="1.24604">
        <ele>150.60000610352</ele>
        <time>2021-04-23T09:51:19.000Z</time>
      </trkpt>
      <trkpt lat="49.1257" lon="1.24613">
        <ele>150.19999694824</ele>
        <time>2021-04-23T09:51:29.000Z</time>
      </trkpt>
      <trkpt lat="49.12611" lon="1.24621">
        <ele>150.39999389648</ele>
        <time>2021-04-23T09:51:38.000Z</time>
      </trkpt>
      <trkpt lat="49.12645" lon="1.24628">
        <ele>150.80000305176</ele>
        <time>2021-04-23T09:51:46.000Z</time>
      </trkpt>
      <trkpt lat="49.12677" lon="1.24635">
        <ele>151.39999389648</ele>
        <time>2021-04-23T09:51:54.000Z</time>
      </trkpt>
      <trkpt lat="49.1268" lon="1.24623">
        <ele>151.39999389648</ele>
        <time>2021-04-23T09:51:57.000Z</time>
      </trkpt>
      <trkpt lat="49.12679" lon="1.24616">
        <ele>151.39999389648</ele>
        <time>2021-04-23T09:51:58.000Z</time>
      </trkpt>
      <trkpt lat="49.12671" lon="1.24588">
        <ele>151.60000610352</ele>
        <time>2021-04-23T09:52:02.000Z</time>
      </trkpt>
      <trkpt lat="49.12653" lon="1.24534">
        <ele>151.60000610352</ele>
        <time>2021-04-23T09:52:08.000Z</time>
      </trkpt>
      <trkpt lat="49.12629" lon="1.24458">
        <ele>149.60000610352</ele>
        <time>2021-04-23T09:52:15.000Z</time>
      </trkpt>
      <trkpt lat="49.12626" lon="1.24447">
        <ele>149.19999694824</ele>
        <time>2021-04-23T09:52:16.000Z</time>
      </trkpt>
      <trkpt lat="49.12619" lon="1.24424">
        <ele>148.60000610352</ele>
        <time>2021-04-23T09:52:18.000Z</time>
      </trkpt>
      <trkpt lat="49.12609" lon="1.2439">
        <ele>147.39999389648</ele>
        <time>2021-04-23T09:52:21.000Z</time>
      </trkpt>
      <trkpt lat="49.12598" lon="1.24353">
        <ele>146.60000610352</ele>
        <time>2021-04-23T09:52:24.000Z</time>
      </trkpt>
      <trkpt lat="49.12595" lon="1.24341">
        <ele>146.19999694824</ele>
        <time>2021-04-23T09:52:25.000Z</time>
      </trkpt>
      <trkpt lat="49.12581" lon="1.24293">
        <ele>145.19999694824</ele>
        <time>2021-04-23T09:52:29.000Z</time>
      </trkpt>
      <trkpt lat="49.12571" lon="1.24258">
        <ele>144</ele>
        <time>2021-04-23T09:52:32.000Z</time>
      </trkpt>
      <trkpt lat="49.12561" lon="1.24224">
        <ele>143</ele>
        <time>2021-04-23T09:52:35.000Z</time>
      </trkpt>
      <trkpt lat="49.12558" lon="1.24213">
        <ele>142.80000305176</ele>
        <time>2021-04-23T09:52:36.000Z</time>
      </trkpt>
      <trkpt lat="49.12538" lon="1.24145">
        <ele>141.60000610352</ele>
        <time>2021-04-23T09:52:42.000Z</time>
      </trkpt>
      <trkpt lat="49.12534" lon="1.24134">
        <ele>141.60000610352</ele>
        <time>2021-04-23T09:52:43.000Z</time>
      </trkpt>
      <trkpt lat="49.12508" lon="1.24051">
        <ele>140.60000610352</ele>
        <time>2021-04-23T09:52:51.000Z</time>
      </trkpt>
      <trkpt lat="49.12492" lon="1.24006">
        <ele>139.39999389648</ele>
        <time>2021-04-23T09:52:56.000Z</time>
      </trkpt>
      <trkpt lat="49.12481" lon="1.23979">
        <ele>139</ele>
        <time>2021-04-23T09:52:59.000Z</time>
      </trkpt>
      <trkpt lat="49.1247" lon="1.23951">
        <ele>138.39999389648</ele>
        <time>2021-04-23T09:53:02.000Z</time>
      </trkpt>
      <trkpt lat="49.12454" lon="1.23903">
        <ele>137.19999694824</ele>
        <time>2021-04-23T09:53:07.000Z</time>
      </trkpt>
      <trkpt lat="49.12435" lon="1.23843">
        <ele>136.19999694824</ele>
        <time>2021-04-23T09:53:13.000Z</time>
      </trkpt>
      <trkpt lat="49.12432" lon="1.23831">
        <ele>136</ele>
        <time>2021-04-23T09:53:14.000Z</time>
      </trkpt>
      <trkpt lat="49.12426" lon="1.23792">
        <ele>135.39999389648</ele>
        <time>2021-04-23T09:53:17.000Z</time>
      </trkpt>
      <trkpt lat="49.12424" lon="1.23778">
        <ele>135</ele>
        <time>2021-04-23T09:53:18.000Z</time>
      </trkpt>
      <trkpt lat="49.12419" lon="1.23732">
        <ele>134.19999694824</ele>
        <time>2021-04-23T09:53:21.000Z</time>
      </trkpt>
      <trkpt lat="49.12415" lon="1.23702">
        <ele>133.39999389648</ele>
        <time>2021-04-23T09:53:23.000Z</time>
      </trkpt>
      <trkpt lat="49.12413" lon="1.23688">
        <ele>133</ele>
        <time>2021-04-23T09:53:24.000Z</time>
      </trkpt>
      <trkpt lat="49.12404" lon="1.23662">
        <ele>131.60000610352</ele>
        <time>2021-04-23T09:53:26.000Z</time>
      </trkpt>
      <trkpt lat="49.12399" lon="1.23649">
        <ele>130.60000610352</ele>
        <time>2021-04-23T09:53:27.000Z</time>
      </trkpt>
      <trkpt lat="49.12393" lon="1.23637">
        <ele>129.80000305176</ele>
        <time>2021-04-23T09:53:28.000Z</time>
      </trkpt>
      <trkpt lat="49.12387" lon="1.23625">
        <ele>129</ele>
        <time>2021-04-23T09:53:29.000Z</time>
      </trkpt>
      <trkpt lat="49.12381" lon="1.23613">
        <ele>128.19999694824</ele>
        <time>2021-04-23T09:53:30.000Z</time>
      </trkpt>
      <trkpt lat="49.12374" lon="1.23602">
        <ele>127.19999694824</ele>
        <time>2021-04-23T09:53:31.000Z</time>
      </trkpt>
      <trkpt lat="49.12366" lon="1.23593">
        <ele>126.19999694824</ele>
        <time>2021-04-23T09:53:32.000Z</time>
      </trkpt>
      <trkpt lat="49.12352" lon="1.23581">
        <ele>124.40000152588</ele>
        <time>2021-04-23T09:53:34.000Z</time>
      </trkpt>
      <trkpt lat="49.12345" lon="1.23578">
        <ele>123.59999847412</ele>
        <time>2021-04-23T09:53:35.000Z</time>
      </trkpt>
      <trkpt lat="49.12339" lon="1.23575">
        <ele>122</ele>
        <time>2021-04-23T09:53:36.000Z</time>
      </trkpt>
      <trkpt lat="49.12336" lon="1.2357">
        <ele>120.80000305176</ele>
        <time>2021-04-23T09:53:37.000Z</time>
      </trkpt>
      <trkpt lat="49.12339" lon="1.23558">
        <ele>119.19999694824</ele>
        <time>2021-04-23T09:53:39.000Z</time>
      </trkpt>
      <trkpt lat="49.12347" lon="1.2355">
        <ele>117.80000305176</ele>
        <time>2021-04-23T09:53:41.000Z</time>
      </trkpt>
      <trkpt lat="49.12355" lon="1.23541">
        <ele>116.59999847412</ele>
        <time>2021-04-23T09:53:43.000Z</time>
      </trkpt>
      <trkpt lat="49.12359" lon="1.23537">
        <ele>116.40000152588</ele>
        <time>2021-04-23T09:53:44.000Z</time>
      </trkpt>
      <trkpt lat="49.12366" lon="1.23529">
        <ele>115.59999847412</ele>
        <time>2021-04-23T09:53:46.000Z</time>
      </trkpt>
      <trkpt lat="49.12379" lon="1.23515">
        <ele>114.59999847412</ele>
        <time>2021-04-23T09:53:49.000Z</time>
      </trkpt>
      <trkpt lat="49.12384" lon="1.23509">
        <ele>114.19999694824</ele>
        <time>2021-04-23T09:53:50.000Z</time>
      </trkpt>
      <trkpt lat="49.12394" lon="1.23495">
        <ele>113.40000152588</ele>
        <time>2021-04-23T09:53:52.000Z</time>
      </trkpt>
      <trkpt lat="49.12399" lon="1.23487">
        <ele>113</ele>
        <time>2021-04-23T09:53:53.000Z</time>
      </trkpt>
      <trkpt lat="49.12407" lon="1.23452">
        <ele>112.19999694824</ele>
        <time>2021-04-23T09:53:56.000Z</time>
      </trkpt>
      <trkpt lat="49.12409" lon="1.23439">
        <ele>112</ele>
        <time>2021-04-23T09:53:57.000Z</time>
      </trkpt>
      <trkpt lat="49.12418" lon="1.23382">
        <ele>110.59999847412</ele>
        <time>2021-04-23T09:54:01.000Z</time>
      </trkpt>
      <trkpt lat="49.1242" lon="1.23367">
        <ele>110</ele>
        <time>2021-04-23T09:54:02.000Z</time>
      </trkpt>
      <trkpt lat="49.12422" lon="1.23352">
        <ele>109.40000152588</ele>
        <time>2021-04-23T09:54:03.000Z</time>
      </trkpt>
      <trkpt lat="49.12424" lon="1.23337">
        <ele>107.80000305176</ele>
        <time>2021-04-23T09:54:04.000Z</time>
      </trkpt>
      <trkpt lat="49.12429" lon="1.23306">
        <ele>106.19999694824</ele>
        <time>2021-04-23T09:54:06.000Z</time>
      </trkpt>
      <trkpt lat="49.12431" lon="1.23291">
        <ele>105.19999694824</ele>
        <time>2021-04-23T09:54:07.000Z</time>
      </trkpt>
      <trkpt lat="49.12432" lon="1.23276">
        <ele>104.40000152588</ele>
        <time>2021-04-23T09:54:08.000Z</time>
      </trkpt>
      <trkpt lat="49.12435" lon="1.23245">
        <ele>103</ele>
        <time>2021-04-23T09:54:10.000Z</time>
      </trkpt>
      <trkpt lat="49.12436" lon="1.2323">
        <ele>102.40000152588</ele>
        <time>2021-04-23T09:54:11.000Z</time>
      </trkpt>
      <trkpt lat="49.12436" lon="1.23214">
        <ele>101.59999847412</ele>
        <time>2021-04-23T09:54:12.000Z</time>
      </trkpt>
      <trkpt lat="49.12435" lon="1.23199">
        <ele>100.80000305176</ele>
        <time>2021-04-23T09:54:13.000Z</time>
      </trkpt>
      <trkpt lat="49.12433" lon="1.23184">
        <ele>100.19999694824</ele>
        <time>2021-04-23T09:54:14.000Z</time>
      </trkpt>
      <trkpt lat="49.12431" lon="1.2317">
        <ele>99.800003051758</ele>
        <time>2021-04-23T09:54:15.000Z</time>
      </trkpt>
      <trkpt lat="49.12428" lon="1.23155">
        <ele>99.199996948242</ele>
        <time>2021-04-23T09:54:16.000Z</time>
      </trkpt>
      <trkpt lat="49.12423" lon="1.23126">
        <ele>98</ele>
        <time>2021-04-23T09:54:18.000Z</time>
      </trkpt>
      <trkpt lat="49.12415" lon="1.23099">
        <ele>96.800003051758</ele>
        <time>2021-04-23T09:54:20.000Z</time>
      </trkpt>
      <trkpt lat="49.12407" lon="1.23073">
        <ele>95</ele>
        <time>2021-04-23T09:54:22.000Z</time>
      </trkpt>
      <trkpt lat="49.12399" lon="1.23049">
        <ele>93.800003051758</ele>
        <time>2021-04-23T09:54:24.000Z</time>
      </trkpt>
      <trkpt lat="49.12396" lon="1.23037">
        <ele>93.400001525879</ele>
        <time>2021-04-23T09:54:25.000Z</time>
      </trkpt>
      <trkpt lat="49.12394" lon="1.23024">
        <ele>92.800003051758</ele>
        <time>2021-04-23T09:54:26.000Z</time>
      </trkpt>
      <trkpt lat="49.12394" lon="1.23013">
        <ele>92.199996948242</ele>
        <time>2021-04-23T09:54:27.000Z</time>
      </trkpt>
      <trkpt lat="49.12395" lon="1.23001">
        <ele>91.400001525879</ele>
        <time>2021-04-23T09:54:28.000Z</time>
      </trkpt>
      <trkpt lat="49.12401" lon="1.22978">
        <ele>89.599998474121</ele>
        <time>2021-04-23T09:54:30.000Z</time>
      </trkpt>
      <trkpt lat="49.12406" lon="1.22967">
        <ele>88.800003051758</ele>
        <time>2021-04-23T09:54:31.000Z</time>
      </trkpt>
      <trkpt lat="49.1241" lon="1.22955">
        <ele>87.599998474121</ele>
        <time>2021-04-23T09:54:32.000Z</time>
      </trkpt>
      <trkpt lat="49.12419" lon="1.22935">
        <ele>86.599998474121</ele>
        <time>2021-04-23T09:54:34.000Z</time>
      </trkpt>
      <trkpt lat="49.12423" lon="1.22925">
        <ele>86</ele>
        <time>2021-04-23T09:54:35.000Z</time>
      </trkpt>
      <trkpt lat="49.12428" lon="1.22904">
        <ele>85.199996948242</ele>
        <time>2021-04-23T09:54:37.000Z</time>
      </trkpt>
      <trkpt lat="49.12428" lon="1.22891">
        <ele>84.800003051758</ele>
        <time>2021-04-23T09:54:38.000Z</time>
      </trkpt>
      <trkpt lat="49.12424" lon="1.22865">
        <ele>84</ele>
        <time>2021-04-23T09:54:40.000Z</time>
      </trkpt>
      <trkpt lat="49.12421" lon="1.22853">
        <ele>83.400001525879</ele>
        <time>2021-04-23T09:54:41.000Z</time>
      </trkpt>
      <trkpt lat="49.12418" lon="1.22842">
        <ele>82.599998474121</ele>
        <time>2021-04-23T09:54:42.000Z</time>
      </trkpt>
      <trkpt lat="49.12408" lon="1.22823">
        <ele>80.800003051758</ele>
        <time>2021-04-23T09:54:44.000Z</time>
      </trkpt>
      <trkpt lat="49.12403" lon="1.22814">
        <ele>80</ele>
        <time>2021-04-23T09:54:45.000Z</time>
      </trkpt>
      <trkpt lat="49.12399" lon="1.22805">
        <ele>79</ele>
        <time>2021-04-23T09:54:46.000Z</time>
      </trkpt>
      <trkpt lat="49.12395" lon="1.22796">
        <ele>78</ele>
        <time>2021-04-23T09:54:47.000Z</time>
      </trkpt>
      <trkpt lat="49.12392" lon="1.22786">
        <ele>77</ele>
        <time>2021-04-23T09:54:48.000Z</time>
      </trkpt>
      <trkpt lat="49.12389" lon="1.22776">
        <ele>75.599998474121</ele>
        <time>2021-04-23T09:54:49.000Z</time>
      </trkpt>
      <trkpt lat="49.12386" lon="1.22766">
        <ele>74.599998474121</ele>
        <time>2021-04-23T09:54:50.000Z</time>
      </trkpt>
      <trkpt lat="49.12384" lon="1.22757">
        <ele>73.400001525879</ele>
        <time>2021-04-23T09:54:51.000Z</time>
      </trkpt>
      <trkpt lat="49.12382" lon="1.22747">
        <ele>72.400001525879</ele>
        <time>2021-04-23T09:54:52.000Z</time>
      </trkpt>
      <trkpt lat="49.1238" lon="1.22737">
        <ele>71.199996948242</ele>
        <time>2021-04-23T09:54:53.000Z</time>
      </trkpt>
      <trkpt lat="49.12378" lon="1.22716">
        <ele>69.199996948242</ele>
        <time>2021-04-23T09:54:55.000Z</time>
      </trkpt>
      <trkpt lat="49.12376" lon="1.22706">
        <ele>68.199996948242</ele>
        <time>2021-04-23T09:54:56.000Z</time>
      </trkpt>
      <trkpt lat="49.12365" lon="1.22685">
        <ele>66.199996948242</ele>
        <time>2021-04-23T09:54:58.000Z</time>
      </trkpt>
      <trkpt lat="49.12359" lon="1.22675">
        <ele>65.400001525879</ele>
        <time>2021-04-23T09:54:59.000Z</time>
      </trkpt>
      <trkpt lat="49.12351" lon="1.22665">
        <ele>64.400001525879</ele>
        <time>2021-04-23T09:55:00.000Z</time>
      </trkpt>
      <trkpt lat="49.12343" lon="1.22656">
        <ele>63</ele>
        <time>2021-04-23T09:55:01.000Z</time>
      </trkpt>
      <trkpt lat="49.12327" lon="1.22636">
        <ele>60.799999237061</ele>
        <time>2021-04-23T09:55:03.000Z</time>
      </trkpt>
      <trkpt lat="49.1232" lon="1.22626">
        <ele>59.799999237061</ele>
        <time>2021-04-23T09:55:04.000Z</time>
      </trkpt>
      <trkpt lat="49.12314" lon="1.22615">
        <ele>58.400001525879</ele>
        <time>2021-04-23T09:55:05.000Z</time>
      </trkpt>
      <trkpt lat="49.1231" lon="1.22604">
        <ele>57.200000762939</ele>
        <time>2021-04-23T09:55:06.000Z</time>
      </trkpt>
      <trkpt lat="49.12307" lon="1.22592">
        <ele>55.799999237061</ele>
        <time>2021-04-23T09:55:07.000Z</time>
      </trkpt>
      <trkpt lat="49.12303" lon="1.22579">
        <ele>54.599998474121</ele>
        <time>2021-04-23T09:55:08.000Z</time>
      </trkpt>
      <trkpt lat="49.123" lon="1.22567">
        <ele>53.400001525879</ele>
        <time>2021-04-23T09:55:09.000Z</time>
      </trkpt>
      <trkpt lat="49.12297" lon="1.22557">
        <ele>52.200000762939</ele>
        <time>2021-04-23T09:55:10.000Z</time>
      </trkpt>
      <trkpt lat="49.12292" lon="1.22547">
        <ele>51.200000762939</ele>
        <time>2021-04-23T09:55:11.000Z</time>
      </trkpt>
      <trkpt lat="49.12288" lon="1.22538">
        <ele>50.400001525879</ele>
        <time>2021-04-23T09:55:12.000Z</time>
      </trkpt>
      <trkpt lat="49.12278" lon="1.22521">
        <ele>48.599998474121</ele>
        <time>2021-04-23T09:55:14.000Z</time>
      </trkpt>
      <trkpt lat="49.12268" lon="1.22505">
        <ele>47.400001525879</ele>
        <time>2021-04-23T09:55:16.000Z</time>
      </trkpt>
      <trkpt lat="49.12256" lon="1.2249">
        <ele>46</ele>
        <time>2021-04-23T09:55:18.000Z</time>
      </trkpt>
      <trkpt lat="49.12244" lon="1.22474">
        <ele>44.799999237061</ele>
        <time>2021-04-23T09:55:20.000Z</time>
      </trkpt>
      <trkpt lat="49.12231" lon="1.22456">
        <ele>43.799999237061</ele>
        <time>2021-04-23T09:55:22.000Z</time>
      </trkpt>
      <trkpt lat="49.12224" lon="1.22448">
        <ele>43.200000762939</ele>
        <time>2021-04-23T09:55:23.000Z</time>
      </trkpt>
      <trkpt lat="49.12204" lon="1.2242">
        <ele>42.200000762939</ele>
        <time>2021-04-23T09:55:26.000Z</time>
      </trkpt>
      <trkpt lat="49.12185" lon="1.22394">
        <ele>41</ele>
        <time>2021-04-23T09:55:29.000Z</time>
      </trkpt>
      <trkpt lat="49.12179" lon="1.22385">
        <ele>40.200000762939</ele>
        <time>2021-04-23T09:55:30.000Z</time>
      </trkpt>
      <trkpt lat="49.12173" lon="1.22377">
        <ele>39.799999237061</ele>
        <time>2021-04-23T09:55:31.000Z</time>
      </trkpt>
      <trkpt lat="49.12155" lon="1.22353">
        <ele>38.400001525879</ele>
        <time>2021-04-23T09:55:34.000Z</time>
      </trkpt>
      <trkpt lat="49.12144" lon="1.22337">
        <ele>37.400001525879</ele>
        <time>2021-04-23T09:55:36.000Z</time>
      </trkpt>
      <trkpt lat="49.12133" lon="1.22322">
        <ele>36.400001525879</ele>
        <time>2021-04-23T09:55:38.000Z</time>
      </trkpt>
      <trkpt lat="49.12128" lon="1.22315">
        <ele>36.200000762939</ele>
        <time>2021-04-23T09:55:39.000Z</time>
      </trkpt>
      <trkpt lat="49.12105" lon="1.22284">
        <ele>34.799999237061</ele>
        <time>2021-04-23T09:55:43.000Z</time>
      </trkpt>
      <trkpt lat="49.121" lon="1.22276">
        <ele>34.599998474121</ele>
        <time>2021-04-23T09:55:44.000Z</time>
      </trkpt>
      <trkpt lat="49.12072" lon="1.22238">
        <ele>33.599998474121</ele>
        <time>2021-04-23T09:55:49.000Z</time>
      </trkpt>
      <trkpt lat="49.12062" lon="1.22223">
        <ele>33.400001525879</ele>
        <time>2021-04-23T09:55:51.000Z</time>
      </trkpt>
      <trkpt lat="49.12047" lon="1.22203">
        <ele>32.599998474121</ele>
        <time>2021-04-23T09:55:54.000Z</time>
      </trkpt>
      <trkpt lat="49.12037" lon="1.22191">
        <ele>32</ele>
        <time>2021-04-23T09:55:56.000Z</time>
      </trkpt>
      <trkpt lat="49.12028" lon="1.22181">
        <ele>31.39999961853</ele>
        <time>2021-04-23T09:55:58.000Z</time>
      </trkpt>
      <trkpt lat="49.12025" lon="1.22176">
        <ele>31.39999961853</ele>
        <time>2021-04-23T09:55:59.000Z</time>
      </trkpt>
      <trkpt lat="49.12029" lon="1.22163">
        <ele>31.200000762939</ele>
        <time>2021-04-23T09:56:02.000Z</time>
      </trkpt>
      <trkpt lat="49.12032" lon="1.2216">
        <ele>31.200000762939</ele>
        <time>2021-04-23T09:56:03.000Z</time>
      </trkpt>
      <trkpt lat="49.12049" lon="1.22143">
        <ele>31.200000762939</ele>
        <time>2021-04-23T09:56:08.000Z</time>
      </trkpt>
      <trkpt lat="49.12053" lon="1.2214">
        <ele>31.200000762939</ele>
        <time>2021-04-23T09:56:09.000Z</time>
      </trkpt>
      <trkpt lat="49.12084" lon="1.22108">
        <ele>32.200000762939</ele>
        <time>2021-04-23T09:56:16.000Z</time>
      </trkpt>
      <trkpt lat="49.12126" lon="1.22065">
        <ele>32.400001525879</ele>
        <time>2021-04-23T09:56:24.000Z</time>
      </trkpt>
      <trkpt lat="49.12175" lon="1.22012">
        <ele>32.400001525879</ele>
        <time>2021-04-23T09:56:33.000Z</time>
      </trkpt>
      <trkpt lat="49.12194" lon="1.21991">
        <ele>32.400001525879</ele>
        <time>2021-04-23T09:56:37.000Z</time>
      </trkpt>
      <trkpt lat="49.12199" lon="1.21985">
        <ele>32.200000762939</ele>
        <time>2021-04-23T09:56:38.000Z</time>
      </trkpt>
      <trkpt lat="49.12203" lon="1.21979">
        <ele>32.200000762939</ele>
        <time>2021-04-23T09:56:39.000Z</time>
      </trkpt>
      <trkpt lat="49.12213" lon="1.21974">
        <ele>32.200000762939</ele>
        <time>2021-04-23T09:56:41.000Z</time>
      </trkpt>
      <trkpt lat="49.12225" lon="1.21989">
        <ele>32</ele>
        <time>2021-04-23T09:56:44.000Z</time>
      </trkpt>
      <trkpt lat="49.12236" lon="1.22012">
        <ele>32</ele>
        <time>2021-04-23T09:56:48.000Z</time>
      </trkpt>
      <trkpt lat="49.12242" lon="1.22029">
        <ele>31.39999961853</ele>
        <time>2021-04-23T09:56:51.000Z</time>
      </trkpt>
      <trkpt lat="49.12271" lon="1.22086">
        <ele>30.799999237061</ele>
        <time>2021-04-23T09:57:02.000Z</time>
      </trkpt>
      <trkpt lat="49.12297" lon="1.22138">
        <ele>32.200000762939</ele>
        <time>2021-04-23T09:57:13.000Z</time>
      </trkpt>
      <trkpt lat="49.12306" lon="1.22155">
        <ele>32.799999237061</ele>
        <time>2021-04-23T09:57:17.000Z</time>
      </trkpt>
      <trkpt lat="49.12318" lon="1.22178">
        <ele>33.799999237061</ele>
        <time>2021-04-23T09:57:22.000Z</time>
      </trkpt>
      <trkpt lat="49.12322" lon="1.22187">
        <ele>34.400001525879</ele>
        <time>2021-04-23T09:57:24.000Z</time>
      </trkpt>
      <trkpt lat="49.12331" lon="1.22205">
        <ele>35</ele>
        <time>2021-04-23T09:57:28.000Z</time>
      </trkpt>
      <trkpt lat="49.12349" lon="1.2224">
        <ele>35.599998474121</ele>
        <time>2021-04-23T09:57:36.000Z</time>
      </trkpt>
      <trkpt lat="49.12358" lon="1.22258">
        <ele>36.200000762939</ele>
        <time>2021-04-23T09:57:40.000Z</time>
      </trkpt>
      <trkpt lat="49.12365" lon="1.22271">
        <ele>36.799999237061</ele>
        <time>2021-04-23T09:57:43.000Z</time>
      </trkpt>
      <trkpt lat="49.12372" lon="1.22285">
        <ele>37.400001525879</ele>
        <time>2021-04-23T09:57:46.000Z</time>
      </trkpt>
      <trkpt lat="49.12386" lon="1.22311">
        <ele>38.200000762939</ele>
        <time>2021-04-23T09:57:52.000Z</time>
      </trkpt>
      <trkpt lat="49.12388" lon="1.22315">
        <ele>38.400001525879</ele>
        <time>2021-04-23T09:57:53.000Z</time>
      </trkpt>
      <trkpt lat="49.12407" lon="1.22351">
        <ele>39.200000762939</ele>
        <time>2021-04-23T09:58:02.000Z</time>
      </trkpt>
      <trkpt lat="49.12409" lon="1.22355">
        <ele>39.599998474121</ele>
        <time>2021-04-23T09:58:03.000Z</time>
      </trkpt>
      <trkpt lat="49.12419" lon="1.22374">
        <ele>40.599998474121</ele>
        <time>2021-04-23T09:58:08.000Z</time>
      </trkpt>
      <trkpt lat="49.12426" lon="1.22387">
        <ele>41</ele>
        <time>2021-04-23T09:58:12.000Z</time>
      </trkpt>
      <trkpt lat="49.12436" lon="1.22408">
        <ele>41.799999237061</ele>
        <time>2021-04-23T09:58:18.000Z</time>
      </trkpt>
      <trkpt lat="49.12443" lon="1.22421">
        <ele>42.799999237061</ele>
        <time>2021-04-23T09:58:22.000Z</time>
      </trkpt>
      <trkpt lat="49.12446" lon="1.22427">
        <ele>43.200000762939</ele>
        <time>2021-04-23T09:58:24.000Z</time>
      </trkpt>
      <trkpt lat="49.12452" lon="1.22439">
        <ele>44</ele>
        <time>2021-04-23T09:58:28.000Z</time>
      </trkpt>
      <trkpt lat="49.1246" lon="1.22454">
        <ele>45.200000762939</ele>
        <time>2021-04-23T09:58:34.000Z</time>
      </trkpt>
      <trkpt lat="49.12461" lon="1.22457">
        <ele>45.599998474121</ele>
        <time>2021-04-23T09:58:35.000Z</time>
      </trkpt>
      <trkpt lat="49.12465" lon="1.22464">
        <ele>46.400001525879</ele>
        <time>2021-04-23T09:58:38.000Z</time>
      </trkpt>
      <trkpt lat="49.1247" lon="1.22474">
        <ele>47.400001525879</ele>
        <time>2021-04-23T09:58:42.000Z</time>
      </trkpt>
      <trkpt lat="49.12473" lon="1.22481">
        <ele>48.400001525879</ele>
        <time>2021-04-23T09:58:45.000Z</time>
      </trkpt>
      <trkpt lat="49.12474" lon="1.22483">
        <ele>48.599998474121</ele>
        <time>2021-04-23T09:58:46.000Z</time>
      </trkpt>
      <trkpt lat="49.12479" lon="1.22492">
        <ele>49.599998474121</ele>
        <time>2021-04-23T09:58:50.000Z</time>
      </trkpt>
      <trkpt lat="49.12483" lon="1.225">
        <ele>50.599998474121</ele>
        <time>2021-04-23T09:58:54.000Z</time>
      </trkpt>
      <trkpt lat="49.12484" lon="1.22502">
        <ele>50.799999237061</ele>
        <time>2021-04-23T09:58:55.000Z</time>
      </trkpt>
      <trkpt lat="49.12488" lon="1.2251">
        <ele>52</ele>
        <time>2021-04-23T09:58:59.000Z</time>
      </trkpt>
      <trkpt lat="49.1249" lon="1.22516">
        <ele>53.200000762939</ele>
        <time>2021-04-23T09:59:02.000Z</time>
      </trkpt>
      <trkpt lat="49.12492" lon="1.22519">
        <ele>53.400001525879</ele>
        <time>2021-04-23T09:59:04.000Z</time>
      </trkpt>
      <trkpt lat="49.12495" lon="1.22525">
        <ele>54.200000762939</ele>
        <time>2021-04-23T09:59:07.000Z</time>
      </trkpt>
      <trkpt lat="49.12503" lon="1.22539">
        <ele>55.599998474121</ele>
        <time>2021-04-23T09:59:15.000Z</time>
      </trkpt>
      <trkpt lat="49.12507" lon="1.22546">
        <ele>56.799999237061</ele>
        <time>2021-04-23T09:59:19.000Z</time>
      </trkpt>
      <trkpt lat="49.12512" lon="1.22554">
        <ele>57.799999237061</ele>
        <time>2021-04-23T09:59:24.000Z</time>
      </trkpt>
      <trkpt lat="49.12515" lon="1.22561">
        <ele>58.799999237061</ele>
        <time>2021-04-23T09:59:28.000Z</time>
      </trkpt>
      <trkpt lat="49.12519" lon="1.22567">
        <ele>60</ele>
        <time>2021-04-23T09:59:32.000Z</time>
      </trkpt>
      <trkpt lat="49.12523" lon="1.22574">
        <ele>60.799999237061</ele>
        <time>2021-04-23T09:59:36.000Z</time>
      </trkpt>
      <trkpt lat="49.12524" lon="1.22575">
        <ele>61.200000762939</ele>
        <time>2021-04-23T09:59:37.000Z</time>
      </trkpt>
      <trkpt lat="49.12529" lon="1.22584">
        <ele>62.200000762939</ele>
        <time>2021-04-23T09:59:42.000Z</time>
      </trkpt>
      <trkpt lat="49.12531" lon="1.22587">
        <ele>62.599998474121</ele>
        <time>2021-04-23T09:59:44.000Z</time>
      </trkpt>
      <trkpt lat="49.12533" lon="1.2259">
        <ele>63.400001525879</ele>
        <time>2021-04-23T09:59:46.000Z</time>
      </trkpt>
      <trkpt lat="49.12539" lon="1.22599">
        <ele>64.599998474121</ele>
        <time>2021-04-23T09:59:51.000Z</time>
      </trkpt>
      <trkpt lat="49.1254" lon="1.226">
        <ele>65</ele>
        <time>2021-04-23T09:59:52.000Z</time>
      </trkpt>
      <trkpt lat="49.12542" lon="1.22604">
        <ele>65.599998474121</ele>
        <time>2021-04-23T09:59:54.000Z</time>
      </trkpt>
      <trkpt lat="49.12548" lon="1.22614">
        <ele>66.800003051758</ele>
        <time>2021-04-23T09:59:59.000Z</time>
      </trkpt>
      <trkpt lat="49.12549" lon="1.22616">
        <ele>67</ele>
        <time>2021-04-23T10:00:00.000Z</time>
      </trkpt>
      <trkpt lat="49.12554" lon="1.22623">
        <ele>67.800003051758</ele>
        <time>2021-04-23T10:00:04.000Z</time>
      </trkpt>
      <trkpt lat="49.12561" lon="1.22633">
        <ele>69</ele>
        <time>2021-04-23T10:00:10.000Z</time>
      </trkpt>
      <trkpt lat="49.12566" lon="1.22639">
        <ele>70.599998474121</ele>
        <time>2021-04-23T10:00:14.000Z</time>
      </trkpt>
      <trkpt lat="49.12571" lon="1.22646">
        <ele>71.800003051758</ele>
        <time>2021-04-23T10:00:18.000Z</time>
      </trkpt>
      <trkpt lat="49.12574" lon="1.22649">
        <ele>72.400001525879</ele>
        <time>2021-04-23T10:00:20.000Z</time>
      </trkpt>
      <trkpt lat="49.12575" lon="1.2265">
        <ele>72.800003051758</ele>
        <time>2021-04-23T10:00:21.000Z</time>
      </trkpt>
      <trkpt lat="49.12581" lon="1.22657">
        <ele>73.800003051758</ele>
        <time>2021-04-23T10:00:25.000Z</time>
      </trkpt>
      <trkpt lat="49.12587" lon="1.22663">
        <ele>74.400001525879</ele>
        <time>2021-04-23T10:00:29.000Z</time>
      </trkpt>
      <trkpt lat="49.12595" lon="1.22671">
        <ele>75</ele>
        <time>2021-04-23T10:00:35.000Z</time>
      </trkpt>
      <trkpt lat="49.12603" lon="1.22678">
        <ele>76.199996948242</ele>
        <time>2021-04-23T10:00:40.000Z</time>
      </trkpt>
      <trkpt lat="49.12605" lon="1.22679">
        <ele>76.400001525879</ele>
        <time>2021-04-23T10:00:41.000Z</time>
      </trkpt>
      <trkpt lat="49.1261" lon="1.22682">
        <ele>77.199996948242</ele>
        <time>2021-04-23T10:00:44.000Z</time>
      </trkpt>
      <trkpt lat="49.12622" lon="1.2269">
        <ele>78</ele>
        <time>2021-04-23T10:00:51.000Z</time>
      </trkpt>
      <trkpt lat="49.12625" lon="1.22692">
        <ele>78.199996948242</ele>
        <time>2021-04-23T10:00:53.000Z</time>
      </trkpt>
      <trkpt lat="49.12636" lon="1.227">
        <ele>79.400001525879</ele>
        <time>2021-04-23T10:00:59.000Z</time>
      </trkpt>
      <trkpt lat="49.1264" lon="1.22703">
        <ele>79.599998474121</ele>
        <time>2021-04-23T10:01:01.000Z</time>
      </trkpt>
      <trkpt lat="49.12657" lon="1.22715">
        <ele>80.400001525879</ele>
        <time>2021-04-23T10:01:09.000Z</time>
      </trkpt>
      <trkpt lat="49.12661" lon="1.22718">
        <ele>81</ele>
        <time>2021-04-23T10:01:11.000Z</time>
      </trkpt>
      <trkpt lat="49.12665" lon="1.22721">
        <ele>81.400001525879</ele>
        <time>2021-04-23T10:01:13.000Z</time>
      </trkpt>
      <trkpt lat="49.12669" lon="1.22724">
        <ele>82</ele>
        <time>2021-04-23T10:01:15.000Z</time>
      </trkpt>
      <trkpt lat="49.12674" lon="1.22729">
        <ele>82.599998474121</ele>
        <time>2021-04-23T10:01:18.000Z</time>
      </trkpt>
      <trkpt lat="49.12678" lon="1.22733">
        <ele>82.800003051758</ele>
        <time>2021-04-23T10:01:20.000Z</time>
      </trkpt>
      <trkpt lat="49.12688" lon="1.22742">
        <ele>83.599998474121</ele>
        <time>2021-04-23T10:01:25.000Z</time>
      </trkpt>
      <trkpt lat="49.12695" lon="1.2275">
        <ele>84.400001525879</ele>
        <time>2021-04-23T10:01:29.000Z</time>
      </trkpt>
      <trkpt lat="49.12697" lon="1.22752">
        <ele>84.800003051758</ele>
        <time>2021-04-23T10:01:30.000Z</time>
      </trkpt>
      <trkpt lat="49.12713" lon="1.22768">
        <ele>86</ele>
        <time>2021-04-23T10:01:39.000Z</time>
      </trkpt>
      <trkpt lat="49.12721" lon="1.22776">
        <ele>87</ele>
        <time>2021-04-23T10:01:43.000Z</time>
      </trkpt>
      <trkpt lat="49.12734" lon="1.22791">
        <ele>88</ele>
        <time>2021-04-23T10:01:50.000Z</time>
      </trkpt>
      <trkpt lat="49.12737" lon="1.22796">
        <ele>88.199996948242</ele>
        <time>2021-04-23T10:01:52.000Z</time>
      </trkpt>
      <trkpt lat="49.1275" lon="1.22812">
        <ele>89</ele>
        <time>2021-04-23T10:01:58.000Z</time>
      </trkpt>
      <trkpt lat="49.12755" lon="1.22821">
        <ele>89.400001525879</ele>
        <time>2021-04-23T10:02:01.000Z</time>
      </trkpt>
      <trkpt lat="49.12768" lon="1.22841">
        <ele>90.599998474121</ele>
        <time>2021-04-23T10:02:08.000Z</time>
      </trkpt>
      <trkpt lat="49.12772" lon="1.22847">
        <ele>90.800003051758</ele>
        <time>2021-04-23T10:02:10.000Z</time>
      </trkpt>
      <trkpt lat="49.12786" lon="1.22871">
        <ele>91.599998474121</ele>
        <time>2021-04-23T10:02:18.000Z</time>
      </trkpt>
      <trkpt lat="49.12789" lon="1.22877">
        <ele>92</ele>
        <time>2021-04-23T10:02:20.000Z</time>
      </trkpt>
      <trkpt lat="49.12796" lon="1.22889">
        <ele>92.599998474121</ele>
        <time>2021-04-23T10:02:24.000Z</time>
      </trkpt>
      <trkpt lat="49.12806" lon="1.22907">
        <ele>93.599998474121</ele>
        <time>2021-04-23T10:02:30.000Z</time>
      </trkpt>
      <trkpt lat="49.12807" lon="1.2291">
        <ele>93.800003051758</ele>
        <time>2021-04-23T10:02:31.000Z</time>
      </trkpt>
      <trkpt lat="49.12817" lon="1.22929">
        <ele>95.400001525879</ele>
        <time>2021-04-23T10:02:37.000Z</time>
      </trkpt>
      <trkpt lat="49.12818" lon="1.22932">
        <ele>95.599998474121</ele>
        <time>2021-04-23T10:02:38.000Z</time>
      </trkpt>
      <trkpt lat="49.12827" lon="1.2295">
        <ele>96.400001525879</ele>
        <time>2021-04-23T10:02:44.000Z</time>
      </trkpt>
      <trkpt lat="49.12831" lon="1.22959">
        <ele>97</ele>
        <time>2021-04-23T10:02:47.000Z</time>
      </trkpt>
      <trkpt lat="49.12836" lon="1.22968">
        <ele>97.400001525879</ele>
        <time>2021-04-23T10:02:50.000Z</time>
      </trkpt>
      <trkpt lat="49.1284" lon="1.22981">
        <ele>98.199996948242</ele>
        <time>2021-04-23T10:02:54.000Z</time>
      </trkpt>
      <trkpt lat="49.12841" lon="1.22984">
        <ele>98.599998474121</ele>
        <time>2021-04-23T10:02:55.000Z</time>
      </trkpt>
      <trkpt lat="49.12843" lon="1.22995">
        <ele>99.800003051758</ele>
        <time>2021-04-23T10:02:58.000Z</time>
      </trkpt>
      <trkpt lat="49.12844" lon="1.23006">
        <ele>100.40000152588</ele>
        <time>2021-04-23T10:03:01.000Z</time>
      </trkpt>
      <trkpt lat="49.12845" lon="1.23018">
        <ele>101</ele>
        <time>2021-04-23T10:03:04.000Z</time>
      </trkpt>
      <trkpt lat="49.12845" lon="1.23037">
        <ele>102</ele>
        <time>2021-04-23T10:03:09.000Z</time>
      </trkpt>
      <trkpt lat="49.12845" lon="1.23049">
        <ele>103</ele>
        <time>2021-04-23T10:03:12.000Z</time>
      </trkpt>
      <trkpt lat="49.12845" lon="1.23053">
        <ele>103.40000152588</ele>
        <time>2021-04-23T10:03:13.000Z</time>
      </trkpt>
      <trkpt lat="49.12846" lon="1.23083">
        <ele>104.40000152588</ele>
        <time>2021-04-23T10:03:21.000Z</time>
      </trkpt>
      <trkpt lat="49.12845" lon="1.23102">
        <ele>105.40000152588</ele>
        <time>2021-04-23T10:03:26.000Z</time>
      </trkpt>
      <trkpt lat="49.12844" lon="1.23117">
        <ele>105.80000305176</ele>
        <time>2021-04-23T10:03:30.000Z</time>
      </trkpt>
      <trkpt lat="49.12844" lon="1.23128">
        <ele>106.59999847412</ele>
        <time>2021-04-23T10:03:33.000Z</time>
      </trkpt>
      <trkpt lat="49.12846" lon="1.23143">
        <ele>107.40000152588</ele>
        <time>2021-04-23T10:03:38.000Z</time>
      </trkpt>
      <trkpt lat="49.12847" lon="1.23146">
        <ele>107.80000305176</ele>
        <time>2021-04-23T10:03:39.000Z</time>
      </trkpt>
      <trkpt lat="49.1285" lon="1.23158">
        <ele>109</ele>
        <time>2021-04-23T10:03:44.000Z</time>
      </trkpt>
      <trkpt lat="49.12852" lon="1.23166">
        <ele>109.59999847412</ele>
        <time>2021-04-23T10:03:47.000Z</time>
      </trkpt>
      <trkpt lat="49.12854" lon="1.23173">
        <ele>110.19999694824</ele>
        <time>2021-04-23T10:03:50.000Z</time>
      </trkpt>
      <trkpt lat="49.12855" lon="1.2318">
        <ele>110.80000305176</ele>
        <time>2021-04-23T10:03:53.000Z</time>
      </trkpt>
      <trkpt lat="49.12856" lon="1.23183">
        <ele>111.19999694824</ele>
        <time>2021-04-23T10:03:55.000Z</time>
      </trkpt>
      <trkpt lat="49.12859" lon="1.23193">
        <ele>112.40000152588</ele>
        <time>2021-04-23T10:04:00.000Z</time>
      </trkpt>
      <trkpt lat="49.12861" lon="1.23199">
        <ele>113.19999694824</ele>
        <time>2021-04-23T10:04:03.000Z</time>
      </trkpt>
      <trkpt lat="49.12862" lon="1.23201">
        <ele>113.59999847412</ele>
        <time>2021-04-23T10:04:04.000Z</time>
      </trkpt>
      <trkpt lat="49.12866" lon="1.23213">
        <ele>114.59999847412</ele>
        <time>2021-04-23T10:04:10.000Z</time>
      </trkpt>
      <trkpt lat="49.12867" lon="1.23215">
        <ele>114.80000305176</ele>
        <time>2021-04-23T10:04:11.000Z</time>
      </trkpt>
      <trkpt lat="49.12871" lon="1.23225">
        <ele>115.80000305176</ele>
        <time>2021-04-23T10:04:16.000Z</time>
      </trkpt>
      <trkpt lat="49.12873" lon="1.2323">
        <ele>116.80000305176</ele>
        <time>2021-04-23T10:04:19.000Z</time>
      </trkpt>
      <trkpt lat="49.12873" lon="1.23233">
        <ele>117.19999694824</ele>
        <time>2021-04-23T10:04:20.000Z</time>
      </trkpt>
      <trkpt lat="49.12876" lon="1.23238">
        <ele>118</ele>
        <time>2021-04-23T10:04:23.000Z</time>
      </trkpt>
      <trkpt lat="49.12878" lon="1.23238">
        <ele>118.19999694824</ele>
        <time>2021-04-23T10:04:24.000Z</time>
      </trkpt>
      <trkpt lat="49.12881" lon="1.2324">
        <ele>119</ele>
        <time>2021-04-23T10:04:26.000Z</time>
      </trkpt>
      <trkpt lat="49.12883" lon="1.2324">
        <ele>119.19999694824</ele>
        <time>2021-04-23T10:04:27.000Z</time>
      </trkpt>
      <trkpt lat="49.12884" lon="1.2324">
        <ele>119.59999847412</ele>
        <time>2021-04-23T10:04:28.000Z</time>
      </trkpt>
      <trkpt lat="49.12889" lon="1.23238">
        <ele>120.80000305176</ele>
        <time>2021-04-23T10:04:31.000Z</time>
      </trkpt>
      <trkpt lat="49.12894" lon="1.23237">
        <ele>121.59999847412</ele>
        <time>2021-04-23T10:04:34.000Z</time>
      </trkpt>
      <trkpt lat="49.12898" lon="1.23236">
        <ele>122</ele>
        <time>2021-04-23T10:04:36.000Z</time>
      </trkpt>
      <trkpt lat="49.12903" lon="1.23233">
        <ele>123.19999694824</ele>
        <time>2021-04-23T10:04:39.000Z</time>
      </trkpt>
      <trkpt lat="49.12911" lon="1.23232">
        <ele>124.40000152588</ele>
        <time>2021-04-23T10:04:43.000Z</time>
      </trkpt>
      <trkpt lat="49.12912" lon="1.23232">
        <ele>124.59999847412</ele>
        <time>2021-04-23T10:04:44.000Z</time>
      </trkpt>
      <trkpt lat="49.12919" lon="1.23234">
        <ele>125.40000152588</ele>
        <time>2021-04-23T10:04:48.000Z</time>
      </trkpt>
      <trkpt lat="49.12924" lon="1.23237">
        <ele>126.19999694824</ele>
        <time>2021-04-23T10:04:51.000Z</time>
      </trkpt>
      <trkpt lat="49.12925" lon="1.23239">
        <ele>126.40000152588</ele>
        <time>2021-04-23T10:04:52.000Z</time>
      </trkpt>
      <trkpt lat="49.12932" lon="1.2325">
        <ele>127.40000152588</ele>
        <time>2021-04-23T10:04:58.000Z</time>
      </trkpt>
      <trkpt lat="49.12933" lon="1.23252">
        <ele>127.59999847412</ele>
        <time>2021-04-23T10:04:59.000Z</time>
      </trkpt>
      <trkpt lat="49.12937" lon="1.2326">
        <ele>128.60000610352</ele>
        <time>2021-04-23T10:05:03.000Z</time>
      </trkpt>
      <trkpt lat="49.12938" lon="1.23262">
        <ele>128.80000305176</ele>
        <time>2021-04-23T10:05:04.000Z</time>
      </trkpt>
      <trkpt lat="49.12944" lon="1.23271">
        <ele>130</ele>
        <time>2021-04-23T10:05:09.000Z</time>
      </trkpt>
      <trkpt lat="49.12946" lon="1.23275">
        <ele>130.39999389648</ele>
        <time>2021-04-23T10:05:11.000Z</time>
      </trkpt>
      <trkpt lat="49.1295" lon="1.23281">
        <ele>131</ele>
        <time>2021-04-23T10:05:14.000Z</time>
      </trkpt>
      <trkpt lat="49.12953" lon="1.23288">
        <ele>131.80000305176</ele>
        <time>2021-04-23T10:05:17.000Z</time>
      </trkpt>
      <trkpt lat="49.12956" lon="1.23292">
        <ele>132</ele>
        <time>2021-04-23T10:05:19.000Z</time>
      </trkpt>
      <trkpt lat="49.12961" lon="1.23304">
        <ele>132.80000305176</ele>
        <time>2021-04-23T10:05:24.000Z</time>
      </trkpt>
      <trkpt lat="49.12961" lon="1.23309">
        <ele>133.19999694824</ele>
        <time>2021-04-23T10:05:26.000Z</time>
      </trkpt>
      <trkpt lat="49.1296" lon="1.23314">
        <ele>133.60000610352</ele>
        <time>2021-04-23T10:05:28.000Z</time>
      </trkpt>
      <trkpt lat="49.1296" lon="1.23316">
        <ele>134</ele>
        <time>2021-04-23T10:05:29.000Z</time>
      </trkpt>
      <trkpt lat="49.12959" lon="1.23318">
        <ele>134.19999694824</ele>
        <time>2021-04-23T10:05:30.000Z</time>
      </trkpt>
      <trkpt lat="49.12959" lon="1.23327">
        <ele>135.19999694824</ele>
        <time>2021-04-23T10:05:33.000Z</time>
      </trkpt>
      <trkpt lat="49.12959" lon="1.2333">
        <ele>135.39999389648</ele>
        <time>2021-04-23T10:05:34.000Z</time>
      </trkpt>
      <trkpt lat="49.1296" lon="1.23345">
        <ele>135.60000610352</ele>
        <time>2021-04-23T10:05:39.000Z</time>
      </trkpt>
      <trkpt lat="49.1296" lon="1.23347">
        <ele>135.60000610352</ele>
        <time>2021-04-23T10:05:40.000Z</time>
      </trkpt>
      <trkpt lat="49.12961" lon="1.23359">
        <ele>135.80000305176</ele>
        <time>2021-04-23T10:05:43.000Z</time>
      </trkpt>
      <trkpt lat="49.12961" lon="1.23383">
        <ele>136.19999694824</ele>
        <time>2021-04-23T10:05:48.000Z</time>
      </trkpt>
      <trkpt lat="49.12961" lon="1.23389">
        <ele>136.39999389648</ele>
        <time>2021-04-23T10:05:49.000Z</time>
      </trkpt>
      <trkpt lat="49.1296" lon="1.23411">
        <ele>136.60000610352</ele>
        <time>2021-04-23T10:05:53.000Z</time>
      </trkpt>
      <trkpt lat="49.1296" lon="1.23449">
        <ele>137.39999389648</ele>
        <time>2021-04-23T10:05:59.000Z</time>
      </trkpt>
      <trkpt lat="49.12961" lon="1.23456">
        <ele>137.39999389648</ele>
        <time>2021-04-23T10:06:00.000Z</time>
      </trkpt>
      <trkpt lat="49.12964" lon="1.2349">
        <ele>137.39999389648</ele>
        <time>2021-04-23T10:06:05.000Z</time>
      </trkpt>
      <trkpt lat="49.12964" lon="1.23503">
        <ele>137.60000610352</ele>
        <time>2021-04-23T10:06:07.000Z</time>
      </trkpt>
      <trkpt lat="49.12966" lon="1.23527">
        <ele>137.39999389648</ele>
        <time>2021-04-23T10:06:10.000Z</time>
      </trkpt>
      <trkpt lat="49.12965" lon="1.23579">
        <ele>137.60000610352</ele>
        <time>2021-04-23T10:06:17.000Z</time>
      </trkpt>
      <trkpt lat="49.12962" lon="1.23615">
        <ele>137.80000305176</ele>
        <time>2021-04-23T10:06:22.000Z</time>
      </trkpt>
      <trkpt lat="49.12955" lon="1.2365">
        <ele>138</ele>
        <time>2021-04-23T10:06:27.000Z</time>
      </trkpt>
      <trkpt lat="49.12949" lon="1.23699">
        <ele>138.19999694824</ele>
        <time>2021-04-23T10:06:34.000Z</time>
      </trkpt>
      <trkpt lat="49.12948" lon="1.23705">
        <ele>138.39999389648</ele>
        <time>2021-04-23T10:06:35.000Z</time>
      </trkpt>
      <trkpt lat="49.12947" lon="1.23723">
        <ele>138.60000610352</ele>
        <time>2021-04-23T10:06:38.000Z</time>
      </trkpt>
      <trkpt lat="49.12948" lon="1.23759">
        <ele>139</ele>
        <time>2021-04-23T10:06:43.000Z</time>
      </trkpt>
      <trkpt lat="49.12947" lon="1.23797">
        <ele>139.39999389648</ele>
        <time>2021-04-23T10:06:48.000Z</time>
      </trkpt>
      <trkpt lat="49.12953" lon="1.23841">
        <ele>140</ele>
        <time>2021-04-23T10:06:54.000Z</time>
      </trkpt>
      <trkpt lat="49.12963" lon="1.23882">
        <ele>140.19999694824</ele>
        <time>2021-04-23T10:07:00.000Z</time>
      </trkpt>
      <trkpt lat="49.12969" lon="1.23921">
        <ele>140.19999694824</ele>
        <time>2021-04-23T10:07:06.000Z</time>
      </trkpt>
      <trkpt lat="49.12969" lon="1.23954">
        <ele>140.19999694824</ele>
        <time>2021-04-23T10:07:11.000Z</time>
      </trkpt>
      <trkpt lat="49.12964" lon="1.23991">
        <ele>140.19999694824</ele>
        <time>2021-04-23T10:07:17.000Z</time>
      </trkpt>
      <trkpt lat="49.12963" lon="1.23997">
        <ele>140.19999694824</ele>
        <time>2021-04-23T10:07:18.000Z</time>
      </trkpt>
      <trkpt lat="49.12957" lon="1.24047">
        <ele>140.39999389648</ele>
        <time>2021-04-23T10:07:26.000Z</time>
      </trkpt>
      <trkpt lat="49.1295" lon="1.24097">
        <ele>141</ele>
        <time>2021-04-23T10:07:35.000Z</time>
      </trkpt>
      <trkpt lat="49.12944" lon="1.24137">
        <ele>141.39999389648</ele>
        <time>2021-04-23T10:07:42.000Z</time>
      </trkpt>
      <trkpt lat="49.12944" lon="1.24143">
        <ele>141.60000610352</ele>
        <time>2021-04-23T10:07:43.000Z</time>
      </trkpt>
      <trkpt lat="49.12938" lon="1.24194">
        <ele>142.19999694824</ele>
        <time>2021-04-23T10:07:52.000Z</time>
      </trkpt>
      <trkpt lat="49.12935" lon="1.24216">
        <ele>142.60000610352</ele>
        <time>2021-04-23T10:07:56.000Z</time>
      </trkpt>
      <trkpt lat="49.12933" lon="1.24227">
        <ele>142.80000305176</ele>
        <time>2021-04-23T10:07:58.000Z</time>
      </trkpt>
      <trkpt lat="49.12927" lon="1.24281">
        <ele>143.60000610352</ele>
        <time>2021-04-23T10:08:08.000Z</time>
      </trkpt>
      <trkpt lat="49.12923" lon="1.24319">
        <ele>144.39999389648</ele>
        <time>2021-04-23T10:08:15.000Z</time>
      </trkpt>
      <trkpt lat="49.12923" lon="1.24324">
        <ele>144.60000610352</ele>
        <time>2021-04-23T10:08:16.000Z</time>
      </trkpt>
      <trkpt lat="49.1292" lon="1.24354">
        <ele>145</ele>
        <time>2021-04-23T10:08:22.000Z</time>
      </trkpt>
      <trkpt lat="49.12918" lon="1.24379">
        <ele>145.60000610352</ele>
        <time>2021-04-23T10:08:27.000Z</time>
      </trkpt>
      <trkpt lat="49.12916" lon="1.24404">
        <ele>146.39999389648</ele>
        <time>2021-04-23T10:08:32.000Z</time>
      </trkpt>
      <trkpt lat="49.12916" lon="1.24409">
        <ele>146.60000610352</ele>
        <time>2021-04-23T10:08:33.000Z</time>
      </trkpt>
      <trkpt lat="49.12914" lon="1.24444">
        <ele>147.60000610352</ele>
        <time>2021-04-23T10:08:41.000Z</time>
      </trkpt>
      <trkpt lat="49.12914" lon="1.24448">
        <ele>147.80000305176</ele>
        <time>2021-04-23T10:08:42.000Z</time>
      </trkpt>
      <trkpt lat="49.12913" lon="1.24465">
        <ele>148.80000305176</ele>
        <time>2021-04-23T10:08:46.000Z</time>
      </trkpt>
      <trkpt lat="49.12912" lon="1.2448">
        <ele>149.39999389648</ele>
        <time>2021-04-23T10:08:50.000Z</time>
      </trkpt>
      <trkpt lat="49.12911" lon="1.24495">
        <ele>149.80000305176</ele>
        <time>2021-04-23T10:08:54.000Z</time>
      </trkpt>
      <trkpt lat="49.1291" lon="1.24515">
        <ele>151</ele>
        <time>2021-04-23T10:08:59.000Z</time>
      </trkpt>
      <trkpt lat="49.12911" lon="1.24552">
        <ele>152</ele>
        <time>2021-04-23T10:09:08.000Z</time>
      </trkpt>
      <trkpt lat="49.12911" lon="1.24586">
        <ele>153</ele>
        <time>2021-04-23T10:09:15.000Z</time>
      </trkpt>
      <trkpt lat="49.1291" lon="1.24595">
        <ele>153.19999694824</ele>
        <time>2021-04-23T10:09:17.000Z</time>
      </trkpt>
      <trkpt lat="49.12911" lon="1.24644">
        <ele>153.60000610352</ele>
        <time>2021-04-23T10:09:27.000Z</time>
      </trkpt>
      <trkpt lat="49.12911" lon="1.24669">
        <ele>153.80000305176</ele>
        <time>2021-04-23T10:09:33.000Z</time>
      </trkpt>
      <trkpt lat="49.12913" lon="1.24679">
        <ele>154</ele>
        <time>2021-04-23T10:09:36.000Z</time>
      </trkpt>
      <trkpt lat="49.12915" lon="1.24682">
        <ele>154</ele>
        <time>2021-04-23T10:09:37.000Z</time>
      </trkpt>
      <trkpt lat="49.12924" lon="1.24683">
        <ele>154</ele>
        <time>2021-04-23T10:09:40.000Z</time>
      </trkpt>
      <trkpt lat="49.1293" lon="1.24684">
        <ele>154.19999694824</ele>
        <time>2021-04-23T10:09:42.000Z</time>
      </trkpt>
      <trkpt lat="49.12934" lon="1.24685">
        <ele>154.19999694824</ele>
        <time>2021-04-23T10:09:43.000Z</time>
      </trkpt>
      <trkpt lat="49.12952" lon="1.24687">
        <ele>155</ele>
        <time>2021-04-23T10:09:48.000Z</time>
      </trkpt>
      <trkpt lat="49.12964" lon="1.24688">
        <ele>155.19999694824</ele>
        <time>2021-04-23T10:09:51.000Z</time>
      </trkpt>
      <trkpt lat="49.12977" lon="1.24691">
        <ele>155.19999694824</ele>
        <time>2021-04-23T10:09:54.000Z</time>
      </trkpt>
      <trkpt lat="49.13013" lon="1.24698">
        <ele>154.60000610352</ele>
        <time>2021-04-23T10:10:01.000Z</time>
      </trkpt>
      <trkpt lat="49.1305" lon="1.24706">
        <ele>153.60000610352</ele>
        <time>2021-04-23T10:10:07.000Z</time>
      </trkpt>
      <trkpt lat="49.13063" lon="1.24709">
        <ele>153.19999694824</ele>
        <time>2021-04-23T10:10:09.000Z</time>
      </trkpt>
      <trkpt lat="49.13083" lon="1.24713">
        <ele>152</ele>
        <time>2021-04-23T10:10:12.000Z</time>
      </trkpt>
      <trkpt lat="49.13102" lon="1.24717">
        <ele>150.60000610352</ele>
        <time>2021-04-23T10:10:15.000Z</time>
      </trkpt>
      <trkpt lat="49.13115" lon="1.2472">
        <ele>150</ele>
        <time>2021-04-23T10:10:17.000Z</time>
      </trkpt>
      <trkpt lat="49.13129" lon="1.24722">
        <ele>149.19999694824</ele>
        <time>2021-04-23T10:10:19.000Z</time>
      </trkpt>
      <trkpt lat="49.1315" lon="1.24726">
        <ele>148.19999694824</ele>
        <time>2021-04-23T10:10:22.000Z</time>
      </trkpt>
      <trkpt lat="49.13171" lon="1.2473">
        <ele>147.60000610352</ele>
        <time>2021-04-23T10:10:25.000Z</time>
      </trkpt>
      <trkpt lat="49.13185" lon="1.24733">
        <ele>147</ele>
        <time>2021-04-23T10:10:27.000Z</time>
      </trkpt>
      <trkpt lat="49.13206" lon="1.24737">
        <ele>146</ele>
        <time>2021-04-23T10:10:30.000Z</time>
      </trkpt>
      <trkpt lat="49.13214" lon="1.24739">
        <ele>145.80000305176</ele>
        <time>2021-04-23T10:10:31.000Z</time>
      </trkpt>
      <trkpt lat="49.13236" lon="1.24744">
        <ele>144.80000305176</ele>
        <time>2021-04-23T10:10:34.000Z</time>
      </trkpt>
      <trkpt lat="49.13273" lon="1.24752">
        <ele>143.39999389648</ele>
        <time>2021-04-23T10:10:39.000Z</time>
      </trkpt>
      <trkpt lat="49.1328" lon="1.24753">
        <ele>143.19999694824</ele>
        <time>2021-04-23T10:10:40.000Z</time>
      </trkpt>
      <trkpt lat="49.13317" lon="1.24761">
        <ele>142.19999694824</ele>
        <time>2021-04-23T10:10:45.000Z</time>
      </trkpt>
      <trkpt lat="49.1334" lon="1.24765">
        <ele>141.80000305176</ele>
        <time>2021-04-23T10:10:48.000Z</time>
      </trkpt>
      <trkpt lat="49.13363" lon="1.24769">
        <ele>141</ele>
        <time>2021-04-23T10:10:51.000Z</time>
      </trkpt>
      <trkpt lat="49.13393" lon="1.24776">
        <ele>139.80000305176</ele>
        <time>2021-04-23T10:10:55.000Z</time>
      </trkpt>
      <trkpt lat="49.13432" lon="1.24784">
        <ele>138.60000610352</ele>
        <time>2021-04-23T10:11:00.000Z</time>
      </trkpt>
      <trkpt lat="49.13447" lon="1.24787">
        <ele>138</ele>
        <time>2021-04-23T10:11:02.000Z</time>
      </trkpt>
      <trkpt lat="49.13462" lon="1.2479">
        <ele>137.19999694824</ele>
        <time>2021-04-23T10:11:04.000Z</time>
      </trkpt>
      <trkpt lat="49.13498" lon="1.24797">
        <ele>136</ele>
        <time>2021-04-23T10:11:09.000Z</time>
      </trkpt>
      <trkpt lat="49.13529" lon="1.24803">
        <ele>135</ele>
        <time>2021-04-23T10:11:13.000Z</time>
      </trkpt>
      <trkpt lat="49.13543" lon="1.24806">
        <ele>134.60000610352</ele>
        <time>2021-04-23T10:11:15.000Z</time>
      </trkpt>
      <trkpt lat="49.13557" lon="1.24809">
        <ele>133.60000610352</ele>
        <time>2021-04-23T10:11:17.000Z</time>
      </trkpt>
      <trkpt lat="49.13574" lon="1.24812">
        <ele>133</ele>
        <time>2021-04-23T10:11:20.000Z</time>
      </trkpt>
      <trkpt lat="49.1358" lon="1.24813">
        <ele>132.60000610352</ele>
        <time>2021-04-23T10:11:21.000Z</time>
      </trkpt>
      <trkpt lat="49.13585" lon="1.24813">
        <ele>132.19999694824</ele>
        <time>2021-04-23T10:11:22.000Z</time>
      </trkpt>
      <trkpt lat="49.13601" lon="1.2481">
        <ele>131.60000610352</ele>
        <time>2021-04-23T10:11:25.000Z</time>
      </trkpt>
      <trkpt lat="49.13606" lon="1.2481">
        <ele>131.60000610352</ele>
        <time>2021-04-23T10:11:26.000Z</time>
      </trkpt>
      <trkpt lat="49.13627" lon="1.24815">
        <ele>131.60000610352</ele>
        <time>2021-04-23T10:11:31.000Z</time>
      </trkpt>
      <trkpt lat="49.13643" lon="1.2482">
        <ele>132.19999694824</ele>
        <time>2021-04-23T10:11:37.000Z</time>
      </trkpt>
      <trkpt lat="49.13651" lon="1.24823">
        <ele>132.60000610352</ele>
        <time>2021-04-23T10:11:40.000Z</time>
      </trkpt>
      <trkpt lat="49.13658" lon="1.24828">
        <ele>134</ele>
        <time>2021-04-23T10:11:43.000Z</time>
      </trkpt>
      <trkpt lat="49.13663" lon="1.24831">
        <ele>134.39999389648</ele>
        <time>2021-04-23T10:11:45.000Z</time>
      </trkpt>
      <trkpt lat="49.13671" lon="1.24835">
        <ele>135</ele>
        <time>2021-04-23T10:11:48.000Z</time>
      </trkpt>
      <trkpt lat="49.13681" lon="1.24841">
        <ele>135.60000610352</ele>
        <time>2021-04-23T10:11:52.000Z</time>
      </trkpt>
      <trkpt lat="49.13693" lon="1.24848">
        <ele>136.19999694824</ele>
        <time>2021-04-23T10:11:57.000Z</time>
      </trkpt>
      <trkpt lat="49.13701" lon="1.24852">
        <ele>137</ele>
        <time>2021-04-23T10:12:00.000Z</time>
      </trkpt>
      <trkpt lat="49.13703" lon="1.24853">
        <ele>137.19999694824</ele>
        <time>2021-04-23T10:12:01.000Z</time>
      </trkpt>
      <trkpt lat="49.1372" lon="1.2486">
        <ele>138.60000610352</ele>
        <time>2021-04-23T10:12:08.000Z</time>
      </trkpt>
      <trkpt lat="49.13725" lon="1.24863">
        <ele>139</ele>
        <time>2021-04-23T10:12:10.000Z</time>
      </trkpt>
      <trkpt lat="49.13734" lon="1.24867">
        <ele>139.60000610352</ele>
        <time>2021-04-23T10:12:14.000Z</time>
      </trkpt>
      <trkpt lat="49.13746" lon="1.24872">
        <ele>140.39999389648</ele>
        <time>2021-04-23T10:12:19.000Z</time>
      </trkpt>
      <trkpt lat="49.13751" lon="1.24874">
        <ele>141</ele>
        <time>2021-04-23T10:12:21.000Z</time>
      </trkpt>
      <trkpt lat="49.13765" lon="1.24878">
        <ele>142</ele>
        <time>2021-04-23T10:12:26.000Z</time>
      </trkpt>
      <trkpt lat="49.13773" lon="1.24881">
        <ele>142.80000305176</ele>
        <time>2021-04-23T10:12:29.000Z</time>
      </trkpt>
      <trkpt lat="49.13781" lon="1.24883">
        <ele>143</ele>
        <time>2021-04-23T10:12:32.000Z</time>
      </trkpt>
      <trkpt lat="49.13794" lon="1.24886">
        <ele>143.60000610352</ele>
        <time>2021-04-23T10:12:37.000Z</time>
      </trkpt>
      <trkpt lat="49.1381" lon="1.2489">
        <ele>144.19999694824</ele>
        <time>2021-04-23T10:12:42.000Z</time>
      </trkpt>
      <trkpt lat="49.13816" lon="1.24891">
        <ele>144.39999389648</ele>
        <time>2021-04-23T10:12:44.000Z</time>
      </trkpt>
      <trkpt lat="49.13844" lon="1.24897">
        <ele>145.19999694824</ele>
        <time>2021-04-23T10:12:52.000Z</time>
      </trkpt>
      <trkpt lat="49.13848" lon="1.24897">
        <ele>145.39999389648</ele>
        <time>2021-04-23T10:12:53.000Z</time>
      </trkpt>
      <trkpt lat="49.13866" lon="1.249">
        <ele>146.39999389648</ele>
        <time>2021-04-23T10:12:58.000Z</time>
      </trkpt>
      <trkpt lat="49.13874" lon="1.24901">
        <ele>146.60000610352</ele>
        <time>2021-04-23T10:13:00.000Z</time>
      </trkpt>
      <trkpt lat="49.1389" lon="1.24905">
        <ele>146.60000610352</ele>
        <time>2021-04-23T10:13:05.000Z</time>
      </trkpt>
      <trkpt lat="49.13911" lon="1.24907">
        <ele>147.19999694824</ele>
        <time>2021-04-23T10:13:11.000Z</time>
      </trkpt>
      <trkpt lat="49.13922" lon="1.24907">
        <ele>147.60000610352</ele>
        <time>2021-04-23T10:13:14.000Z</time>
      </trkpt>
      <trkpt lat="49.13938" lon="1.24908">
        <ele>148.39999389648</ele>
        <time>2021-04-23T10:13:19.000Z</time>
      </trkpt>
      <trkpt lat="49.13944" lon="1.24907">
        <ele>148.60000610352</ele>
        <time>2021-04-23T10:13:21.000Z</time>
      </trkpt>
      <trkpt lat="49.13959" lon="1.24905">
        <ele>149.19999694824</ele>
        <time>2021-04-23T10:13:25.000Z</time>
      </trkpt>
      <trkpt lat="49.13977" lon="1.24901">
        <ele>149.60000610352</ele>
        <time>2021-04-23T10:13:30.000Z</time>
      </trkpt>
      <trkpt lat="49.14" lon="1.249">
        <ele>149.60000610352</ele>
        <time>2021-04-23T10:13:35.000Z</time>
      </trkpt>
      <trkpt lat="49.14025" lon="1.24897">
        <ele>149.39999389648</ele>
        <time>2021-04-23T10:13:40.000Z</time>
      </trkpt>
      <trkpt lat="49.14052" lon="1.24896">
        <ele>149.19999694824</ele>
        <time>2021-04-23T10:13:46.000Z</time>
      </trkpt>
      <trkpt lat="49.14059" lon="1.24895">
        <ele>149.19999694824</ele>
        <time>2021-04-23T10:13:48.000Z</time>
      </trkpt>
      <trkpt lat="49.14073" lon="1.24896">
        <ele>149.19999694824</ele>
        <time>2021-04-23T10:13:52.000Z</time>
      </trkpt>
      <trkpt lat="49.14099" lon="1.24892">
        <ele>149.19999694824</ele>
        <time>2021-04-23T10:13:59.000Z</time>
      </trkpt>
      <trkpt lat="49.14134" lon="1.24882">
        <ele>149</ele>
        <time>2021-04-23T10:14:08.000Z</time>
      </trkpt>
      <trkpt lat="49.14173" lon="1.24873">
        <ele>149</ele>
        <time>2021-04-23T10:14:17.000Z</time>
      </trkpt>
      <trkpt lat="49.14216" lon="1.24863">
        <ele>148.80000305176</ele>
        <time>2021-04-23T10:14:26.000Z</time>
      </trkpt>
      <trkpt lat="49.14226" lon="1.24862">
        <ele>148.60000610352</ele>
        <time>2021-04-23T10:14:28.000Z</time>
      </trkpt>
      <trkpt lat="49.14241" lon="1.2486">
        <ele>148.19999694824</ele>
        <time>2021-04-23T10:14:31.000Z</time>
      </trkpt>
      <trkpt lat="49.14257" lon="1.24856">
        <ele>147.80000305176</ele>
        <time>2021-04-23T10:14:34.000Z</time>
      </trkpt>
      <trkpt lat="49.14279" lon="1.24851">
        <ele>147</ele>
        <time>2021-04-23T10:14:38.000Z</time>
      </trkpt>
      <trkpt lat="49.14297" lon="1.24847">
        <ele>146.39999389648</ele>
        <time>2021-04-23T10:14:41.000Z</time>
      </trkpt>
      <trkpt lat="49.1432" lon="1.24841">
        <ele>145.39999389648</ele>
        <time>2021-04-23T10:14:45.000Z</time>
      </trkpt>
      <trkpt lat="49.14326" lon="1.2484">
        <ele>145.19999694824</ele>
        <time>2021-04-23T10:14:46.000Z</time>
      </trkpt>
      <trkpt lat="49.1436" lon="1.24831">
        <ele>144.19999694824</ele>
        <time>2021-04-23T10:14:52.000Z</time>
      </trkpt>
      <trkpt lat="49.14366" lon="1.24829">
        <ele>144</ele>
        <time>2021-04-23T10:14:53.000Z</time>
      </trkpt>
      <trkpt lat="49.14403" lon="1.24819">
        <ele>143</ele>
        <time>2021-04-23T10:15:00.000Z</time>
      </trkpt>
      <trkpt lat="49.14439" lon="1.24809">
        <ele>142.80000305176</ele>
        <time>2021-04-23T10:15:07.000Z</time>
      </trkpt>
      <trkpt lat="49.14469" lon="1.248">
        <ele>142.80000305176</ele>
        <time>2021-04-23T10:15:14.000Z</time>
      </trkpt>
      <trkpt lat="49.14478" lon="1.24792">
        <ele>143</ele>
        <time>2021-04-23T10:15:17.000Z</time>
      </trkpt>
      <trkpt lat="49.14478" lon="1.24787">
        <ele>143</ele>
        <time>2021-04-23T10:15:18.000Z</time>
      </trkpt>
      <trkpt lat="49.14468" lon="1.24765">
        <ele>143</ele>
        <time>2021-04-23T10:15:22.000Z</time>
      </trkpt>
      <trkpt lat="49.14448" lon="1.24712">
        <ele>142.19999694824</ele>
        <time>2021-04-23T10:15:29.000Z</time>
      </trkpt>
      <trkpt lat="49.14442" lon="1.24698">
        <ele>141.80000305176</ele>
        <time>2021-04-23T10:15:31.000Z</time>
      </trkpt>
      <trkpt lat="49.14434" lon="1.24675">
        <ele>141.60000610352</ele>
        <time>2021-04-23T10:15:34.000Z</time>
      </trkpt>
      <trkpt lat="49.14417" lon="1.24634">
        <ele>140.80000305176</ele>
        <time>2021-04-23T10:15:39.000Z</time>
      </trkpt>
      <trkpt lat="49.14414" lon="1.24625">
        <ele>140.80000305176</ele>
        <time>2021-04-23T10:15:40.000Z</time>
      </trkpt>
      <trkpt lat="49.14391" lon="1.24568">
        <ele>140.19999694824</ele>
        <time>2021-04-23T10:15:47.000Z</time>
      </trkpt>
      <trkpt lat="49.14376" lon="1.24533">
        <ele>140.19999694824</ele>
        <time>2021-04-23T10:15:52.000Z</time>
      </trkpt>
      <trkpt lat="49.14359" lon="1.24495">
        <ele>140.19999694824</ele>
        <time>2021-04-23T10:15:58.000Z</time>
      </trkpt>
      <trkpt lat="49.14335" lon="1.24452">
        <ele>140.60000610352</ele>
        <time>2021-04-23T10:16:05.000Z</time>
      </trkpt>
      <trkpt lat="49.14297" lon="1.24398">
        <ele>141</ele>
        <time>2021-04-23T10:16:15.000Z</time>
      </trkpt>
      <trkpt lat="49.14294" lon="1.24393">
        <ele>141.19999694824</ele>
        <time>2021-04-23T10:16:16.000Z</time>
      </trkpt>
      <trkpt lat="49.14277" lon="1.24363">
        <ele>141.60000610352</ele>
        <time>2021-04-23T10:16:21.000Z</time>
      </trkpt>
      <trkpt lat="49.14266" lon="1.24339">
        <ele>142.19999694824</ele>
        <time>2021-04-23T10:16:25.000Z</time>
      </trkpt>
      <trkpt lat="49.14261" lon="1.24325">
        <ele>142.39999389648</ele>
        <time>2021-04-23T10:16:27.000Z</time>
      </trkpt>
      <trkpt lat="49.14245" lon="1.24262">
        <ele>142.80000305176</ele>
        <time>2021-04-23T10:16:35.000Z</time>
      </trkpt>
      <trkpt lat="49.14239" lon="1.24228">
        <ele>143.19999694824</ele>
        <time>2021-04-23T10:16:39.000Z</time>
      </trkpt>
      <trkpt lat="49.14231" lon="1.24184">
        <ele>143.39999389648</ele>
        <time>2021-04-23T10:16:44.000Z</time>
      </trkpt>
      <trkpt lat="49.14221" lon="1.24103">
        <ele>143.39999389648</ele>
        <time>2021-04-23T10:16:53.000Z</time>
      </trkpt>
      <trkpt lat="49.14214" lon="1.24028">
        <ele>143.19999694824</ele>
        <time>2021-04-23T10:17:01.000Z</time>
      </trkpt>
      <trkpt lat="49.14211" lon="1.23964">
        <ele>142.80000305176</ele>
        <time>2021-04-23T10:17:07.000Z</time>
      </trkpt>
      <trkpt lat="49.14202" lon="1.23913">
        <ele>142</ele>
        <time>2021-04-23T10:17:12.000Z</time>
      </trkpt>
      <trkpt lat="49.1418" lon="1.23836">
        <ele>141</ele>
        <time>2021-04-23T10:17:20.000Z</time>
      </trkpt>
      <trkpt lat="49.14163" lon="1.23779">
        <ele>140</ele>
        <time>2021-04-23T10:17:26.000Z</time>
      </trkpt>
      <trkpt lat="49.14157" lon="1.23761">
        <ele>139.80000305176</ele>
        <time>2021-04-23T10:17:28.000Z</time>
      </trkpt>
      <trkpt lat="49.14144" lon="1.23708">
        <ele>139</ele>
        <time>2021-04-23T10:17:34.000Z</time>
      </trkpt>
      <trkpt lat="49.14143" lon="1.23699">
        <ele>139</ele>
        <time>2021-04-23T10:17:35.000Z</time>
      </trkpt>
      <trkpt lat="49.14134" lon="1.23669">
        <ele>138.80000305176</ele>
        <time>2021-04-23T10:17:39.000Z</time>
      </trkpt>
      <trkpt lat="49.14131" lon="1.23655">
        <ele>138.80000305176</ele>
        <time>2021-04-23T10:17:41.000Z</time>
      </trkpt>
      <trkpt lat="49.14128" lon="1.23635">
        <ele>138.60000610352</ele>
        <time>2021-04-23T10:17:44.000Z</time>
      </trkpt>
      <trkpt lat="49.14128" lon="1.23631">
        <ele>138.60000610352</ele>
        <time>2021-04-23T10:17:45.000Z</time>
      </trkpt>
      <trkpt lat="49.14131" lon="1.23629">
        <ele>138.60000610352</ele>
        <time>2021-04-23T10:17:47.000Z</time>
      </trkpt>
      <trkpt lat="49.14137" lon="1.23638">
        <ele>138.60000610352</ele>
        <time>2021-04-23T10:17:50.000Z</time>
      </trkpt>
      <trkpt lat="49.1414" lon="1.23643">
        <ele>138.60000610352</ele>
        <time>2021-04-23T10:17:51.000Z</time>
      </trkpt>
      <trkpt lat="49.14164" lon="1.23683">
        <ele>138.19999694824</ele>
        <time>2021-04-23T10:17:59.000Z</time>
      </trkpt>
      <trkpt lat="49.14175" lon="1.23698">
        <ele>138</ele>
        <time>2021-04-23T10:18:02.000Z</time>
      </trkpt>
      <trkpt lat="49.14191" lon="1.23716">
        <ele>137.80000305176</ele>
        <time>2021-04-23T10:18:06.000Z</time>
      </trkpt>
      <trkpt lat="49.14199" lon="1.23724">
        <ele>137.80000305176</ele>
        <time>2021-04-23T10:18:08.000Z</time>
      </trkpt>
      <trkpt lat="49.14226" lon="1.23741">
        <ele>137.39999389648</ele>
        <time>2021-04-23T10:18:14.000Z</time>
      </trkpt>
      <trkpt lat="49.1426" lon="1.23754">
        <ele>137</ele>
        <time>2021-04-23T10:18:21.000Z</time>
      </trkpt>
      <trkpt lat="49.143" lon="1.23767">
        <ele>136.60000610352</ele>
        <time>2021-04-23T10:18:29.000Z</time>
      </trkpt>
      <trkpt lat="49.14328" lon="1.23776">
        <ele>136.39999389648</ele>
        <time>2021-04-23T10:18:35.000Z</time>
      </trkpt>
      <trkpt lat="49.14355" lon="1.23784">
        <ele>136.39999389648</ele>
        <time>2021-04-23T10:18:41.000Z</time>
      </trkpt>
      <trkpt lat="49.14386" lon="1.23793">
        <ele>136</ele>
        <time>2021-04-23T10:18:48.000Z</time>
      </trkpt>
      <trkpt lat="49.14404" lon="1.23798">
        <ele>136</ele>
        <time>2021-04-23T10:18:52.000Z</time>
      </trkpt>
      <trkpt lat="49.14409" lon="1.238">
        <ele>135.80000305176</ele>
        <time>2021-04-23T10:18:53.000Z</time>
      </trkpt>
      <trkpt lat="49.14413" lon="1.238">
        <ele>135.80000305176</ele>
        <time>2021-04-23T10:18:54.000Z</time>
      </trkpt>
      <trkpt lat="49.14418" lon="1.23791">
        <ele>135.80000305176</ele>
        <time>2021-04-23T10:18:56.000Z</time>
      </trkpt>
      <trkpt lat="49.14415" lon="1.23779">
        <ele>135.60000610352</ele>
        <time>2021-04-23T10:18:58.000Z</time>
      </trkpt>
      <trkpt lat="49.14412" lon="1.23774">
        <ele>135.60000610352</ele>
        <time>2021-04-23T10:18:59.000Z</time>
      </trkpt>
      <trkpt lat="49.14392" lon="1.23746">
        <ele>135.19999694824</ele>
        <time>2021-04-23T10:19:04.000Z</time>
      </trkpt>
      <trkpt lat="49.14379" lon="1.2372">
        <ele>134.80000305176</ele>
        <time>2021-04-23T10:19:08.000Z</time>
      </trkpt>
      <trkpt lat="49.14373" lon="1.23704">
        <ele>134.39999389648</ele>
        <time>2021-04-23T10:19:10.000Z</time>
      </trkpt>
      <trkpt lat="49.14356" lon="1.23656">
        <ele>133.80000305176</ele>
        <time>2021-04-23T10:19:16.000Z</time>
      </trkpt>
      <trkpt lat="49.14339" lon="1.23595">
        <ele>133.19999694824</ele>
        <time>2021-04-23T10:19:23.000Z</time>
      </trkpt>
      <trkpt lat="49.14328" lon="1.23548">
        <ele>133.19999694824</ele>
        <time>2021-04-23T10:19:28.000Z</time>
      </trkpt>
      <trkpt lat="49.14325" lon="1.23539">
        <ele>133.19999694824</ele>
        <time>2021-04-23T10:19:29.000Z</time>
      </trkpt>
      <trkpt lat="49.14312" lon="1.23498">
        <ele>133.19999694824</ele>
        <time>2021-04-23T10:19:34.000Z</time>
      </trkpt>
      <trkpt lat="49.14299" lon="1.23455">
        <ele>133.19999694824</ele>
        <time>2021-04-23T10:19:39.000Z</time>
      </trkpt>
      <trkpt lat="49.14296" lon="1.23447">
        <ele>133.19999694824</ele>
        <time>2021-04-23T10:19:40.000Z</time>
      </trkpt>
      <trkpt lat="49.14291" lon="1.23421">
        <ele>133.60000610352</ele>
        <time>2021-04-23T10:19:43.000Z</time>
      </trkpt>
      <trkpt lat="49.14287" lon="1.23398">
        <ele>134</ele>
        <time>2021-04-23T10:19:46.000Z</time>
      </trkpt>
      <trkpt lat="49.14281" lon="1.23366">
        <ele>134.60000610352</ele>
        <time>2021-04-23T10:19:50.000Z</time>
      </trkpt>
      <trkpt lat="49.1428" lon="1.23361">
        <ele>134.80000305176</ele>
        <time>2021-04-23T10:19:51.000Z</time>
      </trkpt>
      <trkpt lat="49.14276" lon="1.23341">
        <ele>135</ele>
        <time>2021-04-23T10:19:54.000Z</time>
      </trkpt>
      <trkpt lat="49.14274" lon="1.23334">
        <ele>135</ele>
        <time>2021-04-23T10:19:55.000Z</time>
      </trkpt>
      <trkpt lat="49.14261" lon="1.23274">
        <ele>135.19999694824</ele>
        <time>2021-04-23T10:20:02.000Z</time>
      </trkpt>
      <trkpt lat="49.14258" lon="1.23266">
        <ele>135.19999694824</ele>
        <time>2021-04-23T10:20:03.000Z</time>
      </trkpt>
      <trkpt lat="49.14243" lon="1.23238">
        <ele>135</ele>
        <time>2021-04-23T10:20:07.000Z</time>
      </trkpt>
      <trkpt lat="49.14212" lon="1.23198">
        <ele>135</ele>
        <time>2021-04-23T10:20:15.000Z</time>
      </trkpt>
      <trkpt lat="49.14194" lon="1.23179">
        <ele>136</ele>
        <time>2021-04-23T10:20:20.000Z</time>
      </trkpt>
      <trkpt lat="49.14176" lon="1.2316">
        <ele>136.80000305176</ele>
        <time>2021-04-23T10:20:25.000Z</time>
      </trkpt>
      <trkpt lat="49.14169" lon="1.23152">
        <ele>137.19999694824</ele>
        <time>2021-04-23T10:20:27.000Z</time>
      </trkpt>
      <trkpt lat="49.14151" lon="1.23133">
        <ele>137.80000305176</ele>
        <time>2021-04-23T10:20:32.000Z</time>
      </trkpt>
      <trkpt lat="49.14144" lon="1.23126">
        <ele>138.19999694824</ele>
        <time>2021-04-23T10:20:34.000Z</time>
      </trkpt>
      <trkpt lat="49.14122" lon="1.23102">
        <ele>139.39999389648</ele>
        <time>2021-04-23T10:20:40.000Z</time>
      </trkpt>
      <trkpt lat="49.14111" lon="1.2309">
        <ele>139.80000305176</ele>
        <time>2021-04-23T10:20:43.000Z</time>
      </trkpt>
      <trkpt lat="49.141" lon="1.23077">
        <ele>140.39999389648</ele>
        <time>2021-04-23T10:20:46.000Z</time>
      </trkpt>
      <trkpt lat="49.1407" lon="1.23044">
        <ele>141.39999389648</ele>
        <time>2021-04-23T10:20:54.000Z</time>
      </trkpt>
      <trkpt lat="49.14066" lon="1.23039">
        <ele>141.39999389648</ele>
        <time>2021-04-23T10:20:55.000Z</time>
      </trkpt>
      <trkpt lat="49.14041" lon="1.23013">
        <ele>141.80000305176</ele>
        <time>2021-04-23T10:21:01.000Z</time>
      </trkpt>
      <trkpt lat="49.14034" lon="1.23005">
        <ele>141.80000305176</ele>
        <time>2021-04-23T10:21:03.000Z</time>
      </trkpt>
      <trkpt lat="49.14031" lon="1.22996">
        <ele>141.80000305176</ele>
        <time>2021-04-23T10:21:05.000Z</time>
      </trkpt>
      <trkpt lat="49.14037" lon="1.22982">
        <ele>142</ele>
        <time>2021-04-23T10:21:08.000Z</time>
      </trkpt>
      <trkpt lat="49.14052" lon="1.22955">
        <ele>142.60000610352</ele>
        <time>2021-04-23T10:21:13.000Z</time>
      </trkpt>
      <trkpt lat="49.14072" lon="1.22915">
        <ele>143.60000610352</ele>
        <time>2021-04-23T10:21:19.000Z</time>
      </trkpt>
      <trkpt lat="49.14079" lon="1.22901">
        <ele>143.80000305176</ele>
        <time>2021-04-23T10:21:21.000Z</time>
      </trkpt>
      <trkpt lat="49.14103" lon="1.22855">
        <ele>144.60000610352</ele>
        <time>2021-04-23T10:21:27.000Z</time>
      </trkpt>
      <trkpt lat="49.14121" lon="1.22825">
        <ele>144.80000305176</ele>
        <time>2021-04-23T10:21:31.000Z</time>
      </trkpt>
      <trkpt lat="49.14158" lon="1.22759">
        <ele>145.19999694824</ele>
        <time>2021-04-23T10:21:39.000Z</time>
      </trkpt>
      <trkpt lat="49.1419" lon="1.22691">
        <ele>145</ele>
        <time>2021-04-23T10:21:46.000Z</time>
      </trkpt>
      <trkpt lat="49.14195" lon="1.2268">
        <ele>145</ele>
        <time>2021-04-23T10:21:47.000Z</time>
      </trkpt>
      <trkpt lat="49.14222" lon="1.22601">
        <ele>144.19999694824</ele>
        <time>2021-04-23T10:21:54.000Z</time>
      </trkpt>
      <trkpt lat="49.14227" lon="1.22575">
        <ele>143.60000610352</ele>
        <time>2021-04-23T10:21:56.000Z</time>
      </trkpt>
      <trkpt lat="49.1423" lon="1.22536">
        <ele>142.80000305176</ele>
        <time>2021-04-23T10:21:59.000Z</time>
      </trkpt>
      <trkpt lat="49.14232" lon="1.22483">
        <ele>142.60000610352</ele>
        <time>2021-04-23T10:22:03.000Z</time>
      </trkpt>
      <trkpt lat="49.14234" lon="1.22431">
        <ele>142.19999694824</ele>
        <time>2021-04-23T10:22:07.000Z</time>
      </trkpt>
      <trkpt lat="49.14238" lon="1.22344">
        <ele>142</ele>
        <time>2021-04-23T10:22:14.000Z</time>
      </trkpt>
      <trkpt lat="49.1424" lon="1.2232">
        <ele>142</ele>
        <time>2021-04-23T10:22:16.000Z</time>
      </trkpt>
      <trkpt lat="49.14249" lon="1.22251">
        <ele>142.19999694824</ele>
        <time>2021-04-23T10:22:22.000Z</time>
      </trkpt>
      <trkpt lat="49.14266" lon="1.22197">
        <ele>142.39999389648</ele>
        <time>2021-04-23T10:22:27.000Z</time>
      </trkpt>
      <trkpt lat="49.143" lon="1.22132">
        <ele>142.19999694824</ele>
        <time>2021-04-23T10:22:34.000Z</time>
      </trkpt>
      <trkpt lat="49.14337" lon="1.22059">
        <ele>142.19999694824</ele>
        <time>2021-04-23T10:22:42.000Z</time>
      </trkpt>
      <trkpt lat="49.14341" lon="1.2205">
        <ele>142.19999694824</ele>
        <time>2021-04-23T10:22:43.000Z</time>
      </trkpt>
      <trkpt lat="49.14374" lon="1.21973">
        <ele>142.60000610352</ele>
        <time>2021-04-23T10:22:51.000Z</time>
      </trkpt>
      <trkpt lat="49.14383" lon="1.21953">
        <ele>142.60000610352</ele>
        <time>2021-04-23T10:22:53.000Z</time>
      </trkpt>
      <trkpt lat="49.14416" lon="1.21886">
        <ele>142.60000610352</ele>
        <time>2021-04-23T10:23:00.000Z</time>
      </trkpt>
      <trkpt lat="49.14435" lon="1.21842">
        <ele>142.19999694824</ele>
        <time>2021-04-23T10:23:05.000Z</time>
      </trkpt>
      <trkpt lat="49.14436" lon="1.21832">
        <ele>142</ele>
        <time>2021-04-23T10:23:06.000Z</time>
      </trkpt>
      <trkpt lat="49.14435" lon="1.21823">
        <ele>141.60000610352</ele>
        <time>2021-04-23T10:23:07.000Z</time>
      </trkpt>
      <trkpt lat="49.14431" lon="1.21816">
        <ele>141.39999389648</ele>
        <time>2021-04-23T10:23:08.000Z</time>
      </trkpt>
      <trkpt lat="49.14415" lon="1.21805">
        <ele>140.80000305176</ele>
        <time>2021-04-23T10:23:11.000Z</time>
      </trkpt>
      <trkpt lat="49.1441" lon="1.21803">
        <ele>140.60000610352</ele>
        <time>2021-04-23T10:23:12.000Z</time>
      </trkpt>
      <trkpt lat="49.14404" lon="1.21801">
        <ele>140.60000610352</ele>
        <time>2021-04-23T10:23:13.000Z</time>
      </trkpt>
      <trkpt lat="49.14379" lon="1.21795">
        <ele>140.19999694824</ele>
        <time>2021-04-23T10:23:17.000Z</time>
      </trkpt>
      <trkpt lat="49.14339" lon="1.21779">
        <ele>140.19999694824</ele>
        <time>2021-04-23T10:23:24.000Z</time>
      </trkpt>
      <trkpt lat="49.14321" lon="1.21768">
        <ele>140.19999694824</ele>
        <time>2021-04-23T10:23:27.000Z</time>
      </trkpt>
      <trkpt lat="49.14288" lon="1.21742">
        <ele>141.19999694824</ele>
        <time>2021-04-23T10:23:33.000Z</time>
      </trkpt>
      <trkpt lat="49.14264" lon="1.21727">
        <ele>141.60000610352</ele>
        <time>2021-04-23T10:23:37.000Z</time>
      </trkpt>
      <trkpt lat="49.14246" lon="1.21718">
        <ele>141.80000305176</ele>
        <time>2021-04-23T10:23:40.000Z</time>
      </trkpt>
      <trkpt lat="49.14191" lon="1.2169">
        <ele>142.39999389648</ele>
        <time>2021-04-23T10:23:49.000Z</time>
      </trkpt>
      <trkpt lat="49.14179" lon="1.21683">
        <ele>142.39999389648</ele>
        <time>2021-04-23T10:23:51.000Z</time>
      </trkpt>
      <trkpt lat="49.14148" lon="1.21666">
        <ele>142.60000610352</ele>
        <time>2021-04-23T10:23:56.000Z</time>
      </trkpt>
      <trkpt lat="49.14112" lon="1.21644">
        <ele>142.80000305176</ele>
        <time>2021-04-23T10:24:02.000Z</time>
      </trkpt>
      <trkpt lat="49.141" lon="1.21634">
        <ele>142.80000305176</ele>
        <time>2021-04-23T10:24:04.000Z</time>
      </trkpt>
      <trkpt lat="49.1409" lon="1.21619">
        <ele>143</ele>
        <time>2021-04-23T10:24:06.000Z</time>
      </trkpt>
      <trkpt lat="49.14081" lon="1.21592">
        <ele>143</ele>
        <time>2021-04-23T10:24:09.000Z</time>
      </trkpt>
      <trkpt lat="49.14079" lon="1.21583">
        <ele>143</ele>
        <time>2021-04-23T10:24:10.000Z</time>
      </trkpt>
      <trkpt lat="49.1407" lon="1.21533">
        <ele>143.39999389648</ele>
        <time>2021-04-23T10:24:16.000Z</time>
      </trkpt>
      <trkpt lat="49.14067" lon="1.2152">
        <ele>143.60000610352</ele>
        <time>2021-04-23T10:24:18.000Z</time>
      </trkpt>
      <trkpt lat="49.14064" lon="1.21516">
        <ele>143.80000305176</ele>
        <time>2021-04-23T10:24:19.000Z</time>
      </trkpt>
      <trkpt lat="49.1406" lon="1.21513">
        <ele>144</ele>
        <time>2021-04-23T10:24:20.000Z</time>
      </trkpt>
      <trkpt lat="49.1404" lon="1.21512">
        <ele>144</ele>
        <time>2021-04-23T10:24:24.000Z</time>
      </trkpt>
      <trkpt lat="49.14002" lon="1.21509">
        <ele>144</ele>
        <time>2021-04-23T10:24:29.000Z</time>
      </trkpt>
      <trkpt lat="49.13986" lon="1.2151">
        <ele>143.80000305176</ele>
        <time>2021-04-23T10:24:31.000Z</time>
      </trkpt>
      <trkpt lat="49.13968" lon="1.21515">
        <ele>143.19999694824</ele>
        <time>2021-04-23T10:24:33.000Z</time>
      </trkpt>
      <trkpt lat="49.1395" lon="1.21522">
        <ele>142.19999694824</ele>
        <time>2021-04-23T10:24:35.000Z</time>
      </trkpt>
      <trkpt lat="49.13931" lon="1.21529">
        <ele>141</ele>
        <time>2021-04-23T10:24:37.000Z</time>
      </trkpt>
      <trkpt lat="49.13921" lon="1.21532">
        <ele>140.39999389648</ele>
        <time>2021-04-23T10:24:38.000Z</time>
      </trkpt>
      <trkpt lat="49.13911" lon="1.21536">
        <ele>139.80000305176</ele>
        <time>2021-04-23T10:24:39.000Z</time>
      </trkpt>
      <trkpt lat="49.13891" lon="1.21542">
        <ele>138.80000305176</ele>
        <time>2021-04-23T10:24:41.000Z</time>
      </trkpt>
      <trkpt lat="49.1388" lon="1.21544">
        <ele>138</ele>
        <time>2021-04-23T10:24:42.000Z</time>
      </trkpt>
      <trkpt lat="49.1387" lon="1.21545">
        <ele>137</ele>
        <time>2021-04-23T10:24:43.000Z</time>
      </trkpt>
      <trkpt lat="49.13847" lon="1.2154">
        <ele>135.19999694824</ele>
        <time>2021-04-23T10:24:45.000Z</time>
      </trkpt>
      <trkpt lat="49.13825" lon="1.2153">
        <ele>133.60000610352</ele>
        <time>2021-04-23T10:24:47.000Z</time>
      </trkpt>
      <trkpt lat="49.13814" lon="1.21523">
        <ele>132.60000610352</ele>
        <time>2021-04-23T10:24:48.000Z</time>
      </trkpt>
      <trkpt lat="49.13802" lon="1.21515">
        <ele>131.19999694824</ele>
        <time>2021-04-23T10:24:49.000Z</time>
      </trkpt>
      <trkpt lat="49.13791" lon="1.21506">
        <ele>130</ele>
        <time>2021-04-23T10:24:50.000Z</time>
      </trkpt>
      <trkpt lat="49.13779" lon="1.21496">
        <ele>128.80000305176</ele>
        <time>2021-04-23T10:24:51.000Z</time>
      </trkpt>
      <trkpt lat="49.13767" lon="1.21485">
        <ele>127.40000152588</ele>
        <time>2021-04-23T10:24:52.000Z</time>
      </trkpt>
      <trkpt lat="49.13756" lon="1.21474">
        <ele>126</ele>
        <time>2021-04-23T10:24:53.000Z</time>
      </trkpt>
      <trkpt lat="49.13744" lon="1.21462">
        <ele>124.59999847412</ele>
        <time>2021-04-23T10:24:54.000Z</time>
      </trkpt>
      <trkpt lat="49.13733" lon="1.2145">
        <ele>122</ele>
        <time>2021-04-23T10:24:55.000Z</time>
      </trkpt>
      <trkpt lat="49.13722" lon="1.21438">
        <ele>120.59999847412</ele>
        <time>2021-04-23T10:24:56.000Z</time>
      </trkpt>
      <trkpt lat="49.13711" lon="1.21426">
        <ele>119</ele>
        <time>2021-04-23T10:24:57.000Z</time>
      </trkpt>
      <trkpt lat="49.137" lon="1.21416">
        <ele>117</ele>
        <time>2021-04-23T10:24:58.000Z</time>
      </trkpt>
      <trkpt lat="49.1369" lon="1.21407">
        <ele>115.19999694824</ele>
        <time>2021-04-23T10:24:59.000Z</time>
      </trkpt>
      <trkpt lat="49.1368" lon="1.214">
        <ele>113.40000152588</ele>
        <time>2021-04-23T10:25:00.000Z</time>
      </trkpt>
      <trkpt lat="49.13671" lon="1.21394">
        <ele>111.59999847412</ele>
        <time>2021-04-23T10:25:01.000Z</time>
      </trkpt>
      <trkpt lat="49.13663" lon="1.21389">
        <ele>109.80000305176</ele>
        <time>2021-04-23T10:25:02.000Z</time>
      </trkpt>
      <trkpt lat="49.13656" lon="1.21386">
        <ele>108</ele>
        <time>2021-04-23T10:25:03.000Z</time>
      </trkpt>
      <trkpt lat="49.13651" lon="1.21384">
        <ele>106.40000152588</ele>
        <time>2021-04-23T10:25:04.000Z</time>
      </trkpt>
      <trkpt lat="49.13645" lon="1.21382">
        <ele>104.80000305176</ele>
        <time>2021-04-23T10:25:05.000Z</time>
      </trkpt>
      <trkpt lat="49.1364" lon="1.21379">
        <ele>103.40000152588</ele>
        <time>2021-04-23T10:25:06.000Z</time>
      </trkpt>
      <trkpt lat="49.13634" lon="1.21377">
        <ele>102.19999694824</ele>
        <time>2021-04-23T10:25:07.000Z</time>
      </trkpt>
      <trkpt lat="49.13628" lon="1.21374">
        <ele>101</ele>
        <time>2021-04-23T10:25:08.000Z</time>
      </trkpt>
      <trkpt lat="49.13623" lon="1.21371">
        <ele>99.800003051758</ele>
        <time>2021-04-23T10:25:09.000Z</time>
      </trkpt>
      <trkpt lat="49.13619" lon="1.21368">
        <ele>98.800003051758</ele>
        <time>2021-04-23T10:25:10.000Z</time>
      </trkpt>
      <trkpt lat="49.13616" lon="1.21364">
        <ele>98</ele>
        <time>2021-04-23T10:25:11.000Z</time>
      </trkpt>
      <trkpt lat="49.1361" lon="1.21352">
        <ele>96.400001525879</ele>
        <time>2021-04-23T10:25:13.000Z</time>
      </trkpt>
      <trkpt lat="49.13601" lon="1.2133">
        <ele>95.400001525879</ele>
        <time>2021-04-23T10:25:16.000Z</time>
      </trkpt>
      <trkpt lat="49.13595" lon="1.21313">
        <ele>94.199996948242</ele>
        <time>2021-04-23T10:25:18.000Z</time>
      </trkpt>
      <trkpt lat="49.13588" lon="1.21296">
        <ele>93</ele>
        <time>2021-04-23T10:25:20.000Z</time>
      </trkpt>
      <trkpt lat="49.13585" lon="1.21288">
        <ele>92.199996948242</ele>
        <time>2021-04-23T10:25:21.000Z</time>
      </trkpt>
      <trkpt lat="49.13581" lon="1.2128">
        <ele>91.400001525879</ele>
        <time>2021-04-23T10:25:22.000Z</time>
      </trkpt>
      <trkpt lat="49.13573" lon="1.21263">
        <ele>89.199996948242</ele>
        <time>2021-04-23T10:25:24.000Z</time>
      </trkpt>
      <trkpt lat="49.13564" lon="1.21246">
        <ele>87.400001525879</ele>
        <time>2021-04-23T10:25:26.000Z</time>
      </trkpt>
      <trkpt lat="49.13561" lon="1.21239">
        <ele>86.800003051758</ele>
        <time>2021-04-23T10:25:27.000Z</time>
      </trkpt>
      <trkpt lat="49.13557" lon="1.21232">
        <ele>86.199996948242</ele>
        <time>2021-04-23T10:25:28.000Z</time>
      </trkpt>
      <trkpt lat="49.13549" lon="1.21218">
        <ele>85</ele>
        <time>2021-04-23T10:25:30.000Z</time>
      </trkpt>
      <trkpt lat="49.13542" lon="1.21204">
        <ele>84</ele>
        <time>2021-04-23T10:25:32.000Z</time>
      </trkpt>
      <trkpt lat="49.13538" lon="1.21197">
        <ele>83.599998474121</ele>
        <time>2021-04-23T10:25:33.000Z</time>
      </trkpt>
      <trkpt lat="49.1353" lon="1.21183">
        <ele>82.199996948242</ele>
        <time>2021-04-23T10:25:35.000Z</time>
      </trkpt>
      <trkpt lat="49.13522" lon="1.21168">
        <ele>81</ele>
        <time>2021-04-23T10:25:37.000Z</time>
      </trkpt>
      <trkpt lat="49.13515" lon="1.21153">
        <ele>79.800003051758</ele>
        <time>2021-04-23T10:25:39.000Z</time>
      </trkpt>
      <trkpt lat="49.13508" lon="1.21136">
        <ele>78.400001525879</ele>
        <time>2021-04-23T10:25:41.000Z</time>
      </trkpt>
      <trkpt lat="49.13501" lon="1.2112">
        <ele>77.199996948242</ele>
        <time>2021-04-23T10:25:43.000Z</time>
      </trkpt>
      <trkpt lat="49.13499" lon="1.21112">
        <ele>76.800003051758</ele>
        <time>2021-04-23T10:25:44.000Z</time>
      </trkpt>
      <trkpt lat="49.13497" lon="1.21106">
        <ele>76</ele>
        <time>2021-04-23T10:25:45.000Z</time>
      </trkpt>
      <trkpt lat="49.13496" lon="1.211">
        <ele>74.800003051758</ele>
        <time>2021-04-23T10:25:47.000Z</time>
      </trkpt>
      <trkpt lat="49.13496" lon="1.21098">
        <ele>74.400001525879</ele>
        <time>2021-04-23T10:25:48.000Z</time>
      </trkpt>
      <trkpt lat="49.13497" lon="1.21097">
        <ele>73.599998474121</ele>
        <time>2021-04-23T10:25:49.000Z</time>
      </trkpt>
      <trkpt lat="49.135" lon="1.21094">
        <ele>72.199996948242</ele>
        <time>2021-04-23T10:25:51.000Z</time>
      </trkpt>
      <trkpt lat="49.13501" lon="1.21094">
        <ele>71.400001525879</ele>
        <time>2021-04-23T10:25:52.000Z</time>
      </trkpt>
      <trkpt lat="49.13502" lon="1.21095">
        <ele>69.800003051758</ele>
        <time>2021-04-23T10:25:53.000Z</time>
      </trkpt>
      <trkpt lat="49.13506" lon="1.21096">
        <ele>69.199996948242</ele>
        <time>2021-04-23T10:25:55.000Z</time>
      </trkpt>
      <trkpt lat="49.13509" lon="1.21096">
        <ele>68.599998474121</ele>
        <time>2021-04-23T10:25:57.000Z</time>
      </trkpt>
      <trkpt lat="49.13514" lon="1.21095">
        <ele>68.599998474121</ele>
        <time>2021-04-23T10:26:00.000Z</time>
      </trkpt>
      <trkpt lat="49.13524" lon="1.21091">
        <ele>68.599998474121</ele>
        <time>2021-04-23T10:26:06.000Z</time>
      </trkpt>
      <trkpt lat="49.13534" lon="1.21086">
        <ele>69.800003051758</ele>
        <time>2021-04-23T10:26:12.000Z</time>
      </trkpt>
      <trkpt lat="49.13535" lon="1.21085">
        <ele>70.199996948242</ele>
        <time>2021-04-23T10:26:13.000Z</time>
      </trkpt>
      <trkpt lat="49.13543" lon="1.21087">
        <ele>71</ele>
        <time>2021-04-23T10:26:17.000Z</time>
      </trkpt>
      <trkpt lat="49.13547" lon="1.21088">
        <ele>71.400001525879</ele>
        <time>2021-04-23T10:26:19.000Z</time>
      </trkpt>
      <trkpt lat="49.13552" lon="1.21089">
        <ele>72</ele>
        <time>2021-04-23T10:26:21.000Z</time>
      </trkpt>
      <trkpt lat="49.13564" lon="1.21092">
        <ele>73</ele>
        <time>2021-04-23T10:26:27.000Z</time>
      </trkpt>
      <trkpt lat="49.13566" lon="1.21092">
        <ele>73.199996948242</ele>
        <time>2021-04-23T10:26:28.000Z</time>
      </trkpt>
      <trkpt lat="49.13577" lon="1.21091">
        <ele>74</ele>
        <time>2021-04-23T10:26:33.000Z</time>
      </trkpt>
      <trkpt lat="49.13581" lon="1.2109">
        <ele>74.400001525879</ele>
        <time>2021-04-23T10:26:35.000Z</time>
      </trkpt>
      <trkpt lat="49.13588" lon="1.21088">
        <ele>75</ele>
        <time>2021-04-23T10:26:38.000Z</time>
      </trkpt>
      <trkpt lat="49.13596" lon="1.21086">
        <ele>76.400001525879</ele>
        <time>2021-04-23T10:26:42.000Z</time>
      </trkpt>
      <trkpt lat="49.13602" lon="1.21084">
        <ele>77</ele>
        <time>2021-04-23T10:26:45.000Z</time>
      </trkpt>
      <trkpt lat="49.13604" lon="1.21084">
        <ele>77.400001525879</ele>
        <time>2021-04-23T10:26:46.000Z</time>
      </trkpt>
      <trkpt lat="49.13611" lon="1.21082">
        <ele>78.599998474121</ele>
        <time>2021-04-23T10:26:50.000Z</time>
      </trkpt>
      <trkpt lat="49.13617" lon="1.2108">
        <ele>79.800003051758</ele>
        <time>2021-04-23T10:26:53.000Z</time>
      </trkpt>
      <trkpt lat="49.13621" lon="1.21079">
        <ele>80</ele>
        <time>2021-04-23T10:26:55.000Z</time>
      </trkpt>
      <trkpt lat="49.13627" lon="1.21077">
        <ele>80.800003051758</ele>
        <time>2021-04-23T10:26:58.000Z</time>
      </trkpt>
      <trkpt lat="49.13637" lon="1.21075">
        <ele>82</ele>
        <time>2021-04-23T10:27:03.000Z</time>
      </trkpt>
      <trkpt lat="49.13643" lon="1.21073">
        <ele>82.599998474121</ele>
        <time>2021-04-23T10:27:06.000Z</time>
      </trkpt>
      <trkpt lat="49.13647" lon="1.21072">
        <ele>83</ele>
        <time>2021-04-23T10:27:08.000Z</time>
      </trkpt>
      <trkpt lat="49.13654" lon="1.2107">
        <ele>84</ele>
        <time>2021-04-23T10:27:12.000Z</time>
      </trkpt>
      <trkpt lat="49.13662" lon="1.21068">
        <ele>85</ele>
        <time>2021-04-23T10:27:16.000Z</time>
      </trkpt>
      <trkpt lat="49.13664" lon="1.21067">
        <ele>85.199996948242</ele>
        <time>2021-04-23T10:27:17.000Z</time>
      </trkpt>
      <trkpt lat="49.13673" lon="1.21065">
        <ele>86.199996948242</ele>
        <time>2021-04-23T10:27:22.000Z</time>
      </trkpt>
      <trkpt lat="49.13681" lon="1.21064">
        <ele>87.400001525879</ele>
        <time>2021-04-23T10:27:27.000Z</time>
      </trkpt>
      <trkpt lat="49.13688" lon="1.21063">
        <ele>88.400001525879</ele>
        <time>2021-04-23T10:27:31.000Z</time>
      </trkpt>
      <trkpt lat="49.13694" lon="1.21064">
        <ele>88.800003051758</ele>
        <time>2021-04-23T10:27:35.000Z</time>
      </trkpt>
      <trkpt lat="49.13699" lon="1.21065">
        <ele>89.400001525879</ele>
        <time>2021-04-23T10:27:38.000Z</time>
      </trkpt>
      <trkpt lat="49.13709" lon="1.21072">
        <ele>90.400001525879</ele>
        <time>2021-04-23T10:27:45.000Z</time>
      </trkpt>
      <trkpt lat="49.1371" lon="1.21073">
        <ele>90.800003051758</ele>
        <time>2021-04-23T10:27:46.000Z</time>
      </trkpt>
      <trkpt lat="49.13717" lon="1.2108">
        <ele>91.800003051758</ele>
        <time>2021-04-23T10:27:52.000Z</time>
      </trkpt>
      <trkpt lat="49.13719" lon="1.21082">
        <ele>92</ele>
        <time>2021-04-23T10:27:53.000Z</time>
      </trkpt>
      <trkpt lat="49.13723" lon="1.21085">
        <ele>93</ele>
        <time>2021-04-23T10:27:56.000Z</time>
      </trkpt>
      <trkpt lat="49.13733" lon="1.21093">
        <ele>93.800003051758</ele>
        <time>2021-04-23T10:28:03.000Z</time>
      </trkpt>
      <trkpt lat="49.13735" lon="1.21095">
        <ele>94</ele>
        <time>2021-04-23T10:28:05.000Z</time>
      </trkpt>
      <trkpt lat="49.13744" lon="1.211">
        <ele>95.199996948242</ele>
        <time>2021-04-23T10:28:11.000Z</time>
      </trkpt>
      <trkpt lat="49.13747" lon="1.21102">
        <ele>95.599998474121</ele>
        <time>2021-04-23T10:28:13.000Z</time>
      </trkpt>
      <trkpt lat="49.13752" lon="1.21103">
        <ele>96.199996948242</ele>
        <time>2021-04-23T10:28:16.000Z</time>
      </trkpt>
      <trkpt lat="49.1376" lon="1.21106">
        <ele>97.400001525879</ele>
        <time>2021-04-23T10:28:21.000Z</time>
      </trkpt>
      <trkpt lat="49.13764" lon="1.21107">
        <ele>97.800003051758</ele>
        <time>2021-04-23T10:28:23.000Z</time>
      </trkpt>
      <trkpt lat="49.13769" lon="1.21107">
        <ele>98.800003051758</ele>
        <time>2021-04-23T10:28:26.000Z</time>
      </trkpt>
      <trkpt lat="49.13779" lon="1.21107">
        <ele>99.800003051758</ele>
        <time>2021-04-23T10:28:32.000Z</time>
      </trkpt>
      <trkpt lat="49.13783" lon="1.21107">
        <ele>100.19999694824</ele>
        <time>2021-04-23T10:28:34.000Z</time>
      </trkpt>
      <trkpt lat="49.13786" lon="1.21107">
        <ele>100.80000305176</ele>
        <time>2021-04-23T10:28:36.000Z</time>
      </trkpt>
      <trkpt lat="49.13791" lon="1.21106">
        <ele>101.19999694824</ele>
        <time>2021-04-23T10:28:39.000Z</time>
      </trkpt>
      <trkpt lat="49.13796" lon="1.21106">
        <ele>101.80000305176</ele>
        <time>2021-04-23T10:28:42.000Z</time>
      </trkpt>
      <trkpt lat="49.138" lon="1.21107">
        <ele>102.59999847412</ele>
        <time>2021-04-23T10:28:44.000Z</time>
      </trkpt>
      <trkpt lat="49.13801" lon="1.21107">
        <ele>102.80000305176</ele>
        <time>2021-04-23T10:28:45.000Z</time>
      </trkpt>
      <trkpt lat="49.13812" lon="1.21104">
        <ele>103.80000305176</ele>
        <time>2021-04-23T10:28:51.000Z</time>
      </trkpt>
      <trkpt lat="49.13817" lon="1.21102">
        <ele>104.59999847412</ele>
        <time>2021-04-23T10:28:54.000Z</time>
      </trkpt>
      <trkpt lat="49.13819" lon="1.21101">
        <ele>105.19999694824</ele>
        <time>2021-04-23T10:28:55.000Z</time>
      </trkpt>
      <trkpt lat="49.1383" lon="1.21097">
        <ele>106.19999694824</ele>
        <time>2021-04-23T10:29:01.000Z</time>
      </trkpt>
      <trkpt lat="49.13835" lon="1.21096">
        <ele>106.59999847412</ele>
        <time>2021-04-23T10:29:04.000Z</time>
      </trkpt>
      <trkpt lat="49.13842" lon="1.21093">
        <ele>107.40000152588</ele>
        <time>2021-04-23T10:29:08.000Z</time>
      </trkpt>
      <trkpt lat="49.13851" lon="1.2109">
        <ele>108.59999847412</ele>
        <time>2021-04-23T10:29:13.000Z</time>
      </trkpt>
      <trkpt lat="49.13858" lon="1.21088">
        <ele>109.40000152588</ele>
        <time>2021-04-23T10:29:17.000Z</time>
      </trkpt>
      <trkpt lat="49.13862" lon="1.21088">
        <ele>109.59999847412</ele>
        <time>2021-04-23T10:29:19.000Z</time>
      </trkpt>
      <trkpt lat="49.13873" lon="1.21084">
        <ele>110.80000305176</ele>
        <time>2021-04-23T10:29:26.000Z</time>
      </trkpt>
      <trkpt lat="49.13882" lon="1.2108">
        <ele>111.80000305176</ele>
        <time>2021-04-23T10:29:31.000Z</time>
      </trkpt>
      <trkpt lat="49.13884" lon="1.21079">
        <ele>112</ele>
        <time>2021-04-23T10:29:32.000Z</time>
      </trkpt>
      <trkpt lat="49.13892" lon="1.21073">
        <ele>113</ele>
        <time>2021-04-23T10:29:37.000Z</time>
      </trkpt>
      <trkpt lat="49.139" lon="1.21068">
        <ele>114.19999694824</ele>
        <time>2021-04-23T10:29:42.000Z</time>
      </trkpt>
      <trkpt lat="49.13901" lon="1.21067">
        <ele>114.19999694824</ele>
        <time>2021-04-23T10:29:43.000Z</time>
      </trkpt>
      <trkpt lat="49.13914" lon="1.21061">
        <ele>115.19999694824</ele>
        <time>2021-04-23T10:29:50.000Z</time>
      </trkpt>
      <trkpt lat="49.13926" lon="1.21059">
        <ele>116.19999694824</ele>
        <time>2021-04-23T10:29:58.000Z</time>
      </trkpt>
      <trkpt lat="49.13938" lon="1.21055">
        <ele>117.19999694824</ele>
        <time>2021-04-23T10:30:05.000Z</time>
      </trkpt>
      <trkpt lat="49.13945" lon="1.21052">
        <ele>118.59999847412</ele>
        <time>2021-04-23T10:30:09.000Z</time>
      </trkpt>
      <trkpt lat="49.13948" lon="1.2105">
        <ele>119.59999847412</ele>
        <time>2021-04-23T10:30:11.000Z</time>
      </trkpt>
      <trkpt lat="49.1395" lon="1.21049">
        <ele>120</ele>
        <time>2021-04-23T10:30:12.000Z</time>
      </trkpt>
      <trkpt lat="49.13957" lon="1.21047">
        <ele>121</ele>
        <time>2021-04-23T10:30:16.000Z</time>
      </trkpt>
      <trkpt lat="49.13959" lon="1.21046">
        <ele>121.19999694824</ele>
        <time>2021-04-23T10:30:17.000Z</time>
      </trkpt>
      <trkpt lat="49.13967" lon="1.21042">
        <ele>122.19999694824</ele>
        <time>2021-04-23T10:30:21.000Z</time>
      </trkpt>
      <trkpt lat="49.13973" lon="1.21038">
        <ele>123</ele>
        <time>2021-04-23T10:30:24.000Z</time>
      </trkpt>
      <trkpt lat="49.13979" lon="1.21033">
        <ele>124.19999694824</ele>
        <time>2021-04-23T10:30:28.000Z</time>
      </trkpt>
      <trkpt lat="49.13983" lon="1.2103">
        <ele>124.40000152588</ele>
        <time>2021-04-23T10:30:30.000Z</time>
      </trkpt>
      <trkpt lat="49.13988" lon="1.21025">
        <ele>125.19999694824</ele>
        <time>2021-04-23T10:30:33.000Z</time>
      </trkpt>
      <trkpt lat="49.13996" lon="1.21017">
        <ele>126.80000305176</ele>
        <time>2021-04-23T10:30:38.000Z</time>
      </trkpt>
      <trkpt lat="49.14005" lon="1.21009">
        <ele>127.80000305176</ele>
        <time>2021-04-23T10:30:43.000Z</time>
      </trkpt>
      <trkpt lat="49.14008" lon="1.21006">
        <ele>128</ele>
        <time>2021-04-23T10:30:45.000Z</time>
      </trkpt>
      <trkpt lat="49.14014" lon="1.21001">
        <ele>128.80000305176</ele>
        <time>2021-04-23T10:30:49.000Z</time>
      </trkpt>
      <trkpt lat="49.14018" lon="1.20998">
        <ele>129.19999694824</ele>
        <time>2021-04-23T10:30:51.000Z</time>
      </trkpt>
      <trkpt lat="49.14023" lon="1.20992">
        <ele>130</ele>
        <time>2021-04-23T10:30:54.000Z</time>
      </trkpt>
      <trkpt lat="49.14031" lon="1.20983">
        <ele>131.19999694824</ele>
        <time>2021-04-23T10:30:59.000Z</time>
      </trkpt>
      <trkpt lat="49.14043" lon="1.20969">
        <ele>132.19999694824</ele>
        <time>2021-04-23T10:31:06.000Z</time>
      </trkpt>
      <trkpt lat="49.14048" lon="1.20964">
        <ele>133.19999694824</ele>
        <time>2021-04-23T10:31:09.000Z</time>
      </trkpt>
      <trkpt lat="49.1405" lon="1.20962">
        <ele>133.60000610352</ele>
        <time>2021-04-23T10:31:10.000Z</time>
      </trkpt>
      <trkpt lat="49.14057" lon="1.20955">
        <ele>134.60000610352</ele>
        <time>2021-04-23T10:31:15.000Z</time>
      </trkpt>
      <trkpt lat="49.14059" lon="1.20952">
        <ele>135</ele>
        <time>2021-04-23T10:31:17.000Z</time>
      </trkpt>
      <trkpt lat="49.14065" lon="1.20947">
        <ele>135.80000305176</ele>
        <time>2021-04-23T10:31:21.000Z</time>
      </trkpt>
      <trkpt lat="49.14068" lon="1.20945">
        <ele>136</ele>
        <time>2021-04-23T10:31:23.000Z</time>
      </trkpt>
      <trkpt lat="49.14069" lon="1.20944">
        <ele>136.19999694824</ele>
        <time>2021-04-23T10:31:24.000Z</time>
      </trkpt>
      <trkpt lat="49.14075" lon="1.20944">
        <ele>136.80000305176</ele>
        <time>2021-04-23T10:31:28.000Z</time>
      </trkpt>
      <trkpt lat="49.14083" lon="1.2095">
        <ele>137.80000305176</ele>
        <time>2021-04-23T10:31:33.000Z</time>
      </trkpt>
      <trkpt lat="49.14084" lon="1.20952">
        <ele>138</ele>
        <time>2021-04-23T10:31:34.000Z</time>
      </trkpt>
      <trkpt lat="49.14089" lon="1.20957">
        <ele>139</ele>
        <time>2021-04-23T10:31:37.000Z</time>
      </trkpt>
      <trkpt lat="49.14092" lon="1.20959">
        <ele>139.19999694824</ele>
        <time>2021-04-23T10:31:39.000Z</time>
      </trkpt>
      <trkpt lat="49.14103" lon="1.20961">
        <ele>140</ele>
        <time>2021-04-23T10:31:44.000Z</time>
      </trkpt>
      <trkpt lat="49.14108" lon="1.20961">
        <ele>140.39999389648</ele>
        <time>2021-04-23T10:31:46.000Z</time>
      </trkpt>
      <trkpt lat="49.14115" lon="1.20961">
        <ele>141</ele>
        <time>2021-04-23T10:31:49.000Z</time>
      </trkpt>
      <trkpt lat="49.14127" lon="1.20961">
        <ele>142.39999389648</ele>
        <time>2021-04-23T10:31:54.000Z</time>
      </trkpt>
      <trkpt lat="49.14135" lon="1.20961">
        <ele>143.39999389648</ele>
        <time>2021-04-23T10:31:57.000Z</time>
      </trkpt>
      <trkpt lat="49.14145" lon="1.20961">
        <ele>144.19999694824</ele>
        <time>2021-04-23T10:32:01.000Z</time>
      </trkpt>
      <trkpt lat="49.14155" lon="1.2096">
        <ele>144.60000610352</ele>
        <time>2021-04-23T10:32:04.000Z</time>
      </trkpt>
      <trkpt lat="49.14167" lon="1.20956">
        <ele>144.80000305176</ele>
        <time>2021-04-23T10:32:07.000Z</time>
      </trkpt>
      <trkpt lat="49.14194" lon="1.20946">
        <ele>145</ele>
        <time>2021-04-23T10:32:13.000Z</time>
      </trkpt>
      <trkpt lat="49.14216" lon="1.20948">
        <ele>145</ele>
        <time>2021-04-23T10:32:17.000Z</time>
      </trkpt>
      <trkpt lat="49.14222" lon="1.2095">
        <ele>145</ele>
        <time>2021-04-23T10:32:18.000Z</time>
      </trkpt>
      <trkpt lat="49.14234" lon="1.20951">
        <ele>145</ele>
        <time>2021-04-23T10:32:20.000Z</time>
      </trkpt>
      <trkpt lat="49.14247" lon="1.20948">
        <ele>145</ele>
        <time>2021-04-23T10:32:22.000Z</time>
      </trkpt>
      <trkpt lat="49.14259" lon="1.20947">
        <ele>145</ele>
        <time>2021-04-23T10:32:24.000Z</time>
      </trkpt>
      <trkpt lat="49.14271" lon="1.2095">
        <ele>144.60000610352</ele>
        <time>2021-04-23T10:32:26.000Z</time>
      </trkpt>
      <trkpt lat="49.14291" lon="1.20967">
        <ele>144.19999694824</ele>
        <time>2021-04-23T10:32:30.000Z</time>
      </trkpt>
      <trkpt lat="49.14305" lon="1.20995">
        <ele>143.19999694824</ele>
        <time>2021-04-23T10:32:34.000Z</time>
      </trkpt>
      <trkpt lat="49.14308" lon="1.21003">
        <ele>142.80000305176</ele>
        <time>2021-04-23T10:32:35.000Z</time>
      </trkpt>
      <trkpt lat="49.14316" lon="1.21035">
        <ele>142</ele>
        <time>2021-04-23T10:32:39.000Z</time>
      </trkpt>
      <trkpt lat="49.14317" lon="1.21044">
        <ele>141.60000610352</ele>
        <time>2021-04-23T10:32:40.000Z</time>
      </trkpt>
      <trkpt lat="49.1432" lon="1.2106">
        <ele>141.19999694824</ele>
        <time>2021-04-23T10:32:42.000Z</time>
      </trkpt>
      <trkpt lat="49.14323" lon="1.21075">
        <ele>141</ele>
        <time>2021-04-23T10:32:44.000Z</time>
      </trkpt>
      <trkpt lat="49.14324" lon="1.21083">
        <ele>141</ele>
        <time>2021-04-23T10:32:45.000Z</time>
      </trkpt>
      <trkpt lat="49.14325" lon="1.21107">
        <ele>140.80000305176</ele>
        <time>2021-04-23T10:32:48.000Z</time>
      </trkpt>
      <trkpt lat="49.14326" lon="1.2113">
        <ele>140.80000305176</ele>
        <time>2021-04-23T10:32:51.000Z</time>
      </trkpt>
      <trkpt lat="49.14327" lon="1.21138">
        <ele>140.80000305176</ele>
        <time>2021-04-23T10:32:52.000Z</time>
      </trkpt>
      <trkpt lat="49.14338" lon="1.21151">
        <ele>141</ele>
        <time>2021-04-23T10:32:55.000Z</time>
      </trkpt>
      <trkpt lat="49.14349" lon="1.21141">
        <ele>141.19999694824</ele>
        <time>2021-04-23T10:32:58.000Z</time>
      </trkpt>
      <trkpt lat="49.14359" lon="1.21123">
        <ele>141.19999694824</ele>
        <time>2021-04-23T10:33:01.000Z</time>
      </trkpt>
      <trkpt lat="49.14364" lon="1.21117">
        <ele>141.19999694824</ele>
        <time>2021-04-23T10:33:02.000Z</time>
      </trkpt>
      <trkpt lat="49.14385" lon="1.21096">
        <ele>141.19999694824</ele>
        <time>2021-04-23T10:33:06.000Z</time>
      </trkpt>
      <trkpt lat="49.1439" lon="1.21089">
        <ele>141</ele>
        <time>2021-04-23T10:33:07.000Z</time>
      </trkpt>
      <trkpt lat="49.14419" lon="1.21053">
        <ele>140.60000610352</ele>
        <time>2021-04-23T10:33:12.000Z</time>
      </trkpt>
      <trkpt lat="49.14425" lon="1.21046">
        <ele>140.60000610352</ele>
        <time>2021-04-23T10:33:13.000Z</time>
      </trkpt>
      <trkpt lat="49.14444" lon="1.21027">
        <ele>140.39999389648</ele>
        <time>2021-04-23T10:33:16.000Z</time>
      </trkpt>
      <trkpt lat="49.14468" lon="1.21003">
        <ele>139.60000610352</ele>
        <time>2021-04-23T10:33:20.000Z</time>
      </trkpt>
      <trkpt lat="49.14474" lon="1.20996">
        <ele>139.60000610352</ele>
        <time>2021-04-23T10:33:21.000Z</time>
      </trkpt>
      <trkpt lat="49.14504" lon="1.20963">
        <ele>138.60000610352</ele>
        <time>2021-04-23T10:33:26.000Z</time>
      </trkpt>
      <trkpt lat="49.14511" lon="1.20958">
        <ele>138.60000610352</ele>
        <time>2021-04-23T10:33:27.000Z</time>
      </trkpt>
      <trkpt lat="49.1453" lon="1.20941">
        <ele>138.39999389648</ele>
        <time>2021-04-23T10:33:30.000Z</time>
      </trkpt>
      <trkpt lat="49.14541" lon="1.20927">
        <ele>138.19999694824</ele>
        <time>2021-04-23T10:33:32.000Z</time>
      </trkpt>
      <trkpt lat="49.14554" lon="1.20901">
        <ele>137.60000610352</ele>
        <time>2021-04-23T10:33:35.000Z</time>
      </trkpt>
      <trkpt lat="49.14557" lon="1.20892">
        <ele>137.39999389648</ele>
        <time>2021-04-23T10:33:36.000Z</time>
      </trkpt>
      <trkpt lat="49.14569" lon="1.20842">
        <ele>137</ele>
        <time>2021-04-23T10:33:41.000Z</time>
      </trkpt>
      <trkpt lat="49.14577" lon="1.20787">
        <ele>137</ele>
        <time>2021-04-23T10:33:46.000Z</time>
      </trkpt>
      <trkpt lat="49.14578" lon="1.20774">
        <ele>136.80000305176</ele>
        <time>2021-04-23T10:33:47.000Z</time>
      </trkpt>
      <trkpt lat="49.14576" lon="1.20737">
        <ele>136.80000305176</ele>
        <time>2021-04-23T10:33:50.000Z</time>
      </trkpt>
      <trkpt lat="49.14574" lon="1.2071">
        <ele>136.60000610352</ele>
        <time>2021-04-23T10:33:52.000Z</time>
      </trkpt>
      <trkpt lat="49.14575" lon="1.20697">
        <ele>136.39999389648</ele>
        <time>2021-04-23T10:33:53.000Z</time>
      </trkpt>
      <trkpt lat="49.14576" lon="1.20684">
        <ele>136.19999694824</ele>
        <time>2021-04-23T10:33:54.000Z</time>
      </trkpt>
      <trkpt lat="49.14579" lon="1.20636">
        <ele>135</ele>
        <time>2021-04-23T10:33:58.000Z</time>
      </trkpt>
      <trkpt lat="49.14579" lon="1.20624">
        <ele>134.60000610352</ele>
        <time>2021-04-23T10:33:59.000Z</time>
      </trkpt>
      <trkpt lat="49.1458" lon="1.20613">
        <ele>134.19999694824</ele>
        <time>2021-04-23T10:34:00.000Z</time>
      </trkpt>
      <trkpt lat="49.14581" lon="1.20603">
        <ele>133.80000305176</ele>
        <time>2021-04-23T10:34:01.000Z</time>
      </trkpt>
      <trkpt lat="49.14584" lon="1.20586">
        <ele>133.39999389648</ele>
        <time>2021-04-23T10:34:03.000Z</time>
      </trkpt>
      <trkpt lat="49.14586" lon="1.20578">
        <ele>133.19999694824</ele>
        <time>2021-04-23T10:34:04.000Z</time>
      </trkpt>
      <trkpt lat="49.14595" lon="1.20555">
        <ele>133.19999694824</ele>
        <time>2021-04-23T10:34:07.000Z</time>
      </trkpt>
      <trkpt lat="49.14604" lon="1.20544">
        <ele>133.19999694824</ele>
        <time>2021-04-23T10:34:09.000Z</time>
      </trkpt>
      <trkpt lat="49.14627" lon="1.20514">
        <ele>133.80000305176</ele>
        <time>2021-04-23T10:34:14.000Z</time>
      </trkpt>
      <trkpt lat="49.14639" lon="1.20483">
        <ele>135</ele>
        <time>2021-04-23T10:34:18.000Z</time>
      </trkpt>
      <trkpt lat="49.14642" lon="1.20475">
        <ele>135.19999694824</ele>
        <time>2021-04-23T10:34:19.000Z</time>
      </trkpt>
      <trkpt lat="49.1465" lon="1.20436">
        <ele>135.60000610352</ele>
        <time>2021-04-23T10:34:24.000Z</time>
      </trkpt>
      <trkpt lat="49.14652" lon="1.20421">
        <ele>135.80000305176</ele>
        <time>2021-04-23T10:34:26.000Z</time>
      </trkpt>
      <trkpt lat="49.14657" lon="1.20406">
        <ele>135.80000305176</ele>
        <time>2021-04-23T10:34:28.000Z</time>
      </trkpt>
      <trkpt lat="49.14663" lon="1.20386">
        <ele>135.80000305176</ele>
        <time>2021-04-23T10:34:31.000Z</time>
      </trkpt>
      <trkpt lat="49.14665" lon="1.20379">
        <ele>136.19999694824</ele>
        <time>2021-04-23T10:34:32.000Z</time>
      </trkpt>
      <trkpt lat="49.14668" lon="1.20373">
        <ele>136.39999389648</ele>
        <time>2021-04-23T10:34:33.000Z</time>
      </trkpt>
      <trkpt lat="49.14674" lon="1.20353">
        <ele>137</ele>
        <time>2021-04-23T10:34:36.000Z</time>
      </trkpt>
      <trkpt lat="49.14682" lon="1.20333">
        <ele>137.19999694824</ele>
        <time>2021-04-23T10:34:39.000Z</time>
      </trkpt>
      <trkpt lat="49.14694" lon="1.20307">
        <ele>138</ele>
        <time>2021-04-23T10:34:43.000Z</time>
      </trkpt>
      <trkpt lat="49.14704" lon="1.2029">
        <ele>138.19999694824</ele>
        <time>2021-04-23T10:34:46.000Z</time>
      </trkpt>
      <trkpt lat="49.1471" lon="1.2028">
        <ele>138.39999389648</ele>
        <time>2021-04-23T10:34:48.000Z</time>
      </trkpt>
      <trkpt lat="49.14718" lon="1.20266">
        <ele>138.39999389648</ele>
        <time>2021-04-23T10:34:50.000Z</time>
      </trkpt>
      <trkpt lat="49.14742" lon="1.20227">
        <ele>138.39999389648</ele>
        <time>2021-04-23T10:34:56.000Z</time>
      </trkpt>
      <trkpt lat="49.14762" lon="1.20197">
        <ele>137.80000305176</ele>
        <time>2021-04-23T10:35:01.000Z</time>
      </trkpt>
      <trkpt lat="49.14787" lon="1.20165">
        <ele>137</ele>
        <time>2021-04-23T10:35:06.000Z</time>
      </trkpt>
      <trkpt lat="49.14803" lon="1.20144">
        <ele>136.60000610352</ele>
        <time>2021-04-23T10:35:09.000Z</time>
      </trkpt>
      <trkpt lat="49.14813" lon="1.20128">
        <ele>136.39999389648</ele>
        <time>2021-04-23T10:35:11.000Z</time>
      </trkpt>
      <trkpt lat="49.14824" lon="1.20111">
        <ele>135.80000305176</ele>
        <time>2021-04-23T10:35:13.000Z</time>
      </trkpt>
      <trkpt lat="49.14839" lon="1.20089">
        <ele>134.80000305176</ele>
        <time>2021-04-23T10:35:16.000Z</time>
      </trkpt>
      <trkpt lat="49.14845" lon="1.20082">
        <ele>134.60000610352</ele>
        <time>2021-04-23T10:35:17.000Z</time>
      </trkpt>
      <trkpt lat="49.14861" lon="1.20066">
        <ele>133.39999389648</ele>
        <time>2021-04-23T10:35:20.000Z</time>
      </trkpt>
      <trkpt lat="49.14878" lon="1.20049">
        <ele>132.39999389648</ele>
        <time>2021-04-23T10:35:23.000Z</time>
      </trkpt>
      <trkpt lat="49.14889" lon="1.20038">
        <ele>131.39999389648</ele>
        <time>2021-04-23T10:35:25.000Z</time>
      </trkpt>
      <trkpt lat="49.14894" lon="1.20033">
        <ele>131.19999694824</ele>
        <time>2021-04-23T10:35:26.000Z</time>
      </trkpt>
      <trkpt lat="49.14913" lon="1.20013">
        <ele>130.80000305176</ele>
        <time>2021-04-23T10:35:30.000Z</time>
      </trkpt>
      <trkpt lat="49.14943" lon="1.19987">
        <ele>131</ele>
        <time>2021-04-23T10:35:36.000Z</time>
      </trkpt>
      <trkpt lat="49.14974" lon="1.19961">
        <ele>131.19999694824</ele>
        <time>2021-04-23T10:35:42.000Z</time>
      </trkpt>
      <trkpt lat="49.15001" lon="1.19932">
        <ele>131.60000610352</ele>
        <time>2021-04-23T10:35:48.000Z</time>
      </trkpt>
      <trkpt lat="49.15027" lon="1.19908">
        <ele>131.80000305176</ele>
        <time>2021-04-23T10:35:54.000Z</time>
      </trkpt>
      <trkpt lat="49.15031" lon="1.19903">
        <ele>131.80000305176</ele>
        <time>2021-04-23T10:35:55.000Z</time>
      </trkpt>
      <trkpt lat="49.1505" lon="1.19883">
        <ele>132</ele>
        <time>2021-04-23T10:35:59.000Z</time>
      </trkpt>
      <trkpt lat="49.15055" lon="1.19879">
        <ele>132.19999694824</ele>
        <time>2021-04-23T10:36:00.000Z</time>
      </trkpt>
      <trkpt lat="49.15061" lon="1.19876">
        <ele>132.39999389648</ele>
        <time>2021-04-23T10:36:01.000Z</time>
      </trkpt>
      <trkpt lat="49.15071" lon="1.1987">
        <ele>132.60000610352</ele>
        <time>2021-04-23T10:36:03.000Z</time>
      </trkpt>
      <trkpt lat="49.1509" lon="1.19862">
        <ele>132.60000610352</ele>
        <time>2021-04-23T10:36:07.000Z</time>
      </trkpt>
      <trkpt lat="49.151" lon="1.19857">
        <ele>132.80000305176</ele>
        <time>2021-04-23T10:36:09.000Z</time>
      </trkpt>
      <trkpt lat="49.15114" lon="1.19847">
        <ele>132.80000305176</ele>
        <time>2021-04-23T10:36:12.000Z</time>
      </trkpt>
      <trkpt lat="49.15135" lon="1.19828">
        <ele>133</ele>
        <time>2021-04-23T10:36:17.000Z</time>
      </trkpt>
      <trkpt lat="49.15139" lon="1.19825">
        <ele>133</ele>
        <time>2021-04-23T10:36:18.000Z</time>
      </trkpt>
      <trkpt lat="49.15143" lon="1.19822">
        <ele>133</ele>
        <time>2021-04-23T10:36:19.000Z</time>
      </trkpt>
      <trkpt lat="49.15158" lon="1.19812">
        <ele>133.39999389648</ele>
        <time>2021-04-23T10:36:23.000Z</time>
      </trkpt>
      <trkpt lat="49.15179" lon="1.19803">
        <ele>134.19999694824</ele>
        <time>2021-04-23T10:36:28.000Z</time>
      </trkpt>
      <trkpt lat="49.15196" lon="1.19798">
        <ele>135.19999694824</ele>
        <time>2021-04-23T10:36:32.000Z</time>
      </trkpt>
      <trkpt lat="49.152" lon="1.19798">
        <ele>135.39999389648</ele>
        <time>2021-04-23T10:36:33.000Z</time>
      </trkpt>
      <trkpt lat="49.15228" lon="1.19798">
        <ele>135.80000305176</ele>
        <time>2021-04-23T10:36:39.000Z</time>
      </trkpt>
      <trkpt lat="49.15233" lon="1.19798">
        <ele>135.80000305176</ele>
        <time>2021-04-23T10:36:40.000Z</time>
      </trkpt>
      <trkpt lat="49.1526" lon="1.19798">
        <ele>135.80000305176</ele>
        <time>2021-04-23T10:36:45.000Z</time>
      </trkpt>
      <trkpt lat="49.15276" lon="1.19796">
        <ele>135.60000610352</ele>
        <time>2021-04-23T10:36:48.000Z</time>
      </trkpt>
      <trkpt lat="49.15282" lon="1.19793">
        <ele>135.60000610352</ele>
        <time>2021-04-23T10:36:49.000Z</time>
      </trkpt>
      <trkpt lat="49.15315" lon="1.19783">
        <ele>135.60000610352</ele>
        <time>2021-04-23T10:36:55.000Z</time>
      </trkpt>
      <trkpt lat="49.15343" lon="1.19771">
        <ele>135.39999389648</ele>
        <time>2021-04-23T10:37:00.000Z</time>
      </trkpt>
      <trkpt lat="49.15375" lon="1.19759">
        <ele>135</ele>
        <time>2021-04-23T10:37:06.000Z</time>
      </trkpt>
      <trkpt lat="49.15415" lon="1.1975">
        <ele>134.39999389648</ele>
        <time>2021-04-23T10:37:13.000Z</time>
      </trkpt>
      <trkpt lat="49.15439" lon="1.19745">
        <ele>133.80000305176</ele>
        <time>2021-04-23T10:37:18.000Z</time>
      </trkpt>
      <trkpt lat="49.15444" lon="1.19743">
        <ele>133.60000610352</ele>
        <time>2021-04-23T10:37:19.000Z</time>
      </trkpt>
      <trkpt lat="49.15449" lon="1.19741">
        <ele>133.39999389648</ele>
        <time>2021-04-23T10:37:20.000Z</time>
      </trkpt>
      <trkpt lat="49.15465" lon="1.19731">
        <ele>132.80000305176</ele>
        <time>2021-04-23T10:37:23.000Z</time>
      </trkpt>
      <trkpt lat="49.1547" lon="1.1973">
        <ele>132.60000610352</ele>
        <time>2021-04-23T10:37:24.000Z</time>
      </trkpt>
      <trkpt lat="49.15498" lon="1.19726">
        <ele>132</ele>
        <time>2021-04-23T10:37:29.000Z</time>
      </trkpt>
      <trkpt lat="49.15503" lon="1.19724">
        <ele>131.60000610352</ele>
        <time>2021-04-23T10:37:30.000Z</time>
      </trkpt>
      <trkpt lat="49.15514" lon="1.19721">
        <ele>131.39999389648</ele>
        <time>2021-04-23T10:37:32.000Z</time>
      </trkpt>
      <trkpt lat="49.15519" lon="1.1972">
        <ele>131</ele>
        <time>2021-04-23T10:37:33.000Z</time>
      </trkpt>
      <trkpt lat="49.1553" lon="1.19718">
        <ele>130.39999389648</ele>
        <time>2021-04-23T10:37:35.000Z</time>
      </trkpt>
      <trkpt lat="49.1554" lon="1.19714">
        <ele>130</ele>
        <time>2021-04-23T10:37:37.000Z</time>
      </trkpt>
      <trkpt lat="49.15544" lon="1.19711">
        <ele>129.60000610352</ele>
        <time>2021-04-23T10:37:38.000Z</time>
      </trkpt>
      <trkpt lat="49.15549" lon="1.19707">
        <ele>129.39999389648</ele>
        <time>2021-04-23T10:37:39.000Z</time>
      </trkpt>
      <trkpt lat="49.1557" lon="1.19688">
        <ele>128.80000305176</ele>
        <time>2021-04-23T10:37:44.000Z</time>
      </trkpt>
      <trkpt lat="49.15574" lon="1.19686">
        <ele>128.80000305176</ele>
        <time>2021-04-23T10:37:45.000Z</time>
      </trkpt>
      <trkpt lat="49.15591" lon="1.19677">
        <ele>128.60000610352</ele>
        <time>2021-04-23T10:37:48.000Z</time>
      </trkpt>
      <trkpt lat="49.15605" lon="1.1967">
        <ele>128</ele>
        <time>2021-04-23T10:37:50.000Z</time>
      </trkpt>
      <trkpt lat="49.15634" lon="1.19657">
        <ele>127.19999694824</ele>
        <time>2021-04-23T10:37:54.000Z</time>
      </trkpt>
      <trkpt lat="49.15642" lon="1.19654">
        <ele>127</ele>
        <time>2021-04-23T10:37:55.000Z</time>
      </trkpt>
      <trkpt lat="49.15658" lon="1.19646">
        <ele>125.80000305176</ele>
        <time>2021-04-23T10:37:57.000Z</time>
      </trkpt>
      <trkpt lat="49.15666" lon="1.19641">
        <ele>125</ele>
        <time>2021-04-23T10:37:58.000Z</time>
      </trkpt>
      <trkpt lat="49.15673" lon="1.19635">
        <ele>124.40000152588</ele>
        <time>2021-04-23T10:37:59.000Z</time>
      </trkpt>
      <trkpt lat="49.15688" lon="1.19622">
        <ele>123</ele>
        <time>2021-04-23T10:38:01.000Z</time>
      </trkpt>
      <trkpt lat="49.15698" lon="1.19611">
        <ele>121.59999847412</ele>
        <time>2021-04-23T10:38:03.000Z</time>
      </trkpt>
      <trkpt lat="49.15699" lon="1.19608">
        <ele>121.19999694824</ele>
        <time>2021-04-23T10:38:04.000Z</time>
      </trkpt>
      <trkpt lat="49.157" lon="1.19607">
        <ele>120.59999847412</ele>
        <time>2021-04-23T10:38:05.000Z</time>
      </trkpt>
      <trkpt lat="49.157" lon="1.19606">
        <ele>120.19999694824</ele>
        <time>2021-04-23T10:38:06.000Z</time>
      </trkpt>
      <trkpt lat="49.157" lon="1.19605">
        <ele>120</ele>
        <time>2021-04-23T10:38:07.000Z</time>
      </trkpt>
      <trkpt lat="49.15705" lon="1.19592">
        <ele>121.19999694824</ele>
        <time>2021-04-23T10:57:27.000Z</time>
      </trkpt>
      <trkpt lat="49.15708" lon="1.1959">
        <ele>121.19999694824</ele>
        <time>2021-04-23T10:57:29.000Z</time>
      </trkpt>
      <trkpt lat="49.15718" lon="1.19579">
        <ele>121.40000152588</ele>
        <time>2021-04-23T10:57:34.000Z</time>
      </trkpt>
      <trkpt lat="49.15734" lon="1.19564">
        <ele>121.80000305176</ele>
        <time>2021-04-23T10:57:40.000Z</time>
      </trkpt>
      <trkpt lat="49.15742" lon="1.19559">
        <ele>121.80000305176</ele>
        <time>2021-04-23T10:57:42.000Z</time>
      </trkpt>
      <trkpt lat="49.15751" lon="1.19557">
        <ele>122</ele>
        <time>2021-04-23T10:57:44.000Z</time>
      </trkpt>
      <trkpt lat="49.15771" lon="1.19558">
        <ele>122.19999694824</ele>
        <time>2021-04-23T10:57:49.000Z</time>
      </trkpt>
      <trkpt lat="49.15788" lon="1.19561">
        <ele>122.40000152588</ele>
        <time>2021-04-23T10:57:53.000Z</time>
      </trkpt>
      <trkpt lat="49.15811" lon="1.19559">
        <ele>122.80000305176</ele>
        <time>2021-04-23T10:57:58.000Z</time>
      </trkpt>
      <trkpt lat="49.1582" lon="1.19561">
        <ele>123</ele>
        <time>2021-04-23T10:58:00.000Z</time>
      </trkpt>
      <trkpt lat="49.15831" lon="1.19564">
        <ele>123</ele>
        <time>2021-04-23T10:58:02.000Z</time>
      </trkpt>
      <trkpt lat="49.15836" lon="1.19564">
        <ele>123</ele>
        <time>2021-04-23T10:58:03.000Z</time>
      </trkpt>
      <trkpt lat="49.1585" lon="1.19564">
        <ele>123</ele>
        <time>2021-04-23T10:58:06.000Z</time>
      </trkpt>
      <trkpt lat="49.15867" lon="1.19566">
        <ele>122.80000305176</ele>
        <time>2021-04-23T10:58:10.000Z</time>
      </trkpt>
      <trkpt lat="49.15902" lon="1.19572">
        <ele>122.40000152588</ele>
        <time>2021-04-23T10:58:17.000Z</time>
      </trkpt>
      <trkpt lat="49.15919" lon="1.19573">
        <ele>122</ele>
        <time>2021-04-23T10:58:20.000Z</time>
      </trkpt>
      <trkpt lat="49.15929" lon="1.19575">
        <ele>122</ele>
        <time>2021-04-23T10:58:22.000Z</time>
      </trkpt>
      <trkpt lat="49.15957" lon="1.19583">
        <ele>121.59999847412</ele>
        <time>2021-04-23T10:58:27.000Z</time>
      </trkpt>
      <trkpt lat="49.15979" lon="1.19579">
        <ele>121.40000152588</ele>
        <time>2021-04-23T10:58:31.000Z</time>
      </trkpt>
      <trkpt lat="49.15984" lon="1.19576">
        <ele>121.19999694824</ele>
        <time>2021-04-23T10:58:32.000Z</time>
      </trkpt>
      <trkpt lat="49.1601" lon="1.19559">
        <ele>120.40000152588</ele>
        <time>2021-04-23T10:58:37.000Z</time>
      </trkpt>
      <trkpt lat="49.16026" lon="1.19548">
        <ele>120.19999694824</ele>
        <time>2021-04-23T10:58:40.000Z</time>
      </trkpt>
      <trkpt lat="49.16032" lon="1.19546">
        <ele>120.19999694824</ele>
        <time>2021-04-23T10:58:41.000Z</time>
      </trkpt>
      <trkpt lat="49.16058" lon="1.19533">
        <ele>119.80000305176</ele>
        <time>2021-04-23T10:58:45.000Z</time>
      </trkpt>
      <trkpt lat="49.16097" lon="1.19506">
        <ele>119</ele>
        <time>2021-04-23T10:58:51.000Z</time>
      </trkpt>
      <trkpt lat="49.16103" lon="1.19502">
        <ele>118.59999847412</ele>
        <time>2021-04-23T10:58:52.000Z</time>
      </trkpt>
      <trkpt lat="49.16108" lon="1.19497">
        <ele>118.40000152588</ele>
        <time>2021-04-23T10:58:53.000Z</time>
      </trkpt>
      <trkpt lat="49.16118" lon="1.19487">
        <ele>117.80000305176</ele>
        <time>2021-04-23T10:58:55.000Z</time>
      </trkpt>
      <trkpt lat="49.16124" lon="1.19482">
        <ele>117.40000152588</ele>
        <time>2021-04-23T10:58:56.000Z</time>
      </trkpt>
      <trkpt lat="49.16133" lon="1.19473">
        <ele>116.40000152588</ele>
        <time>2021-04-23T10:58:58.000Z</time>
      </trkpt>
      <trkpt lat="49.1615" lon="1.19459">
        <ele>115</ele>
        <time>2021-04-23T10:59:01.000Z</time>
      </trkpt>
      <trkpt lat="49.16155" lon="1.19455">
        <ele>114.80000305176</ele>
        <time>2021-04-23T10:59:02.000Z</time>
      </trkpt>
      <trkpt lat="49.16171" lon="1.19443">
        <ele>113.40000152588</ele>
        <time>2021-04-23T10:59:05.000Z</time>
      </trkpt>
      <trkpt lat="49.16176" lon="1.1944">
        <ele>112.40000152588</ele>
        <time>2021-04-23T10:59:06.000Z</time>
      </trkpt>
      <trkpt lat="49.1618" lon="1.19438">
        <ele>111.59999847412</ele>
        <time>2021-04-23T10:59:07.000Z</time>
      </trkpt>
      <trkpt lat="49.1619" lon="1.19431">
        <ele>110</ele>
        <time>2021-04-23T10:59:09.000Z</time>
      </trkpt>
      <trkpt lat="49.16196" lon="1.19428">
        <ele>109</ele>
        <time>2021-04-23T10:59:10.000Z</time>
      </trkpt>
      <trkpt lat="49.16201" lon="1.19427">
        <ele>108.19999694824</ele>
        <time>2021-04-23T10:59:11.000Z</time>
      </trkpt>
      <trkpt lat="49.16206" lon="1.19425">
        <ele>107</ele>
        <time>2021-04-23T10:59:12.000Z</time>
      </trkpt>
      <trkpt lat="49.16218" lon="1.19421">
        <ele>105.19999694824</ele>
        <time>2021-04-23T10:59:14.000Z</time>
      </trkpt>
      <trkpt lat="49.16223" lon="1.19417">
        <ele>104.19999694824</ele>
        <time>2021-04-23T10:59:15.000Z</time>
      </trkpt>
      <trkpt lat="49.16234" lon="1.19411">
        <ele>102.40000152588</ele>
        <time>2021-04-23T10:59:17.000Z</time>
      </trkpt>
      <trkpt lat="49.16239" lon="1.19409">
        <ele>101.40000152588</ele>
        <time>2021-04-23T10:59:18.000Z</time>
      </trkpt>
      <trkpt lat="49.16249" lon="1.19405">
        <ele>99.400001525879</ele>
        <time>2021-04-23T10:59:20.000Z</time>
      </trkpt>
      <trkpt lat="49.16254" lon="1.19403">
        <ele>98</ele>
        <time>2021-04-23T10:59:21.000Z</time>
      </trkpt>
      <trkpt lat="49.1626" lon="1.19401">
        <ele>96.800003051758</ele>
        <time>2021-04-23T10:59:22.000Z</time>
      </trkpt>
      <trkpt lat="49.16265" lon="1.19398">
        <ele>95.800003051758</ele>
        <time>2021-04-23T10:59:23.000Z</time>
      </trkpt>
      <trkpt lat="49.16271" lon="1.19396">
        <ele>94.599998474121</ele>
        <time>2021-04-23T10:59:24.000Z</time>
      </trkpt>
      <trkpt lat="49.16277" lon="1.19393">
        <ele>93.599998474121</ele>
        <time>2021-04-23T10:59:25.000Z</time>
      </trkpt>
      <trkpt lat="49.16283" lon="1.1939">
        <ele>92.599998474121</ele>
        <time>2021-04-23T10:59:26.000Z</time>
      </trkpt>
      <trkpt lat="49.1629" lon="1.19387">
        <ele>91.400001525879</ele>
        <time>2021-04-23T10:59:27.000Z</time>
      </trkpt>
      <trkpt lat="49.16301" lon="1.19382">
        <ele>89.400001525879</ele>
        <time>2021-04-23T10:59:29.000Z</time>
      </trkpt>
      <trkpt lat="49.16307" lon="1.1938">
        <ele>88.400001525879</ele>
        <time>2021-04-23T10:59:30.000Z</time>
      </trkpt>
      <trkpt lat="49.16314" lon="1.19378">
        <ele>87.400001525879</ele>
        <time>2021-04-23T10:59:31.000Z</time>
      </trkpt>
      <trkpt lat="49.16327" lon="1.19373">
        <ele>84.199996948242</ele>
        <time>2021-04-23T10:59:33.000Z</time>
      </trkpt>
      <trkpt lat="49.16334" lon="1.19371">
        <ele>83.199996948242</ele>
        <time>2021-04-23T10:59:34.000Z</time>
      </trkpt>
      <trkpt lat="49.16341" lon="1.19369">
        <ele>81.599998474121</ele>
        <time>2021-04-23T10:59:35.000Z</time>
      </trkpt>
      <trkpt lat="49.16348" lon="1.19366">
        <ele>80.800003051758</ele>
        <time>2021-04-23T10:59:36.000Z</time>
      </trkpt>
      <trkpt lat="49.16355" lon="1.19365">
        <ele>79.800003051758</ele>
        <time>2021-04-23T10:59:37.000Z</time>
      </trkpt>
      <trkpt lat="49.16362" lon="1.19365">
        <ele>78.800003051758</ele>
        <time>2021-04-23T10:59:38.000Z</time>
      </trkpt>
      <trkpt lat="49.16376" lon="1.19362">
        <ele>77</ele>
        <time>2021-04-23T10:59:40.000Z</time>
      </trkpt>
      <trkpt lat="49.16383" lon="1.1936">
        <ele>76.199996948242</ele>
        <time>2021-04-23T10:59:41.000Z</time>
      </trkpt>
      <trkpt lat="49.1639" lon="1.19355">
        <ele>75.199996948242</ele>
        <time>2021-04-23T10:59:42.000Z</time>
      </trkpt>
      <trkpt lat="49.16405" lon="1.19347">
        <ele>73.599998474121</ele>
        <time>2021-04-23T10:59:44.000Z</time>
      </trkpt>
      <trkpt lat="49.16419" lon="1.19342">
        <ele>72.400001525879</ele>
        <time>2021-04-23T10:59:46.000Z</time>
      </trkpt>
      <trkpt lat="49.1643" lon="1.19336">
        <ele>71.199996948242</ele>
        <time>2021-04-23T10:59:48.000Z</time>
      </trkpt>
      <trkpt lat="49.16436" lon="1.19333">
        <ele>70.199996948242</ele>
        <time>2021-04-23T10:59:49.000Z</time>
      </trkpt>
      <trkpt lat="49.16441" lon="1.19329">
        <ele>69.400001525879</ele>
        <time>2021-04-23T10:59:50.000Z</time>
      </trkpt>
      <trkpt lat="49.1645" lon="1.19323">
        <ele>67.800003051758</ele>
        <time>2021-04-23T10:59:52.000Z</time>
      </trkpt>
      <trkpt lat="49.16455" lon="1.19321">
        <ele>67.599998474121</ele>
        <time>2021-04-23T10:59:53.000Z</time>
      </trkpt>
      <trkpt lat="49.16463" lon="1.19318">
        <ele>67.199996948242</ele>
        <time>2021-04-23T10:59:55.000Z</time>
      </trkpt>
      <trkpt lat="49.16473" lon="1.19316">
        <ele>67.199996948242</ele>
        <time>2021-04-23T10:59:58.000Z</time>
      </trkpt>
      <trkpt lat="49.16485" lon="1.19315">
        <ele>67.599998474121</ele>
        <time>2021-04-23T11:00:02.000Z</time>
      </trkpt>
      <trkpt lat="49.165" lon="1.1932">
        <ele>69</ele>
        <time>2021-04-23T11:00:07.000Z</time>
      </trkpt>
      <trkpt lat="49.16502" lon="1.19323">
        <ele>69.199996948242</ele>
        <time>2021-04-23T11:00:08.000Z</time>
      </trkpt>
      <trkpt lat="49.1651" lon="1.19335">
        <ele>70</ele>
        <time>2021-04-23T11:00:11.000Z</time>
      </trkpt>
      <trkpt lat="49.16516" lon="1.19344">
        <ele>70.400001525879</ele>
        <time>2021-04-23T11:00:13.000Z</time>
      </trkpt>
      <trkpt lat="49.16523" lon="1.19354">
        <ele>71</ele>
        <time>2021-04-23T11:00:15.000Z</time>
      </trkpt>
      <trkpt lat="49.16528" lon="1.1936">
        <ele>71.199996948242</ele>
        <time>2021-04-23T11:00:16.000Z</time>
      </trkpt>
      <trkpt lat="49.16533" lon="1.19366">
        <ele>71.199996948242</ele>
        <time>2021-04-23T11:00:17.000Z</time>
      </trkpt>
      <trkpt lat="49.16545" lon="1.19378">
        <ele>71.400001525879</ele>
        <time>2021-04-23T11:00:19.000Z</time>
      </trkpt>
      <trkpt lat="49.16557" lon="1.19389">
        <ele>71.400001525879</ele>
        <time>2021-04-23T11:00:21.000Z</time>
      </trkpt>
      <trkpt lat="49.16581" lon="1.19409">
        <ele>71</ele>
        <time>2021-04-23T11:00:25.000Z</time>
      </trkpt>
      <trkpt lat="49.16587" lon="1.19414">
        <ele>70.400001525879</ele>
        <time>2021-04-23T11:00:26.000Z</time>
      </trkpt>
      <trkpt lat="49.16592" lon="1.19421">
        <ele>69.400001525879</ele>
        <time>2021-04-23T11:00:27.000Z</time>
      </trkpt>
      <trkpt lat="49.16597" lon="1.19429">
        <ele>68.400001525879</ele>
        <time>2021-04-23T11:00:28.000Z</time>
      </trkpt>
      <trkpt lat="49.16602" lon="1.19439">
        <ele>67.199996948242</ele>
        <time>2021-04-23T11:00:29.000Z</time>
      </trkpt>
      <trkpt lat="49.16605" lon="1.19449">
        <ele>64.800003051758</ele>
        <time>2021-04-23T11:00:30.000Z</time>
      </trkpt>
      <trkpt lat="49.16608" lon="1.19459">
        <ele>63.599998474121</ele>
        <time>2021-04-23T11:00:31.000Z</time>
      </trkpt>
      <trkpt lat="49.16611" lon="1.19469">
        <ele>62.400001525879</ele>
        <time>2021-04-23T11:00:32.000Z</time>
      </trkpt>
      <trkpt lat="49.16613" lon="1.19479">
        <ele>61.400001525879</ele>
        <time>2021-04-23T11:00:33.000Z</time>
      </trkpt>
      <trkpt lat="49.16616" lon="1.19489">
        <ele>60.400001525879</ele>
        <time>2021-04-23T11:00:34.000Z</time>
      </trkpt>
      <trkpt lat="49.16618" lon="1.19499">
        <ele>58.799999237061</ele>
        <time>2021-04-23T11:00:35.000Z</time>
      </trkpt>
      <trkpt lat="49.1662" lon="1.19508">
        <ele>57.400001525879</ele>
        <time>2021-04-23T11:00:36.000Z</time>
      </trkpt>
      <trkpt lat="49.16622" lon="1.19516">
        <ele>56</ele>
        <time>2021-04-23T11:00:37.000Z</time>
      </trkpt>
      <trkpt lat="49.16624" lon="1.19524">
        <ele>54.799999237061</ele>
        <time>2021-04-23T11:00:38.000Z</time>
      </trkpt>
      <trkpt lat="49.16628" lon="1.19532">
        <ele>53.799999237061</ele>
        <time>2021-04-23T11:00:39.000Z</time>
      </trkpt>
      <trkpt lat="49.16632" lon="1.1954">
        <ele>52.599998474121</ele>
        <time>2021-04-23T11:00:40.000Z</time>
      </trkpt>
      <trkpt lat="49.16636" lon="1.19548">
        <ele>51.400001525879</ele>
        <time>2021-04-23T11:00:41.000Z</time>
      </trkpt>
      <trkpt lat="49.1664" lon="1.19555">
        <ele>50.200000762939</ele>
        <time>2021-04-23T11:00:42.000Z</time>
      </trkpt>
      <trkpt lat="49.16644" lon="1.19562">
        <ele>49.200000762939</ele>
        <time>2021-04-23T11:00:43.000Z</time>
      </trkpt>
      <trkpt lat="49.16651" lon="1.19573">
        <ele>47.400001525879</ele>
        <time>2021-04-23T11:00:45.000Z</time>
      </trkpt>
      <trkpt lat="49.16655" lon="1.19578">
        <ele>46.799999237061</ele>
        <time>2021-04-23T11:00:46.000Z</time>
      </trkpt>
      <trkpt lat="49.16659" lon="1.19582">
        <ele>46.400001525879</ele>
        <time>2021-04-23T11:00:47.000Z</time>
      </trkpt>
      <trkpt lat="49.16667" lon="1.19586">
        <ele>45.200000762939</ele>
        <time>2021-04-23T11:00:49.000Z</time>
      </trkpt>
      <trkpt lat="49.16671" lon="1.19587">
        <ele>44.799999237061</ele>
        <time>2021-04-23T11:00:50.000Z</time>
      </trkpt>
      <trkpt lat="49.16675" lon="1.19588">
        <ele>44</ele>
        <time>2021-04-23T11:00:51.000Z</time>
      </trkpt>
      <trkpt lat="49.16687" lon="1.19581">
        <ele>42.799999237061</ele>
        <time>2021-04-23T11:00:54.000Z</time>
      </trkpt>
      <trkpt lat="49.16694" lon="1.1957">
        <ele>42.200000762939</ele>
        <time>2021-04-23T11:00:56.000Z</time>
      </trkpt>
      <trkpt lat="49.16698" lon="1.19564">
        <ele>42.200000762939</ele>
        <time>2021-04-23T11:00:57.000Z</time>
      </trkpt>
      <trkpt lat="49.167" lon="1.19557">
        <ele>42</ele>
        <time>2021-04-23T11:00:58.000Z</time>
      </trkpt>
      <trkpt lat="49.16705" lon="1.19528">
        <ele>41.599998474121</ele>
        <time>2021-04-23T11:01:01.000Z</time>
      </trkpt>
      <trkpt lat="49.16707" lon="1.19516">
        <ele>41.400001525879</ele>
        <time>2021-04-23T11:01:02.000Z</time>
      </trkpt>
      <trkpt lat="49.1671" lon="1.19505">
        <ele>41.400001525879</ele>
        <time>2021-04-23T11:01:03.000Z</time>
      </trkpt>
      <trkpt lat="49.16718" lon="1.19472">
        <ele>40.400001525879</ele>
        <time>2021-04-23T11:01:06.000Z</time>
      </trkpt>
      <trkpt lat="49.16718" lon="1.19442">
        <ele>38.799999237061</ele>
        <time>2021-04-23T11:01:09.000Z</time>
      </trkpt>
      <trkpt lat="49.16717" lon="1.19423">
        <ele>37.400001525879</ele>
        <time>2021-04-23T11:01:11.000Z</time>
      </trkpt>
      <trkpt lat="49.16716" lon="1.19403">
        <ele>36.400001525879</ele>
        <time>2021-04-23T11:01:13.000Z</time>
      </trkpt>
      <trkpt lat="49.16716" lon="1.19392">
        <ele>36</ele>
        <time>2021-04-23T11:01:14.000Z</time>
      </trkpt>
      <trkpt lat="49.16716" lon="1.19371">
        <ele>35</ele>
        <time>2021-04-23T11:01:16.000Z</time>
      </trkpt>
      <trkpt lat="49.16712" lon="1.19327">
        <ele>34.200000762939</ele>
        <time>2021-04-23T11:01:20.000Z</time>
      </trkpt>
      <trkpt lat="49.16709" lon="1.19292">
        <ele>33.799999237061</ele>
        <time>2021-04-23T11:01:23.000Z</time>
      </trkpt>
      <trkpt lat="49.16708" lon="1.19244">
        <ele>32.599998474121</ele>
        <time>2021-04-23T11:01:27.000Z</time>
      </trkpt>
      <trkpt lat="49.16708" lon="1.19184">
        <ele>31.39999961853</ele>
        <time>2021-04-23T11:01:32.000Z</time>
      </trkpt>
      <trkpt lat="49.16707" lon="1.19175">
        <ele>31.200000762939</ele>
        <time>2021-04-23T11:01:33.000Z</time>
      </trkpt>
      <trkpt lat="49.16707" lon="1.19167">
        <ele>30.799999237061</ele>
        <time>2021-04-23T11:01:34.000Z</time>
      </trkpt>
      <trkpt lat="49.16711" lon="1.19159">
        <ele>30.200000762939</ele>
        <time>2021-04-23T11:01:36.000Z</time>
      </trkpt>
      <trkpt lat="49.16717" lon="1.19157">
        <ele>29.39999961853</ele>
        <time>2021-04-23T11:01:38.000Z</time>
      </trkpt>
      <trkpt lat="49.16721" lon="1.19157">
        <ele>29.200000762939</ele>
        <time>2021-04-23T11:01:39.000Z</time>
      </trkpt>
      <trkpt lat="49.16725" lon="1.19156">
        <ele>29</ele>
        <time>2021-04-23T11:01:40.000Z</time>
      </trkpt>
      <trkpt lat="49.16754" lon="1.19148">
        <ele>29</ele>
        <time>2021-04-23T11:01:46.000Z</time>
      </trkpt>
      <trkpt lat="49.1679" lon="1.19131">
        <ele>29.39999961853</ele>
        <time>2021-04-23T11:01:53.000Z</time>
      </trkpt>
      <trkpt lat="49.16821" lon="1.19117">
        <ele>30.39999961853</ele>
        <time>2021-04-23T11:01:59.000Z</time>
      </trkpt>
      <trkpt lat="49.16853" lon="1.19102">
        <ele>31.200000762939</ele>
        <time>2021-04-23T11:02:05.000Z</time>
      </trkpt>
      <trkpt lat="49.1687" lon="1.19095">
        <ele>31.39999961853</ele>
        <time>2021-04-23T11:02:08.000Z</time>
      </trkpt>
      <trkpt lat="49.16899" lon="1.1908">
        <ele>31.60000038147</ele>
        <time>2021-04-23T11:02:13.000Z</time>
      </trkpt>
      <trkpt lat="49.16941" lon="1.1906">
        <ele>31.60000038147</ele>
        <time>2021-04-23T11:02:20.000Z</time>
      </trkpt>
      <trkpt lat="49.16978" lon="1.19041">
        <ele>31</ele>
        <time>2021-04-23T11:02:26.000Z</time>
      </trkpt>
      <trkpt lat="49.17024" lon="1.19021">
        <ele>30.799999237061</ele>
        <time>2021-04-23T11:02:33.000Z</time>
      </trkpt>
      <trkpt lat="49.17063" lon="1.19002">
        <ele>30.60000038147</ele>
        <time>2021-04-23T11:02:39.000Z</time>
      </trkpt>
      <trkpt lat="49.17104" lon="1.18981">
        <ele>30.60000038147</ele>
        <time>2021-04-23T11:02:45.000Z</time>
      </trkpt>
      <trkpt lat="49.17118" lon="1.18975">
        <ele>30.39999961853</ele>
        <time>2021-04-23T11:02:47.000Z</time>
      </trkpt>
      <trkpt lat="49.17146" lon="1.18961">
        <ele>30.200000762939</ele>
        <time>2021-04-23T11:02:51.000Z</time>
      </trkpt>
      <trkpt lat="49.1716" lon="1.18953">
        <ele>29.60000038147</ele>
        <time>2021-04-23T11:02:53.000Z</time>
      </trkpt>
      <trkpt lat="49.17181" lon="1.1894">
        <ele>29</ele>
        <time>2021-04-23T11:02:56.000Z</time>
      </trkpt>
      <trkpt lat="49.17208" lon="1.18922">
        <ele>28.39999961853</ele>
        <time>2021-04-23T11:03:00.000Z</time>
      </trkpt>
      <trkpt lat="49.17234" lon="1.18903">
        <ele>28</ele>
        <time>2021-04-23T11:03:04.000Z</time>
      </trkpt>
      <trkpt lat="49.1726" lon="1.18887">
        <ele>27.799999237061</ele>
        <time>2021-04-23T11:03:08.000Z</time>
      </trkpt>
      <trkpt lat="49.17297" lon="1.18861">
        <ele>26.799999237061</ele>
        <time>2021-04-23T11:03:14.000Z</time>
      </trkpt>
      <trkpt lat="49.17309" lon="1.18855">
        <ele>26.39999961853</ele>
        <time>2021-04-23T11:03:16.000Z</time>
      </trkpt>
      <trkpt lat="49.17322" lon="1.1885">
        <ele>26.200000762939</ele>
        <time>2021-04-23T11:03:18.000Z</time>
      </trkpt>
      <trkpt lat="49.17339" lon="1.18839">
        <ele>26</ele>
        <time>2021-04-23T11:03:21.000Z</time>
      </trkpt>
      <trkpt lat="49.17374" lon="1.1882">
        <ele>26.200000762939</ele>
        <time>2021-04-23T11:03:28.000Z</time>
      </trkpt>
      <trkpt lat="49.17388" lon="1.18813">
        <ele>26.799999237061</ele>
        <time>2021-04-23T11:03:33.000Z</time>
      </trkpt>
      <trkpt lat="49.17388" lon="1.18824">
        <ele>27</ele>
        <time>2021-04-23T11:03:36.000Z</time>
      </trkpt>
      <trkpt lat="49.17383" lon="1.18846">
        <ele>27.60000038147</ele>
        <time>2021-04-23T11:03:40.000Z</time>
      </trkpt>
      <trkpt lat="49.17382" lon="1.18851">
        <ele>27.799999237061</ele>
        <time>2021-04-23T11:03:41.000Z</time>
      </trkpt>
      <trkpt lat="49.17378" lon="1.18877">
        <ele>28</ele>
        <time>2021-04-23T11:03:46.000Z</time>
      </trkpt>
      <trkpt lat="49.17375" lon="1.18912">
        <ele>28.60000038147</ele>
        <time>2021-04-23T11:03:53.000Z</time>
      </trkpt>
      <trkpt lat="49.17374" lon="1.18922">
        <ele>28.60000038147</ele>
        <time>2021-04-23T11:03:55.000Z</time>
      </trkpt>
      <trkpt lat="49.17373" lon="1.1896">
        <ele>29.200000762939</ele>
        <time>2021-04-23T11:04:03.000Z</time>
      </trkpt>
      <trkpt lat="49.17373" lon="1.18969">
        <ele>29.799999237061</ele>
        <time>2021-04-23T11:04:05.000Z</time>
      </trkpt>
      <trkpt lat="49.17373" lon="1.18982">
        <ele>31</ele>
        <time>2021-04-23T11:04:08.000Z</time>
      </trkpt>
      <trkpt lat="49.17372" lon="1.19003">
        <ele>32</ele>
        <time>2021-04-23T11:04:13.000Z</time>
      </trkpt>
      <trkpt lat="49.17372" lon="1.1902">
        <ele>33</ele>
        <time>2021-04-23T11:04:17.000Z</time>
      </trkpt>
      <trkpt lat="49.17373" lon="1.19037">
        <ele>34.200000762939</ele>
        <time>2021-04-23T11:04:21.000Z</time>
      </trkpt>
      <trkpt lat="49.17373" lon="1.19053">
        <ele>35</ele>
        <time>2021-04-23T11:04:25.000Z</time>
      </trkpt>
      <trkpt lat="49.17373" lon="1.19062">
        <ele>35.400001525879</ele>
        <time>2021-04-23T11:04:27.000Z</time>
      </trkpt>
      <trkpt lat="49.17375" lon="1.19087">
        <ele>36</ele>
        <time>2021-04-23T11:04:33.000Z</time>
      </trkpt>
      <trkpt lat="49.17375" lon="1.19099">
        <ele>36.799999237061</ele>
        <time>2021-04-23T11:04:36.000Z</time>
      </trkpt>
      <trkpt lat="49.17375" lon="1.19103">
        <ele>37.200000762939</ele>
        <time>2021-04-23T11:04:37.000Z</time>
      </trkpt>
      <trkpt lat="49.17376" lon="1.19119">
        <ele>38.200000762939</ele>
        <time>2021-04-23T11:04:41.000Z</time>
      </trkpt>
      <trkpt lat="49.17376" lon="1.19123">
        <ele>38.400001525879</ele>
        <time>2021-04-23T11:04:42.000Z</time>
      </trkpt>
      <trkpt lat="49.17378" lon="1.19143">
        <ele>39.200000762939</ele>
        <time>2021-04-23T11:04:47.000Z</time>
      </trkpt>
      <trkpt lat="49.17379" lon="1.19155">
        <ele>40.200000762939</ele>
        <time>2021-04-23T11:04:50.000Z</time>
      </trkpt>
      <trkpt lat="49.17379" lon="1.19167">
        <ele>40.799999237061</ele>
        <time>2021-04-23T11:04:53.000Z</time>
      </trkpt>
      <trkpt lat="49.1738" lon="1.19179">
        <ele>41.400001525879</ele>
        <time>2021-04-23T11:04:56.000Z</time>
      </trkpt>
      <trkpt lat="49.1738" lon="1.19191">
        <ele>41.599998474121</ele>
        <time>2021-04-23T11:04:59.000Z</time>
      </trkpt>
      <trkpt lat="49.17377" lon="1.19219">
        <ele>42.400001525879</ele>
        <time>2021-04-23T11:05:06.000Z</time>
      </trkpt>
      <trkpt lat="49.17376" lon="1.19223">
        <ele>42.599998474121</ele>
        <time>2021-04-23T11:05:07.000Z</time>
      </trkpt>
      <trkpt lat="49.17369" lon="1.1924">
        <ele>43.400001525879</ele>
        <time>2021-04-23T11:05:12.000Z</time>
      </trkpt>
      <trkpt lat="49.17364" lon="1.1925">
        <ele>44.599998474121</ele>
        <time>2021-04-23T11:05:15.000Z</time>
      </trkpt>
      <trkpt lat="49.17355" lon="1.19264">
        <ele>45.599998474121</ele>
        <time>2021-04-23T11:05:20.000Z</time>
      </trkpt>
      <trkpt lat="49.17353" lon="1.19271">
        <ele>46</ele>
        <time>2021-04-23T11:05:22.000Z</time>
      </trkpt>
      <trkpt lat="49.17344" lon="1.1929">
        <ele>46.599998474121</ele>
        <time>2021-04-23T11:05:27.000Z</time>
      </trkpt>
      <trkpt lat="49.17327" lon="1.19319">
        <ele>47.400001525879</ele>
        <time>2021-04-23T11:05:34.000Z</time>
      </trkpt>
      <trkpt lat="49.1731" lon="1.19348">
        <ele>47.599998474121</ele>
        <time>2021-04-23T11:05:41.000Z</time>
      </trkpt>
      <trkpt lat="49.17308" lon="1.19352">
        <ele>47.799999237061</ele>
        <time>2021-04-23T11:05:42.000Z</time>
      </trkpt>
      <trkpt lat="49.17295" lon="1.19372">
        <ele>48.400001525879</ele>
        <time>2021-04-23T11:05:48.000Z</time>
      </trkpt>
      <trkpt lat="49.17288" lon="1.19386">
        <ele>48.599998474121</ele>
        <time>2021-04-23T11:05:52.000Z</time>
      </trkpt>
      <trkpt lat="49.17286" lon="1.1939">
        <ele>48.799999237061</ele>
        <time>2021-04-23T11:05:53.000Z</time>
      </trkpt>
      <trkpt lat="49.1728" lon="1.19404">
        <ele>48.799999237061</ele>
        <time>2021-04-23T11:05:57.000Z</time>
      </trkpt>
      <trkpt lat="49.17272" lon="1.19427">
        <ele>49</ele>
        <time>2021-04-23T11:06:03.000Z</time>
      </trkpt>
      <trkpt lat="49.17269" lon="1.19441">
        <ele>49.400001525879</ele>
        <time>2021-04-23T11:06:07.000Z</time>
      </trkpt>
      <trkpt lat="49.17267" lon="1.19449">
        <ele>49.799999237061</ele>
        <time>2021-04-23T11:06:09.000Z</time>
      </trkpt>
      <trkpt lat="49.17263" lon="1.19471">
        <ele>50.400001525879</ele>
        <time>2021-04-23T11:06:13.000Z</time>
      </trkpt>
      <trkpt lat="49.17259" lon="1.19502">
        <ele>51</ele>
        <time>2021-04-23T11:06:19.000Z</time>
      </trkpt>
      <trkpt lat="49.17257" lon="1.19533">
        <ele>51.400001525879</ele>
        <time>2021-04-23T11:06:25.000Z</time>
      </trkpt>
      <trkpt lat="49.17254" lon="1.19552">
        <ele>52</ele>
        <time>2021-04-23T11:06:29.000Z</time>
      </trkpt>
      <trkpt lat="49.17253" lon="1.19561">
        <ele>52.400001525879</ele>
        <time>2021-04-23T11:06:31.000Z</time>
      </trkpt>
      <trkpt lat="49.17253" lon="1.19587">
        <ele>53</ele>
        <time>2021-04-23T11:06:36.000Z</time>
      </trkpt>
      <trkpt lat="49.17252" lon="1.19593">
        <ele>53</ele>
        <time>2021-04-23T11:06:37.000Z</time>
      </trkpt>
      <trkpt lat="49.17252" lon="1.19624">
        <ele>53.599998474121</ele>
        <time>2021-04-23T11:06:43.000Z</time>
      </trkpt>
      <trkpt lat="49.17253" lon="1.19656">
        <ele>54.200000762939</ele>
        <time>2021-04-23T11:06:49.000Z</time>
      </trkpt>
      <trkpt lat="49.17253" lon="1.19661">
        <ele>54.200000762939</ele>
        <time>2021-04-23T11:06:50.000Z</time>
      </trkpt>
      <trkpt lat="49.17254" lon="1.19682">
        <ele>55.200000762939</ele>
        <time>2021-04-23T11:06:54.000Z</time>
      </trkpt>
      <trkpt lat="49.17256" lon="1.19701">
        <ele>56.400001525879</ele>
        <time>2021-04-23T11:06:58.000Z</time>
      </trkpt>
      <trkpt lat="49.17257" lon="1.19705">
        <ele>56.400001525879</ele>
        <time>2021-04-23T11:06:59.000Z</time>
      </trkpt>
      <trkpt lat="49.17263" lon="1.19734">
        <ele>57.200000762939</ele>
        <time>2021-04-23T11:07:05.000Z</time>
      </trkpt>
      <trkpt lat="49.17265" lon="1.19744">
        <ele>57.200000762939</ele>
        <time>2021-04-23T11:07:07.000Z</time>
      </trkpt>
      <trkpt lat="49.17266" lon="1.19749">
        <ele>57.400001525879</ele>
        <time>2021-04-23T11:07:08.000Z</time>
      </trkpt>
      <trkpt lat="49.17268" lon="1.19754">
        <ele>57.599998474121</ele>
        <time>2021-04-23T11:07:09.000Z</time>
      </trkpt>
      <trkpt lat="49.17276" lon="1.19773">
        <ele>57.799999237061</ele>
        <time>2021-04-23T11:07:13.000Z</time>
      </trkpt>
      <trkpt lat="49.1728" lon="1.19782">
        <ele>58</ele>
        <time>2021-04-23T11:07:15.000Z</time>
      </trkpt>
      <trkpt lat="49.17297" lon="1.19808">
        <ele>58.400001525879</ele>
        <time>2021-04-23T11:07:22.000Z</time>
      </trkpt>
      <trkpt lat="49.17301" lon="1.19814">
        <ele>58.400001525879</ele>
        <time>2021-04-23T11:07:24.000Z</time>
      </trkpt>
      <trkpt lat="49.1731" lon="1.19828">
        <ele>59.200000762939</ele>
        <time>2021-04-23T11:07:28.000Z</time>
      </trkpt>
      <trkpt lat="49.17317" lon="1.19837">
        <ele>59.599998474121</ele>
        <time>2021-04-23T11:07:31.000Z</time>
      </trkpt>
      <trkpt lat="49.17327" lon="1.19849">
        <ele>60.400001525879</ele>
        <time>2021-04-23T11:07:35.000Z</time>
      </trkpt>
      <trkpt lat="49.1733" lon="1.19851">
        <ele>61</ele>
        <time>2021-04-23T11:07:36.000Z</time>
      </trkpt>
      <trkpt lat="49.17338" lon="1.1986">
        <ele>61.599998474121</ele>
        <time>2021-04-23T11:07:39.000Z</time>
      </trkpt>
      <trkpt lat="49.17348" lon="1.1987">
        <ele>62</ele>
        <time>2021-04-23T11:07:43.000Z</time>
      </trkpt>
      <trkpt lat="49.17368" lon="1.19888">
        <ele>62.599998474121</ele>
        <time>2021-04-23T11:07:50.000Z</time>
      </trkpt>
      <trkpt lat="49.17371" lon="1.1989">
        <ele>62.799999237061</ele>
        <time>2021-04-23T11:07:51.000Z</time>
      </trkpt>
      <trkpt lat="49.17386" lon="1.19908">
        <ele>63.599998474121</ele>
        <time>2021-04-23T11:07:56.000Z</time>
      </trkpt>
      <trkpt lat="49.17391" lon="1.19917">
        <ele>63.799999237061</ele>
        <time>2021-04-23T11:07:58.000Z</time>
      </trkpt>
      <trkpt lat="49.174" lon="1.19933">
        <ele>64.199996948242</ele>
        <time>2021-04-23T11:08:02.000Z</time>
      </trkpt>
      <trkpt lat="49.17409" lon="1.19957">
        <ele>64.400001525879</ele>
        <time>2021-04-23T11:08:07.000Z</time>
      </trkpt>
      <trkpt lat="49.17411" lon="1.19961">
        <ele>64.400001525879</ele>
        <time>2021-04-23T11:08:08.000Z</time>
      </trkpt>
      <trkpt lat="49.17415" lon="1.19975">
        <ele>65</ele>
        <time>2021-04-23T11:08:11.000Z</time>
      </trkpt>
      <trkpt lat="49.17419" lon="1.19993">
        <ele>65.400001525879</ele>
        <time>2021-04-23T11:08:15.000Z</time>
      </trkpt>
      <trkpt lat="49.17424" lon="1.20016">
        <ele>65.800003051758</ele>
        <time>2021-04-23T11:08:20.000Z</time>
      </trkpt>
      <trkpt lat="49.17427" lon="1.20024">
        <ele>66.199996948242</ele>
        <time>2021-04-23T11:08:22.000Z</time>
      </trkpt>
      <trkpt lat="49.17434" lon="1.20045">
        <ele>66.800003051758</ele>
        <time>2021-04-23T11:08:27.000Z</time>
      </trkpt>
      <trkpt lat="49.17438" lon="1.20056">
        <ele>67.199996948242</ele>
        <time>2021-04-23T11:08:30.000Z</time>
      </trkpt>
      <trkpt lat="49.17446" lon="1.20073">
        <ele>68</ele>
        <time>2021-04-23T11:08:35.000Z</time>
      </trkpt>
      <trkpt lat="49.17447" lon="1.20081">
        <ele>68.199996948242</ele>
        <time>2021-04-23T11:08:37.000Z</time>
      </trkpt>
      <trkpt lat="49.17444" lon="1.20087">
        <ele>68.400001525879</ele>
        <time>2021-04-23T11:08:39.000Z</time>
      </trkpt>
      <trkpt lat="49.17436" lon="1.20095">
        <ele>68.800003051758</ele>
        <time>2021-04-23T11:08:42.000Z</time>
      </trkpt>
      <trkpt lat="49.17433" lon="1.20097">
        <ele>68.800003051758</ele>
        <time>2021-04-23T11:08:43.000Z</time>
      </trkpt>
      <trkpt lat="49.1743" lon="1.201">
        <ele>68.800003051758</ele>
        <time>2021-04-23T11:08:44.000Z</time>
      </trkpt>
      <trkpt lat="49.17414" lon="1.20117">
        <ele>69.199996948242</ele>
        <time>2021-04-23T11:08:50.000Z</time>
      </trkpt>
      <trkpt lat="49.17398" lon="1.20137">
        <ele>69.400001525879</ele>
        <time>2021-04-23T11:08:56.000Z</time>
      </trkpt>
      <trkpt lat="49.17391" lon="1.20146">
        <ele>69.800003051758</ele>
        <time>2021-04-23T11:08:59.000Z</time>
      </trkpt>
      <trkpt lat="49.17383" lon="1.20155">
        <ele>70.199996948242</ele>
        <time>2021-04-23T11:09:02.000Z</time>
      </trkpt>
      <trkpt lat="49.17374" lon="1.20166">
        <ele>71</ele>
        <time>2021-04-23T11:09:06.000Z</time>
      </trkpt>
      <trkpt lat="49.17369" lon="1.2017">
        <ele>71.199996948242</ele>
        <time>2021-04-23T11:09:08.000Z</time>
      </trkpt>
      <trkpt lat="49.17361" lon="1.20179">
        <ele>71.800003051758</ele>
        <time>2021-04-23T11:09:12.000Z</time>
      </trkpt>
      <trkpt lat="49.17356" lon="1.20184">
        <ele>72</ele>
        <time>2021-04-23T11:09:14.000Z</time>
      </trkpt>
      <trkpt lat="49.17348" lon="1.20194">
        <ele>73.199996948242</ele>
        <time>2021-04-23T11:09:18.000Z</time>
      </trkpt>
      <trkpt lat="49.17336" lon="1.20205">
        <ele>74</ele>
        <time>2021-04-23T11:09:23.000Z</time>
      </trkpt>
      <trkpt lat="49.17331" lon="1.20209">
        <ele>74.199996948242</ele>
        <time>2021-04-23T11:09:25.000Z</time>
      </trkpt>
      <trkpt lat="49.17322" lon="1.20215">
        <ele>74.800003051758</ele>
        <time>2021-04-23T11:09:29.000Z</time>
      </trkpt>
      <trkpt lat="49.17318" lon="1.20218">
        <ele>75.199996948242</ele>
        <time>2021-04-23T11:09:31.000Z</time>
      </trkpt>
      <trkpt lat="49.17306" lon="1.20227">
        <ele>75.800003051758</ele>
        <time>2021-04-23T11:09:36.000Z</time>
      </trkpt>
      <trkpt lat="49.17301" lon="1.20231">
        <ele>76.199996948242</ele>
        <time>2021-04-23T11:09:38.000Z</time>
      </trkpt>
      <trkpt lat="49.17292" lon="1.20239">
        <ele>77</ele>
        <time>2021-04-23T11:09:42.000Z</time>
      </trkpt>
      <trkpt lat="49.17284" lon="1.20246">
        <ele>77.199996948242</ele>
        <time>2021-04-23T11:09:45.000Z</time>
      </trkpt>
      <trkpt lat="49.17273" lon="1.20255">
        <ele>77.800003051758</ele>
        <time>2021-04-23T11:09:50.000Z</time>
      </trkpt>
      <trkpt lat="49.17261" lon="1.20264">
        <ele>78.199996948242</ele>
        <time>2021-04-23T11:09:55.000Z</time>
      </trkpt>
      <trkpt lat="49.17257" lon="1.20268">
        <ele>78.400001525879</ele>
        <time>2021-04-23T11:09:57.000Z</time>
      </trkpt>
      <trkpt lat="49.17244" lon="1.20275">
        <ele>79.199996948242</ele>
        <time>2021-04-23T11:10:02.000Z</time>
      </trkpt>
      <trkpt lat="49.17241" lon="1.20276">
        <ele>79.599998474121</ele>
        <time>2021-04-23T11:10:03.000Z</time>
      </trkpt>
      <trkpt lat="49.17228" lon="1.20279">
        <ele>80.199996948242</ele>
        <time>2021-04-23T11:10:08.000Z</time>
      </trkpt>
      <trkpt lat="49.17225" lon="1.2028">
        <ele>80.400001525879</ele>
        <time>2021-04-23T11:10:09.000Z</time>
      </trkpt>
      <trkpt lat="49.1721" lon="1.20283">
        <ele>81</ele>
        <time>2021-04-23T11:10:14.000Z</time>
      </trkpt>
      <trkpt lat="49.17204" lon="1.20284">
        <ele>81.599998474121</ele>
        <time>2021-04-23T11:10:16.000Z</time>
      </trkpt>
      <trkpt lat="49.17186" lon="1.20287">
        <ele>82.400001525879</ele>
        <time>2021-04-23T11:10:22.000Z</time>
      </trkpt>
      <trkpt lat="49.17183" lon="1.20288">
        <ele>82.800003051758</ele>
        <time>2021-04-23T11:10:23.000Z</time>
      </trkpt>
      <trkpt lat="49.17171" lon="1.2029">
        <ele>83.599998474121</ele>
        <time>2021-04-23T11:10:27.000Z</time>
      </trkpt>
      <trkpt lat="49.17165" lon="1.20291">
        <ele>83.800003051758</ele>
        <time>2021-04-23T11:10:29.000Z</time>
      </trkpt>
      <trkpt lat="49.17154" lon="1.20297">
        <ele>84.199996948242</ele>
        <time>2021-04-23T11:10:33.000Z</time>
      </trkpt>
      <trkpt lat="49.17143" lon="1.20308">
        <ele>84.800003051758</ele>
        <time>2021-04-23T11:10:38.000Z</time>
      </trkpt>
      <trkpt lat="49.17135" lon="1.20319">
        <ele>85</ele>
        <time>2021-04-23T11:10:42.000Z</time>
      </trkpt>
      <trkpt lat="49.17129" lon="1.20336">
        <ele>85.599998474121</ele>
        <time>2021-04-23T11:10:47.000Z</time>
      </trkpt>
      <trkpt lat="49.17127" lon="1.20341">
        <ele>85.800003051758</ele>
        <time>2021-04-23T11:10:48.000Z</time>
      </trkpt>
      <trkpt lat="49.17124" lon="1.2036">
        <ele>86.199996948242</ele>
        <time>2021-04-23T11:10:53.000Z</time>
      </trkpt>
      <trkpt lat="49.17122" lon="1.20374">
        <ele>87</ele>
        <time>2021-04-23T11:10:58.000Z</time>
      </trkpt>
      <trkpt lat="49.17121" lon="1.20377">
        <ele>87.199996948242</ele>
        <time>2021-04-23T11:10:59.000Z</time>
      </trkpt>
      <trkpt lat="49.1712" lon="1.20389">
        <ele>88.199996948242</ele>
        <time>2021-04-23T11:11:02.000Z</time>
      </trkpt>
      <trkpt lat="49.17117" lon="1.20403">
        <ele>89.400001525879</ele>
        <time>2021-04-23T11:11:06.000Z</time>
      </trkpt>
      <trkpt lat="49.17114" lon="1.20423">
        <ele>89.599998474121</ele>
        <time>2021-04-23T11:11:11.000Z</time>
      </trkpt>
      <trkpt lat="49.17112" lon="1.20444">
        <ele>90</ele>
        <time>2021-04-23T11:11:16.000Z</time>
      </trkpt>
      <trkpt lat="49.1711" lon="1.20473">
        <ele>90.199996948242</ele>
        <time>2021-04-23T11:11:23.000Z</time>
      </trkpt>
      <trkpt lat="49.17109" lon="1.20481">
        <ele>90.400001525879</ele>
        <time>2021-04-23T11:11:25.000Z</time>
      </trkpt>
      <trkpt lat="49.17107" lon="1.20498">
        <ele>90.800003051758</ele>
        <time>2021-04-23T11:11:29.000Z</time>
      </trkpt>
      <trkpt lat="49.17103" lon="1.20509">
        <ele>91.400001525879</ele>
        <time>2021-04-23T11:11:32.000Z</time>
      </trkpt>
      <trkpt lat="49.17097" lon="1.20524">
        <ele>92.400001525879</ele>
        <time>2021-04-23T11:11:36.000Z</time>
      </trkpt>
      <trkpt lat="49.17096" lon="1.20527">
        <ele>92.199996948242</ele>
        <time>2021-04-23T11:11:37.000Z</time>
      </trkpt>
      <trkpt lat="49.17086" lon="1.20547">
        <ele>92.400001525879</ele>
        <time>2021-04-23T11:11:43.000Z</time>
      </trkpt>
      <trkpt lat="49.17078" lon="1.20563">
        <ele>93</ele>
        <time>2021-04-23T11:11:48.000Z</time>
      </trkpt>
      <trkpt lat="49.17077" lon="1.20566">
        <ele>93</ele>
        <time>2021-04-23T11:11:49.000Z</time>
      </trkpt>
      <trkpt lat="49.17073" lon="1.20576">
        <ele>93.400001525879</ele>
        <time>2021-04-23T11:11:52.000Z</time>
      </trkpt>
      <trkpt lat="49.17071" lon="1.20583">
        <ele>94.199996948242</ele>
        <time>2021-04-23T11:11:54.000Z</time>
      </trkpt>
      <trkpt lat="49.1707" lon="1.20587">
        <ele>94.400001525879</ele>
        <time>2021-04-23T11:11:55.000Z</time>
      </trkpt>
      <trkpt lat="49.17067" lon="1.20611">
        <ele>95.400001525879</ele>
        <time>2021-04-23T11:12:01.000Z</time>
      </trkpt>
      <trkpt lat="49.17066" lon="1.20616">
        <ele>95.599998474121</ele>
        <time>2021-04-23T11:12:02.000Z</time>
      </trkpt>
      <trkpt lat="49.17062" lon="1.20631">
        <ele>96</ele>
        <time>2021-04-23T11:12:06.000Z</time>
      </trkpt>
      <trkpt lat="49.17056" lon="1.20656">
        <ele>96.800003051758</ele>
        <time>2021-04-23T11:12:13.000Z</time>
      </trkpt>
      <trkpt lat="49.17055" lon="1.2068">
        <ele>97.599998474121</ele>
        <time>2021-04-23T11:12:19.000Z</time>
      </trkpt>
      <trkpt lat="49.17054" lon="1.20703">
        <ele>98.400001525879</ele>
        <time>2021-04-23T11:12:25.000Z</time>
      </trkpt>
      <trkpt lat="49.17054" lon="1.20706">
        <ele>98.599998474121</ele>
        <time>2021-04-23T11:12:26.000Z</time>
      </trkpt>
      <trkpt lat="49.17054" lon="1.20728">
        <ele>99.400001525879</ele>
        <time>2021-04-23T11:12:31.000Z</time>
      </trkpt>
      <trkpt lat="49.17054" lon="1.20737">
        <ele>99.599998474121</ele>
        <time>2021-04-23T11:12:33.000Z</time>
      </trkpt>
      <trkpt lat="49.17054" lon="1.20759">
        <ele>100.59999847412</ele>
        <time>2021-04-23T11:12:38.000Z</time>
      </trkpt>
      <trkpt lat="49.17054" lon="1.20764">
        <ele>100.80000305176</ele>
        <time>2021-04-23T11:12:39.000Z</time>
      </trkpt>
      <trkpt lat="49.17054" lon="1.20786">
        <ele>101.40000152588</ele>
        <time>2021-04-23T11:12:44.000Z</time>
      </trkpt>
      <trkpt lat="49.17053" lon="1.20803">
        <ele>101.80000305176</ele>
        <time>2021-04-23T11:12:48.000Z</time>
      </trkpt>
      <trkpt lat="49.17053" lon="1.20815">
        <ele>102</ele>
        <time>2021-04-23T11:12:51.000Z</time>
      </trkpt>
      <trkpt lat="49.17053" lon="1.20841">
        <ele>103</ele>
        <time>2021-04-23T11:12:57.000Z</time>
      </trkpt>
      <trkpt lat="49.17053" lon="1.2085">
        <ele>103.40000152588</ele>
        <time>2021-04-23T11:12:59.000Z</time>
      </trkpt>
      <trkpt lat="49.1705" lon="1.20874">
        <ele>104</ele>
        <time>2021-04-23T11:13:04.000Z</time>
      </trkpt>
      <trkpt lat="49.17049" lon="1.20882">
        <ele>104.59999847412</ele>
        <time>2021-04-23T11:13:06.000Z</time>
      </trkpt>
      <trkpt lat="49.17047" lon="1.20895">
        <ele>105.19999694824</ele>
        <time>2021-04-23T11:13:09.000Z</time>
      </trkpt>
      <trkpt lat="49.17045" lon="1.20907">
        <ele>105.40000152588</ele>
        <time>2021-04-23T11:13:12.000Z</time>
      </trkpt>
      <trkpt lat="49.17044" lon="1.20924">
        <ele>106</ele>
        <time>2021-04-23T11:13:16.000Z</time>
      </trkpt>
      <trkpt lat="49.17044" lon="1.20928">
        <ele>106.19999694824</ele>
        <time>2021-04-23T11:13:17.000Z</time>
      </trkpt>
      <trkpt lat="49.17043" lon="1.20936">
        <ele>107.19999694824</ele>
        <time>2021-04-23T11:13:19.000Z</time>
      </trkpt>
      <trkpt lat="49.17044" lon="1.20951">
        <ele>108</ele>
        <time>2021-04-23T11:13:23.000Z</time>
      </trkpt>
      <trkpt lat="49.17044" lon="1.20959">
        <ele>108.19999694824</ele>
        <time>2021-04-23T11:13:25.000Z</time>
      </trkpt>
      <trkpt lat="49.17047" lon="1.20982">
        <ele>108.80000305176</ele>
        <time>2021-04-23T11:13:30.000Z</time>
      </trkpt>
      <trkpt lat="49.17049" lon="1.21002">
        <ele>109.19999694824</ele>
        <time>2021-04-23T11:13:34.000Z</time>
      </trkpt>
      <trkpt lat="49.1705" lon="1.21017">
        <ele>109.80000305176</ele>
        <time>2021-04-23T11:13:37.000Z</time>
      </trkpt>
      <trkpt lat="49.1705" lon="1.21036">
        <ele>110.40000152588</ele>
        <time>2021-04-23T11:13:41.000Z</time>
      </trkpt>
      <trkpt lat="49.17049" lon="1.21051">
        <ele>111</ele>
        <time>2021-04-23T11:13:44.000Z</time>
      </trkpt>
      <trkpt lat="49.17049" lon="1.21059">
        <ele>111.40000152588</ele>
        <time>2021-04-23T11:13:46.000Z</time>
      </trkpt>
      <trkpt lat="49.17045" lon="1.21086">
        <ele>112.19999694824</ele>
        <time>2021-04-23T11:13:52.000Z</time>
      </trkpt>
      <trkpt lat="49.17045" lon="1.21091">
        <ele>112.40000152588</ele>
        <time>2021-04-23T11:13:53.000Z</time>
      </trkpt>
      <trkpt lat="49.1704" lon="1.21117">
        <ele>113.40000152588</ele>
        <time>2021-04-23T11:13:59.000Z</time>
      </trkpt>
      <trkpt lat="49.17039" lon="1.21121">
        <ele>113.40000152588</ele>
        <time>2021-04-23T11:14:00.000Z</time>
      </trkpt>
      <trkpt lat="49.17036" lon="1.21142">
        <ele>114</ele>
        <time>2021-04-23T11:14:05.000Z</time>
      </trkpt>
      <trkpt lat="49.17036" lon="1.2115">
        <ele>114.40000152588</ele>
        <time>2021-04-23T11:14:07.000Z</time>
      </trkpt>
      <trkpt lat="49.17034" lon="1.21171">
        <ele>115.59999847412</ele>
        <time>2021-04-23T11:14:12.000Z</time>
      </trkpt>
      <trkpt lat="49.17032" lon="1.21194">
        <ele>116.59999847412</ele>
        <time>2021-04-23T11:14:17.000Z</time>
      </trkpt>
      <trkpt lat="49.17031" lon="1.21197">
        <ele>117</ele>
        <time>2021-04-23T11:14:18.000Z</time>
      </trkpt>
      <trkpt lat="49.17027" lon="1.21217">
        <ele>117.59999847412</ele>
        <time>2021-04-23T11:14:23.000Z</time>
      </trkpt>
      <trkpt lat="49.17026" lon="1.21221">
        <ele>117.59999847412</ele>
        <time>2021-04-23T11:14:24.000Z</time>
      </trkpt>
      <trkpt lat="49.1702" lon="1.21242">
        <ele>118</ele>
        <time>2021-04-23T11:14:29.000Z</time>
      </trkpt>
      <trkpt lat="49.17015" lon="1.21261">
        <ele>118.59999847412</ele>
        <time>2021-04-23T11:14:34.000Z</time>
      </trkpt>
      <trkpt lat="49.17014" lon="1.21266">
        <ele>118.80000305176</ele>
        <time>2021-04-23T11:14:35.000Z</time>
      </trkpt>
      <trkpt lat="49.17011" lon="1.21276">
        <ele>119.19999694824</ele>
        <time>2021-04-23T11:14:38.000Z</time>
      </trkpt>
      <trkpt lat="49.17008" lon="1.21284">
        <ele>119.59999847412</ele>
        <time>2021-04-23T11:14:41.000Z</time>
      </trkpt>
      <trkpt lat="49.17007" lon="1.21291">
        <ele>120</ele>
        <time>2021-04-23T11:14:43.000Z</time>
      </trkpt>
      <trkpt lat="49.17004" lon="1.21301">
        <ele>120.80000305176</ele>
        <time>2021-04-23T11:14:46.000Z</time>
      </trkpt>
      <trkpt lat="49.17002" lon="1.21308">
        <ele>121.19999694824</ele>
        <time>2021-04-23T11:14:48.000Z</time>
      </trkpt>
      <trkpt lat="49.17" lon="1.2132">
        <ele>122</ele>
        <time>2021-04-23T11:14:51.000Z</time>
      </trkpt>
      <trkpt lat="49.16999" lon="1.21324">
        <ele>122</ele>
        <time>2021-04-23T11:14:52.000Z</time>
      </trkpt>
      <trkpt lat="49.16998" lon="1.21328">
        <ele>122.19999694824</ele>
        <time>2021-04-23T11:14:53.000Z</time>
      </trkpt>
      <trkpt lat="49.16995" lon="1.21343">
        <ele>122.80000305176</ele>
        <time>2021-04-23T11:14:57.000Z</time>
      </trkpt>
      <trkpt lat="49.16994" lon="1.21349">
        <ele>123</ele>
        <time>2021-04-23T11:14:59.000Z</time>
      </trkpt>
      <trkpt lat="49.16993" lon="1.21358">
        <ele>123.40000152588</ele>
        <time>2021-04-23T11:15:01.000Z</time>
      </trkpt>
      <trkpt lat="49.1699" lon="1.21375">
        <ele>124</ele>
        <time>2021-04-23T11:15:05.000Z</time>
      </trkpt>
      <trkpt lat="49.16989" lon="1.21378">
        <ele>124.19999694824</ele>
        <time>2021-04-23T11:15:06.000Z</time>
      </trkpt>
      <trkpt lat="49.16986" lon="1.21402">
        <ele>124.59999847412</ele>
        <time>2021-04-23T11:15:11.000Z</time>
      </trkpt>
      <trkpt lat="49.16986" lon="1.2141">
        <ele>125</ele>
        <time>2021-04-23T11:15:13.000Z</time>
      </trkpt>
      <trkpt lat="49.16986" lon="1.21427">
        <ele>125.40000152588</ele>
        <time>2021-04-23T11:15:17.000Z</time>
      </trkpt>
      <trkpt lat="49.16987" lon="1.2144">
        <ele>126</ele>
        <time>2021-04-23T11:15:20.000Z</time>
      </trkpt>
      <trkpt lat="49.16988" lon="1.21453">
        <ele>126.59999847412</ele>
        <time>2021-04-23T11:15:23.000Z</time>
      </trkpt>
      <trkpt lat="49.16988" lon="1.21456">
        <ele>126.59999847412</ele>
        <time>2021-04-23T11:15:24.000Z</time>
      </trkpt>
      <trkpt lat="49.16987" lon="1.21465">
        <ele>127</ele>
        <time>2021-04-23T11:15:26.000Z</time>
      </trkpt>
      <trkpt lat="49.16988" lon="1.2149">
        <ele>128.19999694824</ele>
        <time>2021-04-23T11:15:31.000Z</time>
      </trkpt>
      <trkpt lat="49.16989" lon="1.21494">
        <ele>128.39999389648</ele>
        <time>2021-04-23T11:15:32.000Z</time>
      </trkpt>
      <trkpt lat="49.1699" lon="1.21505">
        <ele>129.19999694824</ele>
        <time>2021-04-23T11:15:35.000Z</time>
      </trkpt>
      <trkpt lat="49.1699" lon="1.2151">
        <ele>129.80000305176</ele>
        <time>2021-04-23T11:15:37.000Z</time>
      </trkpt>
      <trkpt lat="49.16991" lon="1.21519">
        <ele>130.19999694824</ele>
        <time>2021-04-23T11:15:40.000Z</time>
      </trkpt>
      <trkpt lat="49.1699" lon="1.21525">
        <ele>130.80000305176</ele>
        <time>2021-04-23T11:15:42.000Z</time>
      </trkpt>
      <trkpt lat="49.16985" lon="1.21545">
        <ele>131.80000305176</ele>
        <time>2021-04-23T11:15:47.000Z</time>
      </trkpt>
      <trkpt lat="49.1698" lon="1.21558">
        <ele>132</ele>
        <time>2021-04-23T11:15:51.000Z</time>
      </trkpt>
      <trkpt lat="49.16972" lon="1.21584">
        <ele>132.19999694824</ele>
        <time>2021-04-23T11:15:57.000Z</time>
      </trkpt>
      <trkpt lat="49.16969" lon="1.21598">
        <ele>132.39999389648</ele>
        <time>2021-04-23T11:16:01.000Z</time>
      </trkpt>
      <trkpt lat="49.16967" lon="1.21608">
        <ele>132.80000305176</ele>
        <time>2021-04-23T11:16:03.000Z</time>
      </trkpt>
      <trkpt lat="49.16964" lon="1.2162">
        <ele>133.39999389648</ele>
        <time>2021-04-23T11:16:06.000Z</time>
      </trkpt>
      <trkpt lat="49.16962" lon="1.21633">
        <ele>133.80000305176</ele>
        <time>2021-04-23T11:16:10.000Z</time>
      </trkpt>
      <trkpt lat="49.16961" lon="1.21637">
        <ele>134</ele>
        <time>2021-04-23T11:16:11.000Z</time>
      </trkpt>
      <trkpt lat="49.16961" lon="1.21644">
        <ele>134.19999694824</ele>
        <time>2021-04-23T11:16:13.000Z</time>
      </trkpt>
      <trkpt lat="49.16959" lon="1.21651">
        <ele>134.19999694824</ele>
        <time>2021-04-23T11:16:15.000Z</time>
      </trkpt>
      <trkpt lat="49.16959" lon="1.21659">
        <ele>134.39999389648</ele>
        <time>2021-04-23T11:16:17.000Z</time>
      </trkpt>
      <trkpt lat="49.16958" lon="1.21673">
        <ele>134.80000305176</ele>
        <time>2021-04-23T11:16:20.000Z</time>
      </trkpt>
      <trkpt lat="49.16958" lon="1.21676">
        <ele>135</ele>
        <time>2021-04-23T11:16:21.000Z</time>
      </trkpt>
      <trkpt lat="49.16954" lon="1.2169">
        <ele>136</ele>
        <time>2021-04-23T11:16:25.000Z</time>
      </trkpt>
      <trkpt lat="49.16953" lon="1.21694">
        <ele>136</ele>
        <time>2021-04-23T11:16:26.000Z</time>
      </trkpt>
      <trkpt lat="49.16949" lon="1.21716">
        <ele>136.60000610352</ele>
        <time>2021-04-23T11:16:32.000Z</time>
      </trkpt>
      <trkpt lat="49.16949" lon="1.21725">
        <ele>136.80000305176</ele>
        <time>2021-04-23T11:16:34.000Z</time>
      </trkpt>
      <trkpt lat="49.16948" lon="1.21733">
        <ele>137.19999694824</ele>
        <time>2021-04-23T11:16:36.000Z</time>
      </trkpt>
      <trkpt lat="49.1695" lon="1.21761">
        <ele>137.80000305176</ele>
        <time>2021-04-23T11:16:42.000Z</time>
      </trkpt>
      <trkpt lat="49.1695" lon="1.21765">
        <ele>138</ele>
        <time>2021-04-23T11:16:43.000Z</time>
      </trkpt>
      <trkpt lat="49.16951" lon="1.2178">
        <ele>138.19999694824</ele>
        <time>2021-04-23T11:16:46.000Z</time>
      </trkpt>
      <trkpt lat="49.16953" lon="1.21802">
        <ele>139</ele>
        <time>2021-04-23T11:16:51.000Z</time>
      </trkpt>
      <trkpt lat="49.16954" lon="1.21806">
        <ele>139</ele>
        <time>2021-04-23T11:16:52.000Z</time>
      </trkpt>
      <trkpt lat="49.16955" lon="1.2183">
        <ele>139.60000610352</ele>
        <time>2021-04-23T11:16:58.000Z</time>
      </trkpt>
      <trkpt lat="49.16955" lon="1.21839">
        <ele>140</ele>
        <time>2021-04-23T11:17:00.000Z</time>
      </trkpt>
      <trkpt lat="49.16957" lon="1.21856">
        <ele>140.80000305176</ele>
        <time>2021-04-23T11:17:04.000Z</time>
      </trkpt>
      <trkpt lat="49.16958" lon="1.21864">
        <ele>141</ele>
        <time>2021-04-23T11:17:06.000Z</time>
      </trkpt>
      <trkpt lat="49.1696" lon="1.21881">
        <ele>142</ele>
        <time>2021-04-23T11:17:11.000Z</time>
      </trkpt>
      <trkpt lat="49.16962" lon="1.21894">
        <ele>142.39999389648</ele>
        <time>2021-04-23T11:17:15.000Z</time>
      </trkpt>
      <trkpt lat="49.16963" lon="1.21901">
        <ele>142.80000305176</ele>
        <time>2021-04-23T11:17:17.000Z</time>
      </trkpt>
      <trkpt lat="49.16964" lon="1.2192">
        <ele>143.39999389648</ele>
        <time>2021-04-23T11:17:22.000Z</time>
      </trkpt>
      <trkpt lat="49.16964" lon="1.21925">
        <ele>143.80000305176</ele>
        <time>2021-04-23T11:17:23.000Z</time>
      </trkpt>
      <trkpt lat="49.16967" lon="1.21949">
        <ele>144.60000610352</ele>
        <time>2021-04-23T11:17:29.000Z</time>
      </trkpt>
      <trkpt lat="49.16968" lon="1.21956">
        <ele>144.60000610352</ele>
        <time>2021-04-23T11:17:31.000Z</time>
      </trkpt>
      <trkpt lat="49.16971" lon="1.21975">
        <ele>145.19999694824</ele>
        <time>2021-04-23T11:17:36.000Z</time>
      </trkpt>
      <trkpt lat="49.16973" lon="1.21986">
        <ele>145.60000610352</ele>
        <time>2021-04-23T11:17:39.000Z</time>
      </trkpt>
      <trkpt lat="49.16974" lon="1.21994">
        <ele>146</ele>
        <time>2021-04-23T11:17:41.000Z</time>
      </trkpt>
      <trkpt lat="49.16981" lon="1.22015">
        <ele>146.39999389648</ele>
        <time>2021-04-23T11:17:47.000Z</time>
      </trkpt>
      <trkpt lat="49.16983" lon="1.22021">
        <ele>146.60000610352</ele>
        <time>2021-04-23T11:17:49.000Z</time>
      </trkpt>
      <trkpt lat="49.16987" lon="1.22026">
        <ele>146.80000305176</ele>
        <time>2021-04-23T11:17:51.000Z</time>
      </trkpt>
      <trkpt lat="49.17" lon="1.2204">
        <ele>147.80000305176</ele>
        <time>2021-04-23T11:17:58.000Z</time>
      </trkpt>
      <trkpt lat="49.17012" lon="1.22057">
        <ele>148.80000305176</ele>
        <time>2021-04-23T11:18:04.000Z</time>
      </trkpt>
      <trkpt lat="49.17019" lon="1.22071">
        <ele>149</ele>
        <time>2021-04-23T11:18:08.000Z</time>
      </trkpt>
      <trkpt lat="49.17023" lon="1.22078">
        <ele>149</ele>
        <time>2021-04-23T11:18:10.000Z</time>
      </trkpt>
      <trkpt lat="49.17036" lon="1.22105">
        <ele>149.39999389648</ele>
        <time>2021-04-23T11:18:16.000Z</time>
      </trkpt>
      <trkpt lat="49.17054" lon="1.22138">
        <ele>150</ele>
        <time>2021-04-23T11:18:23.000Z</time>
      </trkpt>
      <trkpt lat="49.17057" lon="1.22142">
        <ele>150.19999694824</ele>
        <time>2021-04-23T11:18:24.000Z</time>
      </trkpt>
      <trkpt lat="49.17073" lon="1.22157">
        <ele>150.60000610352</ele>
        <time>2021-04-23T11:18:29.000Z</time>
      </trkpt>
      <trkpt lat="49.17087" lon="1.22167">
        <ele>151.19999694824</ele>
        <time>2021-04-23T11:18:33.000Z</time>
      </trkpt>
      <trkpt lat="49.17106" lon="1.2218">
        <ele>151.60000610352</ele>
        <time>2021-04-23T11:18:38.000Z</time>
      </trkpt>
      <trkpt lat="49.17123" lon="1.22192">
        <ele>152.39999389648</ele>
        <time>2021-04-23T11:18:43.000Z</time>
      </trkpt>
      <trkpt lat="49.1713" lon="1.22198">
        <ele>152.80000305176</ele>
        <time>2021-04-23T11:18:46.000Z</time>
      </trkpt>
      <trkpt lat="49.17131" lon="1.22198">
        <ele>152.80000305176</ele>
        <time>2021-04-23T11:18:48.000Z</time>
      </trkpt>
      <trkpt lat="49.17129" lon="1.22196">
        <ele>153</ele>
        <time>2021-04-23T11:18:49.000Z</time>
      </trkpt>
      <trkpt lat="49.1712" lon="1.22202">
        <ele>153.19999694824</ele>
        <time>2021-04-23T11:18:52.000Z</time>
      </trkpt>
      <trkpt lat="49.17116" lon="1.22212">
        <ele>153.39999389648</ele>
        <time>2021-04-23T11:18:54.000Z</time>
      </trkpt>
      <trkpt lat="49.17109" lon="1.22229">
        <ele>153.39999389648</ele>
        <time>2021-04-23T11:18:57.000Z</time>
      </trkpt>
      <trkpt lat="49.17093" lon="1.22273">
        <ele>153.19999694824</ele>
        <time>2021-04-23T11:19:04.000Z</time>
      </trkpt>
      <trkpt lat="49.17073" lon="1.22329">
        <ele>153.19999694824</ele>
        <time>2021-04-23T11:19:13.000Z</time>
      </trkpt>
      <trkpt lat="49.17054" lon="1.22388">
        <ele>153.19999694824</ele>
        <time>2021-04-23T11:19:22.000Z</time>
      </trkpt>
      <trkpt lat="49.17043" lon="1.22418">
        <ele>153.19999694824</ele>
        <time>2021-04-23T11:19:27.000Z</time>
      </trkpt>
      <trkpt lat="49.17041" lon="1.22425">
        <ele>153.19999694824</ele>
        <time>2021-04-23T11:19:28.000Z</time>
      </trkpt>
      <trkpt lat="49.17026" lon="1.2247">
        <ele>153.19999694824</ele>
        <time>2021-04-23T11:19:35.000Z</time>
      </trkpt>
      <trkpt lat="49.17024" lon="1.22476">
        <ele>153.19999694824</ele>
        <time>2021-04-23T11:19:36.000Z</time>
      </trkpt>
      <trkpt lat="49.17016" lon="1.22483">
        <ele>153.19999694824</ele>
        <time>2021-04-23T11:19:38.000Z</time>
      </trkpt>
      <trkpt lat="49.16984" lon="1.22501">
        <ele>153.39999389648</ele>
        <time>2021-04-23T11:19:45.000Z</time>
      </trkpt>
      <trkpt lat="49.1697" lon="1.22509">
        <ele>153.80000305176</ele>
        <time>2021-04-23T11:19:48.000Z</time>
      </trkpt>
      <trkpt lat="49.16949" lon="1.22522">
        <ele>154.19999694824</ele>
        <time>2021-04-23T11:19:53.000Z</time>
      </trkpt>
      <trkpt lat="49.16941" lon="1.22525">
        <ele>154.19999694824</ele>
        <time>2021-04-23T11:19:55.000Z</time>
      </trkpt>
      <trkpt lat="49.16929" lon="1.2253">
        <ele>154.39999389648</ele>
        <time>2021-04-23T11:19:58.000Z</time>
      </trkpt>
      <trkpt lat="49.16912" lon="1.2254">
        <ele>155</ele>
        <time>2021-04-23T11:20:02.000Z</time>
      </trkpt>
      <trkpt lat="49.1689" lon="1.2255">
        <ele>155.19999694824</ele>
        <time>2021-04-23T11:20:07.000Z</time>
      </trkpt>
      <trkpt lat="49.16862" lon="1.22563">
        <ele>155.19999694824</ele>
        <time>2021-04-23T11:20:14.000Z</time>
      </trkpt>
      <trkpt lat="49.16842" lon="1.22572">
        <ele>155.19999694824</ele>
        <time>2021-04-23T11:20:19.000Z</time>
      </trkpt>
      <trkpt lat="49.16833" lon="1.22576">
        <ele>155</ele>
        <time>2021-04-23T11:20:21.000Z</time>
      </trkpt>
      <trkpt lat="49.16792" lon="1.22597">
        <ele>155.19999694824</ele>
        <time>2021-04-23T11:20:31.000Z</time>
      </trkpt>
      <trkpt lat="49.16754" lon="1.22614">
        <ele>155.19999694824</ele>
        <time>2021-04-23T11:20:40.000Z</time>
      </trkpt>
      <trkpt lat="49.16719" lon="1.22631">
        <ele>155.19999694824</ele>
        <time>2021-04-23T11:20:49.000Z</time>
      </trkpt>
      <trkpt lat="49.16683" lon="1.22648">
        <ele>155.80000305176</ele>
        <time>2021-04-23T11:20:59.000Z</time>
      </trkpt>
      <trkpt lat="49.16661" lon="1.22659">
        <ele>156.39999389648</ele>
        <time>2021-04-23T11:21:05.000Z</time>
      </trkpt>
      <trkpt lat="49.16646" lon="1.22666">
        <ele>156.60000610352</ele>
        <time>2021-04-23T11:21:09.000Z</time>
      </trkpt>
      <trkpt lat="49.16613" lon="1.22682">
        <ele>157.39999389648</ele>
        <time>2021-04-23T11:21:18.000Z</time>
      </trkpt>
      <trkpt lat="49.16606" lon="1.22686">
        <ele>157.60000610352</ele>
        <time>2021-04-23T11:21:20.000Z</time>
      </trkpt>
      <trkpt lat="49.16577" lon="1.227">
        <ele>157.80000305176</ele>
        <time>2021-04-23T11:21:28.000Z</time>
      </trkpt>
      <trkpt lat="49.16548" lon="1.22714">
        <ele>158.60000610352</ele>
        <time>2021-04-23T11:21:36.000Z</time>
      </trkpt>
      <trkpt lat="49.16544" lon="1.22716">
        <ele>158.80000305176</ele>
        <time>2021-04-23T11:21:37.000Z</time>
      </trkpt>
      <trkpt lat="49.16534" lon="1.22728">
        <ele>159</ele>
        <time>2021-04-23T11:21:41.000Z</time>
      </trkpt>
      <trkpt lat="49.16535" lon="1.22756">
        <ele>159.60000610352</ele>
        <time>2021-04-23T11:21:46.000Z</time>
      </trkpt>
      <trkpt lat="49.16535" lon="1.22823">
        <ele>159.39999389648</ele>
        <time>2021-04-23T11:21:57.000Z</time>
      </trkpt>
      <trkpt lat="49.16535" lon="1.22885">
        <ele>159.39999389648</ele>
        <time>2021-04-23T11:22:07.000Z</time>
      </trkpt>
      <trkpt lat="49.16535" lon="1.22939">
        <ele>159.39999389648</ele>
        <time>2021-04-23T11:22:16.000Z</time>
      </trkpt>
      <trkpt lat="49.16535" lon="1.22997">
        <ele>159.60000610352</ele>
        <time>2021-04-23T11:22:25.000Z</time>
      </trkpt>
      <trkpt lat="49.16536" lon="1.23066">
        <ele>159.60000610352</ele>
        <time>2021-04-23T11:22:35.000Z</time>
      </trkpt>
      <trkpt lat="49.16537" lon="1.23142">
        <ele>159.39999389648</ele>
        <time>2021-04-23T11:22:46.000Z</time>
      </trkpt>
      <trkpt lat="49.16538" lon="1.23226">
        <ele>158.39999389648</ele>
        <time>2021-04-23T11:22:58.000Z</time>
      </trkpt>
      <trkpt lat="49.16538" lon="1.23288">
        <ele>158</ele>
        <time>2021-04-23T11:23:06.000Z</time>
      </trkpt>
      <trkpt lat="49.16538" lon="1.23369">
        <ele>157</ele>
        <time>2021-04-23T11:23:16.000Z</time>
      </trkpt>
      <trkpt lat="49.16537" lon="1.23442">
        <ele>156</ele>
        <time>2021-04-23T11:23:24.000Z</time>
      </trkpt>
      <trkpt lat="49.16538" lon="1.23479">
        <ele>154.60000610352</ele>
        <time>2021-04-23T11:23:28.000Z</time>
      </trkpt>
      <trkpt lat="49.16538" lon="1.23527">
        <ele>153.60000610352</ele>
        <time>2021-04-23T11:23:33.000Z</time>
      </trkpt>
      <trkpt lat="49.16538" lon="1.23574">
        <ele>152.19999694824</ele>
        <time>2021-04-23T11:23:38.000Z</time>
      </trkpt>
      <trkpt lat="49.16538" lon="1.23592">
        <ele>151.60000610352</ele>
        <time>2021-04-23T11:23:40.000Z</time>
      </trkpt>
      <trkpt lat="49.16538" lon="1.2361">
        <ele>151</ele>
        <time>2021-04-23T11:23:42.000Z</time>
      </trkpt>
      <trkpt lat="49.16539" lon="1.23644">
        <ele>150.39999389648</ele>
        <time>2021-04-23T11:23:46.000Z</time>
      </trkpt>
      <trkpt lat="49.16542" lon="1.23651">
        <ele>150.19999694824</ele>
        <time>2021-04-23T11:23:47.000Z</time>
      </trkpt>
      <trkpt lat="49.16549" lon="1.2367">
        <ele>150.19999694824</ele>
        <time>2021-04-23T11:23:50.000Z</time>
      </trkpt>
      <trkpt lat="49.16553" lon="1.23683">
        <ele>150.19999694824</ele>
        <time>2021-04-23T11:23:52.000Z</time>
      </trkpt>
      <trkpt lat="49.16562" lon="1.23718">
        <ele>150</ele>
        <time>2021-04-23T11:23:57.000Z</time>
      </trkpt>
      <trkpt lat="49.16565" lon="1.23733">
        <ele>150</ele>
        <time>2021-04-23T11:23:59.000Z</time>
      </trkpt>
      <trkpt lat="49.16581" lon="1.23799">
        <ele>149.39999389648</ele>
        <time>2021-04-23T11:24:08.000Z</time>
      </trkpt>
      <trkpt lat="49.16589" lon="1.23835">
        <ele>149</ele>
        <time>2021-04-23T11:24:13.000Z</time>
      </trkpt>
      <trkpt lat="49.16597" lon="1.23863">
        <ele>148.80000305176</ele>
        <time>2021-04-23T11:24:17.000Z</time>
      </trkpt>
      <trkpt lat="49.16599" lon="1.2387">
        <ele>149</ele>
        <time>2021-04-23T11:24:18.000Z</time>
      </trkpt>
      <trkpt lat="49.16606" lon="1.23899">
        <ele>148.80000305176</ele>
        <time>2021-04-23T11:24:22.000Z</time>
      </trkpt>
      <trkpt lat="49.16616" lon="1.23944">
        <ele>148</ele>
        <time>2021-04-23T11:24:28.000Z</time>
      </trkpt>
      <trkpt lat="49.16619" lon="1.23959">
        <ele>147.80000305176</ele>
        <time>2021-04-23T11:24:30.000Z</time>
      </trkpt>
      <trkpt lat="49.16628" lon="1.23994">
        <ele>147</ele>
        <time>2021-04-23T11:24:35.000Z</time>
      </trkpt>
      <trkpt lat="49.16635" lon="1.24021">
        <ele>146.19999694824</ele>
        <time>2021-04-23T11:24:39.000Z</time>
      </trkpt>
      <trkpt lat="49.1664" lon="1.24042">
        <ele>146</ele>
        <time>2021-04-23T11:24:42.000Z</time>
      </trkpt>
      <trkpt lat="49.16651" lon="1.24088">
        <ele>145.80000305176</ele>
        <time>2021-04-23T11:24:49.000Z</time>
      </trkpt>
      <trkpt lat="49.16667" lon="1.24152">
        <ele>145.60000610352</ele>
        <time>2021-04-23T11:24:59.000Z</time>
      </trkpt>
      <trkpt lat="49.16681" lon="1.24214">
        <ele>145.60000610352</ele>
        <time>2021-04-23T11:25:08.000Z</time>
      </trkpt>
      <trkpt lat="49.1669" lon="1.24254">
        <ele>145.39999389648</ele>
        <time>2021-04-23T11:25:14.000Z</time>
      </trkpt>
      <trkpt lat="49.16694" lon="1.24275">
        <ele>145.19999694824</ele>
        <time>2021-04-23T11:25:17.000Z</time>
      </trkpt>
      <trkpt lat="49.16704" lon="1.24321">
        <ele>144.39999389648</ele>
        <time>2021-04-23T11:25:24.000Z</time>
      </trkpt>
      <trkpt lat="49.16705" lon="1.24327">
        <ele>144.19999694824</ele>
        <time>2021-04-23T11:25:25.000Z</time>
      </trkpt>
      <trkpt lat="49.16718" lon="1.24386">
        <ele>143.60000610352</ele>
        <time>2021-04-23T11:25:34.000Z</time>
      </trkpt>
      <trkpt lat="49.16728" lon="1.24439">
        <ele>143.19999694824</ele>
        <time>2021-04-23T11:25:42.000Z</time>
      </trkpt>
      <trkpt lat="49.16733" lon="1.24465">
        <ele>143.19999694824</ele>
        <time>2021-04-23T11:25:46.000Z</time>
      </trkpt>
      <trkpt lat="49.16743" lon="1.24512">
        <ele>143.19999694824</ele>
        <time>2021-04-23T11:25:53.000Z</time>
      </trkpt>
      <trkpt lat="49.1676" lon="1.24596">
        <ele>142.60000610352</ele>
        <time>2021-04-23T11:26:05.000Z</time>
      </trkpt>
      <trkpt lat="49.16769" lon="1.24637">
        <ele>142.39999389648</ele>
        <time>2021-04-23T11:26:11.000Z</time>
      </trkpt>
      <trkpt lat="49.16778" lon="1.24678">
        <ele>142.19999694824</ele>
        <time>2021-04-23T11:26:17.000Z</time>
      </trkpt>
      <trkpt lat="49.16791" lon="1.24739">
        <ele>142</ele>
        <time>2021-04-23T11:26:26.000Z</time>
      </trkpt>
      <trkpt lat="49.16792" lon="1.24746">
        <ele>141.80000305176</ele>
        <time>2021-04-23T11:26:27.000Z</time>
      </trkpt>
      <trkpt lat="49.16799" lon="1.24755">
        <ele>141.60000610352</ele>
        <time>2021-04-23T11:26:29.000Z</time>
      </trkpt>
      <trkpt lat="49.16813" lon="1.24756">
        <ele>141.39999389648</ele>
        <time>2021-04-23T11:26:32.000Z</time>
      </trkpt>
      <trkpt lat="49.16818" lon="1.24755">
        <ele>141.39999389648</ele>
        <time>2021-04-23T11:26:33.000Z</time>
      </trkpt>
      <trkpt lat="49.16839" lon="1.2475">
        <ele>141.39999389648</ele>
        <time>2021-04-23T11:26:37.000Z</time>
      </trkpt>
      <trkpt lat="49.16849" lon="1.24746">
        <ele>141.60000610352</ele>
        <time>2021-04-23T11:26:39.000Z</time>
      </trkpt>
      <trkpt lat="49.16863" lon="1.24752">
        <ele>142</ele>
        <time>2021-04-23T11:26:42.000Z</time>
      </trkpt>
      <trkpt lat="49.16868" lon="1.24774">
        <ele>142.39999389648</ele>
        <time>2021-04-23T11:26:46.000Z</time>
      </trkpt>
      <trkpt lat="49.16872" lon="1.24824">
        <ele>142.80000305176</ele>
        <time>2021-04-23T11:26:53.000Z</time>
      </trkpt>
      <trkpt lat="49.16875" lon="1.24869">
        <ele>142.60000610352</ele>
        <time>2021-04-23T11:27:00.000Z</time>
      </trkpt>
      <trkpt lat="49.16876" lon="1.24875">
        <ele>142.39999389648</ele>
        <time>2021-04-23T11:27:01.000Z</time>
      </trkpt>
      <trkpt lat="49.16879" lon="1.24905">
        <ele>141.39999389648</ele>
        <time>2021-04-23T11:27:05.000Z</time>
      </trkpt>
      <trkpt lat="49.1688" lon="1.24921">
        <ele>141.19999694824</ele>
        <time>2021-04-23T11:27:07.000Z</time>
      </trkpt>
      <trkpt lat="49.16882" lon="1.2493">
        <ele>141</ele>
        <time>2021-04-23T11:27:08.000Z</time>
      </trkpt>
      <trkpt lat="49.16882" lon="1.24938">
        <ele>141</ele>
        <time>2021-04-23T11:27:09.000Z</time>
      </trkpt>
      <trkpt lat="49.16884" lon="1.24979">
        <ele>140.39999389648</ele>
        <time>2021-04-23T11:27:14.000Z</time>
      </trkpt>
      <trkpt lat="49.16883" lon="1.24986">
        <ele>140.39999389648</ele>
        <time>2021-04-23T11:27:15.000Z</time>
      </trkpt>
      <trkpt lat="49.16883" lon="1.24994">
        <ele>140</ele>
        <time>2021-04-23T11:27:16.000Z</time>
      </trkpt>
      <trkpt lat="49.16882" lon="1.25026">
        <ele>139.39999389648</ele>
        <time>2021-04-23T11:27:20.000Z</time>
      </trkpt>
      <trkpt lat="49.16886" lon="1.25077">
        <ele>139</ele>
        <time>2021-04-23T11:27:26.000Z</time>
      </trkpt>
      <trkpt lat="49.16892" lon="1.25128">
        <ele>138.19999694824</ele>
        <time>2021-04-23T11:27:33.000Z</time>
      </trkpt>
      <trkpt lat="49.16893" lon="1.25135">
        <ele>138.19999694824</ele>
        <time>2021-04-23T11:27:34.000Z</time>
      </trkpt>
      <trkpt lat="49.16896" lon="1.25161">
        <ele>137.80000305176</ele>
        <time>2021-04-23T11:27:38.000Z</time>
      </trkpt>
      <trkpt lat="49.16895" lon="1.25168">
        <ele>137.60000610352</ele>
        <time>2021-04-23T11:27:39.000Z</time>
      </trkpt>
      <trkpt lat="49.16886" lon="1.25185">
        <ele>137.60000610352</ele>
        <time>2021-04-23T11:27:42.000Z</time>
      </trkpt>
      <trkpt lat="49.16882" lon="1.2519">
        <ele>137.60000610352</ele>
        <time>2021-04-23T11:27:43.000Z</time>
      </trkpt>
      <trkpt lat="49.16856" lon="1.25215">
        <ele>137.39999389648</ele>
        <time>2021-04-23T11:27:48.000Z</time>
      </trkpt>
      <trkpt lat="49.16851" lon="1.25219">
        <ele>137.39999389648</ele>
        <time>2021-04-23T11:27:49.000Z</time>
      </trkpt>
      <trkpt lat="49.1683" lon="1.25228">
        <ele>137</ele>
        <time>2021-04-23T11:27:53.000Z</time>
      </trkpt>
      <trkpt lat="49.16815" lon="1.25236">
        <ele>136.19999694824</ele>
        <time>2021-04-23T11:27:56.000Z</time>
      </trkpt>
      <trkpt lat="49.16811" lon="1.2524">
        <ele>135.80000305176</ele>
        <time>2021-04-23T11:27:57.000Z</time>
      </trkpt>
      <trkpt lat="49.16808" lon="1.25243">
        <ele>135.39999389648</ele>
        <time>2021-04-23T11:27:58.000Z</time>
      </trkpt>
      <trkpt lat="49.16806" lon="1.25247">
        <ele>135.19999694824</ele>
        <time>2021-04-23T11:27:59.000Z</time>
      </trkpt>
      <trkpt lat="49.16808" lon="1.25257">
        <ele>135</ele>
        <time>2021-04-23T11:28:01.000Z</time>
      </trkpt>
      <trkpt lat="49.1682" lon="1.2527">
        <ele>135</ele>
        <time>2021-04-23T11:28:04.000Z</time>
      </trkpt>
      <trkpt lat="49.16835" lon="1.25284">
        <ele>134.80000305176</ele>
        <time>2021-04-23T11:28:07.000Z</time>
      </trkpt>
      <trkpt lat="49.16847" lon="1.25298">
        <ele>134.80000305176</ele>
        <time>2021-04-23T11:28:10.000Z</time>
      </trkpt>
      <trkpt lat="49.16869" lon="1.25313">
        <ele>133.80000305176</ele>
        <time>2021-04-23T11:28:15.000Z</time>
      </trkpt>
      <trkpt lat="49.16873" lon="1.25316">
        <ele>133.60000610352</ele>
        <time>2021-04-23T11:28:16.000Z</time>
      </trkpt>
      <trkpt lat="49.16877" lon="1.2532">
        <ele>133.39999389648</ele>
        <time>2021-04-23T11:28:17.000Z</time>
      </trkpt>
      <trkpt lat="49.16883" lon="1.25335">
        <ele>133.19999694824</ele>
        <time>2021-04-23T11:28:20.000Z</time>
      </trkpt>
      <trkpt lat="49.16879" lon="1.25351">
        <ele>133.19999694824</ele>
        <time>2021-04-23T11:28:23.000Z</time>
      </trkpt>
      <trkpt lat="49.16877" lon="1.25355">
        <ele>133.19999694824</ele>
        <time>2021-04-23T11:28:24.000Z</time>
      </trkpt>
      <trkpt lat="49.16868" lon="1.25381">
        <ele>133.39999389648</ele>
        <time>2021-04-23T11:28:29.000Z</time>
      </trkpt>
      <trkpt lat="49.16852" lon="1.25429">
        <ele>133.39999389648</ele>
        <time>2021-04-23T11:28:36.000Z</time>
      </trkpt>
      <trkpt lat="49.16835" lon="1.25481">
        <ele>132.60000610352</ele>
        <time>2021-04-23T11:28:43.000Z</time>
      </trkpt>
      <trkpt lat="49.16826" lon="1.2551">
        <ele>131.80000305176</ele>
        <time>2021-04-23T11:28:47.000Z</time>
      </trkpt>
      <trkpt lat="49.16818" lon="1.25532">
        <ele>131.60000610352</ele>
        <time>2021-04-23T11:28:50.000Z</time>
      </trkpt>
      <trkpt lat="49.168" lon="1.25586">
        <ele>130.39999389648</ele>
        <time>2021-04-23T11:28:57.000Z</time>
      </trkpt>
      <trkpt lat="49.16784" lon="1.25631">
        <ele>129.39999389648</ele>
        <time>2021-04-23T11:29:03.000Z</time>
      </trkpt>
      <trkpt lat="49.16772" lon="1.25669">
        <ele>129</ele>
        <time>2021-04-23T11:29:08.000Z</time>
      </trkpt>
      <trkpt lat="49.16762" lon="1.25699">
        <ele>128.39999389648</ele>
        <time>2021-04-23T11:29:12.000Z</time>
      </trkpt>
      <trkpt lat="49.16748" lon="1.25742">
        <ele>127.59999847412</ele>
        <time>2021-04-23T11:29:18.000Z</time>
      </trkpt>
      <trkpt lat="49.16746" lon="1.25749">
        <ele>127.40000152588</ele>
        <time>2021-04-23T11:29:19.000Z</time>
      </trkpt>
      <trkpt lat="49.16733" lon="1.2581">
        <ele>126.59999847412</ele>
        <time>2021-04-23T11:29:27.000Z</time>
      </trkpt>
      <trkpt lat="49.16731" lon="1.25856">
        <ele>126.19999694824</ele>
        <time>2021-04-23T11:29:33.000Z</time>
      </trkpt>
      <trkpt lat="49.16731" lon="1.25863">
        <ele>126.19999694824</ele>
        <time>2021-04-23T11:29:34.000Z</time>
      </trkpt>
      <trkpt lat="49.16731" lon="1.25871">
        <ele>126</ele>
        <time>2021-04-23T11:29:35.000Z</time>
      </trkpt>
      <trkpt lat="49.16731" lon="1.259">
        <ele>125.80000305176</ele>
        <time>2021-04-23T11:29:39.000Z</time>
      </trkpt>
      <trkpt lat="49.16732" lon="1.25922">
        <ele>125.80000305176</ele>
        <time>2021-04-23T11:29:42.000Z</time>
      </trkpt>
      <trkpt lat="49.16728" lon="1.25932">
        <ele>125.80000305176</ele>
        <time>2021-04-23T11:29:44.000Z</time>
      </trkpt>
      <trkpt lat="49.16718" lon="1.25928">
        <ele>125.80000305176</ele>
        <time>2021-04-23T11:29:47.000Z</time>
      </trkpt>
      <trkpt lat="49.1669" lon="1.25896">
        <ele>126.40000152588</ele>
        <time>2021-04-23T11:29:55.000Z</time>
      </trkpt>
      <trkpt lat="49.16678" lon="1.2588">
        <ele>127.40000152588</ele>
        <time>2021-04-23T11:29:59.000Z</time>
      </trkpt>
      <trkpt lat="49.16654" lon="1.25848">
        <ele>128.19999694824</ele>
        <time>2021-04-23T11:30:07.000Z</time>
      </trkpt>
      <trkpt lat="49.16651" lon="1.25844">
        <ele>128.39999389648</ele>
        <time>2021-04-23T11:30:08.000Z</time>
      </trkpt>
      <trkpt lat="49.16628" lon="1.25811">
        <ele>129.60000610352</ele>
        <time>2021-04-23T11:30:16.000Z</time>
      </trkpt>
      <trkpt lat="49.16625" lon="1.25807">
        <ele>129.80000305176</ele>
        <time>2021-04-23T11:30:17.000Z</time>
      </trkpt>
      <trkpt lat="49.16616" lon="1.25795">
        <ele>130.19999694824</ele>
        <time>2021-04-23T11:30:20.000Z</time>
      </trkpt>
      <trkpt lat="49.16609" lon="1.25788">
        <ele>130.60000610352</ele>
        <time>2021-04-23T11:30:22.000Z</time>
      </trkpt>
      <trkpt lat="49.16595" lon="1.25773">
        <ele>131.19999694824</ele>
        <time>2021-04-23T11:30:26.000Z</time>
      </trkpt>
      <trkpt lat="49.16574" lon="1.25758">
        <ele>131.39999389648</ele>
        <time>2021-04-23T11:30:32.000Z</time>
      </trkpt>
      <trkpt lat="49.16563" lon="1.2576">
        <ele>131.60000610352</ele>
        <time>2021-04-23T11:30:35.000Z</time>
      </trkpt>
      <trkpt lat="49.1656" lon="1.25763">
        <ele>131.60000610352</ele>
        <time>2021-04-23T11:30:36.000Z</time>
      </trkpt>
      <trkpt lat="49.16549" lon="1.25779">
        <ele>131.80000305176</ele>
        <time>2021-04-23T11:30:40.000Z</time>
      </trkpt>
      <trkpt lat="49.16521" lon="1.25822">
        <ele>132</ele>
        <time>2021-04-23T11:30:50.000Z</time>
      </trkpt>
      <trkpt lat="49.16495" lon="1.2586">
        <ele>132.80000305176</ele>
        <time>2021-04-23T11:30:59.000Z</time>
      </trkpt>
      <trkpt lat="49.16481" lon="1.25881">
        <ele>134.19999694824</ele>
        <time>2021-04-23T11:31:04.000Z</time>
      </trkpt>
      <trkpt lat="49.16479" lon="1.25886">
        <ele>134.39999389648</ele>
        <time>2021-04-23T11:31:05.000Z</time>
      </trkpt>
      <trkpt lat="49.16478" lon="1.25892">
        <ele>134.39999389648</ele>
        <time>2021-04-23T11:31:06.000Z</time>
      </trkpt>
      <trkpt lat="49.16479" lon="1.25905">
        <ele>134.80000305176</ele>
        <time>2021-04-23T11:31:08.000Z</time>
      </trkpt>
      <trkpt lat="49.16489" lon="1.2593">
        <ele>134.80000305176</ele>
        <time>2021-04-23T11:31:12.000Z</time>
      </trkpt>
      <trkpt lat="49.16499" lon="1.25962">
        <ele>134.80000305176</ele>
        <time>2021-04-23T11:31:17.000Z</time>
      </trkpt>
      <trkpt lat="49.1649" lon="1.25973">
        <ele>134.60000610352</ele>
        <time>2021-04-23T11:31:20.000Z</time>
      </trkpt>
      <trkpt lat="49.16486" lon="1.25975">
        <ele>134.39999389648</ele>
        <time>2021-04-23T11:31:21.000Z</time>
      </trkpt>
      <trkpt lat="49.16474" lon="1.25981">
        <ele>134.19999694824</ele>
        <time>2021-04-23T11:31:24.000Z</time>
      </trkpt>
      <trkpt lat="49.16468" lon="1.2599">
        <ele>134.19999694824</ele>
        <time>2021-04-23T11:31:26.000Z</time>
      </trkpt>
      <trkpt lat="49.16466" lon="1.26016">
        <ele>134.19999694824</ele>
        <time>2021-04-23T11:31:30.000Z</time>
      </trkpt>
      <trkpt lat="49.16468" lon="1.26039">
        <ele>134.39999389648</ele>
        <time>2021-04-23T11:31:33.000Z</time>
      </trkpt>
      <trkpt lat="49.16472" lon="1.26063">
        <ele>134.39999389648</ele>
        <time>2021-04-23T11:31:36.000Z</time>
      </trkpt>
      <trkpt lat="49.1648" lon="1.2612">
        <ele>134.39999389648</ele>
        <time>2021-04-23T11:31:43.000Z</time>
      </trkpt>
      <trkpt lat="49.16485" lon="1.26171">
        <ele>133.39999389648</ele>
        <time>2021-04-23T11:31:49.000Z</time>
      </trkpt>
      <trkpt lat="49.16487" lon="1.26188">
        <ele>133</ele>
        <time>2021-04-23T11:31:51.000Z</time>
      </trkpt>
      <trkpt lat="49.16491" lon="1.26255">
        <ele>132.60000610352</ele>
        <time>2021-04-23T11:31:59.000Z</time>
      </trkpt>
      <trkpt lat="49.1649" lon="1.2628">
        <ele>132.19999694824</ele>
        <time>2021-04-23T11:32:02.000Z</time>
      </trkpt>
      <trkpt lat="49.16486" lon="1.2632">
        <ele>131.60000610352</ele>
        <time>2021-04-23T11:32:07.000Z</time>
      </trkpt>
      <trkpt lat="49.16477" lon="1.26344">
        <ele>131.39999389648</ele>
        <time>2021-04-23T11:32:11.000Z</time>
      </trkpt>
      <trkpt lat="49.16471" lon="1.26352">
        <ele>131.39999389648</ele>
        <time>2021-04-23T11:32:13.000Z</time>
      </trkpt>
      <trkpt lat="49.16468" lon="1.26355">
        <ele>131.39999389648</ele>
        <time>2021-04-23T11:32:15.000Z</time>
      </trkpt>
      <trkpt lat="49.16472" lon="1.26352">
        <ele>131.39999389648</ele>
        <time>2021-04-23T11:32:18.000Z</time>
      </trkpt>
      <trkpt lat="49.16477" lon="1.26343">
        <ele>131.80000305176</ele>
        <time>2021-04-23T11:32:20.000Z</time>
      </trkpt>
      <trkpt lat="49.16483" lon="1.26332">
        <ele>132.39999389648</ele>
        <time>2021-04-23T11:32:22.000Z</time>
      </trkpt>
      <trkpt lat="49.16485" lon="1.26325">
        <ele>132.39999389648</ele>
        <time>2021-04-23T11:32:23.000Z</time>
      </trkpt>
      <trkpt lat="49.1649" lon="1.26301">
        <ele>132.60000610352</ele>
        <time>2021-04-23T11:32:26.000Z</time>
      </trkpt>
      <trkpt lat="49.16491" lon="1.26286">
        <ele>132.60000610352</ele>
        <time>2021-04-23T11:32:28.000Z</time>
      </trkpt>
      <trkpt lat="49.16491" lon="1.26271">
        <ele>132.60000610352</ele>
        <time>2021-04-23T11:32:30.000Z</time>
      </trkpt>
      <trkpt lat="49.16491" lon="1.26264">
        <ele>132.60000610352</ele>
        <time>2021-04-23T11:32:31.000Z</time>
      </trkpt>
      <trkpt lat="49.16494" lon="1.26258">
        <ele>132.80000305176</ele>
        <time>2021-04-23T11:32:33.000Z</time>
      </trkpt>
      <trkpt lat="49.16497" lon="1.26266">
        <ele>132.80000305176</ele>
        <time>2021-04-23T11:32:36.000Z</time>
      </trkpt>
      <trkpt lat="49.16498" lon="1.26271">
        <ele>132.80000305176</ele>
        <time>2021-04-23T11:32:37.000Z</time>
      </trkpt>
      <trkpt lat="49.165" lon="1.26304">
        <ele>133.19999694824</ele>
        <time>2021-04-23T11:32:43.000Z</time>
      </trkpt>
      <trkpt lat="49.16503" lon="1.26338">
        <ele>133.39999389648</ele>
        <time>2021-04-23T11:32:49.000Z</time>
      </trkpt>
      <trkpt lat="49.16503" lon="1.26343">
        <ele>133.39999389648</ele>
        <time>2021-04-23T11:32:50.000Z</time>
      </trkpt>
      <trkpt lat="49.16506" lon="1.26381">
        <ele>134.39999389648</ele>
        <time>2021-04-23T11:32:57.000Z</time>
      </trkpt>
      <trkpt lat="49.1651" lon="1.26417">
        <ele>135.60000610352</ele>
        <time>2021-04-23T11:33:04.000Z</time>
      </trkpt>
      <trkpt lat="49.1651" lon="1.26421">
        <ele>135.80000305176</ele>
        <time>2021-04-23T11:33:05.000Z</time>
      </trkpt>
      <trkpt lat="49.16511" lon="1.26435">
        <ele>136.60000610352</ele>
        <time>2021-04-23T11:33:08.000Z</time>
      </trkpt>
      <trkpt lat="49.16513" lon="1.26458">
        <ele>137.60000610352</ele>
        <time>2021-04-23T11:33:13.000Z</time>
      </trkpt>
      <trkpt lat="49.16514" lon="1.26462">
        <ele>137.80000305176</ele>
        <time>2021-04-23T11:33:14.000Z</time>
      </trkpt>
      <trkpt lat="49.16515" lon="1.26484">
        <ele>138.80000305176</ele>
        <time>2021-04-23T11:33:19.000Z</time>
      </trkpt>
      <trkpt lat="49.16516" lon="1.26493">
        <ele>139</ele>
        <time>2021-04-23T11:33:21.000Z</time>
      </trkpt>
      <trkpt lat="49.16518" lon="1.26539">
        <ele>140</ele>
        <time>2021-04-23T11:33:31.000Z</time>
      </trkpt>
      <trkpt lat="49.16519" lon="1.26558">
        <ele>141.19999694824</ele>
        <time>2021-04-23T11:33:35.000Z</time>
      </trkpt>
      <trkpt lat="49.16519" lon="1.26577">
        <ele>141.60000610352</ele>
        <time>2021-04-23T11:33:39.000Z</time>
      </trkpt>
      <trkpt lat="49.16519" lon="1.26591">
        <ele>142.19999694824</ele>
        <time>2021-04-23T11:33:42.000Z</time>
      </trkpt>
      <trkpt lat="49.16518" lon="1.26609">
        <ele>143.19999694824</ele>
        <time>2021-04-23T11:33:46.000Z</time>
      </trkpt>
      <trkpt lat="49.16518" lon="1.26624">
        <ele>143.60000610352</ele>
        <time>2021-04-23T11:33:49.000Z</time>
      </trkpt>
      <trkpt lat="49.16517" lon="1.26643">
        <ele>144.39999389648</ele>
        <time>2021-04-23T11:33:53.000Z</time>
      </trkpt>
      <trkpt lat="49.16515" lon="1.26667">
        <ele>145.39999389648</ele>
        <time>2021-04-23T11:33:58.000Z</time>
      </trkpt>
      <trkpt lat="49.16515" lon="1.26672">
        <ele>145.80000305176</ele>
        <time>2021-04-23T11:33:59.000Z</time>
      </trkpt>
      <trkpt lat="49.16512" lon="1.26704">
        <ele>146.39999389648</ele>
        <time>2021-04-23T11:34:05.000Z</time>
      </trkpt>
      <trkpt lat="49.1651" lon="1.26727">
        <ele>146.80000305176</ele>
        <time>2021-04-23T11:34:10.000Z</time>
      </trkpt>
      <trkpt lat="49.16509" lon="1.26732">
        <ele>146.80000305176</ele>
        <time>2021-04-23T11:34:11.000Z</time>
      </trkpt>
      <trkpt lat="49.16505" lon="1.26779">
        <ele>147</ele>
        <time>2021-04-23T11:34:19.000Z</time>
      </trkpt>
      <trkpt lat="49.16501" lon="1.26812">
        <ele>146.60000610352</ele>
        <time>2021-04-23T11:34:24.000Z</time>
      </trkpt>
      <trkpt lat="49.16499" lon="1.26818">
        <ele>146.39999389648</ele>
        <time>2021-04-23T11:34:25.000Z</time>
      </trkpt>
      <trkpt lat="49.16485" lon="1.26819">
        <ele>146.39999389648</ele>
        <time>2021-04-23T11:34:28.000Z</time>
      </trkpt>
      <trkpt lat="49.16461" lon="1.26815">
        <ele>146.39999389648</ele>
        <time>2021-04-23T11:34:33.000Z</time>
      </trkpt>
      <trkpt lat="49.16451" lon="1.26816">
        <ele>146.39999389648</ele>
        <time>2021-04-23T11:34:35.000Z</time>
      </trkpt>
      <trkpt lat="49.16422" lon="1.26827">
        <ele>147</ele>
        <time>2021-04-23T11:34:41.000Z</time>
      </trkpt>
      <trkpt lat="49.16378" lon="1.26846">
        <ele>147.39999389648</ele>
        <time>2021-04-23T11:34:50.000Z</time>
      </trkpt>
      <trkpt lat="49.16324" lon="1.2687">
        <ele>147.39999389648</ele>
        <time>2021-04-23T11:35:01.000Z</time>
      </trkpt>
      <trkpt lat="49.16284" lon="1.26886">
        <ele>147.60000610352</ele>
        <time>2021-04-23T11:35:09.000Z</time>
      </trkpt>
      <trkpt lat="49.16264" lon="1.26878">
        <ele>148</ele>
        <time>2021-04-23T11:35:13.000Z</time>
      </trkpt>
      <trkpt lat="49.16259" lon="1.26872">
        <ele>148</ele>
        <time>2021-04-23T11:35:14.000Z</time>
      </trkpt>
      <trkpt lat="49.16251" lon="1.26859">
        <ele>148</ele>
        <time>2021-04-23T11:35:16.000Z</time>
      </trkpt>
      <trkpt lat="49.16241" lon="1.26845">
        <ele>148.19999694824</ele>
        <time>2021-04-23T11:35:18.000Z</time>
      </trkpt>
      <trkpt lat="49.16206" lon="1.26792">
        <ele>148.39999389648</ele>
        <time>2021-04-23T11:35:26.000Z</time>
      </trkpt>
      <trkpt lat="49.16179" lon="1.26756">
        <ele>148.19999694824</ele>
        <time>2021-04-23T11:35:32.000Z</time>
      </trkpt>
      <trkpt lat="49.16173" lon="1.26754">
        <ele>148.19999694824</ele>
        <time>2021-04-23T11:35:33.000Z</time>
      </trkpt>
      <trkpt lat="49.1616" lon="1.26761">
        <ele>148</ele>
        <time>2021-04-23T11:35:36.000Z</time>
      </trkpt>
      <trkpt lat="49.16155" lon="1.26772">
        <ele>147.60000610352</ele>
        <time>2021-04-23T11:35:38.000Z</time>
      </trkpt>
      <trkpt lat="49.16145" lon="1.26793">
        <ele>147.60000610352</ele>
        <time>2021-04-23T11:35:42.000Z</time>
      </trkpt>
      <trkpt lat="49.16125" lon="1.26841">
        <ele>147.60000610352</ele>
        <time>2021-04-23T11:35:51.000Z</time>
      </trkpt>
      <trkpt lat="49.16113" lon="1.26868">
        <ele>149</ele>
        <time>2021-04-23T11:35:56.000Z</time>
      </trkpt>
      <trkpt lat="49.16106" lon="1.26884">
        <ele>149.60000610352</ele>
        <time>2021-04-23T11:35:59.000Z</time>
      </trkpt>
      <trkpt lat="49.1609" lon="1.26915">
        <ele>150</ele>
        <time>2021-04-23T11:36:05.000Z</time>
      </trkpt>
      <trkpt lat="49.16087" lon="1.26919">
        <ele>150</ele>
        <time>2021-04-23T11:36:06.000Z</time>
      </trkpt>
      <trkpt lat="49.1607" lon="1.26928">
        <ele>150.19999694824</ele>
        <time>2021-04-23T11:36:10.000Z</time>
      </trkpt>
      <trkpt lat="49.16061" lon="1.26928">
        <ele>150.39999389648</ele>
        <time>2021-04-23T11:36:12.000Z</time>
      </trkpt>
      <trkpt lat="49.16044" lon="1.26928">
        <ele>151.39999389648</ele>
        <time>2021-04-23T11:36:16.000Z</time>
      </trkpt>
      <trkpt lat="49.16035" lon="1.26927">
        <ele>152</ele>
        <time>2021-04-23T11:36:18.000Z</time>
      </trkpt>
      <trkpt lat="49.16026" lon="1.26927">
        <ele>152.60000610352</ele>
        <time>2021-04-23T11:36:20.000Z</time>
      </trkpt>
      <trkpt lat="49.16021" lon="1.26926">
        <ele>152.80000305176</ele>
        <time>2021-04-23T11:36:21.000Z</time>
      </trkpt>
      <trkpt lat="49.1601" lon="1.26922">
        <ele>153.39999389648</ele>
        <time>2021-04-23T11:36:24.000Z</time>
      </trkpt>
      <trkpt lat="49.16001" lon="1.26921">
        <ele>153.80000305176</ele>
        <time>2021-04-23T11:36:27.000Z</time>
      </trkpt>
      <trkpt lat="49.15999" lon="1.26921">
        <ele>154</ele>
        <time>2021-04-23T11:36:29.000Z</time>
      </trkpt>
      <trkpt lat="49.15999" lon="1.26921">
        <ele>154</ele>
        <time>2021-04-23T11:36:30.000Z</time>
      </trkpt>
      <trkpt lat="49.15999" lon="1.26922">
        <ele>155.19999694824</ele>
        <time>2021-04-23T11:39:00.000Z</time>
      </trkpt>
      <trkpt lat="49.16" lon="1.26928">
        <ele>155.19999694824</ele>
        <time>2021-04-23T11:39:02.000Z</time>
      </trkpt>
      <trkpt lat="49.16001" lon="1.26948">
        <ele>155</ele>
        <time>2021-04-23T11:39:06.000Z</time>
      </trkpt>
      <trkpt lat="49.16001" lon="1.26955">
        <ele>155</ele>
        <time>2021-04-23T11:39:07.000Z</time>
      </trkpt>
      <trkpt lat="49.15999" lon="1.27002">
        <ele>153.80000305176</ele>
        <time>2021-04-23T11:39:14.000Z</time>
      </trkpt>
      <trkpt lat="49.15998" lon="1.27022">
        <ele>153.19999694824</ele>
        <time>2021-04-23T11:39:17.000Z</time>
      </trkpt>
      <trkpt lat="49.15996" lon="1.2705">
        <ele>153.19999694824</ele>
        <time>2021-04-23T11:39:21.000Z</time>
      </trkpt>
      <trkpt lat="49.15992" lon="1.27119">
        <ele>153.39999389648</ele>
        <time>2021-04-23T11:39:31.000Z</time>
      </trkpt>
      <trkpt lat="49.15994" lon="1.27148">
        <ele>153.80000305176</ele>
        <time>2021-04-23T11:39:35.000Z</time>
      </trkpt>
      <trkpt lat="49.15996" lon="1.27155">
        <ele>154</ele>
        <time>2021-04-23T11:39:36.000Z</time>
      </trkpt>
      <trkpt lat="49.15999" lon="1.27168">
        <ele>154.19999694824</ele>
        <time>2021-04-23T11:39:38.000Z</time>
      </trkpt>
      <trkpt lat="49.1601" lon="1.27192">
        <ele>154.39999389648</ele>
        <time>2021-04-23T11:39:42.000Z</time>
      </trkpt>
      <trkpt lat="49.16013" lon="1.27198">
        <ele>154.60000610352</ele>
        <time>2021-04-23T11:39:43.000Z</time>
      </trkpt>
      <trkpt lat="49.16042" lon="1.27247">
        <ele>154.80000305176</ele>
        <time>2021-04-23T11:39:51.000Z</time>
      </trkpt>
      <trkpt lat="49.1608" lon="1.27314">
        <ele>154.39999389648</ele>
        <time>2021-04-23T11:40:01.000Z</time>
      </trkpt>
      <trkpt lat="49.16084" lon="1.27321">
        <ele>154.39999389648</ele>
        <time>2021-04-23T11:40:02.000Z</time>
      </trkpt>
      <trkpt lat="49.16106" lon="1.27372">
        <ele>153.39999389648</ele>
        <time>2021-04-23T11:40:09.000Z</time>
      </trkpt>
      <trkpt lat="49.16112" lon="1.27387">
        <ele>152.80000305176</ele>
        <time>2021-04-23T11:40:11.000Z</time>
      </trkpt>
      <trkpt lat="49.16132" lon="1.27443">
        <ele>152.19999694824</ele>
        <time>2021-04-23T11:40:18.000Z</time>
      </trkpt>
      <trkpt lat="49.16138" lon="1.27459">
        <ele>152.19999694824</ele>
        <time>2021-04-23T11:40:20.000Z</time>
      </trkpt>
      <trkpt lat="49.16144" lon="1.27473">
        <ele>152</ele>
        <time>2021-04-23T11:40:22.000Z</time>
      </trkpt>
      <trkpt lat="49.16155" lon="1.27499">
        <ele>152</ele>
        <time>2021-04-23T11:40:26.000Z</time>
      </trkpt>
      <trkpt lat="49.16159" lon="1.27512">
        <ele>152</ele>
        <time>2021-04-23T11:40:28.000Z</time>
      </trkpt>
      <trkpt lat="49.16164" lon="1.27531">
        <ele>151.80000305176</ele>
        <time>2021-04-23T11:40:31.000Z</time>
      </trkpt>
      <trkpt lat="49.16184" lon="1.27586">
        <ele>151.19999694824</ele>
        <time>2021-04-23T11:40:39.000Z</time>
      </trkpt>
      <trkpt lat="49.16211" lon="1.2766">
        <ele>150.80000305176</ele>
        <time>2021-04-23T11:40:49.000Z</time>
      </trkpt>
      <trkpt lat="49.16216" lon="1.27674">
        <ele>150.80000305176</ele>
        <time>2021-04-23T11:40:51.000Z</time>
      </trkpt>
      <trkpt lat="49.16221" lon="1.27689">
        <ele>150.39999389648</ele>
        <time>2021-04-23T11:40:53.000Z</time>
      </trkpt>
      <trkpt lat="49.16243" lon="1.27748">
        <ele>150.19999694824</ele>
        <time>2021-04-23T11:41:01.000Z</time>
      </trkpt>
      <trkpt lat="49.1627" lon="1.27822">
        <ele>150</ele>
        <time>2021-04-23T11:41:11.000Z</time>
      </trkpt>
      <trkpt lat="49.16278" lon="1.27844">
        <ele>149.80000305176</ele>
        <time>2021-04-23T11:41:14.000Z</time>
      </trkpt>
      <trkpt lat="49.16303" lon="1.27913">
        <ele>149.39999389648</ele>
        <time>2021-04-23T11:41:23.000Z</time>
      </trkpt>
      <trkpt lat="49.16332" lon="1.27993">
        <ele>149.19999694824</ele>
        <time>2021-04-23T11:41:33.000Z</time>
      </trkpt>
      <trkpt lat="49.16335" lon="1.28001">
        <ele>149.19999694824</ele>
        <time>2021-04-23T11:41:34.000Z</time>
      </trkpt>
      <trkpt lat="49.16359" lon="1.28065">
        <ele>149</ele>
        <time>2021-04-23T11:41:42.000Z</time>
      </trkpt>
      <trkpt lat="49.16373" lon="1.28104">
        <ele>148.60000610352</ele>
        <time>2021-04-23T11:41:47.000Z</time>
      </trkpt>
      <trkpt lat="49.16388" lon="1.28144">
        <ele>147.60000610352</ele>
        <time>2021-04-23T11:41:52.000Z</time>
      </trkpt>
      <trkpt lat="49.16391" lon="1.28152">
        <ele>147.39999389648</ele>
        <time>2021-04-23T11:41:53.000Z</time>
      </trkpt>
      <trkpt lat="49.16417" lon="1.28215">
        <ele>147.19999694824</ele>
        <time>2021-04-23T11:42:01.000Z</time>
      </trkpt>
      <trkpt lat="49.16443" lon="1.28265">
        <ele>146.19999694824</ele>
        <time>2021-04-23T11:42:08.000Z</time>
      </trkpt>
      <trkpt lat="49.16447" lon="1.28272">
        <ele>146</ele>
        <time>2021-04-23T11:42:09.000Z</time>
      </trkpt>
      <trkpt lat="49.16479" lon="1.28316">
        <ele>145.19999694824</ele>
        <time>2021-04-23T11:42:16.000Z</time>
      </trkpt>
      <trkpt lat="49.16483" lon="1.28322">
        <ele>145.19999694824</ele>
        <time>2021-04-23T11:42:17.000Z</time>
      </trkpt>
      <trkpt lat="49.16511" lon="1.28367">
        <ele>144.60000610352</ele>
        <time>2021-04-23T11:42:24.000Z</time>
      </trkpt>
      <trkpt lat="49.16519" lon="1.28382">
        <ele>144</ele>
        <time>2021-04-23T11:42:26.000Z</time>
      </trkpt>
      <trkpt lat="49.16543" lon="1.28432">
        <ele>143</ele>
        <time>2021-04-23T11:42:33.000Z</time>
      </trkpt>
      <trkpt lat="49.16546" lon="1.28439">
        <ele>143</ele>
        <time>2021-04-23T11:42:34.000Z</time>
      </trkpt>
      <trkpt lat="49.1657" lon="1.28487">
        <ele>141.80000305176</ele>
        <time>2021-04-23T11:42:41.000Z</time>
      </trkpt>
      <trkpt lat="49.16577" lon="1.285">
        <ele>141.19999694824</ele>
        <time>2021-04-23T11:42:43.000Z</time>
      </trkpt>
      <trkpt lat="49.16586" lon="1.28511">
        <ele>140.80000305176</ele>
        <time>2021-04-23T11:42:45.000Z</time>
      </trkpt>
      <trkpt lat="49.16595" lon="1.2852">
        <ele>140.80000305176</ele>
        <time>2021-04-23T11:42:47.000Z</time>
      </trkpt>
      <trkpt lat="49.16601" lon="1.28524">
        <ele>140.60000610352</ele>
        <time>2021-04-23T11:42:48.000Z</time>
      </trkpt>
      <trkpt lat="49.16616" lon="1.28536">
        <ele>140.60000610352</ele>
        <time>2021-04-23T11:42:51.000Z</time>
      </trkpt>
      <trkpt lat="49.16624" lon="1.2855">
        <ele>140.80000305176</ele>
        <time>2021-04-23T11:42:53.000Z</time>
      </trkpt>
      <trkpt lat="49.1663" lon="1.28567">
        <ele>141</ele>
        <time>2021-04-23T11:42:55.000Z</time>
      </trkpt>
      <trkpt lat="49.16633" lon="1.28576">
        <ele>141</ele>
        <time>2021-04-23T11:42:56.000Z</time>
      </trkpt>
      <trkpt lat="49.16637" lon="1.28595">
        <ele>141.39999389648</ele>
        <time>2021-04-23T11:42:58.000Z</time>
      </trkpt>
      <trkpt lat="49.16657" lon="1.2866">
        <ele>141.60000610352</ele>
        <time>2021-04-23T11:43:05.000Z</time>
      </trkpt>
      <trkpt lat="49.16682" lon="1.28729">
        <ele>141</ele>
        <time>2021-04-23T11:43:13.000Z</time>
      </trkpt>
      <trkpt lat="49.16701" lon="1.28784">
        <ele>139.80000305176</ele>
        <time>2021-04-23T11:43:20.000Z</time>
      </trkpt>
      <trkpt lat="49.16703" lon="1.28791">
        <ele>139.60000610352</ele>
        <time>2021-04-23T11:43:21.000Z</time>
      </trkpt>
      <trkpt lat="49.16712" lon="1.28838">
        <ele>138.80000305176</ele>
        <time>2021-04-23T11:43:27.000Z</time>
      </trkpt>
      <trkpt lat="49.16715" lon="1.28853">
        <ele>138.80000305176</ele>
        <time>2021-04-23T11:43:29.000Z</time>
      </trkpt>
      <trkpt lat="49.16719" lon="1.28866">
        <ele>138.60000610352</ele>
        <time>2021-04-23T11:43:31.000Z</time>
      </trkpt>
      <trkpt lat="49.16731" lon="1.2889">
        <ele>138.60000610352</ele>
        <time>2021-04-23T11:43:35.000Z</time>
      </trkpt>
      <trkpt lat="49.16756" lon="1.28937">
        <ele>139.60000610352</ele>
        <time>2021-04-23T11:43:43.000Z</time>
      </trkpt>
      <trkpt lat="49.16761" lon="1.28949">
        <ele>140</ele>
        <time>2021-04-23T11:43:45.000Z</time>
      </trkpt>
      <trkpt lat="49.16768" lon="1.2897">
        <ele>140.19999694824</ele>
        <time>2021-04-23T11:43:48.000Z</time>
      </trkpt>
      <trkpt lat="49.1677" lon="1.28985">
        <ele>140.39999389648</ele>
        <time>2021-04-23T11:43:50.000Z</time>
      </trkpt>
      <trkpt lat="49.16775" lon="1.2904">
        <ele>140.39999389648</ele>
        <time>2021-04-23T11:43:57.000Z</time>
      </trkpt>
      <trkpt lat="49.16786" lon="1.29093">
        <ele>140.60000610352</ele>
        <time>2021-04-23T11:44:04.000Z</time>
      </trkpt>
      <trkpt lat="49.16795" lon="1.29122">
        <ele>140.80000305176</ele>
        <time>2021-04-23T11:44:08.000Z</time>
      </trkpt>
      <trkpt lat="49.16798" lon="1.29129">
        <ele>140.80000305176</ele>
        <time>2021-04-23T11:44:09.000Z</time>
      </trkpt>
      <trkpt lat="49.16807" lon="1.29149">
        <ele>141.39999389648</ele>
        <time>2021-04-23T11:44:12.000Z</time>
      </trkpt>
      <trkpt lat="49.16823" lon="1.2918">
        <ele>141.60000610352</ele>
        <time>2021-04-23T11:44:17.000Z</time>
      </trkpt>
      <trkpt lat="49.16856" lon="1.29234">
        <ele>141.39999389648</ele>
        <time>2021-04-23T11:44:26.000Z</time>
      </trkpt>
      <trkpt lat="49.16883" lon="1.29278">
        <ele>141.19999694824</ele>
        <time>2021-04-23T11:44:34.000Z</time>
      </trkpt>
      <trkpt lat="49.16891" lon="1.29293">
        <ele>141.19999694824</ele>
        <time>2021-04-23T11:44:37.000Z</time>
      </trkpt>
      <trkpt lat="49.16898" lon="1.29305">
        <ele>141.39999389648</ele>
        <time>2021-04-23T11:44:40.000Z</time>
      </trkpt>
      <trkpt lat="49.169" lon="1.29309">
        <ele>141.39999389648</ele>
        <time>2021-04-23T11:44:43.000Z</time>
      </trkpt>
      <trkpt lat="49.169" lon="1.29309">
        <ele>141.39999389648</ele>
        <time>2021-04-23T11:44:44.000Z</time>
      </trkpt>
      <trkpt lat="49.16902" lon="1.29312">
        <ele>142.39999389648</ele>
        <time>2021-04-23T11:44:53.000Z</time>
      </trkpt>
      <trkpt lat="49.16905" lon="1.29316">
        <ele>142.60000610352</ele>
        <time>2021-04-23T11:44:55.000Z</time>
      </trkpt>
      <trkpt lat="49.16911" lon="1.29318">
        <ele>142.60000610352</ele>
        <time>2021-04-23T11:44:57.000Z</time>
      </trkpt>
      <trkpt lat="49.16919" lon="1.29322">
        <ele>142.60000610352</ele>
        <time>2021-04-23T11:44:59.000Z</time>
      </trkpt>
      <trkpt lat="49.16936" lon="1.29344">
        <ele>142.39999389648</ele>
        <time>2021-04-23T11:45:04.000Z</time>
      </trkpt>
      <trkpt lat="49.1694" lon="1.29348">
        <ele>142.19999694824</ele>
        <time>2021-04-23T11:45:05.000Z</time>
      </trkpt>
      <trkpt lat="49.16958" lon="1.29364">
        <ele>140.80000305176</ele>
        <time>2021-04-23T11:45:09.000Z</time>
      </trkpt>
      <trkpt lat="49.16971" lon="1.29377">
        <ele>140.39999389648</ele>
        <time>2021-04-23T11:45:12.000Z</time>
      </trkpt>
      <trkpt lat="49.17004" lon="1.29416">
        <ele>140.19999694824</ele>
        <time>2021-04-23T11:45:20.000Z</time>
      </trkpt>
      <trkpt lat="49.17029" lon="1.29457">
        <ele>140.19999694824</ele>
        <time>2021-04-23T11:45:27.000Z</time>
      </trkpt>
      <trkpt lat="49.17047" lon="1.29492">
        <ele>139.60000610352</ele>
        <time>2021-04-23T11:45:33.000Z</time>
      </trkpt>
      <trkpt lat="49.1705" lon="1.29498">
        <ele>139.60000610352</ele>
        <time>2021-04-23T11:45:34.000Z</time>
      </trkpt>
      <trkpt lat="49.17065" lon="1.29528">
        <ele>138.80000305176</ele>
        <time>2021-04-23T11:45:39.000Z</time>
      </trkpt>
      <trkpt lat="49.17077" lon="1.29553">
        <ele>138.60000610352</ele>
        <time>2021-04-23T11:45:43.000Z</time>
      </trkpt>
      <trkpt lat="49.171" lon="1.29599">
        <ele>138.80000305176</ele>
        <time>2021-04-23T11:45:51.000Z</time>
      </trkpt>
      <trkpt lat="49.17131" lon="1.29661">
        <ele>138.39999389648</ele>
        <time>2021-04-23T11:46:01.000Z</time>
      </trkpt>
      <trkpt lat="49.17146" lon="1.29691">
        <ele>137.60000610352</ele>
        <time>2021-04-23T11:46:06.000Z</time>
      </trkpt>
      <trkpt lat="49.17158" lon="1.29715">
        <ele>137.39999389648</ele>
        <time>2021-04-23T11:46:10.000Z</time>
      </trkpt>
      <trkpt lat="49.17163" lon="1.29727">
        <ele>137.39999389648</ele>
        <time>2021-04-23T11:46:12.000Z</time>
      </trkpt>
      <trkpt lat="49.17173" lon="1.29742">
        <ele>137.39999389648</ele>
        <time>2021-04-23T11:46:15.000Z</time>
      </trkpt>
      <trkpt lat="49.17176" lon="1.29748">
        <ele>137.19999694824</ele>
        <time>2021-04-23T11:46:16.000Z</time>
      </trkpt>
      <trkpt lat="49.17181" lon="1.29769">
        <ele>137.19999694824</ele>
        <time>2021-04-23T11:46:19.000Z</time>
      </trkpt>
      <trkpt lat="49.17182" lon="1.29797">
        <ele>137.19999694824</ele>
        <time>2021-04-23T11:46:23.000Z</time>
      </trkpt>
      <trkpt lat="49.17183" lon="1.29819">
        <ele>137.19999694824</ele>
        <time>2021-04-23T11:46:26.000Z</time>
      </trkpt>
      <trkpt lat="49.17184" lon="1.29826">
        <ele>137</ele>
        <time>2021-04-23T11:46:27.000Z</time>
      </trkpt>
      <trkpt lat="49.17186" lon="1.29849">
        <ele>136.80000305176</ele>
        <time>2021-04-23T11:46:30.000Z</time>
      </trkpt>
      <trkpt lat="49.17187" lon="1.29873">
        <ele>136.60000610352</ele>
        <time>2021-04-23T11:46:33.000Z</time>
      </trkpt>
      <trkpt lat="49.17187" lon="1.29881">
        <ele>136.39999389648</ele>
        <time>2021-04-23T11:46:34.000Z</time>
      </trkpt>
      <trkpt lat="49.17186" lon="1.29899">
        <ele>136.19999694824</ele>
        <time>2021-04-23T11:46:37.000Z</time>
      </trkpt>
      <trkpt lat="49.17177" lon="1.29908">
        <ele>136.19999694824</ele>
        <time>2021-04-23T11:46:40.000Z</time>
      </trkpt>
      <trkpt lat="49.17152" lon="1.29922">
        <ele>136.60000610352</ele>
        <time>2021-04-23T11:46:46.000Z</time>
      </trkpt>
      <trkpt lat="49.17115" lon="1.29946">
        <ele>137.19999694824</ele>
        <time>2021-04-23T11:46:54.000Z</time>
      </trkpt>
      <trkpt lat="49.1707" lon="1.29978">
        <ele>137.19999694824</ele>
        <time>2021-04-23T11:47:03.000Z</time>
      </trkpt>
      <trkpt lat="49.17028" lon="1.30008">
        <ele>137</ele>
        <time>2021-04-23T11:47:11.000Z</time>
      </trkpt>
      <trkpt lat="49.16976" lon="1.30044">
        <ele>136.60000610352</ele>
        <time>2021-04-23T11:47:20.000Z</time>
      </trkpt>
      <trkpt lat="49.1697" lon="1.30048">
        <ele>136.60000610352</ele>
        <time>2021-04-23T11:47:21.000Z</time>
      </trkpt>
      <trkpt lat="49.16918" lon="1.30086">
        <ele>136.19999694824</ele>
        <time>2021-04-23T11:47:30.000Z</time>
      </trkpt>
      <trkpt lat="49.16912" lon="1.3009">
        <ele>135.80000305176</ele>
        <time>2021-04-23T11:47:31.000Z</time>
      </trkpt>
      <trkpt lat="49.16901" lon="1.30098">
        <ele>135.60000610352</ele>
        <time>2021-04-23T11:47:33.000Z</time>
      </trkpt>
      <trkpt lat="49.16851" lon="1.30134">
        <ele>134.80000305176</ele>
        <time>2021-04-23T11:47:42.000Z</time>
      </trkpt>
      <trkpt lat="49.16807" lon="1.30169">
        <ele>135</ele>
        <time>2021-04-23T11:47:50.000Z</time>
      </trkpt>
      <trkpt lat="49.16803" lon="1.30176">
        <ele>135</ele>
        <time>2021-04-23T11:47:51.000Z</time>
      </trkpt>
      <trkpt lat="49.16799" lon="1.30202">
        <ele>135</ele>
        <time>2021-04-23T11:47:54.000Z</time>
      </trkpt>
      <trkpt lat="49.16801" lon="1.30222">
        <ele>134.80000305176</ele>
        <time>2021-04-23T11:47:56.000Z</time>
      </trkpt>
      <trkpt lat="49.16805" lon="1.30241">
        <ele>134.39999389648</ele>
        <time>2021-04-23T11:47:58.000Z</time>
      </trkpt>
      <trkpt lat="49.16807" lon="1.3025">
        <ele>134.19999694824</ele>
        <time>2021-04-23T11:47:59.000Z</time>
      </trkpt>
      <trkpt lat="49.16812" lon="1.30279">
        <ele>134</ele>
        <time>2021-04-23T11:48:02.000Z</time>
      </trkpt>
      <trkpt lat="49.16815" lon="1.30299">
        <ele>133.80000305176</ele>
        <time>2021-04-23T11:48:04.000Z</time>
      </trkpt>
      <trkpt lat="49.16819" lon="1.30319">
        <ele>133.39999389648</ele>
        <time>2021-04-23T11:48:06.000Z</time>
      </trkpt>
      <trkpt lat="49.16826" lon="1.30359">
        <ele>132.80000305176</ele>
        <time>2021-04-23T11:48:10.000Z</time>
      </trkpt>
      <trkpt lat="49.16836" lon="1.3041">
        <ele>132.39999389648</ele>
        <time>2021-04-23T11:48:15.000Z</time>
      </trkpt>
      <trkpt lat="49.1684" lon="1.3043">
        <ele>132.39999389648</ele>
        <time>2021-04-23T11:48:17.000Z</time>
      </trkpt>
      <trkpt lat="49.16842" lon="1.30451">
        <ele>132.19999694824</ele>
        <time>2021-04-23T11:48:19.000Z</time>
      </trkpt>
      <trkpt lat="49.16857" lon="1.30518">
        <ele>131.60000610352</ele>
        <time>2021-04-23T11:48:26.000Z</time>
      </trkpt>
      <trkpt lat="49.16859" lon="1.30528">
        <ele>131.19999694824</ele>
        <time>2021-04-23T11:48:27.000Z</time>
      </trkpt>
      <trkpt lat="49.16871" lon="1.30586">
        <ele>130.60000610352</ele>
        <time>2021-04-23T11:48:33.000Z</time>
      </trkpt>
      <trkpt lat="49.16877" lon="1.30624">
        <ele>130.39999389648</ele>
        <time>2021-04-23T11:48:37.000Z</time>
      </trkpt>
      <trkpt lat="49.16878" lon="1.30634">
        <ele>130.39999389648</ele>
        <time>2021-04-23T11:48:38.000Z</time>
      </trkpt>
      <trkpt lat="49.16882" lon="1.30661">
        <ele>130.19999694824</ele>
        <time>2021-04-23T11:48:41.000Z</time>
      </trkpt>
      <trkpt lat="49.16884" lon="1.30689">
        <ele>129.80000305176</ele>
        <time>2021-04-23T11:48:44.000Z</time>
      </trkpt>
      <trkpt lat="49.16888" lon="1.30754">
        <ele>129.60000610352</ele>
        <time>2021-04-23T11:48:51.000Z</time>
      </trkpt>
      <trkpt lat="49.16889" lon="1.30773">
        <ele>129.60000610352</ele>
        <time>2021-04-23T11:48:54.000Z</time>
      </trkpt>
      <trkpt lat="49.16889" lon="1.30792">
        <ele>129.80000305176</ele>
        <time>2021-04-23T11:48:59.000Z</time>
      </trkpt>
      <trkpt lat="49.16894" lon="1.30821">
        <ele>130</ele>
        <time>2021-04-23T11:49:04.000Z</time>
      </trkpt>
      <trkpt lat="49.169" lon="1.30856">
        <ele>130.39999389648</ele>
        <time>2021-04-23T11:49:10.000Z</time>
      </trkpt>
      <trkpt lat="49.16901" lon="1.30862">
        <ele>130.39999389648</ele>
        <time>2021-04-23T11:49:11.000Z</time>
      </trkpt>
      <trkpt lat="49.16904" lon="1.30877">
        <ele>130.39999389648</ele>
        <time>2021-04-23T11:49:14.000Z</time>
      </trkpt>
      <trkpt lat="49.16904" lon="1.30883">
        <ele>130.39999389648</ele>
        <time>2021-04-23T11:49:15.000Z</time>
      </trkpt>
      <trkpt lat="49.16904" lon="1.30913">
        <ele>130.19999694824</ele>
        <time>2021-04-23T11:49:19.000Z</time>
      </trkpt>
      <trkpt lat="49.16908" lon="1.30947">
        <ele>130.19999694824</ele>
        <time>2021-04-23T11:49:24.000Z</time>
      </trkpt>
      <trkpt lat="49.1691" lon="1.3096">
        <ele>130</ele>
        <time>2021-04-23T11:49:26.000Z</time>
      </trkpt>
      <trkpt lat="49.16913" lon="1.30988">
        <ele>130</ele>
        <time>2021-04-23T11:49:30.000Z</time>
      </trkpt>
      <trkpt lat="49.16915" lon="1.30995">
        <ele>130</ele>
        <time>2021-04-23T11:49:31.000Z</time>
      </trkpt>
      <trkpt lat="49.16922" lon="1.31016">
        <ele>130.19999694824</ele>
        <time>2021-04-23T11:49:34.000Z</time>
      </trkpt>
      <trkpt lat="49.16925" lon="1.31024">
        <ele>130.19999694824</ele>
        <time>2021-04-23T11:49:35.000Z</time>
      </trkpt>
      <trkpt lat="49.16933" lon="1.31058">
        <ele>131</ele>
        <time>2021-04-23T11:49:39.000Z</time>
      </trkpt>
      <trkpt lat="49.16942" lon="1.31088">
        <ele>131</ele>
        <time>2021-04-23T11:49:43.000Z</time>
      </trkpt>
      <trkpt lat="49.16944" lon="1.31096">
        <ele>131.19999694824</ele>
        <time>2021-04-23T11:49:44.000Z</time>
      </trkpt>
      <trkpt lat="49.16951" lon="1.31129">
        <ele>131.19999694824</ele>
        <time>2021-04-23T11:49:48.000Z</time>
      </trkpt>
      <trkpt lat="49.16954" lon="1.31145">
        <ele>131.19999694824</ele>
        <time>2021-04-23T11:49:50.000Z</time>
      </trkpt>
      <trkpt lat="49.16956" lon="1.31152">
        <ele>131.19999694824</ele>
        <time>2021-04-23T11:49:51.000Z</time>
      </trkpt>
      <trkpt lat="49.16963" lon="1.31181">
        <ele>131.39999389648</ele>
        <time>2021-04-23T11:49:55.000Z</time>
      </trkpt>
      <trkpt lat="49.16966" lon="1.31204">
        <ele>131.39999389648</ele>
        <time>2021-04-23T11:49:58.000Z</time>
      </trkpt>
      <trkpt lat="49.16966" lon="1.31212">
        <ele>131.39999389648</ele>
        <time>2021-04-23T11:49:59.000Z</time>
      </trkpt>
      <trkpt lat="49.16966" lon="1.31219">
        <ele>131.39999389648</ele>
        <time>2021-04-23T11:50:00.000Z</time>
      </trkpt>
      <trkpt lat="49.16966" lon="1.31243">
        <ele>131.60000610352</ele>
        <time>2021-04-23T11:50:03.000Z</time>
      </trkpt>
      <trkpt lat="49.16967" lon="1.3126">
        <ele>131.60000610352</ele>
        <time>2021-04-23T11:50:05.000Z</time>
      </trkpt>
      <trkpt lat="49.16971" lon="1.3132">
        <ele>132</ele>
        <time>2021-04-23T11:50:12.000Z</time>
      </trkpt>
      <trkpt lat="49.16972" lon="1.31343">
        <ele>132.19999694824</ele>
        <time>2021-04-23T11:50:15.000Z</time>
      </trkpt>
      <trkpt lat="49.16975" lon="1.31369">
        <ele>132.19999694824</ele>
        <time>2021-04-23T11:50:18.000Z</time>
      </trkpt>
      <trkpt lat="49.16976" lon="1.31388">
        <ele>132.19999694824</ele>
        <time>2021-04-23T11:50:20.000Z</time>
      </trkpt>
      <trkpt lat="49.16976" lon="1.31407">
        <ele>132.19999694824</ele>
        <time>2021-04-23T11:50:22.000Z</time>
      </trkpt>
      <trkpt lat="49.16979" lon="1.31434">
        <ele>132.19999694824</ele>
        <time>2021-04-23T11:50:25.000Z</time>
      </trkpt>
      <trkpt lat="49.16978" lon="1.31466">
        <ele>132.19999694824</ele>
        <time>2021-04-23T11:50:29.000Z</time>
      </trkpt>
      <trkpt lat="49.16974" lon="1.31502">
        <ele>132.60000610352</ele>
        <time>2021-04-23T11:50:33.000Z</time>
      </trkpt>
      <trkpt lat="49.16973" lon="1.31511">
        <ele>132.80000305176</ele>
        <time>2021-04-23T11:50:34.000Z</time>
      </trkpt>
      <trkpt lat="49.16969" lon="1.31543">
        <ele>132.80000305176</ele>
        <time>2021-04-23T11:50:38.000Z</time>
      </trkpt>
      <trkpt lat="49.1697" lon="1.31574">
        <ele>133</ele>
        <time>2021-04-23T11:50:42.000Z</time>
      </trkpt>
      <trkpt lat="49.1697" lon="1.31583">
        <ele>133</ele>
        <time>2021-04-23T11:50:43.000Z</time>
      </trkpt>
      <trkpt lat="49.16968" lon="1.31608">
        <ele>133</ele>
        <time>2021-04-23T11:50:46.000Z</time>
      </trkpt>
      <trkpt lat="49.16967" lon="1.31625">
        <ele>133</ele>
        <time>2021-04-23T11:50:48.000Z</time>
      </trkpt>
      <trkpt lat="49.16965" lon="1.31657">
        <ele>133</ele>
        <time>2021-04-23T11:50:52.000Z</time>
      </trkpt>
      <trkpt lat="49.16964" lon="1.31673">
        <ele>133.19999694824</ele>
        <time>2021-04-23T11:50:54.000Z</time>
      </trkpt>
      <trkpt lat="49.1696" lon="1.31688">
        <ele>133.39999389648</ele>
        <time>2021-04-23T11:50:56.000Z</time>
      </trkpt>
      <trkpt lat="49.16956" lon="1.31702">
        <ele>133.39999389648</ele>
        <time>2021-04-23T11:50:58.000Z</time>
      </trkpt>
      <trkpt lat="49.16941" lon="1.31735">
        <ele>133.39999389648</ele>
        <time>2021-04-23T11:51:03.000Z</time>
      </trkpt>
      <trkpt lat="49.16938" lon="1.31741">
        <ele>133.39999389648</ele>
        <time>2021-04-23T11:51:04.000Z</time>
      </trkpt>
      <trkpt lat="49.16932" lon="1.31754">
        <ele>133.39999389648</ele>
        <time>2021-04-23T11:51:06.000Z</time>
      </trkpt>
      <trkpt lat="49.16926" lon="1.31765">
        <ele>133.39999389648</ele>
        <time>2021-04-23T11:51:08.000Z</time>
      </trkpt>
      <trkpt lat="49.1692" lon="1.31777">
        <ele>133.39999389648</ele>
        <time>2021-04-23T11:51:10.000Z</time>
      </trkpt>
      <trkpt lat="49.16917" lon="1.31784">
        <ele>133.39999389648</ele>
        <time>2021-04-23T11:51:11.000Z</time>
      </trkpt>
      <trkpt lat="49.16911" lon="1.31796">
        <ele>133.60000610352</ele>
        <time>2021-04-23T11:51:13.000Z</time>
      </trkpt>
      <trkpt lat="49.16905" lon="1.31809">
        <ele>133.60000610352</ele>
        <time>2021-04-23T11:51:15.000Z</time>
      </trkpt>
      <trkpt lat="49.16895" lon="1.31826">
        <ele>133.60000610352</ele>
        <time>2021-04-23T11:51:18.000Z</time>
      </trkpt>
      <trkpt lat="49.16883" lon="1.3186">
        <ele>133.60000610352</ele>
        <time>2021-04-23T11:51:23.000Z</time>
      </trkpt>
      <trkpt lat="49.1688" lon="1.31866">
        <ele>133.60000610352</ele>
        <time>2021-04-23T11:51:24.000Z</time>
      </trkpt>
      <trkpt lat="49.16875" lon="1.31881">
        <ele>133.60000610352</ele>
        <time>2021-04-23T11:51:26.000Z</time>
      </trkpt>
      <trkpt lat="49.16872" lon="1.31888">
        <ele>133.60000610352</ele>
        <time>2021-04-23T11:51:27.000Z</time>
      </trkpt>
      <trkpt lat="49.16865" lon="1.31902">
        <ele>133.19999694824</ele>
        <time>2021-04-23T11:51:29.000Z</time>
      </trkpt>
      <trkpt lat="49.16853" lon="1.31923">
        <ele>132.80000305176</ele>
        <time>2021-04-23T11:51:32.000Z</time>
      </trkpt>
      <trkpt lat="49.16839" lon="1.31953">
        <ele>132.60000610352</ele>
        <time>2021-04-23T11:51:36.000Z</time>
      </trkpt>
      <trkpt lat="49.16835" lon="1.3196">
        <ele>132.60000610352</ele>
        <time>2021-04-23T11:51:37.000Z</time>
      </trkpt>
      <trkpt lat="49.16826" lon="1.31991">
        <ele>132.19999694824</ele>
        <time>2021-04-23T11:51:41.000Z</time>
      </trkpt>
      <trkpt lat="49.16825" lon="1.32">
        <ele>132</ele>
        <time>2021-04-23T11:51:42.000Z</time>
      </trkpt>
      <trkpt lat="49.16815" lon="1.32046">
        <ele>131.60000610352</ele>
        <time>2021-04-23T11:51:47.000Z</time>
      </trkpt>
      <trkpt lat="49.16813" lon="1.32056">
        <ele>131.39999389648</ele>
        <time>2021-04-23T11:51:48.000Z</time>
      </trkpt>
      <trkpt lat="49.16798" lon="1.32122">
        <ele>130.60000610352</ele>
        <time>2021-04-23T11:51:55.000Z</time>
      </trkpt>
      <trkpt lat="49.16796" lon="1.32132">
        <ele>130.19999694824</ele>
        <time>2021-04-23T11:51:56.000Z</time>
      </trkpt>
      <trkpt lat="49.16788" lon="1.32168">
        <ele>129.39999389648</ele>
        <time>2021-04-23T11:52:00.000Z</time>
      </trkpt>
      <trkpt lat="49.16787" lon="1.32177">
        <ele>129.19999694824</ele>
        <time>2021-04-23T11:52:01.000Z</time>
      </trkpt>
      <trkpt lat="49.16781" lon="1.32204">
        <ele>128.60000610352</ele>
        <time>2021-04-23T11:52:04.000Z</time>
      </trkpt>
      <trkpt lat="49.16779" lon="1.32222">
        <ele>127.80000305176</ele>
        <time>2021-04-23T11:52:06.000Z</time>
      </trkpt>
      <trkpt lat="49.16778" lon="1.32231">
        <ele>127.40000152588</ele>
        <time>2021-04-23T11:52:07.000Z</time>
      </trkpt>
      <trkpt lat="49.1677" lon="1.32247">
        <ele>126.80000305176</ele>
        <time>2021-04-23T11:52:09.000Z</time>
      </trkpt>
      <trkpt lat="49.16755" lon="1.32264">
        <ele>126</ele>
        <time>2021-04-23T11:52:12.000Z</time>
      </trkpt>
      <trkpt lat="49.16749" lon="1.32269">
        <ele>126</ele>
        <time>2021-04-23T11:52:13.000Z</time>
      </trkpt>
      <trkpt lat="49.16738" lon="1.32279">
        <ele>125.80000305176</ele>
        <time>2021-04-23T11:52:15.000Z</time>
      </trkpt>
      <trkpt lat="49.16721" lon="1.32293">
        <ele>125.19999694824</ele>
        <time>2021-04-23T11:52:18.000Z</time>
      </trkpt>
      <trkpt lat="49.16714" lon="1.32297">
        <ele>124.80000305176</ele>
        <time>2021-04-23T11:52:19.000Z</time>
      </trkpt>
      <trkpt lat="49.16702" lon="1.32304">
        <ele>124.59999847412</ele>
        <time>2021-04-23T11:52:21.000Z</time>
      </trkpt>
      <trkpt lat="49.16682" lon="1.32315">
        <ele>123</ele>
        <time>2021-04-23T11:52:24.000Z</time>
      </trkpt>
      <trkpt lat="49.16674" lon="1.32321">
        <ele>122.40000152588</ele>
        <time>2021-04-23T11:52:25.000Z</time>
      </trkpt>
      <trkpt lat="49.16658" lon="1.32335">
        <ele>121.59999847412</ele>
        <time>2021-04-23T11:52:27.000Z</time>
      </trkpt>
      <trkpt lat="49.16641" lon="1.32351">
        <ele>120.59999847412</ele>
        <time>2021-04-23T11:52:29.000Z</time>
      </trkpt>
      <trkpt lat="49.16616" lon="1.32376">
        <ele>119.19999694824</ele>
        <time>2021-04-23T11:52:32.000Z</time>
      </trkpt>
      <trkpt lat="49.16599" lon="1.32394">
        <ele>117.80000305176</ele>
        <time>2021-04-23T11:52:34.000Z</time>
      </trkpt>
      <trkpt lat="49.16582" lon="1.3241">
        <ele>116</ele>
        <time>2021-04-23T11:52:36.000Z</time>
      </trkpt>
      <trkpt lat="49.16573" lon="1.32419">
        <ele>114.80000305176</ele>
        <time>2021-04-23T11:52:37.000Z</time>
      </trkpt>
      <trkpt lat="49.16557" lon="1.3244">
        <ele>112.80000305176</ele>
        <time>2021-04-23T11:52:39.000Z</time>
      </trkpt>
      <trkpt lat="49.16543" lon="1.32463">
        <ele>111.59999847412</ele>
        <time>2021-04-23T11:52:41.000Z</time>
      </trkpt>
      <trkpt lat="49.16536" lon="1.32476">
        <ele>110.80000305176</ele>
        <time>2021-04-23T11:52:42.000Z</time>
      </trkpt>
      <trkpt lat="49.1653" lon="1.32489">
        <ele>110</ele>
        <time>2021-04-23T11:52:43.000Z</time>
      </trkpt>
      <trkpt lat="49.16524" lon="1.32503">
        <ele>108.19999694824</ele>
        <time>2021-04-23T11:52:44.000Z</time>
      </trkpt>
      <trkpt lat="49.16518" lon="1.32517">
        <ele>107.19999694824</ele>
        <time>2021-04-23T11:52:45.000Z</time>
      </trkpt>
      <trkpt lat="49.16513" lon="1.3253">
        <ele>106.19999694824</ele>
        <time>2021-04-23T11:52:46.000Z</time>
      </trkpt>
      <trkpt lat="49.16507" lon="1.32541">
        <ele>105</ele>
        <time>2021-04-23T11:52:47.000Z</time>
      </trkpt>
      <trkpt lat="49.16503" lon="1.32552">
        <ele>104</ele>
        <time>2021-04-23T11:52:48.000Z</time>
      </trkpt>
      <trkpt lat="49.165" lon="1.32564">
        <ele>103</ele>
        <time>2021-04-23T11:52:49.000Z</time>
      </trkpt>
      <trkpt lat="49.16498" lon="1.32575">
        <ele>102.19999694824</ele>
        <time>2021-04-23T11:52:50.000Z</time>
      </trkpt>
      <trkpt lat="49.16498" lon="1.32587">
        <ele>100.40000152588</ele>
        <time>2021-04-23T11:52:52.000Z</time>
      </trkpt>
      <trkpt lat="49.16501" lon="1.32589">
        <ele>99.800003051758</ele>
        <time>2021-04-23T11:52:54.000Z</time>
      </trkpt>
      <trkpt lat="49.16503" lon="1.3259">
        <ele>99.599998474121</ele>
        <time>2021-04-23T11:52:55.000Z</time>
      </trkpt>
      <trkpt lat="49.16512" lon="1.32596">
        <ele>99.400001525879</ele>
        <time>2021-04-23T11:53:01.000Z</time>
      </trkpt>
      <trkpt lat="49.16522" lon="1.32593">
        <ele>101.80000305176</ele>
        <time>2021-04-23T11:53:06.000Z</time>
      </trkpt>
      <trkpt lat="49.16523" lon="1.32592">
        <ele>102.19999694824</ele>
        <time>2021-04-23T11:53:07.000Z</time>
      </trkpt>
      <trkpt lat="49.16529" lon="1.32586">
        <ele>103</ele>
        <time>2021-04-23T11:53:10.000Z</time>
      </trkpt>
      <trkpt lat="49.16534" lon="1.3258">
        <ele>104.19999694824</ele>
        <time>2021-04-23T11:53:13.000Z</time>
      </trkpt>
      <trkpt lat="49.16538" lon="1.32577">
        <ele>104.59999847412</ele>
        <time>2021-04-23T11:53:15.000Z</time>
      </trkpt>
      <trkpt lat="49.16543" lon="1.32572">
        <ele>105.40000152588</ele>
        <time>2021-04-23T11:53:18.000Z</time>
      </trkpt>
      <trkpt lat="49.16545" lon="1.3257">
        <ele>105.59999847412</ele>
        <time>2021-04-23T11:53:19.000Z</time>
      </trkpt>
      <trkpt lat="49.16556" lon="1.32565">
        <ele>106.40000152588</ele>
        <time>2021-04-23T11:53:24.000Z</time>
      </trkpt>
      <trkpt lat="49.16567" lon="1.32558">
        <ele>107.40000152588</ele>
        <time>2021-04-23T11:53:29.000Z</time>
      </trkpt>
      <trkpt lat="49.16574" lon="1.32553">
        <ele>108</ele>
        <time>2021-04-23T11:53:32.000Z</time>
      </trkpt>
      <trkpt lat="49.16579" lon="1.32548">
        <ele>108.59999847412</ele>
        <time>2021-04-23T11:53:35.000Z</time>
      </trkpt>
      <trkpt lat="49.16582" lon="1.32545">
        <ele>109</ele>
        <time>2021-04-23T11:53:37.000Z</time>
      </trkpt>
      <trkpt lat="49.16589" lon="1.3254">
        <ele>109.59999847412</ele>
        <time>2021-04-23T11:53:41.000Z</time>
      </trkpt>
      <trkpt lat="49.16591" lon="1.32538">
        <ele>110</ele>
        <time>2021-04-23T11:53:42.000Z</time>
      </trkpt>
      <trkpt lat="49.16595" lon="1.32534">
        <ele>110.19999694824</ele>
        <time>2021-04-23T11:53:44.000Z</time>
      </trkpt>
      <trkpt lat="49.16597" lon="1.32532">
        <ele>110.59999847412</ele>
        <time>2021-04-23T11:53:46.000Z</time>
      </trkpt>
      <trkpt lat="49.16599" lon="1.32531">
        <ele>110.80000305176</ele>
        <time>2021-04-23T11:53:47.000Z</time>
      </trkpt>
      <trkpt lat="49.16606" lon="1.32524">
        <ele>111.80000305176</ele>
        <time>2021-04-23T11:53:51.000Z</time>
      </trkpt>
      <trkpt lat="49.16611" lon="1.3252">
        <ele>112</ele>
        <time>2021-04-23T11:53:53.000Z</time>
      </trkpt>
      <trkpt lat="49.16616" lon="1.32515">
        <ele>112.40000152588</ele>
        <time>2021-04-23T11:53:56.000Z</time>
      </trkpt>
      <trkpt lat="49.16624" lon="1.32506">
        <ele>112.80000305176</ele>
        <time>2021-04-23T11:54:00.000Z</time>
      </trkpt>
      <trkpt lat="49.16626" lon="1.32504">
        <ele>113.19999694824</ele>
        <time>2021-04-23T11:54:01.000Z</time>
      </trkpt>
      <trkpt lat="49.16634" lon="1.32496">
        <ele>114.19999694824</ele>
        <time>2021-04-23T11:54:06.000Z</time>
      </trkpt>
      <trkpt lat="49.16636" lon="1.32494">
        <ele>114.40000152588</ele>
        <time>2021-04-23T11:54:07.000Z</time>
      </trkpt>
      <trkpt lat="49.16643" lon="1.32488">
        <ele>115</ele>
        <time>2021-04-23T11:54:10.000Z</time>
      </trkpt>
      <trkpt lat="49.16644" lon="1.32487">
        <ele>115.19999694824</ele>
        <time>2021-04-23T11:54:11.000Z</time>
      </trkpt>
      <trkpt lat="49.16648" lon="1.32483">
        <ele>115.80000305176</ele>
        <time>2021-04-23T11:54:13.000Z</time>
      </trkpt>
      <trkpt lat="49.16652" lon="1.32478">
        <ele>116</ele>
        <time>2021-04-23T11:54:15.000Z</time>
      </trkpt>
      <trkpt lat="49.16654" lon="1.32476">
        <ele>116</ele>
        <time>2021-04-23T11:54:16.000Z</time>
      </trkpt>
      <trkpt lat="49.16656" lon="1.32474">
        <ele>116.19999694824</ele>
        <time>2021-04-23T11:54:17.000Z</time>
      </trkpt>
      <trkpt lat="49.16665" lon="1.32467">
        <ele>116.59999847412</ele>
        <time>2021-04-23T11:54:21.000Z</time>
      </trkpt>
      <trkpt lat="49.16667" lon="1.32466">
        <ele>116.80000305176</ele>
        <time>2021-04-23T11:54:22.000Z</time>
      </trkpt>
      <trkpt lat="49.16671" lon="1.32462">
        <ele>117.19999694824</ele>
        <time>2021-04-23T11:54:24.000Z</time>
      </trkpt>
      <trkpt lat="49.16679" lon="1.32456">
        <ele>117.80000305176</ele>
        <time>2021-04-23T11:54:27.000Z</time>
      </trkpt>
      <trkpt lat="49.16683" lon="1.3245">
        <ele>118.40000152588</ele>
        <time>2021-04-23T11:54:29.000Z</time>
      </trkpt>
      <trkpt lat="49.16688" lon="1.32443">
        <ele>118.59999847412</ele>
        <time>2021-04-23T11:54:32.000Z</time>
      </trkpt>
      <trkpt lat="49.16698" lon="1.3243">
        <ele>119.40000152588</ele>
        <time>2021-04-23T11:54:36.000Z</time>
      </trkpt>
      <trkpt lat="49.16701" lon="1.32427">
        <ele>119.59999847412</ele>
        <time>2021-04-23T11:54:37.000Z</time>
      </trkpt>
      <trkpt lat="49.1671" lon="1.32411">
        <ele>120.19999694824</ele>
        <time>2021-04-23T11:54:42.000Z</time>
      </trkpt>
      <trkpt lat="49.16714" lon="1.32405">
        <ele>120.40000152588</ele>
        <time>2021-04-23T11:54:44.000Z</time>
      </trkpt>
      <trkpt lat="49.1672" lon="1.32396">
        <ele>121.19999694824</ele>
        <time>2021-04-23T11:54:47.000Z</time>
      </trkpt>
      <trkpt lat="49.16724" lon="1.3239">
        <ele>121.40000152588</ele>
        <time>2021-04-23T11:54:49.000Z</time>
      </trkpt>
      <trkpt lat="49.1673" lon="1.32381">
        <ele>122</ele>
        <time>2021-04-23T11:54:52.000Z</time>
      </trkpt>
      <trkpt lat="49.16736" lon="1.3237">
        <ele>122.59999847412</ele>
        <time>2021-04-23T11:54:56.000Z</time>
      </trkpt>
      <trkpt lat="49.16738" lon="1.32367">
        <ele>122.59999847412</ele>
        <time>2021-04-23T11:54:57.000Z</time>
      </trkpt>
      <trkpt lat="49.16746" lon="1.32358">
        <ele>123</ele>
        <time>2021-04-23T11:55:00.000Z</time>
      </trkpt>
      <trkpt lat="49.16748" lon="1.32354">
        <ele>123.19999694824</ele>
        <time>2021-04-23T11:55:01.000Z</time>
      </trkpt>
      <trkpt lat="49.16757" lon="1.32341">
        <ele>123.59999847412</ele>
        <time>2021-04-23T11:55:05.000Z</time>
      </trkpt>
      <trkpt lat="49.16761" lon="1.32336">
        <ele>123.80000305176</ele>
        <time>2021-04-23T11:55:07.000Z</time>
      </trkpt>
      <trkpt lat="49.16768" lon="1.32329">
        <ele>124</ele>
        <time>2021-04-23T11:55:10.000Z</time>
      </trkpt>
      <trkpt lat="49.1677" lon="1.32327">
        <ele>124</ele>
        <time>2021-04-23T11:55:11.000Z</time>
      </trkpt>
      <trkpt lat="49.16775" lon="1.3231">
        <ele>124.59999847412</ele>
        <time>2021-04-23T11:55:16.000Z</time>
      </trkpt>
      <trkpt lat="49.16777" lon="1.32292">
        <ele>125.59999847412</ele>
        <time>2021-04-23T11:55:21.000Z</time>
      </trkpt>
      <trkpt lat="49.16773" lon="1.32285">
        <ele>126.19999694824</ele>
        <time>2021-04-23T11:55:24.000Z</time>
      </trkpt>
      <trkpt lat="49.16772" lon="1.32284">
        <ele>126.40000152588</ele>
        <time>2021-04-23T11:55:25.000Z</time>
      </trkpt>
      <trkpt lat="49.1677" lon="1.32284">
        <ele>126.80000305176</ele>
        <time>2021-04-23T11:55:26.000Z</time>
      </trkpt>
      <trkpt lat="49.16766" lon="1.32287">
        <ele>127</ele>
        <time>2021-04-23T11:55:28.000Z</time>
      </trkpt>
      <trkpt lat="49.16767" lon="1.32289">
        <ele>127</ele>
        <time>2021-04-23T11:55:31.000Z</time>
      </trkpt>
      <trkpt lat="49.16771" lon="1.32295">
        <ele>127</ele>
        <time>2021-04-23T11:55:34.000Z</time>
      </trkpt>
      <trkpt lat="49.1677" lon="1.32297">
        <ele>127</ele>
        <time>2021-04-23T11:55:35.000Z</time>
      </trkpt>
      <trkpt lat="49.16765" lon="1.32309">
        <ele>127</ele>
        <time>2021-04-23T11:55:39.000Z</time>
      </trkpt>
      <trkpt lat="49.16761" lon="1.32317">
        <ele>127</ele>
        <time>2021-04-23T11:55:42.000Z</time>
      </trkpt>
      <trkpt lat="49.16759" lon="1.3232">
        <ele>126.59999847412</ele>
        <time>2021-04-23T11:55:43.000Z</time>
      </trkpt>
      <trkpt lat="49.16754" lon="1.32327">
        <ele>125.40000152588</ele>
        <time>2021-04-23T11:55:45.000Z</time>
      </trkpt>
      <trkpt lat="49.16752" lon="1.3233">
        <ele>124.80000305176</ele>
        <time>2021-04-23T11:55:46.000Z</time>
      </trkpt>
      <trkpt lat="49.1675" lon="1.32333">
        <ele>124.19999694824</ele>
        <time>2021-04-23T11:55:47.000Z</time>
      </trkpt>
      <trkpt lat="49.16747" lon="1.32343">
        <ele>123.59999847412</ele>
        <time>2021-04-23T11:55:50.000Z</time>
      </trkpt>
      <trkpt lat="49.16753" lon="1.32353">
        <ele>123.59999847412</ele>
        <time>2021-04-23T11:55:54.000Z</time>
      </trkpt>
      <trkpt lat="49.16762" lon="1.32364">
        <ele>123.59999847412</ele>
        <time>2021-04-23T11:55:59.000Z</time>
      </trkpt>
      <trkpt lat="49.16771" lon="1.32375">
        <ele>123.59999847412</ele>
        <time>2021-04-23T11:56:03.000Z</time>
      </trkpt>
      <trkpt lat="49.16776" lon="1.32395">
        <ele>123.59999847412</ele>
        <time>2021-04-23T11:56:07.000Z</time>
      </trkpt>
      <trkpt lat="49.16783" lon="1.32412">
        <ele>123.40000152588</ele>
        <time>2021-04-23T11:56:10.000Z</time>
      </trkpt>
      <trkpt lat="49.16787" lon="1.3242">
        <ele>123.19999694824</ele>
        <time>2021-04-23T11:56:11.000Z</time>
      </trkpt>
      <trkpt lat="49.16795" lon="1.32439">
        <ele>122.80000305176</ele>
        <time>2021-04-23T11:56:13.000Z</time>
      </trkpt>
      <trkpt lat="49.16801" lon="1.32459">
        <ele>122</ele>
        <time>2021-04-23T11:56:15.000Z</time>
      </trkpt>
      <trkpt lat="49.16803" lon="1.32469">
        <ele>121.59999847412</ele>
        <time>2021-04-23T11:56:16.000Z</time>
      </trkpt>
      <trkpt lat="49.16806" lon="1.32489">
        <ele>120.59999847412</ele>
        <time>2021-04-23T11:56:18.000Z</time>
      </trkpt>
      <trkpt lat="49.16804" lon="1.32496">
        <ele>119.80000305176</ele>
        <time>2021-04-23T11:56:19.000Z</time>
      </trkpt>
      <trkpt lat="49.168" lon="1.32502">
        <ele>119.19999694824</ele>
        <time>2021-04-23T11:56:20.000Z</time>
      </trkpt>
      <trkpt lat="49.16796" lon="1.32513">
        <ele>117.59999847412</ele>
        <time>2021-04-23T11:56:22.000Z</time>
      </trkpt>
      <trkpt lat="49.16798" lon="1.3253">
        <ele>115.59999847412</ele>
        <time>2021-04-23T11:56:24.000Z</time>
      </trkpt>
      <trkpt lat="49.168" lon="1.32539">
        <ele>114.59999847412</ele>
        <time>2021-04-23T11:56:25.000Z</time>
      </trkpt>
      <trkpt lat="49.168" lon="1.32547">
        <ele>113.40000152588</ele>
        <time>2021-04-23T11:56:26.000Z</time>
      </trkpt>
      <trkpt lat="49.16799" lon="1.32564">
        <ele>111.59999847412</ele>
        <time>2021-04-23T11:56:28.000Z</time>
      </trkpt>
      <trkpt lat="49.16797" lon="1.32571">
        <ele>110.80000305176</ele>
        <time>2021-04-23T11:56:29.000Z</time>
      </trkpt>
      <trkpt lat="49.16795" lon="1.32579">
        <ele>109.80000305176</ele>
        <time>2021-04-23T11:56:30.000Z</time>
      </trkpt>
      <trkpt lat="49.16793" lon="1.32585">
        <ele>109.19999694824</ele>
        <time>2021-04-23T11:56:31.000Z</time>
      </trkpt>
      <trkpt lat="49.16792" lon="1.32593">
        <ele>108.19999694824</ele>
        <time>2021-04-23T11:56:32.000Z</time>
      </trkpt>
      <trkpt lat="49.16791" lon="1.32599">
        <ele>107.40000152588</ele>
        <time>2021-04-23T11:56:33.000Z</time>
      </trkpt>
      <trkpt lat="49.1679" lon="1.32605">
        <ele>106.40000152588</ele>
        <time>2021-04-23T11:56:34.000Z</time>
      </trkpt>
      <trkpt lat="49.16789" lon="1.3261">
        <ele>105.19999694824</ele>
        <time>2021-04-23T11:56:35.000Z</time>
      </trkpt>
      <trkpt lat="49.16789" lon="1.32615">
        <ele>104.19999694824</ele>
        <time>2021-04-23T11:56:36.000Z</time>
      </trkpt>
      <trkpt lat="49.1679" lon="1.32617">
        <ele>103</ele>
        <time>2021-04-23T11:56:37.000Z</time>
      </trkpt>
      <trkpt lat="49.16791" lon="1.32619">
        <ele>101.59999847412</ele>
        <time>2021-04-23T11:56:38.000Z</time>
      </trkpt>
      <trkpt lat="49.16793" lon="1.3262">
        <ele>100.59999847412</ele>
        <time>2021-04-23T11:56:39.000Z</time>
      </trkpt>
      <trkpt lat="49.16796" lon="1.32619">
        <ele>98.800003051758</ele>
        <time>2021-04-23T11:56:41.000Z</time>
      </trkpt>
      <trkpt lat="49.16799" lon="1.32618">
        <ele>97.199996948242</ele>
        <time>2021-04-23T11:56:43.000Z</time>
      </trkpt>
      <trkpt lat="49.16803" lon="1.32621">
        <ele>96.199996948242</ele>
        <time>2021-04-23T11:56:45.000Z</time>
      </trkpt>
      <trkpt lat="49.16805" lon="1.32624">
        <ele>95.800003051758</ele>
        <time>2021-04-23T11:56:46.000Z</time>
      </trkpt>
      <trkpt lat="49.16807" lon="1.32635">
        <ele>95.199996948242</ele>
        <time>2021-04-23T11:56:49.000Z</time>
      </trkpt>
      <trkpt lat="49.16797" lon="1.32645">
        <ele>95.199996948242</ele>
        <time>2021-04-23T11:56:53.000Z</time>
      </trkpt>
      <trkpt lat="49.16792" lon="1.32647">
        <ele>95</ele>
        <time>2021-04-23T11:56:54.000Z</time>
      </trkpt>
      <trkpt lat="49.16782" lon="1.32651">
        <ele>94.400001525879</ele>
        <time>2021-04-23T11:56:56.000Z</time>
      </trkpt>
      <trkpt lat="49.16774" lon="1.32652">
        <ele>93.599998474121</ele>
        <time>2021-04-23T11:56:58.000Z</time>
      </trkpt>
      <trkpt lat="49.16769" lon="1.32653">
        <ele>92.800003051758</ele>
        <time>2021-04-23T11:56:59.000Z</time>
      </trkpt>
      <trkpt lat="49.16753" lon="1.32658">
        <ele>92.199996948242</ele>
        <time>2021-04-23T11:57:02.000Z</time>
      </trkpt>
      <trkpt lat="49.16738" lon="1.32663">
        <ele>91.599998474121</ele>
        <time>2021-04-23T11:57:05.000Z</time>
      </trkpt>
      <trkpt lat="49.16731" lon="1.32667">
        <ele>91.400001525879</ele>
        <time>2021-04-23T11:57:07.000Z</time>
      </trkpt>
      <trkpt lat="49.16713" lon="1.32673">
        <ele>91</ele>
        <time>2021-04-23T11:57:11.000Z</time>
      </trkpt>
      <trkpt lat="49.16709" lon="1.32675">
        <ele>91</ele>
        <time>2021-04-23T11:57:12.000Z</time>
      </trkpt>
      <trkpt lat="49.16695" lon="1.3268">
        <ele>90.400001525879</ele>
        <time>2021-04-23T11:57:15.000Z</time>
      </trkpt>
      <trkpt lat="49.1668" lon="1.32683">
        <ele>89.800003051758</ele>
        <time>2021-04-23T11:57:18.000Z</time>
      </trkpt>
      <trkpt lat="49.16666" lon="1.32687">
        <ele>89.400001525879</ele>
        <time>2021-04-23T11:57:21.000Z</time>
      </trkpt>
      <trkpt lat="49.16655" lon="1.32691">
        <ele>89.199996948242</ele>
        <time>2021-04-23T11:57:23.000Z</time>
      </trkpt>
      <trkpt lat="49.16632" lon="1.32701">
        <ele>88.599998474121</ele>
        <time>2021-04-23T11:57:27.000Z</time>
      </trkpt>
      <trkpt lat="49.16626" lon="1.32702">
        <ele>88.400001525879</ele>
        <time>2021-04-23T11:57:28.000Z</time>
      </trkpt>
      <trkpt lat="49.16607" lon="1.32707">
        <ele>87.599998474121</ele>
        <time>2021-04-23T11:57:31.000Z</time>
      </trkpt>
      <trkpt lat="49.16603" lon="1.32709">
        <ele>87.199996948242</ele>
        <time>2021-04-23T11:57:32.000Z</time>
      </trkpt>
      <trkpt lat="49.16595" lon="1.32711">
        <ele>86</ele>
        <time>2021-04-23T11:57:34.000Z</time>
      </trkpt>
      <trkpt lat="49.1659" lon="1.32714">
        <ele>84.800003051758</ele>
        <time>2021-04-23T11:57:36.000Z</time>
      </trkpt>
      <trkpt lat="49.16586" lon="1.32717">
        <ele>83.400001525879</ele>
        <time>2021-04-23T11:57:38.000Z</time>
      </trkpt>
      <trkpt lat="49.1658" lon="1.32722">
        <ele>82.199996948242</ele>
        <time>2021-04-23T11:57:40.000Z</time>
      </trkpt>
      <trkpt lat="49.16574" lon="1.32726">
        <ele>81.400001525879</ele>
        <time>2021-04-23T11:57:42.000Z</time>
      </trkpt>
      <trkpt lat="49.1657" lon="1.32728">
        <ele>81</ele>
        <time>2021-04-23T11:57:43.000Z</time>
      </trkpt>
      <trkpt lat="49.16566" lon="1.32732">
        <ele>80.599998474121</ele>
        <time>2021-04-23T11:57:44.000Z</time>
      </trkpt>
      <trkpt lat="49.16557" lon="1.32742">
        <ele>80</ele>
        <time>2021-04-23T11:57:46.000Z</time>
      </trkpt>
      <trkpt lat="49.16552" lon="1.32749">
        <ele>79.800003051758</ele>
        <time>2021-04-23T11:57:47.000Z</time>
      </trkpt>
      <trkpt lat="49.16545" lon="1.32766">
        <ele>79.199996948242</ele>
        <time>2021-04-23T11:57:49.000Z</time>
      </trkpt>
      <trkpt lat="49.16537" lon="1.32793">
        <ele>78.400001525879</ele>
        <time>2021-04-23T11:57:52.000Z</time>
      </trkpt>
      <trkpt lat="49.16531" lon="1.32806">
        <ele>78</ele>
        <time>2021-04-23T11:57:54.000Z</time>
      </trkpt>
      <trkpt lat="49.16527" lon="1.32811">
        <ele>77.199996948242</ele>
        <time>2021-04-23T11:57:55.000Z</time>
      </trkpt>
      <trkpt lat="49.16518" lon="1.32821">
        <ele>76.199996948242</ele>
        <time>2021-04-23T11:57:57.000Z</time>
      </trkpt>
      <trkpt lat="49.16514" lon="1.32825">
        <ele>75.199996948242</ele>
        <time>2021-04-23T11:57:58.000Z</time>
      </trkpt>
      <trkpt lat="49.16509" lon="1.32829">
        <ele>74.400001525879</ele>
        <time>2021-04-23T11:57:59.000Z</time>
      </trkpt>
      <trkpt lat="49.16498" lon="1.32838">
        <ele>73.400001525879</ele>
        <time>2021-04-23T11:58:01.000Z</time>
      </trkpt>
      <trkpt lat="49.16492" lon="1.32841">
        <ele>73</ele>
        <time>2021-04-23T11:58:02.000Z</time>
      </trkpt>
      <trkpt lat="49.16487" lon="1.32844">
        <ele>72.400001525879</ele>
        <time>2021-04-23T11:58:03.000Z</time>
      </trkpt>
      <trkpt lat="49.16478" lon="1.32848">
        <ele>71</ele>
        <time>2021-04-23T11:58:05.000Z</time>
      </trkpt>
      <trkpt lat="49.16472" lon="1.32855">
        <ele>69.599998474121</ele>
        <time>2021-04-23T11:58:07.000Z</time>
      </trkpt>
      <trkpt lat="49.16466" lon="1.32861">
        <ele>68.400001525879</ele>
        <time>2021-04-23T11:58:09.000Z</time>
      </trkpt>
      <trkpt lat="49.1646" lon="1.32865">
        <ele>67</ele>
        <time>2021-04-23T11:58:11.000Z</time>
      </trkpt>
      <trkpt lat="49.16456" lon="1.32866">
        <ele>66.400001525879</ele>
        <time>2021-04-23T11:58:12.000Z</time>
      </trkpt>
      <trkpt lat="49.16452" lon="1.32868">
        <ele>65.599998474121</ele>
        <time>2021-04-23T11:58:13.000Z</time>
      </trkpt>
      <trkpt lat="49.1644" lon="1.32874">
        <ele>64.199996948242</ele>
        <time>2021-04-23T11:58:16.000Z</time>
      </trkpt>
      <trkpt lat="49.16419" lon="1.32881">
        <ele>63</ele>
        <time>2021-04-23T11:58:20.000Z</time>
      </trkpt>
      <trkpt lat="49.16413" lon="1.32882">
        <ele>62.799999237061</ele>
        <time>2021-04-23T11:58:21.000Z</time>
      </trkpt>
      <trkpt lat="49.16396" lon="1.32882">
        <ele>61.799999237061</ele>
        <time>2021-04-23T11:58:24.000Z</time>
      </trkpt>
      <trkpt lat="49.16386" lon="1.32884">
        <ele>61.400001525879</ele>
        <time>2021-04-23T11:58:26.000Z</time>
      </trkpt>
      <trkpt lat="49.1638" lon="1.32885">
        <ele>61.200000762939</ele>
        <time>2021-04-23T11:58:27.000Z</time>
      </trkpt>
      <trkpt lat="49.16374" lon="1.32886">
        <ele>61.200000762939</ele>
        <time>2021-04-23T11:58:28.000Z</time>
      </trkpt>
      <trkpt lat="49.16357" lon="1.32883">
        <ele>61</ele>
        <time>2021-04-23T11:58:31.000Z</time>
      </trkpt>
      <trkpt lat="49.1634" lon="1.32876">
        <ele>61</ele>
        <time>2021-04-23T11:58:34.000Z</time>
      </trkpt>
      <trkpt lat="49.1633" lon="1.32871">
        <ele>61</ele>
        <time>2021-04-23T11:58:36.000Z</time>
      </trkpt>
      <trkpt lat="49.16321" lon="1.32863">
        <ele>61</ele>
        <time>2021-04-23T11:58:38.000Z</time>
      </trkpt>
      <trkpt lat="49.16311" lon="1.32865">
        <ele>61</ele>
        <time>2021-04-23T11:58:40.000Z</time>
      </trkpt>
      <trkpt lat="49.16273" lon="1.32871">
        <ele>61.200000762939</ele>
        <time>2021-04-23T11:58:47.000Z</time>
      </trkpt>
      <trkpt lat="49.16261" lon="1.32873">
        <ele>61.400001525879</ele>
        <time>2021-04-23T11:58:49.000Z</time>
      </trkpt>
      <trkpt lat="49.1625" lon="1.32876">
        <ele>61.400001525879</ele>
        <time>2021-04-23T11:58:51.000Z</time>
      </trkpt>
      <trkpt lat="49.16244" lon="1.32878">
        <ele>61.400001525879</ele>
        <time>2021-04-23T11:58:52.000Z</time>
      </trkpt>
      <trkpt lat="49.16227" lon="1.32884">
        <ele>61.400001525879</ele>
        <time>2021-04-23T11:58:55.000Z</time>
      </trkpt>
      <trkpt lat="49.16215" lon="1.32886">
        <ele>61.400001525879</ele>
        <time>2021-04-23T11:58:57.000Z</time>
      </trkpt>
      <trkpt lat="49.1618" lon="1.32895">
        <ele>61.200000762939</ele>
        <time>2021-04-23T11:59:03.000Z</time>
      </trkpt>
      <trkpt lat="49.16165" lon="1.32899">
        <ele>60.799999237061</ele>
        <time>2021-04-23T11:59:06.000Z</time>
      </trkpt>
      <trkpt lat="49.1616" lon="1.32901">
        <ele>60.599998474121</ele>
        <time>2021-04-23T11:59:07.000Z</time>
      </trkpt>
      <trkpt lat="49.16145" lon="1.32901">
        <ele>60.599998474121</ele>
        <time>2021-04-23T11:59:10.000Z</time>
      </trkpt>
      <trkpt lat="49.16141" lon="1.32898">
        <ele>60.599998474121</ele>
        <time>2021-04-23T11:59:11.000Z</time>
      </trkpt>
      <trkpt lat="49.16129" lon="1.32892">
        <ele>60.400001525879</ele>
        <time>2021-04-23T11:59:13.000Z</time>
      </trkpt>
      <trkpt lat="49.16123" lon="1.32894">
        <ele>60.400001525879</ele>
        <time>2021-04-23T11:59:14.000Z</time>
      </trkpt>
      <trkpt lat="49.16111" lon="1.32909">
        <ele>60.200000762939</ele>
        <time>2021-04-23T11:59:16.000Z</time>
      </trkpt>
      <trkpt lat="49.16094" lon="1.32934">
        <ele>60.200000762939</ele>
        <time>2021-04-23T11:59:19.000Z</time>
      </trkpt>
      <trkpt lat="49.16089" lon="1.32944">
        <ele>60.200000762939</ele>
        <time>2021-04-23T11:59:20.000Z</time>
      </trkpt>
      <trkpt lat="49.16083" lon="1.32963">
        <ele>59.599998474121</ele>
        <time>2021-04-23T11:59:22.000Z</time>
      </trkpt>
      <trkpt lat="49.16081" lon="1.32972">
        <ele>59</ele>
        <time>2021-04-23T11:59:23.000Z</time>
      </trkpt>
      <trkpt lat="49.16078" lon="1.32976">
        <ele>58.200000762939</ele>
        <time>2021-04-23T11:59:24.000Z</time>
      </trkpt>
      <trkpt lat="49.16074" lon="1.32977">
        <ele>57.599998474121</ele>
        <time>2021-04-23T11:59:25.000Z</time>
      </trkpt>
      <trkpt lat="49.16072" lon="1.32974">
        <ele>57</ele>
        <time>2021-04-23T11:59:26.000Z</time>
      </trkpt>
      <trkpt lat="49.16068" lon="1.32962">
        <ele>55.799999237061</ele>
        <time>2021-04-23T11:59:28.000Z</time>
      </trkpt>
      <trkpt lat="49.16069" lon="1.3295">
        <ele>54.799999237061</ele>
        <time>2021-04-23T11:59:30.000Z</time>
      </trkpt>
      <trkpt lat="49.1607" lon="1.32937">
        <ele>53.799999237061</ele>
        <time>2021-04-23T11:59:32.000Z</time>
      </trkpt>
      <trkpt lat="49.16074" lon="1.32912">
        <ele>52.799999237061</ele>
        <time>2021-04-23T11:59:36.000Z</time>
      </trkpt>
      <trkpt lat="49.16073" lon="1.329">
        <ele>52.400001525879</ele>
        <time>2021-04-23T11:59:38.000Z</time>
      </trkpt>
      <trkpt lat="49.16077" lon="1.32878">
        <ele>51.799999237061</ele>
        <time>2021-04-23T11:59:41.000Z</time>
      </trkpt>
      <trkpt lat="49.1608" lon="1.32872">
        <ele>51.799999237061</ele>
        <time>2021-04-23T11:59:42.000Z</time>
      </trkpt>
      <trkpt lat="49.16086" lon="1.32852">
        <ele>51</ele>
        <time>2021-04-23T11:59:45.000Z</time>
      </trkpt>
      <trkpt lat="49.16087" lon="1.32835">
        <ele>50.799999237061</ele>
        <time>2021-04-23T11:59:47.000Z</time>
      </trkpt>
      <trkpt lat="49.16087" lon="1.32829">
        <ele>50.200000762939</ele>
        <time>2021-04-23T11:59:48.000Z</time>
      </trkpt>
      <trkpt lat="49.16085" lon="1.32827">
        <ele>49.599998474121</ele>
        <time>2021-04-23T11:59:49.000Z</time>
      </trkpt>
      <trkpt lat="49.16079" lon="1.32835">
        <ele>48.200000762939</ele>
        <time>2021-04-23T11:59:52.000Z</time>
      </trkpt>
      <trkpt lat="49.1607" lon="1.32853">
        <ele>47</ele>
        <time>2021-04-23T11:59:55.000Z</time>
      </trkpt>
      <trkpt lat="49.16067" lon="1.32856">
        <ele>46.400001525879</ele>
        <time>2021-04-23T11:59:56.000Z</time>
      </trkpt>
      <trkpt lat="49.16062" lon="1.32857">
        <ele>46.200000762939</ele>
        <time>2021-04-23T11:59:57.000Z</time>
      </trkpt>
      <trkpt lat="49.16057" lon="1.32853">
        <ele>45.799999237061</ele>
        <time>2021-04-23T11:59:58.000Z</time>
      </trkpt>
      <trkpt lat="49.16055" lon="1.32847">
        <ele>45.400001525879</ele>
        <time>2021-04-23T11:59:59.000Z</time>
      </trkpt>
      <trkpt lat="49.16057" lon="1.32826">
        <ele>44.599998474121</ele>
        <time>2021-04-23T12:00:02.000Z</time>
      </trkpt>
      <trkpt lat="49.1607" lon="1.32778">
        <ele>43.599998474121</ele>
        <time>2021-04-23T12:00:08.000Z</time>
      </trkpt>
      <trkpt lat="49.16074" lon="1.32762">
        <ele>43.400001525879</ele>
        <time>2021-04-23T12:00:10.000Z</time>
      </trkpt>
      <trkpt lat="49.16084" lon="1.32731">
        <ele>42.400001525879</ele>
        <time>2021-04-23T12:00:14.000Z</time>
      </trkpt>
      <trkpt lat="49.16083" lon="1.32707">
        <ele>41.400001525879</ele>
        <time>2021-04-23T12:00:17.000Z</time>
      </trkpt>
      <trkpt lat="49.1608" lon="1.327">
        <ele>41.200000762939</ele>
        <time>2021-04-23T12:00:18.000Z</time>
      </trkpt>
      <trkpt lat="49.16076" lon="1.32693">
        <ele>41</ele>
        <time>2021-04-23T12:00:19.000Z</time>
      </trkpt>
      <trkpt lat="49.16067" lon="1.32681">
        <ele>40.599998474121</ele>
        <time>2021-04-23T12:00:21.000Z</time>
      </trkpt>
      <trkpt lat="49.16054" lon="1.32661">
        <ele>40.400001525879</ele>
        <time>2021-04-23T12:00:24.000Z</time>
      </trkpt>
      <trkpt lat="49.16048" lon="1.32647">
        <ele>40.400001525879</ele>
        <time>2021-04-23T12:00:26.000Z</time>
      </trkpt>
      <trkpt lat="49.16041" lon="1.32636">
        <ele>40.400001525879</ele>
        <time>2021-04-23T12:00:28.000Z</time>
      </trkpt>
      <trkpt lat="49.16034" lon="1.3262">
        <ele>40.400001525879</ele>
        <time>2021-04-23T12:00:31.000Z</time>
      </trkpt>
      <trkpt lat="49.16032" lon="1.32615">
        <ele>40.599998474121</ele>
        <time>2021-04-23T12:00:32.000Z</time>
      </trkpt>
      <trkpt lat="49.16026" lon="1.32597">
        <ele>41.200000762939</ele>
        <time>2021-04-23T12:00:35.000Z</time>
      </trkpt>
      <trkpt lat="49.16024" lon="1.32586">
        <ele>41.599998474121</ele>
        <time>2021-04-23T12:00:37.000Z</time>
      </trkpt>
      <trkpt lat="49.16021" lon="1.32572">
        <ele>42.200000762939</ele>
        <time>2021-04-23T12:00:40.000Z</time>
      </trkpt>
      <trkpt lat="49.1602" lon="1.32567">
        <ele>42.200000762939</ele>
        <time>2021-04-23T12:00:41.000Z</time>
      </trkpt>
      <trkpt lat="49.16019" lon="1.32562">
        <ele>42.400001525879</ele>
        <time>2021-04-23T12:00:42.000Z</time>
      </trkpt>
      <trkpt lat="49.16011" lon="1.32534">
        <ele>43.400001525879</ele>
        <time>2021-04-23T12:00:48.000Z</time>
      </trkpt>
      <trkpt lat="49.16009" lon="1.3253">
        <ele>43.599998474121</ele>
        <time>2021-04-23T12:00:49.000Z</time>
      </trkpt>
      <trkpt lat="49.15998" lon="1.32505">
        <ele>44.400001525879</ele>
        <time>2021-04-23T12:00:55.000Z</time>
      </trkpt>
      <trkpt lat="49.15992" lon="1.32494">
        <ele>45</ele>
        <time>2021-04-23T12:00:58.000Z</time>
      </trkpt>
      <trkpt lat="49.15986" lon="1.32483">
        <ele>45.599998474121</ele>
        <time>2021-04-23T12:01:01.000Z</time>
      </trkpt>
      <trkpt lat="49.15981" lon="1.32471">
        <ele>47</ele>
        <time>2021-04-23T12:01:04.000Z</time>
      </trkpt>
      <trkpt lat="49.15979" lon="1.32467">
        <ele>47.400001525879</ele>
        <time>2021-04-23T12:01:05.000Z</time>
      </trkpt>
      <trkpt lat="49.15971" lon="1.3245">
        <ele>48</ele>
        <time>2021-04-23T12:01:09.000Z</time>
      </trkpt>
      <trkpt lat="49.15962" lon="1.3243">
        <ele>48.799999237061</ele>
        <time>2021-04-23T12:01:14.000Z</time>
      </trkpt>
      <trkpt lat="49.15958" lon="1.32422">
        <ele>49.200000762939</ele>
        <time>2021-04-23T12:01:16.000Z</time>
      </trkpt>
      <trkpt lat="49.15952" lon="1.32411">
        <ele>49.599998474121</ele>
        <time>2021-04-23T12:01:19.000Z</time>
      </trkpt>
      <trkpt lat="49.1595" lon="1.32411">
        <ele>49.799999237061</ele>
        <time>2021-04-23T12:01:20.000Z</time>
      </trkpt>
      <trkpt lat="49.15946" lon="1.32415">
        <ele>50.200000762939</ele>
        <time>2021-04-23T12:01:22.000Z</time>
      </trkpt>
      <trkpt lat="49.15946" lon="1.3242">
        <ele>50.599998474121</ele>
        <time>2021-04-23T12:01:24.000Z</time>
      </trkpt>
      <trkpt lat="49.15948" lon="1.32425">
        <ele>51</ele>
        <time>2021-04-23T12:01:26.000Z</time>
      </trkpt>
      <trkpt lat="49.15949" lon="1.32429">
        <ele>51.200000762939</ele>
        <time>2021-04-23T12:01:27.000Z</time>
      </trkpt>
      <trkpt lat="49.15952" lon="1.32439">
        <ele>51.799999237061</ele>
        <time>2021-04-23T12:01:30.000Z</time>
      </trkpt>
      <trkpt lat="49.15956" lon="1.3245">
        <ele>52.200000762939</ele>
        <time>2021-04-23T12:01:33.000Z</time>
      </trkpt>
      <trkpt lat="49.15958" lon="1.32469">
        <ele>53.400001525879</ele>
        <time>2021-04-23T12:01:38.000Z</time>
      </trkpt>
      <trkpt lat="49.15954" lon="1.32489">
        <ele>54.799999237061</ele>
        <time>2021-04-23T12:01:43.000Z</time>
      </trkpt>
      <trkpt lat="49.15951" lon="1.32495">
        <ele>55.200000762939</ele>
        <time>2021-04-23T12:01:45.000Z</time>
      </trkpt>
      <trkpt lat="49.15946" lon="1.32503">
        <ele>55.799999237061</ele>
        <time>2021-04-23T12:01:48.000Z</time>
      </trkpt>
      <trkpt lat="49.15936" lon="1.32519">
        <ele>57</ele>
        <time>2021-04-23T12:01:54.000Z</time>
      </trkpt>
      <trkpt lat="49.15932" lon="1.32523">
        <ele>57.400001525879</ele>
        <time>2021-04-23T12:01:56.000Z</time>
      </trkpt>
      <trkpt lat="49.15925" lon="1.32525">
        <ele>58.200000762939</ele>
        <time>2021-04-23T12:01:59.000Z</time>
      </trkpt>
      <trkpt lat="49.15915" lon="1.32523">
        <ele>59</ele>
        <time>2021-04-23T12:02:04.000Z</time>
      </trkpt>
      <trkpt lat="49.15911" lon="1.32519">
        <ele>60.400001525879</ele>
        <time>2021-04-23T12:02:07.000Z</time>
      </trkpt>
      <trkpt lat="49.15908" lon="1.32513">
        <ele>61.400001525879</ele>
        <time>2021-04-23T12:02:10.000Z</time>
      </trkpt>
      <trkpt lat="49.15906" lon="1.32509">
        <ele>62.599998474121</ele>
        <time>2021-04-23T12:02:12.000Z</time>
      </trkpt>
      <trkpt lat="49.15904" lon="1.32504">
        <ele>63.599998474121</ele>
        <time>2021-04-23T12:02:15.000Z</time>
      </trkpt>
      <trkpt lat="49.15901" lon="1.32498">
        <ele>64.599998474121</ele>
        <time>2021-04-23T12:02:18.000Z</time>
      </trkpt>
      <trkpt lat="49.15899" lon="1.32491">
        <ele>65.800003051758</ele>
        <time>2021-04-23T12:02:21.000Z</time>
      </trkpt>
      <trkpt lat="49.15897" lon="1.32485">
        <ele>66.800003051758</ele>
        <time>2021-04-23T12:02:24.000Z</time>
      </trkpt>
      <trkpt lat="49.15896" lon="1.32483">
        <ele>67.199996948242</ele>
        <time>2021-04-23T12:02:25.000Z</time>
      </trkpt>
      <trkpt lat="49.15893" lon="1.32485">
        <ele>68</ele>
        <time>2021-04-23T12:02:28.000Z</time>
      </trkpt>
      <trkpt lat="49.15892" lon="1.32487">
        <ele>68.199996948242</ele>
        <time>2021-04-23T12:02:29.000Z</time>
      </trkpt>
      <trkpt lat="49.15888" lon="1.32496">
        <ele>69.400001525879</ele>
        <time>2021-04-23T12:02:33.000Z</time>
      </trkpt>
      <trkpt lat="49.15886" lon="1.32499">
        <ele>70</ele>
        <time>2021-04-23T12:02:35.000Z</time>
      </trkpt>
      <trkpt lat="49.15885" lon="1.32503">
        <ele>70.199996948242</ele>
        <time>2021-04-23T12:02:37.000Z</time>
      </trkpt>
      <trkpt lat="49.15884" lon="1.32507">
        <ele>70.400001525879</ele>
        <time>2021-04-23T12:02:39.000Z</time>
      </trkpt>
      <trkpt lat="49.15884" lon="1.32509">
        <ele>70.599998474121</ele>
        <time>2021-04-23T12:02:40.000Z</time>
      </trkpt>
      <trkpt lat="49.15883" lon="1.3251">
        <ele>71</ele>
        <time>2021-04-23T12:02:41.000Z</time>
      </trkpt>
      <trkpt lat="49.15883" lon="1.32515">
        <ele>72.199996948242</ele>
        <time>2021-04-23T12:02:45.000Z</time>
      </trkpt>
      <trkpt lat="49.15884" lon="1.32516">
        <ele>72.599998474121</ele>
        <time>2021-04-23T12:02:46.000Z</time>
      </trkpt>
      <trkpt lat="49.15883" lon="1.32517">
        <ele>72.800003051758</ele>
        <time>2021-04-23T12:02:47.000Z</time>
      </trkpt>
      <trkpt lat="49.15881" lon="1.32515">
        <ele>73.400001525879</ele>
        <time>2021-04-23T12:02:50.000Z</time>
      </trkpt>
      <trkpt lat="49.15881" lon="1.32509">
        <ele>74</ele>
        <time>2021-04-23T12:02:52.000Z</time>
      </trkpt>
      <trkpt lat="49.15879" lon="1.325">
        <ele>74.199996948242</ele>
        <time>2021-04-23T12:02:56.000Z</time>
      </trkpt>
      <trkpt lat="49.15868" lon="1.32494">
        <ele>74.400001525879</ele>
        <time>2021-04-23T12:03:04.000Z</time>
      </trkpt>
      <trkpt lat="49.15858" lon="1.32501">
        <ele>75.400001525879</ele>
        <time>2021-04-23T12:03:11.000Z</time>
      </trkpt>
      <trkpt lat="49.15857" lon="1.32504">
        <ele>75.400001525879</ele>
        <time>2021-04-23T12:03:12.000Z</time>
      </trkpt>
      <trkpt lat="49.15851" lon="1.32516">
        <ele>76.599998474121</ele>
        <time>2021-04-23T12:03:17.000Z</time>
      </trkpt>
      <trkpt lat="49.1585" lon="1.32518">
        <ele>77</ele>
        <time>2021-04-23T12:03:18.000Z</time>
      </trkpt>
      <trkpt lat="49.15845" lon="1.32527">
        <ele>77.800003051758</ele>
        <time>2021-04-23T12:03:22.000Z</time>
      </trkpt>
      <trkpt lat="49.15842" lon="1.32531">
        <ele>78</ele>
        <time>2021-04-23T12:03:24.000Z</time>
      </trkpt>
      <trkpt lat="49.1584" lon="1.32535">
        <ele>78</ele>
        <time>2021-04-23T12:03:26.000Z</time>
      </trkpt>
      <trkpt lat="49.1583" lon="1.32542">
        <ele>79.199996948242</ele>
        <time>2021-04-23T12:03:32.000Z</time>
      </trkpt>
      <trkpt lat="49.1582" lon="1.3254">
        <ele>80.400001525879</ele>
        <time>2021-04-23T12:03:38.000Z</time>
      </trkpt>
      <trkpt lat="49.15819" lon="1.32541">
        <ele>80.800003051758</ele>
        <time>2021-04-23T12:03:39.000Z</time>
      </trkpt>
      <trkpt lat="49.15818" lon="1.32545">
        <ele>81.599998474121</ele>
        <time>2021-04-23T12:03:41.000Z</time>
      </trkpt>
      <trkpt lat="49.15818" lon="1.32551">
        <ele>82</ele>
        <time>2021-04-23T12:03:43.000Z</time>
      </trkpt>
      <trkpt lat="49.15818" lon="1.32581">
        <ele>82.199996948242</ele>
        <time>2021-04-23T12:03:48.000Z</time>
      </trkpt>
      <trkpt lat="49.15817" lon="1.32602">
        <ele>82.199996948242</ele>
        <time>2021-04-23T12:03:52.000Z</time>
      </trkpt>
      <trkpt lat="49.15815" lon="1.32608">
        <ele>82.199996948242</ele>
        <time>2021-04-23T12:03:53.000Z</time>
      </trkpt>
      <trkpt lat="49.15807" lon="1.3263">
        <ele>81</ele>
        <time>2021-04-23T12:03:56.000Z</time>
      </trkpt>
      <trkpt lat="49.15804" lon="1.32638">
        <ele>80.800003051758</ele>
        <time>2021-04-23T12:03:57.000Z</time>
      </trkpt>
      <trkpt lat="49.15801" lon="1.32648">
        <ele>80.199996948242</ele>
        <time>2021-04-23T12:03:59.000Z</time>
      </trkpt>
      <trkpt lat="49.15797" lon="1.32657">
        <ele>79</ele>
        <time>2021-04-23T12:04:01.000Z</time>
      </trkpt>
      <trkpt lat="49.15794" lon="1.32666">
        <ele>77.599998474121</ele>
        <time>2021-04-23T12:04:03.000Z</time>
      </trkpt>
      <trkpt lat="49.15793" lon="1.3267">
        <ele>76.800003051758</ele>
        <time>2021-04-23T12:04:04.000Z</time>
      </trkpt>
      <trkpt lat="49.15792" lon="1.32674">
        <ele>75.199996948242</ele>
        <time>2021-04-23T12:04:05.000Z</time>
      </trkpt>
      <trkpt lat="49.15791" lon="1.32677">
        <ele>73.800003051758</ele>
        <time>2021-04-23T12:04:07.000Z</time>
      </trkpt>
      <trkpt lat="49.15791" lon="1.32678">
        <ele>73.199996948242</ele>
        <time>2021-04-23T12:04:08.000Z</time>
      </trkpt>
      <trkpt lat="49.15791" lon="1.32678">
        <ele>72.800003051758</ele>
        <time>2021-04-23T12:04:09.000Z</time>
      </trkpt>
      <trkpt lat="49.1579" lon="1.32678">
        <ele>70</ele>
        <time>2021-04-23T12:05:16.000Z</time>
      </trkpt>
      <trkpt lat="49.15789" lon="1.32683">
        <ele>70</ele>
        <time>2021-04-23T12:05:18.000Z</time>
      </trkpt>
      <trkpt lat="49.15784" lon="1.32706">
        <ele>70</ele>
        <time>2021-04-23T12:05:23.000Z</time>
      </trkpt>
      <trkpt lat="49.15779" lon="1.32746">
        <ele>69.599998474121</ele>
        <time>2021-04-23T12:05:31.000Z</time>
      </trkpt>
      <trkpt lat="49.15773" lon="1.32789">
        <ele>70.599998474121</ele>
        <time>2021-04-23T12:05:39.000Z</time>
      </trkpt>
      <trkpt lat="49.15771" lon="1.3281">
        <ele>71</ele>
        <time>2021-04-23T12:05:42.000Z</time>
      </trkpt>
      <trkpt lat="49.15768" lon="1.32834">
        <ele>71</ele>
        <time>2021-04-23T12:05:45.000Z</time>
      </trkpt>
      <trkpt lat="49.15766" lon="1.3287">
        <ele>71</ele>
        <time>2021-04-23T12:05:50.000Z</time>
      </trkpt>
      <trkpt lat="49.15763" lon="1.32875">
        <ele>70.800003051758</ele>
        <time>2021-04-23T12:05:52.000Z</time>
      </trkpt>
      <trkpt lat="49.15759" lon="1.32876">
        <ele>70.800003051758</ele>
        <time>2021-04-23T12:05:54.000Z</time>
      </trkpt>
      <trkpt lat="49.1575" lon="1.32874">
        <ele>70.800003051758</ele>
        <time>2021-04-23T12:05:58.000Z</time>
      </trkpt>
      <trkpt lat="49.15738" lon="1.32872">
        <ele>71.199996948242</ele>
        <time>2021-04-23T12:06:04.000Z</time>
      </trkpt>
      <trkpt lat="49.15731" lon="1.32868">
        <ele>72</ele>
        <time>2021-04-23T12:06:08.000Z</time>
      </trkpt>
      <trkpt lat="49.15726" lon="1.32864">
        <ele>72.800003051758</ele>
        <time>2021-04-23T12:06:11.000Z</time>
      </trkpt>
      <trkpt lat="49.15723" lon="1.32861">
        <ele>73.400001525879</ele>
        <time>2021-04-23T12:06:13.000Z</time>
      </trkpt>
      <trkpt lat="49.15718" lon="1.32857">
        <ele>74.400001525879</ele>
        <time>2021-04-23T12:06:16.000Z</time>
      </trkpt>
      <trkpt lat="49.15714" lon="1.32853">
        <ele>75.599998474121</ele>
        <time>2021-04-23T12:06:19.000Z</time>
      </trkpt>
      <trkpt lat="49.15713" lon="1.32852">
        <ele>76</ele>
        <time>2021-04-23T12:06:20.000Z</time>
      </trkpt>
      <trkpt lat="49.1571" lon="1.3285">
        <ele>76.599998474121</ele>
        <time>2021-04-23T12:06:22.000Z</time>
      </trkpt>
      <trkpt lat="49.15704" lon="1.32846">
        <ele>77.800003051758</ele>
        <time>2021-04-23T12:06:26.000Z</time>
      </trkpt>
      <trkpt lat="49.15701" lon="1.32843">
        <ele>78.400001525879</ele>
        <time>2021-04-23T12:06:28.000Z</time>
      </trkpt>
      <trkpt lat="49.157" lon="1.32841">
        <ele>78.800003051758</ele>
        <time>2021-04-23T12:06:29.000Z</time>
      </trkpt>
      <trkpt lat="49.15696" lon="1.32838">
        <ele>80</ele>
        <time>2021-04-23T12:06:32.000Z</time>
      </trkpt>
      <trkpt lat="49.15692" lon="1.32834">
        <ele>81.400001525879</ele>
        <time>2021-04-23T12:06:35.000Z</time>
      </trkpt>
      <trkpt lat="49.15688" lon="1.3283">
        <ele>82.599998474121</ele>
        <time>2021-04-23T12:06:38.000Z</time>
      </trkpt>
      <trkpt lat="49.15683" lon="1.32825">
        <ele>83.599998474121</ele>
        <time>2021-04-23T12:06:42.000Z</time>
      </trkpt>
      <trkpt lat="49.15679" lon="1.32818">
        <ele>84.599998474121</ele>
        <time>2021-04-23T12:06:46.000Z</time>
      </trkpt>
      <trkpt lat="49.15678" lon="1.32817">
        <ele>85</ele>
        <time>2021-04-23T12:06:47.000Z</time>
      </trkpt>
      <trkpt lat="49.15674" lon="1.32808">
        <ele>86</ele>
        <time>2021-04-23T12:06:51.000Z</time>
      </trkpt>
      <trkpt lat="49.15671" lon="1.32802">
        <ele>86.599998474121</ele>
        <time>2021-04-23T12:06:54.000Z</time>
      </trkpt>
      <trkpt lat="49.1567" lon="1.32799">
        <ele>87</ele>
        <time>2021-04-23T12:06:55.000Z</time>
      </trkpt>
      <trkpt lat="49.15667" lon="1.3279">
        <ele>88</ele>
        <time>2021-04-23T12:06:59.000Z</time>
      </trkpt>
      <trkpt lat="49.15665" lon="1.32782">
        <ele>88.800003051758</ele>
        <time>2021-04-23T12:07:02.000Z</time>
      </trkpt>
      <trkpt lat="49.15664" lon="1.3278">
        <ele>89.199996948242</ele>
        <time>2021-04-23T12:07:03.000Z</time>
      </trkpt>
      <trkpt lat="49.15657" lon="1.32764">
        <ele>90</ele>
        <time>2021-04-23T12:07:10.000Z</time>
      </trkpt>
      <trkpt lat="49.15655" lon="1.32763">
        <ele>90.199996948242</ele>
        <time>2021-04-23T12:07:11.000Z</time>
      </trkpt>
      <trkpt lat="49.15649" lon="1.32771">
        <ele>90.800003051758</ele>
        <time>2021-04-23T12:07:15.000Z</time>
      </trkpt>
      <trkpt lat="49.15647" lon="1.32774">
        <ele>90.800003051758</ele>
        <time>2021-04-23T12:07:16.000Z</time>
      </trkpt>
      <trkpt lat="49.15643" lon="1.32783">
        <ele>91.400001525879</ele>
        <time>2021-04-23T12:07:19.000Z</time>
      </trkpt>
      <trkpt lat="49.15637" lon="1.32799">
        <ele>91.800003051758</ele>
        <time>2021-04-23T12:07:23.000Z</time>
      </trkpt>
      <trkpt lat="49.15632" lon="1.32829">
        <ele>92.199996948242</ele>
        <time>2021-04-23T12:07:29.000Z</time>
      </trkpt>
      <trkpt lat="49.15628" lon="1.32856">
        <ele>92.400001525879</ele>
        <time>2021-04-23T12:07:34.000Z</time>
      </trkpt>
      <trkpt lat="49.15624" lon="1.32883">
        <ele>93</ele>
        <time>2021-04-23T12:07:39.000Z</time>
      </trkpt>
      <trkpt lat="49.15614" lon="1.32943">
        <ele>93.199996948242</ele>
        <time>2021-04-23T12:07:49.000Z</time>
      </trkpt>
      <trkpt lat="49.15613" lon="1.32956">
        <ele>93.199996948242</ele>
        <time>2021-04-23T12:07:51.000Z</time>
      </trkpt>
      <trkpt lat="49.15616" lon="1.32968">
        <ele>93.400001525879</ele>
        <time>2021-04-23T12:07:53.000Z</time>
      </trkpt>
      <trkpt lat="49.15619" lon="1.3298">
        <ele>93.400001525879</ele>
        <time>2021-04-23T12:07:55.000Z</time>
      </trkpt>
      <trkpt lat="49.15619" lon="1.32986">
        <ele>93.400001525879</ele>
        <time>2021-04-23T12:07:56.000Z</time>
      </trkpt>
      <trkpt lat="49.15619" lon="1.32992">
        <ele>93.599998474121</ele>
        <time>2021-04-23T12:07:57.000Z</time>
      </trkpt>
      <trkpt lat="49.15628" lon="1.33005">
        <ele>93.599998474121</ele>
        <time>2021-04-23T12:08:00.000Z</time>
      </trkpt>
      <trkpt lat="49.15648" lon="1.33032">
        <ele>93.599998474121</ele>
        <time>2021-04-23T12:08:04.000Z</time>
      </trkpt>
      <trkpt lat="49.15672" lon="1.33065">
        <ele>93.599998474121</ele>
        <time>2021-04-23T12:08:08.000Z</time>
      </trkpt>
      <trkpt lat="49.15676" lon="1.33072">
        <ele>93.599998474121</ele>
        <time>2021-04-23T12:08:09.000Z</time>
      </trkpt>
      <trkpt lat="49.15679" lon="1.33086">
        <ele>93</ele>
        <time>2021-04-23T12:08:11.000Z</time>
      </trkpt>
      <trkpt lat="49.15678" lon="1.33093">
        <ele>92.400001525879</ele>
        <time>2021-04-23T12:08:12.000Z</time>
      </trkpt>
      <trkpt lat="49.15677" lon="1.331">
        <ele>91.800003051758</ele>
        <time>2021-04-23T12:08:13.000Z</time>
      </trkpt>
      <trkpt lat="49.15677" lon="1.33105">
        <ele>91.199996948242</ele>
        <time>2021-04-23T12:08:14.000Z</time>
      </trkpt>
      <trkpt lat="49.15681" lon="1.33115">
        <ele>89.199996948242</ele>
        <time>2021-04-23T12:08:16.000Z</time>
      </trkpt>
      <trkpt lat="49.15683" lon="1.3312">
        <ele>88.599998474121</ele>
        <time>2021-04-23T12:08:17.000Z</time>
      </trkpt>
      <trkpt lat="49.15686" lon="1.33122">
        <ele>88</ele>
        <time>2021-04-23T12:08:18.000Z</time>
      </trkpt>
      <trkpt lat="49.15689" lon="1.33122">
        <ele>87.400001525879</ele>
        <time>2021-04-23T12:08:19.000Z</time>
      </trkpt>
      <trkpt lat="49.15693" lon="1.33119">
        <ele>87</ele>
        <time>2021-04-23T12:08:20.000Z</time>
      </trkpt>
      <trkpt lat="49.15701" lon="1.33108">
        <ele>86.400001525879</ele>
        <time>2021-04-23T12:08:22.000Z</time>
      </trkpt>
      <trkpt lat="49.1571" lon="1.33092">
        <ele>85.800003051758</ele>
        <time>2021-04-23T12:08:24.000Z</time>
      </trkpt>
      <trkpt lat="49.1572" lon="1.33069">
        <ele>85.199996948242</ele>
        <time>2021-04-23T12:08:26.000Z</time>
      </trkpt>
      <trkpt lat="49.15725" lon="1.33057">
        <ele>84.800003051758</ele>
        <time>2021-04-23T12:08:27.000Z</time>
      </trkpt>
      <trkpt lat="49.15731" lon="1.33032">
        <ele>83.599998474121</ele>
        <time>2021-04-23T12:08:29.000Z</time>
      </trkpt>
      <trkpt lat="49.15732" lon="1.33019">
        <ele>82.599998474121</ele>
        <time>2021-04-23T12:08:30.000Z</time>
      </trkpt>
      <trkpt lat="49.15734" lon="1.33007">
        <ele>81.800003051758</ele>
        <time>2021-04-23T12:08:31.000Z</time>
      </trkpt>
      <trkpt lat="49.15735" lon="1.32996">
        <ele>80.599998474121</ele>
        <time>2021-04-23T12:08:32.000Z</time>
      </trkpt>
      <trkpt lat="49.15737" lon="1.32986">
        <ele>79.400001525879</ele>
        <time>2021-04-23T12:08:33.000Z</time>
      </trkpt>
      <trkpt lat="49.15738" lon="1.32977">
        <ele>78</ele>
        <time>2021-04-23T12:08:34.000Z</time>
      </trkpt>
      <trkpt lat="49.15739" lon="1.32969">
        <ele>76.199996948242</ele>
        <time>2021-04-23T12:08:35.000Z</time>
      </trkpt>
      <trkpt lat="49.1574" lon="1.32961">
        <ele>74.800003051758</ele>
        <time>2021-04-23T12:08:36.000Z</time>
      </trkpt>
      <trkpt lat="49.15742" lon="1.32953">
        <ele>73.599998474121</ele>
        <time>2021-04-23T12:08:37.000Z</time>
      </trkpt>
      <trkpt lat="49.15744" lon="1.32945">
        <ele>72.599998474121</ele>
        <time>2021-04-23T12:08:38.000Z</time>
      </trkpt>
      <trkpt lat="49.15748" lon="1.32936">
        <ele>72</ele>
        <time>2021-04-23T12:08:39.000Z</time>
      </trkpt>
      <trkpt lat="49.15751" lon="1.32928">
        <ele>71.599998474121</ele>
        <time>2021-04-23T12:08:40.000Z</time>
      </trkpt>
      <trkpt lat="49.15757" lon="1.32922">
        <ele>71.199996948242</ele>
        <time>2021-04-23T12:08:42.000Z</time>
      </trkpt>
      <trkpt lat="49.15762" lon="1.32926">
        <ele>71</ele>
        <time>2021-04-23T12:08:44.000Z</time>
      </trkpt>
      <trkpt lat="49.15763" lon="1.32931">
        <ele>70.800003051758</ele>
        <time>2021-04-23T12:08:45.000Z</time>
      </trkpt>
      <trkpt lat="49.15767" lon="1.32956">
        <ele>70</ele>
        <time>2021-04-23T12:08:50.000Z</time>
      </trkpt>
      <trkpt lat="49.15769" lon="1.32962">
        <ele>69.800003051758</ele>
        <time>2021-04-23T12:08:51.000Z</time>
      </trkpt>
      <trkpt lat="49.1577" lon="1.32979">
        <ele>68.800003051758</ele>
        <time>2021-04-23T12:08:53.000Z</time>
      </trkpt>
      <trkpt lat="49.15773" lon="1.3299">
        <ele>68.199996948242</ele>
        <time>2021-04-23T12:08:54.000Z</time>
      </trkpt>
      <trkpt lat="49.15779" lon="1.33">
        <ele>67.400001525879</ele>
        <time>2021-04-23T12:08:55.000Z</time>
      </trkpt>
      <trkpt lat="49.15785" lon="1.33008">
        <ele>66.800003051758</ele>
        <time>2021-04-23T12:08:56.000Z</time>
      </trkpt>
      <trkpt lat="49.15793" lon="1.33013">
        <ele>66</ele>
        <time>2021-04-23T12:08:57.000Z</time>
      </trkpt>
      <trkpt lat="49.15801" lon="1.33014">
        <ele>65.400001525879</ele>
        <time>2021-04-23T12:08:58.000Z</time>
      </trkpt>
      <trkpt lat="49.15814" lon="1.33003">
        <ele>64</ele>
        <time>2021-04-23T12:09:00.000Z</time>
      </trkpt>
      <trkpt lat="49.15826" lon="1.32984">
        <ele>62.200000762939</ele>
        <time>2021-04-23T12:09:02.000Z</time>
      </trkpt>
      <trkpt lat="49.15832" lon="1.32976">
        <ele>61</ele>
        <time>2021-04-23T12:09:03.000Z</time>
      </trkpt>
      <trkpt lat="49.15837" lon="1.32967">
        <ele>59.599998474121</ele>
        <time>2021-04-23T12:09:04.000Z</time>
      </trkpt>
      <trkpt lat="49.15842" lon="1.32959">
        <ele>58.599998474121</ele>
        <time>2021-04-23T12:09:05.000Z</time>
      </trkpt>
      <trkpt lat="49.15847" lon="1.32953">
        <ele>57.400001525879</ele>
        <time>2021-04-23T12:09:06.000Z</time>
      </trkpt>
      <trkpt lat="49.15852" lon="1.3295">
        <ele>56.400001525879</ele>
        <time>2021-04-23T12:09:07.000Z</time>
      </trkpt>
      <trkpt lat="49.15863" lon="1.32948">
        <ele>54.599998474121</ele>
        <time>2021-04-23T12:09:09.000Z</time>
      </trkpt>
      <trkpt lat="49.1587" lon="1.32948">
        <ele>53.799999237061</ele>
        <time>2021-04-23T12:09:10.000Z</time>
      </trkpt>
      <trkpt lat="49.15877" lon="1.32947">
        <ele>53</ele>
        <time>2021-04-23T12:09:11.000Z</time>
      </trkpt>
      <trkpt lat="49.15892" lon="1.32945">
        <ele>51.799999237061</ele>
        <time>2021-04-23T12:09:13.000Z</time>
      </trkpt>
      <trkpt lat="49.15899" lon="1.32946">
        <ele>51.200000762939</ele>
        <time>2021-04-23T12:09:14.000Z</time>
      </trkpt>
      <trkpt lat="49.15906" lon="1.32947">
        <ele>50.400001525879</ele>
        <time>2021-04-23T12:09:15.000Z</time>
      </trkpt>
      <trkpt lat="49.15911" lon="1.32949">
        <ele>49.799999237061</ele>
        <time>2021-04-23T12:09:16.000Z</time>
      </trkpt>
      <trkpt lat="49.15916" lon="1.32953">
        <ele>49.400001525879</ele>
        <time>2021-04-23T12:09:17.000Z</time>
      </trkpt>
      <trkpt lat="49.15918" lon="1.32958">
        <ele>48.200000762939</ele>
        <time>2021-04-23T12:09:18.000Z</time>
      </trkpt>
      <trkpt lat="49.15918" lon="1.32972">
        <ele>46.799999237061</ele>
        <time>2021-04-23T12:09:20.000Z</time>
      </trkpt>
      <trkpt lat="49.15916" lon="1.32986">
        <ele>45.400001525879</ele>
        <time>2021-04-23T12:09:22.000Z</time>
      </trkpt>
      <trkpt lat="49.15912" lon="1.32998">
        <ele>44</ele>
        <time>2021-04-23T12:09:24.000Z</time>
      </trkpt>
      <trkpt lat="49.15908" lon="1.33012">
        <ele>43.200000762939</ele>
        <time>2021-04-23T12:09:26.000Z</time>
      </trkpt>
      <trkpt lat="49.15906" lon="1.33028">
        <ele>42.200000762939</ele>
        <time>2021-04-23T12:09:28.000Z</time>
      </trkpt>
      <trkpt lat="49.15904" lon="1.33037">
        <ele>42</ele>
        <time>2021-04-23T12:09:29.000Z</time>
      </trkpt>
      <trkpt lat="49.159" lon="1.33061">
        <ele>40.799999237061</ele>
        <time>2021-04-23T12:09:32.000Z</time>
      </trkpt>
      <trkpt lat="49.15899" lon="1.33077">
        <ele>40.200000762939</ele>
        <time>2021-04-23T12:09:34.000Z</time>
      </trkpt>
      <trkpt lat="49.15897" lon="1.33092">
        <ele>39.799999237061</ele>
        <time>2021-04-23T12:09:36.000Z</time>
      </trkpt>
      <trkpt lat="49.15897" lon="1.331">
        <ele>39.599998474121</ele>
        <time>2021-04-23T12:09:37.000Z</time>
      </trkpt>
      <trkpt lat="49.15895" lon="1.33124">
        <ele>39</ele>
        <time>2021-04-23T12:09:40.000Z</time>
      </trkpt>
      <trkpt lat="49.15893" lon="1.3313">
        <ele>39</ele>
        <time>2021-04-23T12:09:41.000Z</time>
      </trkpt>
      <trkpt lat="49.15887" lon="1.3314">
        <ele>38.799999237061</ele>
        <time>2021-04-23T12:09:43.000Z</time>
      </trkpt>
      <trkpt lat="49.15884" lon="1.33145">
        <ele>38.799999237061</ele>
        <time>2021-04-23T12:09:44.000Z</time>
      </trkpt>
      <trkpt lat="49.15877" lon="1.33168">
        <ele>38.799999237061</ele>
        <time>2021-04-23T12:09:48.000Z</time>
      </trkpt>
      <trkpt lat="49.15861" lon="1.33227">
        <ele>40</ele>
        <time>2021-04-23T12:09:57.000Z</time>
      </trkpt>
      <trkpt lat="49.15859" lon="1.33234">
        <ele>40.200000762939</ele>
        <time>2021-04-23T12:09:58.000Z</time>
      </trkpt>
      <trkpt lat="49.15856" lon="1.33248">
        <ele>40.400001525879</ele>
        <time>2021-04-23T12:10:00.000Z</time>
      </trkpt>
      <trkpt lat="49.15852" lon="1.33271">
        <ele>40.400001525879</ele>
        <time>2021-04-23T12:10:03.000Z</time>
      </trkpt>
      <trkpt lat="49.15843" lon="1.33321">
        <ele>40.400001525879</ele>
        <time>2021-04-23T12:10:10.000Z</time>
      </trkpt>
      <trkpt lat="49.15842" lon="1.33325">
        <ele>40.400001525879</ele>
        <time>2021-04-23T12:10:12.000Z</time>
      </trkpt>
      <trkpt lat="49.15841" lon="1.33325">
        <ele>40.200000762939</ele>
        <time>2021-04-23T12:10:13.000Z</time>
      </trkpt>
      <trkpt lat="49.1584" lon="1.33326">
        <ele>40</ele>
        <time>2021-04-23T12:10:15.000Z</time>
      </trkpt>
      <trkpt lat="49.15837" lon="1.33334">
        <ele>39.599998474121</ele>
        <time>2021-04-23T12:10:17.000Z</time>
      </trkpt>
      <trkpt lat="49.15827" lon="1.33357">
        <ele>39.200000762939</ele>
        <time>2021-04-23T12:10:21.000Z</time>
      </trkpt>
      <trkpt lat="49.15824" lon="1.33363">
        <ele>39</ele>
        <time>2021-04-23T12:10:22.000Z</time>
      </trkpt>
      <trkpt lat="49.1582" lon="1.33369">
        <ele>39</ele>
        <time>2021-04-23T12:10:23.000Z</time>
      </trkpt>
      <trkpt lat="49.1581" lon="1.33386">
        <ele>38.599998474121</ele>
        <time>2021-04-23T12:10:26.000Z</time>
      </trkpt>
      <trkpt lat="49.15804" lon="1.33397">
        <ele>38.200000762939</ele>
        <time>2021-04-23T12:10:28.000Z</time>
      </trkpt>
      <trkpt lat="49.15804" lon="1.33404">
        <ele>37.799999237061</ele>
        <time>2021-04-23T12:10:29.000Z</time>
      </trkpt>
      <trkpt lat="49.15807" lon="1.3341">
        <ele>37.599998474121</ele>
        <time>2021-04-23T12:10:30.000Z</time>
      </trkpt>
      <trkpt lat="49.15816" lon="1.33422">
        <ele>36.599998474121</ele>
        <time>2021-04-23T12:10:32.000Z</time>
      </trkpt>
      <trkpt lat="49.15826" lon="1.33435">
        <ele>35.400001525879</ele>
        <time>2021-04-23T12:10:34.000Z</time>
      </trkpt>
      <trkpt lat="49.15859" lon="1.33475">
        <ele>34.599998474121</ele>
        <time>2021-04-23T12:10:40.000Z</time>
      </trkpt>
      <trkpt lat="49.15869" lon="1.33488">
        <ele>34.400001525879</ele>
        <time>2021-04-23T12:10:42.000Z</time>
      </trkpt>
      <trkpt lat="49.15874" lon="1.33493">
        <ele>34.200000762939</ele>
        <time>2021-04-23T12:10:43.000Z</time>
      </trkpt>
      <trkpt lat="49.15876" lon="1.335">
        <ele>33.799999237061</ele>
        <time>2021-04-23T12:10:44.000Z</time>
      </trkpt>
      <trkpt lat="49.15875" lon="1.33515">
        <ele>33.200000762939</ele>
        <time>2021-04-23T12:10:46.000Z</time>
      </trkpt>
      <trkpt lat="49.15872" lon="1.33523">
        <ele>33</ele>
        <time>2021-04-23T12:10:47.000Z</time>
      </trkpt>
      <trkpt lat="49.1587" lon="1.33531">
        <ele>32.599998474121</ele>
        <time>2021-04-23T12:10:48.000Z</time>
      </trkpt>
      <trkpt lat="49.15865" lon="1.33548">
        <ele>32</ele>
        <time>2021-04-23T12:10:50.000Z</time>
      </trkpt>
      <trkpt lat="49.15854" lon="1.33583">
        <ele>31.39999961853</ele>
        <time>2021-04-23T12:10:54.000Z</time>
      </trkpt>
      <trkpt lat="49.15847" lon="1.33598">
        <ele>31</ele>
        <time>2021-04-23T12:10:56.000Z</time>
      </trkpt>
      <trkpt lat="49.15831" lon="1.33626">
        <ele>29.799999237061</ele>
        <time>2021-04-23T12:11:00.000Z</time>
      </trkpt>
      <trkpt lat="49.15818" lon="1.33642">
        <ele>29.39999961853</ele>
        <time>2021-04-23T12:11:03.000Z</time>
      </trkpt>
      <trkpt lat="49.1579" lon="1.33681">
        <ele>29</ele>
        <time>2021-04-23T12:11:10.000Z</time>
      </trkpt>
      <trkpt lat="49.15786" lon="1.33685">
        <ele>29</ele>
        <time>2021-04-23T12:11:11.000Z</time>
      </trkpt>
      <trkpt lat="49.15773" lon="1.33692">
        <ele>29</ele>
        <time>2021-04-23T12:11:14.000Z</time>
      </trkpt>
      <trkpt lat="49.15769" lon="1.33694">
        <ele>29.200000762939</ele>
        <time>2021-04-23T12:11:15.000Z</time>
      </trkpt>
      <trkpt lat="49.1574" lon="1.33705">
        <ele>30.799999237061</ele>
        <time>2021-04-23T12:11:22.000Z</time>
      </trkpt>
      <trkpt lat="49.15736" lon="1.33706">
        <ele>30.799999237061</ele>
        <time>2021-04-23T12:11:23.000Z</time>
      </trkpt>
      <trkpt lat="49.1571" lon="1.33716">
        <ele>31.799999237061</ele>
        <time>2021-04-23T12:11:30.000Z</time>
      </trkpt>
      <trkpt lat="49.15706" lon="1.33716">
        <ele>32</ele>
        <time>2021-04-23T12:11:31.000Z</time>
      </trkpt>
      <trkpt lat="49.15688" lon="1.3372">
        <ele>33</ele>
        <time>2021-04-23T12:11:36.000Z</time>
      </trkpt>
      <trkpt lat="49.15677" lon="1.33722">
        <ele>33.400001525879</ele>
        <time>2021-04-23T12:11:39.000Z</time>
      </trkpt>
      <trkpt lat="49.15666" lon="1.33723">
        <ele>34</ele>
        <time>2021-04-23T12:11:42.000Z</time>
      </trkpt>
      <trkpt lat="49.1565" lon="1.33724">
        <ele>35</ele>
        <time>2021-04-23T12:11:46.000Z</time>
      </trkpt>
      <trkpt lat="49.15646" lon="1.33724">
        <ele>35.200000762939</ele>
        <time>2021-04-23T12:11:47.000Z</time>
      </trkpt>
      <trkpt lat="49.15624" lon="1.33725">
        <ele>36.200000762939</ele>
        <time>2021-04-23T12:11:53.000Z</time>
      </trkpt>
      <trkpt lat="49.15601" lon="1.3372">
        <ele>37.599998474121</ele>
        <time>2021-04-23T12:11:59.000Z</time>
      </trkpt>
      <trkpt lat="49.15594" lon="1.33718">
        <ele>38</ele>
        <time>2021-04-23T12:12:01.000Z</time>
      </trkpt>
      <trkpt lat="49.15591" lon="1.33718">
        <ele>38.200000762939</ele>
        <time>2021-04-23T12:12:02.000Z</time>
      </trkpt>
      <trkpt lat="49.15586" lon="1.33725">
        <ele>38.599998474121</ele>
        <time>2021-04-23T12:12:04.000Z</time>
      </trkpt>
      <trkpt lat="49.15584" lon="1.3373">
        <ele>38.599998474121</ele>
        <time>2021-04-23T12:12:05.000Z</time>
      </trkpt>
      <trkpt lat="49.15573" lon="1.33748">
        <ele>39.400001525879</ele>
        <time>2021-04-23T12:12:09.000Z</time>
      </trkpt>
      <trkpt lat="49.15569" lon="1.3375">
        <ele>39.599998474121</ele>
        <time>2021-04-23T12:12:10.000Z</time>
      </trkpt>
      <trkpt lat="49.15551" lon="1.33747">
        <ele>39.799999237061</ele>
        <time>2021-04-23T12:12:14.000Z</time>
      </trkpt>
      <trkpt lat="49.15547" lon="1.33745">
        <ele>39.799999237061</ele>
        <time>2021-04-23T12:12:15.000Z</time>
      </trkpt>
      <trkpt lat="49.15519" lon="1.3373">
        <ele>40.599998474121</ele>
        <time>2021-04-23T12:12:21.000Z</time>
      </trkpt>
      <trkpt lat="49.15515" lon="1.33728">
        <ele>40.599998474121</ele>
        <time>2021-04-23T12:12:22.000Z</time>
      </trkpt>
      <trkpt lat="49.15496" lon="1.33719">
        <ele>40.799999237061</ele>
        <time>2021-04-23T12:12:26.000Z</time>
      </trkpt>
      <trkpt lat="49.15491" lon="1.33717">
        <ele>41</ele>
        <time>2021-04-23T12:12:27.000Z</time>
      </trkpt>
      <trkpt lat="49.15481" lon="1.33717">
        <ele>41</ele>
        <time>2021-04-23T12:12:29.000Z</time>
      </trkpt>
      <trkpt lat="49.15476" lon="1.33723">
        <ele>41</ele>
        <time>2021-04-23T12:12:30.000Z</time>
      </trkpt>
      <trkpt lat="49.15474" lon="1.33754">
        <ele>41</ele>
        <time>2021-04-23T12:12:33.000Z</time>
      </trkpt>
      <trkpt lat="49.15475" lon="1.33765">
        <ele>41</ele>
        <time>2021-04-23T12:12:34.000Z</time>
      </trkpt>
      <trkpt lat="49.1548" lon="1.33815">
        <ele>39.599998474121</ele>
        <time>2021-04-23T12:12:39.000Z</time>
      </trkpt>
      <trkpt lat="49.1548" lon="1.33834">
        <ele>38.200000762939</ele>
        <time>2021-04-23T12:12:41.000Z</time>
      </trkpt>
      <trkpt lat="49.15479" lon="1.33852">
        <ele>37.200000762939</ele>
        <time>2021-04-23T12:12:43.000Z</time>
      </trkpt>
      <trkpt lat="49.15478" lon="1.33871">
        <ele>36.599998474121</ele>
        <time>2021-04-23T12:12:45.000Z</time>
      </trkpt>
      <trkpt lat="49.15471" lon="1.33908">
        <ele>36.200000762939</ele>
        <time>2021-04-23T12:12:49.000Z</time>
      </trkpt>
      <trkpt lat="49.15464" lon="1.33934">
        <ele>36</ele>
        <time>2021-04-23T12:12:52.000Z</time>
      </trkpt>
      <trkpt lat="49.15449" lon="1.33981">
        <ele>35.599998474121</ele>
        <time>2021-04-23T12:12:58.000Z</time>
      </trkpt>
      <trkpt lat="49.1543" lon="1.34032">
        <ele>35.400001525879</ele>
        <time>2021-04-23T12:13:05.000Z</time>
      </trkpt>
      <trkpt lat="49.15424" lon="1.34045">
        <ele>35.400001525879</ele>
        <time>2021-04-23T12:13:07.000Z</time>
      </trkpt>
      <trkpt lat="49.1542" lon="1.34048">
        <ele>35.599998474121</ele>
        <time>2021-04-23T12:13:08.000Z</time>
      </trkpt>
      <trkpt lat="49.15408" lon="1.34039">
        <ele>35.599998474121</ele>
        <time>2021-04-23T12:13:11.000Z</time>
      </trkpt>
      <trkpt lat="49.15404" lon="1.34035">
        <ele>35.599998474121</ele>
        <time>2021-04-23T12:13:12.000Z</time>
      </trkpt>
      <trkpt lat="49.15382" lon="1.34011">
        <ele>36.599998474121</ele>
        <time>2021-04-23T12:13:18.000Z</time>
      </trkpt>
      <trkpt lat="49.15373" lon="1.34">
        <ele>37.200000762939</ele>
        <time>2021-04-23T12:13:21.000Z</time>
      </trkpt>
      <trkpt lat="49.15359" lon="1.33988">
        <ele>38</ele>
        <time>2021-04-23T12:13:25.000Z</time>
      </trkpt>
      <trkpt lat="49.15353" lon="1.33983">
        <ele>38.400001525879</ele>
        <time>2021-04-23T12:13:27.000Z</time>
      </trkpt>
      <trkpt lat="49.15337" lon="1.33972">
        <ele>39.400001525879</ele>
        <time>2021-04-23T12:13:32.000Z</time>
      </trkpt>
      <trkpt lat="49.15334" lon="1.33969">
        <ele>39.799999237061</ele>
        <time>2021-04-23T12:13:33.000Z</time>
      </trkpt>
      <trkpt lat="49.15332" lon="1.33967">
        <ele>40.400001525879</ele>
        <time>2021-04-23T12:13:34.000Z</time>
      </trkpt>
      <trkpt lat="49.15318" lon="1.33959">
        <ele>41.599998474121</ele>
        <time>2021-04-23T12:13:39.000Z</time>
      </trkpt>
      <trkpt lat="49.15315" lon="1.33957">
        <ele>41.799999237061</ele>
        <time>2021-04-23T12:13:40.000Z</time>
      </trkpt>
      <trkpt lat="49.15308" lon="1.33951">
        <ele>43</ele>
        <time>2021-04-23T12:13:43.000Z</time>
      </trkpt>
      <trkpt lat="49.15298" lon="1.33943">
        <ele>44.200000762939</ele>
        <time>2021-04-23T12:13:47.000Z</time>
      </trkpt>
      <trkpt lat="49.15294" lon="1.3394">
        <ele>44.400001525879</ele>
        <time>2021-04-23T12:13:49.000Z</time>
      </trkpt>
      <trkpt lat="49.15292" lon="1.33941">
        <ele>44.799999237061</ele>
        <time>2021-04-23T12:13:50.000Z</time>
      </trkpt>
      <trkpt lat="49.1529" lon="1.33948">
        <ele>45.400001525879</ele>
        <time>2021-04-23T12:13:52.000Z</time>
      </trkpt>
      <trkpt lat="49.15284" lon="1.33973">
        <ele>46.400001525879</ele>
        <time>2021-04-23T12:13:57.000Z</time>
      </trkpt>
      <trkpt lat="49.15276" lon="1.34004">
        <ele>46.599998474121</ele>
        <time>2021-04-23T12:14:03.000Z</time>
      </trkpt>
      <trkpt lat="49.15267" lon="1.34039">
        <ele>46.400001525879</ele>
        <time>2021-04-23T12:14:08.000Z</time>
      </trkpt>
      <trkpt lat="49.15261" lon="1.34062">
        <ele>45.400001525879</ele>
        <time>2021-04-23T12:14:11.000Z</time>
      </trkpt>
      <trkpt lat="49.15256" lon="1.34085">
        <ele>44.200000762939</ele>
        <time>2021-04-23T12:14:14.000Z</time>
      </trkpt>
      <trkpt lat="49.1525" lon="1.3411">
        <ele>43.200000762939</ele>
        <time>2021-04-23T12:14:17.000Z</time>
      </trkpt>
      <trkpt lat="49.15244" lon="1.34134">
        <ele>42.599998474121</ele>
        <time>2021-04-23T12:14:20.000Z</time>
      </trkpt>
      <trkpt lat="49.15241" lon="1.34158">
        <ele>42.200000762939</ele>
        <time>2021-04-23T12:14:23.000Z</time>
      </trkpt>
      <trkpt lat="49.15238" lon="1.34179">
        <ele>41.599998474121</ele>
        <time>2021-04-23T12:14:26.000Z</time>
      </trkpt>
      <trkpt lat="49.15237" lon="1.34186">
        <ele>41.400001525879</ele>
        <time>2021-04-23T12:14:27.000Z</time>
      </trkpt>
      <trkpt lat="49.15235" lon="1.34202">
        <ele>41.200000762939</ele>
        <time>2021-04-23T12:14:30.000Z</time>
      </trkpt>
      <trkpt lat="49.15234" lon="1.34207">
        <ele>41</ele>
        <time>2021-04-23T12:14:31.000Z</time>
      </trkpt>
      <trkpt lat="49.15234" lon="1.34225">
        <ele>40.400001525879</ele>
        <time>2021-04-23T12:14:34.000Z</time>
      </trkpt>
      <trkpt lat="49.15233" lon="1.34231">
        <ele>40.200000762939</ele>
        <time>2021-04-23T12:14:35.000Z</time>
      </trkpt>
      <trkpt lat="49.15231" lon="1.34237">
        <ele>40</ele>
        <time>2021-04-23T12:14:36.000Z</time>
      </trkpt>
      <trkpt lat="49.15229" lon="1.34243">
        <ele>40</ele>
        <time>2021-04-23T12:14:37.000Z</time>
      </trkpt>
      <trkpt lat="49.15228" lon="1.34249">
        <ele>39.799999237061</ele>
        <time>2021-04-23T12:14:38.000Z</time>
      </trkpt>
      <trkpt lat="49.15226" lon="1.34269">
        <ele>39.400001525879</ele>
        <time>2021-04-23T12:14:41.000Z</time>
      </trkpt>
      <trkpt lat="49.15225" lon="1.34277">
        <ele>39.200000762939</ele>
        <time>2021-04-23T12:14:42.000Z</time>
      </trkpt>
      <trkpt lat="49.15225" lon="1.34286">
        <ele>38.799999237061</ele>
        <time>2021-04-23T12:14:43.000Z</time>
      </trkpt>
      <trkpt lat="49.15224" lon="1.34314">
        <ele>37.799999237061</ele>
        <time>2021-04-23T12:14:46.000Z</time>
      </trkpt>
      <trkpt lat="49.15224" lon="1.34333">
        <ele>37.400001525879</ele>
        <time>2021-04-23T12:14:48.000Z</time>
      </trkpt>
      <trkpt lat="49.15231" lon="1.34344">
        <ele>37.200000762939</ele>
        <time>2021-04-23T12:14:50.000Z</time>
      </trkpt>
      <trkpt lat="49.15241" lon="1.34354">
        <ele>36.599998474121</ele>
        <time>2021-04-23T12:14:52.000Z</time>
      </trkpt>
      <trkpt lat="49.15254" lon="1.34369">
        <ele>36</ele>
        <time>2021-04-23T12:14:55.000Z</time>
      </trkpt>
      <trkpt lat="49.15254" lon="1.34387">
        <ele>35.599998474121</ele>
        <time>2021-04-23T12:14:58.000Z</time>
      </trkpt>
      <trkpt lat="49.15251" lon="1.34393">
        <ele>35.599998474121</ele>
        <time>2021-04-23T12:14:59.000Z</time>
      </trkpt>
      <trkpt lat="49.15247" lon="1.34399">
        <ele>35.200000762939</ele>
        <time>2021-04-23T12:15:00.000Z</time>
      </trkpt>
      <trkpt lat="49.15239" lon="1.34411">
        <ele>35</ele>
        <time>2021-04-23T12:15:02.000Z</time>
      </trkpt>
      <trkpt lat="49.15234" lon="1.34417">
        <ele>34.799999237061</ele>
        <time>2021-04-23T12:15:03.000Z</time>
      </trkpt>
      <trkpt lat="49.1523" lon="1.34423">
        <ele>34.599998474121</ele>
        <time>2021-04-23T12:15:04.000Z</time>
      </trkpt>
      <trkpt lat="49.15226" lon="1.3443">
        <ele>34.200000762939</ele>
        <time>2021-04-23T12:15:05.000Z</time>
      </trkpt>
      <trkpt lat="49.15216" lon="1.34449">
        <ele>33.799999237061</ele>
        <time>2021-04-23T12:15:08.000Z</time>
      </trkpt>
      <trkpt lat="49.15207" lon="1.34468">
        <ele>33</ele>
        <time>2021-04-23T12:15:11.000Z</time>
      </trkpt>
      <trkpt lat="49.15193" lon="1.34504">
        <ele>31.60000038147</ele>
        <time>2021-04-23T12:15:15.000Z</time>
      </trkpt>
      <trkpt lat="49.15185" lon="1.34515">
        <ele>31.200000762939</ele>
        <time>2021-04-23T12:15:17.000Z</time>
      </trkpt>
      <trkpt lat="49.15177" lon="1.34525">
        <ele>31</ele>
        <time>2021-04-23T12:15:19.000Z</time>
      </trkpt>
      <trkpt lat="49.15163" lon="1.34544">
        <ele>31</ele>
        <time>2021-04-23T12:15:23.000Z</time>
      </trkpt>
      <trkpt lat="49.15157" lon="1.34554">
        <ele>31</ele>
        <time>2021-04-23T12:15:25.000Z</time>
      </trkpt>
      <trkpt lat="49.15145" lon="1.34572">
        <ele>31.799999237061</ele>
        <time>2021-04-23T12:15:29.000Z</time>
      </trkpt>
      <trkpt lat="49.15136" lon="1.34585">
        <ele>32.599998474121</ele>
        <time>2021-04-23T12:15:32.000Z</time>
      </trkpt>
      <trkpt lat="49.15124" lon="1.34601">
        <ele>33.599998474121</ele>
        <time>2021-04-23T12:15:36.000Z</time>
      </trkpt>
      <trkpt lat="49.15115" lon="1.34613">
        <ele>34</ele>
        <time>2021-04-23T12:15:39.000Z</time>
      </trkpt>
      <trkpt lat="49.15098" lon="1.34636">
        <ele>34.799999237061</ele>
        <time>2021-04-23T12:15:45.000Z</time>
      </trkpt>
      <trkpt lat="49.1509" lon="1.34647">
        <ele>35.200000762939</ele>
        <time>2021-04-23T12:15:48.000Z</time>
      </trkpt>
      <trkpt lat="49.15074" lon="1.34668">
        <ele>35.799999237061</ele>
        <time>2021-04-23T12:15:54.000Z</time>
      </trkpt>
      <trkpt lat="49.15063" lon="1.34682">
        <ele>36.599998474121</ele>
        <time>2021-04-23T12:15:58.000Z</time>
      </trkpt>
      <trkpt lat="49.15061" lon="1.34685">
        <ele>36.799999237061</ele>
        <time>2021-04-23T12:15:59.000Z</time>
      </trkpt>
      <trkpt lat="49.15036" lon="1.34719">
        <ele>37.599998474121</ele>
        <time>2021-04-23T12:16:08.000Z</time>
      </trkpt>
      <trkpt lat="49.15025" lon="1.34734">
        <ele>38</ele>
        <time>2021-04-23T12:16:12.000Z</time>
      </trkpt>
      <trkpt lat="49.15016" lon="1.34747">
        <ele>38.200000762939</ele>
        <time>2021-04-23T12:16:15.000Z</time>
      </trkpt>
      <trkpt lat="49.14994" lon="1.34778">
        <ele>38.799999237061</ele>
        <time>2021-04-23T12:16:22.000Z</time>
      </trkpt>
      <trkpt lat="49.14984" lon="1.34794">
        <ele>39</ele>
        <time>2021-04-23T12:16:25.000Z</time>
      </trkpt>
      <trkpt lat="49.14982" lon="1.34799">
        <ele>39.200000762939</ele>
        <time>2021-04-23T12:16:26.000Z</time>
      </trkpt>
      <trkpt lat="49.1498" lon="1.34812">
        <ele>39.200000762939</ele>
        <time>2021-04-23T12:16:28.000Z</time>
      </trkpt>
      <trkpt lat="49.14978" lon="1.34842">
        <ele>39.400001525879</ele>
        <time>2021-04-23T12:16:32.000Z</time>
      </trkpt>
      <trkpt lat="49.14979" lon="1.3485">
        <ele>39.400001525879</ele>
        <time>2021-04-23T12:16:33.000Z</time>
      </trkpt>
      <trkpt lat="49.14984" lon="1.34876">
        <ele>39.400001525879</ele>
        <time>2021-04-23T12:16:36.000Z</time>
      </trkpt>
      <trkpt lat="49.14985" lon="1.34885">
        <ele>39.400001525879</ele>
        <time>2021-04-23T12:16:37.000Z</time>
      </trkpt>
      <trkpt lat="49.14981" lon="1.349">
        <ele>39.200000762939</ele>
        <time>2021-04-23T12:16:39.000Z</time>
      </trkpt>
      <trkpt lat="49.14972" lon="1.34905">
        <ele>38.799999237061</ele>
        <time>2021-04-23T12:16:41.000Z</time>
      </trkpt>
      <trkpt lat="49.14966" lon="1.34904">
        <ele>38.400001525879</ele>
        <time>2021-04-23T12:16:42.000Z</time>
      </trkpt>
      <trkpt lat="49.14961" lon="1.34906">
        <ele>38.200000762939</ele>
        <time>2021-04-23T12:16:43.000Z</time>
      </trkpt>
      <trkpt lat="49.14958" lon="1.3491">
        <ele>38</ele>
        <time>2021-04-23T12:16:44.000Z</time>
      </trkpt>
    </trkseg>
  </trk>
</gpx>